<?xml version="1.0" encoding="UTF-8" standalone="no" ?>
<gpx xmlns="http://www.topografix.com/GPX/1/1" xmlns:xsi="http://www.w3.org/2001/XMLSchema-instance" xsi:schemaLocation="http://www.topografix.com/GPX/1/1 http://www.topografix.com/GPX/1/1/gpx.xsd" version="1.1" creator="VisuGPX - https://www.visugpx.com">
  <metadata>
    <name>Pornichet 28/06/2020</name>
    <desc><![CDATA[Sortie VTT dimanche 28 juin 2020]]></desc>
  </metadata>
  <trk>
    <name><![CDATA[Pornichet Cyclisme]]></name>
    <trkseg>
      <trkpt lat="47.26409" lon="-2.31587">
        <ele>5.1999998092651</ele>
        <time>2020-06-28T06:53:23.000Z</time>
      </trkpt>
      <trkpt lat="47.26409" lon="-2.31599">
        <ele>5.1999998092651</ele>
        <time>2020-06-28T06:53:26.000Z</time>
      </trkpt>
      <trkpt lat="47.26409" lon="-2.31604">
        <ele>5.4000000953674</ele>
        <time>2020-06-28T06:53:27.000Z</time>
      </trkpt>
      <trkpt lat="47.26409" lon="-2.31608">
        <ele>5.4000000953674</ele>
        <time>2020-06-28T06:53:28.000Z</time>
      </trkpt>
      <trkpt lat="47.26411" lon="-2.31652">
        <ele>5.4000000953674</ele>
        <time>2020-06-28T06:53:36.000Z</time>
      </trkpt>
      <trkpt lat="47.26408" lon="-2.3166">
        <ele>5.4000000953674</ele>
        <time>2020-06-28T06:53:38.000Z</time>
      </trkpt>
      <trkpt lat="47.26405" lon="-2.31662">
        <ele>5.4000000953674</ele>
        <time>2020-06-28T06:53:39.000Z</time>
      </trkpt>
      <trkpt lat="47.26395" lon="-2.31669">
        <ele>5.4000000953674</ele>
        <time>2020-06-28T06:53:42.000Z</time>
      </trkpt>
      <trkpt lat="47.26386" lon="-2.31674">
        <ele>5.4000000953674</ele>
        <time>2020-06-28T06:53:44.000Z</time>
      </trkpt>
      <trkpt lat="47.26352" lon="-2.31697">
        <ele>5.4000000953674</ele>
        <time>2020-06-28T06:53:51.000Z</time>
      </trkpt>
      <trkpt lat="47.26342" lon="-2.31702">
        <ele>5</ele>
        <time>2020-06-28T06:53:53.000Z</time>
      </trkpt>
      <trkpt lat="47.26338" lon="-2.31704">
        <ele>4.5999999046326</ele>
        <time>2020-06-28T06:53:54.000Z</time>
      </trkpt>
      <trkpt lat="47.26333" lon="-2.31705">
        <ele>4.1999998092651</ele>
        <time>2020-06-28T06:53:55.000Z</time>
      </trkpt>
      <trkpt lat="47.26329" lon="-2.31707">
        <ele>3.7999999523163</ele>
        <time>2020-06-28T06:53:56.000Z</time>
      </trkpt>
      <trkpt lat="47.26324" lon="-2.31709">
        <ele>3.4000000953674</ele>
        <time>2020-06-28T06:53:57.000Z</time>
      </trkpt>
      <trkpt lat="47.26303" lon="-2.3172">
        <ele>3</ele>
        <time>2020-06-28T06:54:02.000Z</time>
      </trkpt>
      <trkpt lat="47.26301" lon="-2.31722">
        <ele>2.5999999046326</ele>
        <time>2020-06-28T06:54:03.000Z</time>
      </trkpt>
      <trkpt lat="47.26301" lon="-2.31725">
        <ele>2</ele>
        <time>2020-06-28T06:54:04.000Z</time>
      </trkpt>
      <trkpt lat="47.26303" lon="-2.3173">
        <ele>1.6000000238419</ele>
        <time>2020-06-28T06:54:05.000Z</time>
      </trkpt>
      <trkpt lat="47.26304" lon="-2.31736">
        <ele>1.2000000476837</ele>
        <time>2020-06-28T06:54:06.000Z</time>
      </trkpt>
      <trkpt lat="47.26305" lon="-2.31746">
        <ele>1.2000000476837</ele>
        <time>2020-06-28T06:54:08.000Z</time>
      </trkpt>
      <trkpt lat="47.26306" lon="-2.31757">
        <ele>1.2000000476837</ele>
        <time>2020-06-28T06:54:10.000Z</time>
      </trkpt>
      <trkpt lat="47.26307" lon="-2.3179">
        <ele>1.2000000476837</ele>
        <time>2020-06-28T06:54:16.000Z</time>
      </trkpt>
      <trkpt lat="47.26304" lon="-2.31827">
        <ele>1.2000000476837</ele>
        <time>2020-06-28T06:54:22.000Z</time>
      </trkpt>
      <trkpt lat="47.26301" lon="-2.31867">
        <ele>1.2000000476837</ele>
        <time>2020-06-28T06:54:29.000Z</time>
      </trkpt>
      <trkpt lat="47.26298" lon="-2.31875">
        <ele>1.2000000476837</ele>
        <time>2020-06-28T06:54:31.000Z</time>
      </trkpt>
      <trkpt lat="47.26294" lon="-2.31881">
        <ele>1.2000000476837</ele>
        <time>2020-06-28T06:54:33.000Z</time>
      </trkpt>
      <trkpt lat="47.26275" lon="-2.31903">
        <ele>1.2000000476837</ele>
        <time>2020-06-28T06:54:39.000Z</time>
      </trkpt>
      <trkpt lat="47.26263" lon="-2.31922">
        <ele>1.2000000476837</ele>
        <time>2020-06-28T06:54:44.000Z</time>
      </trkpt>
      <trkpt lat="47.26253" lon="-2.31946">
        <ele>1.2000000476837</ele>
        <time>2020-06-28T06:54:49.000Z</time>
      </trkpt>
      <trkpt lat="47.26241" lon="-2.31969">
        <ele>1.2000000476837</ele>
        <time>2020-06-28T06:54:54.000Z</time>
      </trkpt>
      <trkpt lat="47.26239" lon="-2.3197">
        <ele>1.2000000476837</ele>
        <time>2020-06-28T06:54:55.000Z</time>
      </trkpt>
      <trkpt lat="47.26234" lon="-2.31972">
        <ele>0.80000001192093</ele>
        <time>2020-06-28T06:54:57.000Z</time>
      </trkpt>
      <trkpt lat="47.26232" lon="-2.31974">
        <ele>0.40000000596046</ele>
        <time>2020-06-28T06:54:58.000Z</time>
      </trkpt>
      <trkpt lat="47.26231" lon="-2.31976">
        <ele>3</ele>
        <time>2020-06-28T06:54:59.000Z</time>
      </trkpt>
      <trkpt lat="47.26229" lon="-2.31978">
        <ele>-0.40000000596046</ele>
        <time>2020-06-28T06:55:00.000Z</time>
      </trkpt>
      <trkpt lat="47.26226" lon="-2.31981">
        <ele>-0.80000001192093</ele>
        <time>2020-06-28T06:55:01.000Z</time>
      </trkpt>
      <trkpt lat="47.2622" lon="-2.31987">
        <ele>-0.80000001192093</ele>
        <time>2020-06-28T06:55:03.000Z</time>
      </trkpt>
      <trkpt lat="47.26204" lon="-2.31999">
        <ele>-0.80000001192093</ele>
        <time>2020-06-28T06:55:09.000Z</time>
      </trkpt>
      <trkpt lat="47.26203" lon="-2.32003">
        <ele>-0.80000001192093</ele>
        <time>2020-06-28T06:55:10.000Z</time>
      </trkpt>
      <trkpt lat="47.26202" lon="-2.32011">
        <ele>-0.80000001192093</ele>
        <time>2020-06-28T06:55:13.000Z</time>
      </trkpt>
      <trkpt lat="47.26197" lon="-2.32014">
        <ele>-0.80000001192093</ele>
        <time>2020-06-28T06:55:17.000Z</time>
      </trkpt>
      <trkpt lat="47.26182" lon="-2.32019">
        <ele>-0.80000001192093</ele>
        <time>2020-06-28T06:55:22.000Z</time>
      </trkpt>
      <trkpt lat="47.26162" lon="-2.32036">
        <ele>-0.80000001192093</ele>
        <time>2020-06-28T06:55:27.000Z</time>
      </trkpt>
      <trkpt lat="47.26153" lon="-2.32057">
        <ele>-0.80000001192093</ele>
        <time>2020-06-28T06:55:31.000Z</time>
      </trkpt>
      <trkpt lat="47.2615" lon="-2.32069">
        <ele>-0.80000001192093</ele>
        <time>2020-06-28T06:55:33.000Z</time>
      </trkpt>
      <trkpt lat="47.26148" lon="-2.32074">
        <ele>-0.80000001192093</ele>
        <time>2020-06-28T06:55:34.000Z</time>
      </trkpt>
      <trkpt lat="47.26142" lon="-2.32091">
        <ele>-0.80000001192093</ele>
        <time>2020-06-28T06:55:37.000Z</time>
      </trkpt>
      <trkpt lat="47.26128" lon="-2.32136">
        <ele>-0.80000001192093</ele>
        <time>2020-06-28T06:55:45.000Z</time>
      </trkpt>
      <trkpt lat="47.26121" lon="-2.32158">
        <ele>-0.80000001192093</ele>
        <time>2020-06-28T06:55:49.000Z</time>
      </trkpt>
      <trkpt lat="47.26114" lon="-2.32175">
        <ele>-0.80000001192093</ele>
        <time>2020-06-28T06:55:52.000Z</time>
      </trkpt>
      <trkpt lat="47.26094" lon="-2.32219">
        <ele>-0.80000001192093</ele>
        <time>2020-06-28T06:56:00.000Z</time>
      </trkpt>
      <trkpt lat="47.2607" lon="-2.32249">
        <ele>-0.80000001192093</ele>
        <time>2020-06-28T06:56:07.000Z</time>
      </trkpt>
      <trkpt lat="47.2605" lon="-2.32268">
        <ele>-0.80000001192093</ele>
        <time>2020-06-28T06:56:12.000Z</time>
      </trkpt>
      <trkpt lat="47.26046" lon="-2.32273">
        <ele>-0.80000001192093</ele>
        <time>2020-06-28T06:56:13.000Z</time>
      </trkpt>
      <trkpt lat="47.26017" lon="-2.32306">
        <ele>-0.80000001192093</ele>
        <time>2020-06-28T06:56:21.000Z</time>
      </trkpt>
      <trkpt lat="47.25994" lon="-2.32336">
        <ele>-0.80000001192093</ele>
        <time>2020-06-28T06:56:28.000Z</time>
      </trkpt>
      <trkpt lat="47.25965" lon="-2.32374">
        <ele>-0.80000001192093</ele>
        <time>2020-06-28T06:56:36.000Z</time>
      </trkpt>
      <trkpt lat="47.25935" lon="-2.32415">
        <ele>-0.80000001192093</ele>
        <time>2020-06-28T06:56:45.000Z</time>
      </trkpt>
      <trkpt lat="47.25907" lon="-2.32447">
        <ele>-0.80000001192093</ele>
        <time>2020-06-28T06:56:53.000Z</time>
      </trkpt>
      <trkpt lat="47.25883" lon="-2.32472">
        <ele>-0.80000001192093</ele>
        <time>2020-06-28T06:57:01.000Z</time>
      </trkpt>
      <trkpt lat="47.25855" lon="-2.32477">
        <ele>-0.80000001192093</ele>
        <time>2020-06-28T06:57:08.000Z</time>
      </trkpt>
      <trkpt lat="47.2582" lon="-2.32464">
        <ele>-0.80000001192093</ele>
        <time>2020-06-28T06:57:16.000Z</time>
      </trkpt>
      <trkpt lat="47.25812" lon="-2.3246">
        <ele>-0.80000001192093</ele>
        <time>2020-06-28T06:57:18.000Z</time>
      </trkpt>
      <trkpt lat="47.25799" lon="-2.32457">
        <ele>-0.80000001192093</ele>
        <time>2020-06-28T06:57:21.000Z</time>
      </trkpt>
      <trkpt lat="47.2579" lon="-2.32458">
        <ele>-0.80000001192093</ele>
        <time>2020-06-28T06:57:23.000Z</time>
      </trkpt>
      <trkpt lat="47.25779" lon="-2.32453">
        <ele>-0.80000001192093</ele>
        <time>2020-06-28T06:57:26.000Z</time>
      </trkpt>
      <trkpt lat="47.25776" lon="-2.32447">
        <ele>-0.80000001192093</ele>
        <time>2020-06-28T06:57:27.000Z</time>
      </trkpt>
      <trkpt lat="47.25772" lon="-2.32437">
        <ele>-0.80000001192093</ele>
        <time>2020-06-28T06:57:29.000Z</time>
      </trkpt>
      <trkpt lat="47.25761" lon="-2.32428">
        <ele>-0.80000001192093</ele>
        <time>2020-06-28T06:57:32.000Z</time>
      </trkpt>
      <trkpt lat="47.25747" lon="-2.32426">
        <ele>-0.80000001192093</ele>
        <time>2020-06-28T06:57:35.000Z</time>
      </trkpt>
      <trkpt lat="47.25732" lon="-2.32426">
        <ele>-0.80000001192093</ele>
        <time>2020-06-28T06:57:38.000Z</time>
      </trkpt>
      <trkpt lat="47.25698" lon="-2.32424">
        <ele>-0.80000001192093</ele>
        <time>2020-06-28T06:57:45.000Z</time>
      </trkpt>
      <trkpt lat="47.25667" lon="-2.32421">
        <ele>-0.80000001192093</ele>
        <time>2020-06-28T06:57:52.000Z</time>
      </trkpt>
      <trkpt lat="47.25662" lon="-2.3243">
        <ele>-0.80000001192093</ele>
        <time>2020-06-28T06:57:54.000Z</time>
      </trkpt>
      <trkpt lat="47.25663" lon="-2.32448">
        <ele>-0.80000001192093</ele>
        <time>2020-06-28T06:57:57.000Z</time>
      </trkpt>
      <trkpt lat="47.25664" lon="-2.32453">
        <ele>-0.80000001192093</ele>
        <time>2020-06-28T06:57:58.000Z</time>
      </trkpt>
      <trkpt lat="47.2567" lon="-2.32469">
        <ele>-0.40000000596046</ele>
        <time>2020-06-28T06:58:01.000Z</time>
      </trkpt>
      <trkpt lat="47.25672" lon="-2.32474">
        <ele>6.1</ele>
        <time>2020-06-28T06:58:02.000Z</time>
      </trkpt>
      <trkpt lat="47.25673" lon="-2.32479">
        <ele>0.40000000596046</ele>
        <time>2020-06-28T06:58:03.000Z</time>
      </trkpt>
      <trkpt lat="47.25675" lon="-2.32484">
        <ele>1.3999999761581</ele>
        <time>2020-06-28T06:58:04.000Z</time>
      </trkpt>
      <trkpt lat="47.25679" lon="-2.32495">
        <ele>1.3999999761581</ele>
        <time>2020-06-28T06:58:06.000Z</time>
      </trkpt>
      <trkpt lat="47.25692" lon="-2.32535">
        <ele>1.3999999761581</ele>
        <time>2020-06-28T06:58:14.000Z</time>
      </trkpt>
      <trkpt lat="47.25696" lon="-2.3255">
        <ele>1.7999999523163</ele>
        <time>2020-06-28T06:58:17.000Z</time>
      </trkpt>
      <trkpt lat="47.25698" lon="-2.32555">
        <ele>2.2000000476837</ele>
        <time>2020-06-28T06:58:18.000Z</time>
      </trkpt>
      <trkpt lat="47.25699" lon="-2.3256">
        <ele>2.5999999046326</ele>
        <time>2020-06-28T06:58:19.000Z</time>
      </trkpt>
      <trkpt lat="47.257" lon="-2.32564">
        <ele>3.2000000476837</ele>
        <time>2020-06-28T06:58:20.000Z</time>
      </trkpt>
      <trkpt lat="47.25702" lon="-2.32569">
        <ele>3.5999999046326</ele>
        <time>2020-06-28T06:58:21.000Z</time>
      </trkpt>
      <trkpt lat="47.25705" lon="-2.32579">
        <ele>3.5999999046326</ele>
        <time>2020-06-28T06:58:23.000Z</time>
      </trkpt>
      <trkpt lat="47.25709" lon="-2.32616">
        <ele>3.5999999046326</ele>
        <time>2020-06-28T06:58:30.000Z</time>
      </trkpt>
      <trkpt lat="47.25707" lon="-2.3262">
        <ele>3.5999999046326</ele>
        <time>2020-06-28T06:58:31.000Z</time>
      </trkpt>
      <trkpt lat="47.257" lon="-2.32627">
        <ele>3.5999999046326</ele>
        <time>2020-06-28T06:58:33.000Z</time>
      </trkpt>
      <trkpt lat="47.25694" lon="-2.3263">
        <ele>3.5999999046326</ele>
        <time>2020-06-28T06:58:35.000Z</time>
      </trkpt>
      <trkpt lat="47.25684" lon="-2.32635">
        <ele>4</ele>
        <time>2020-06-28T06:58:38.000Z</time>
      </trkpt>
      <trkpt lat="47.2568" lon="-2.32636">
        <ele>4.4000000953674</ele>
        <time>2020-06-28T06:58:39.000Z</time>
      </trkpt>
      <trkpt lat="47.25677" lon="-2.32638">
        <ele>4.8000001907349</ele>
        <time>2020-06-28T06:58:40.000Z</time>
      </trkpt>
      <trkpt lat="47.25673" lon="-2.32639">
        <ele>5.4000000953674</ele>
        <time>2020-06-28T06:58:41.000Z</time>
      </trkpt>
      <trkpt lat="47.2567" lon="-2.32641">
        <ele>5.8000001907349</ele>
        <time>2020-06-28T06:58:42.000Z</time>
      </trkpt>
      <trkpt lat="47.25645" lon="-2.32652">
        <ele>5.8000001907349</ele>
        <time>2020-06-28T06:58:49.000Z</time>
      </trkpt>
      <trkpt lat="47.2563" lon="-2.32659">
        <ele>6.1999998092651</ele>
        <time>2020-06-28T06:58:53.000Z</time>
      </trkpt>
      <trkpt lat="47.25627" lon="-2.32661">
        <ele>6.5999999046326</ele>
        <time>2020-06-28T06:58:54.000Z</time>
      </trkpt>
      <trkpt lat="47.25623" lon="-2.32662">
        <ele>7</ele>
        <time>2020-06-28T06:58:55.000Z</time>
      </trkpt>
      <trkpt lat="47.2562" lon="-2.32664">
        <ele>7.4000000953674</ele>
        <time>2020-06-28T06:58:56.000Z</time>
      </trkpt>
      <trkpt lat="47.25616" lon="-2.32665">
        <ele>7.8000001907349</ele>
        <time>2020-06-28T06:58:57.000Z</time>
      </trkpt>
      <trkpt lat="47.25586" lon="-2.32675">
        <ele>7.8000001907349</ele>
        <time>2020-06-28T06:59:05.000Z</time>
      </trkpt>
      <trkpt lat="47.25551" lon="-2.32689">
        <ele>7.8000001907349</ele>
        <time>2020-06-28T06:59:14.000Z</time>
      </trkpt>
      <trkpt lat="47.25527" lon="-2.327">
        <ele>7.8000001907349</ele>
        <time>2020-06-28T06:59:20.000Z</time>
      </trkpt>
      <trkpt lat="47.25519" lon="-2.32701">
        <ele>7.8000001907349</ele>
        <time>2020-06-28T06:59:22.000Z</time>
      </trkpt>
      <trkpt lat="47.25501" lon="-2.32702">
        <ele>7.8000001907349</ele>
        <time>2020-06-28T06:59:26.000Z</time>
      </trkpt>
      <trkpt lat="47.25493" lon="-2.32703">
        <ele>7.8000001907349</ele>
        <time>2020-06-28T06:59:28.000Z</time>
      </trkpt>
      <trkpt lat="47.25489" lon="-2.32705">
        <ele>7.8000001907349</ele>
        <time>2020-06-28T06:59:29.000Z</time>
      </trkpt>
      <trkpt lat="47.25471" lon="-2.3272">
        <ele>7.8000001907349</ele>
        <time>2020-06-28T06:59:34.000Z</time>
      </trkpt>
      <trkpt lat="47.25461" lon="-2.32732">
        <ele>7.8000001907349</ele>
        <time>2020-06-28T06:59:37.000Z</time>
      </trkpt>
      <trkpt lat="47.25452" lon="-2.32745">
        <ele>7.8000001907349</ele>
        <time>2020-06-28T06:59:40.000Z</time>
      </trkpt>
      <trkpt lat="47.25438" lon="-2.32768">
        <ele>7.8000001907349</ele>
        <time>2020-06-28T06:59:45.000Z</time>
      </trkpt>
      <trkpt lat="47.25435" lon="-2.3278">
        <ele>7.8000001907349</ele>
        <time>2020-06-28T06:59:47.000Z</time>
      </trkpt>
      <trkpt lat="47.25426" lon="-2.32794">
        <ele>7.8000001907349</ele>
        <time>2020-06-28T06:59:50.000Z</time>
      </trkpt>
      <trkpt lat="47.25422" lon="-2.32799">
        <ele>7.8000001907349</ele>
        <time>2020-06-28T06:59:51.000Z</time>
      </trkpt>
      <trkpt lat="47.2539" lon="-2.32844">
        <ele>7.8000001907349</ele>
        <time>2020-06-28T07:00:00.000Z</time>
      </trkpt>
      <trkpt lat="47.25366" lon="-2.3287">
        <ele>7.8000001907349</ele>
        <time>2020-06-28T07:00:06.000Z</time>
      </trkpt>
      <trkpt lat="47.25359" lon="-2.32878">
        <ele>7.4000000953674</ele>
        <time>2020-06-28T07:00:08.000Z</time>
      </trkpt>
      <trkpt lat="47.25355" lon="-2.32882">
        <ele>7</ele>
        <time>2020-06-28T07:00:09.000Z</time>
      </trkpt>
      <trkpt lat="47.2535" lon="-2.32886">
        <ele>6.5999999046326</ele>
        <time>2020-06-28T07:00:10.000Z</time>
      </trkpt>
      <trkpt lat="47.25346" lon="-2.32889">
        <ele>6.1999998092651</ele>
        <time>2020-06-28T07:00:11.000Z</time>
      </trkpt>
      <trkpt lat="47.25342" lon="-2.32894">
        <ele>5.8000001907349</ele>
        <time>2020-06-28T07:00:12.000Z</time>
      </trkpt>
      <trkpt lat="47.2533" lon="-2.32905">
        <ele>5.8000001907349</ele>
        <time>2020-06-28T07:00:15.000Z</time>
      </trkpt>
      <trkpt lat="47.25313" lon="-2.32924">
        <ele>5.8000001907349</ele>
        <time>2020-06-28T07:00:20.000Z</time>
      </trkpt>
      <trkpt lat="47.25309" lon="-2.32934">
        <ele>5.8000001907349</ele>
        <time>2020-06-28T07:00:22.000Z</time>
      </trkpt>
      <trkpt lat="47.25314" lon="-2.32957">
        <ele>5.8000001907349</ele>
        <time>2020-06-28T07:00:26.000Z</time>
      </trkpt>
      <trkpt lat="47.25331" lon="-2.33002">
        <ele>5.8000001907349</ele>
        <time>2020-06-28T07:00:34.000Z</time>
      </trkpt>
      <trkpt lat="47.25342" lon="-2.33033">
        <ele>5.8000001907349</ele>
        <time>2020-06-28T07:00:40.000Z</time>
      </trkpt>
      <trkpt lat="47.25348" lon="-2.33052">
        <ele>5.8000001907349</ele>
        <time>2020-06-28T07:00:45.000Z</time>
      </trkpt>
      <trkpt lat="47.25349" lon="-2.33053">
        <ele>5.4000000953674</ele>
        <time>2020-06-28T07:00:47.000Z</time>
      </trkpt>
      <trkpt lat="47.25349" lon="-2.33053">
        <ele>5</ele>
        <time>2020-06-28T07:00:48.000Z</time>
      </trkpt>
      <trkpt lat="47.25352" lon="-2.33058">
        <ele>3.5999999046326</ele>
        <time>2020-06-28T07:06:58.000Z</time>
      </trkpt>
      <trkpt lat="47.25359" lon="-2.33073">
        <ele>3.5999999046326</ele>
        <time>2020-06-28T07:07:03.000Z</time>
      </trkpt>
      <trkpt lat="47.25369" lon="-2.33097">
        <ele>3.5999999046326</ele>
        <time>2020-06-28T07:07:09.000Z</time>
      </trkpt>
      <trkpt lat="47.25382" lon="-2.33132">
        <ele>3.5999999046326</ele>
        <time>2020-06-28T07:07:17.000Z</time>
      </trkpt>
      <trkpt lat="47.2539" lon="-2.33141">
        <ele>3.5999999046326</ele>
        <time>2020-06-28T07:07:22.000Z</time>
      </trkpt>
      <trkpt lat="47.25393" lon="-2.33142">
        <ele>3.5999999046326</ele>
        <time>2020-06-28T07:07:25.000Z</time>
      </trkpt>
      <trkpt lat="47.25394" lon="-2.3314">
        <ele>3.5999999046326</ele>
        <time>2020-06-28T07:07:31.000Z</time>
      </trkpt>
      <trkpt lat="47.25408" lon="-2.33125">
        <ele>3.5999999046326</ele>
        <time>2020-06-28T07:07:37.000Z</time>
      </trkpt>
      <trkpt lat="47.25428" lon="-2.33115">
        <ele>3.5999999046326</ele>
        <time>2020-06-28T07:07:42.000Z</time>
      </trkpt>
      <trkpt lat="47.25465" lon="-2.331">
        <ele>3.5999999046326</ele>
        <time>2020-06-28T07:07:50.000Z</time>
      </trkpt>
      <trkpt lat="47.25488" lon="-2.33086">
        <ele>3.5999999046326</ele>
        <time>2020-06-28T07:07:56.000Z</time>
      </trkpt>
      <trkpt lat="47.25495" lon="-2.33081">
        <ele>3.5999999046326</ele>
        <time>2020-06-28T07:07:59.000Z</time>
      </trkpt>
      <trkpt lat="47.25497" lon="-2.33084">
        <ele>3.5999999046326</ele>
        <time>2020-06-28T07:08:00.000Z</time>
      </trkpt>
      <trkpt lat="47.25499" lon="-2.33099">
        <ele>3.5999999046326</ele>
        <time>2020-06-28T07:08:03.000Z</time>
      </trkpt>
      <trkpt lat="47.25504" lon="-2.33151">
        <ele>3.5999999046326</ele>
        <time>2020-06-28T07:08:11.000Z</time>
      </trkpt>
      <trkpt lat="47.25513" lon="-2.33214">
        <ele>3.5999999046326</ele>
        <time>2020-06-28T07:08:20.000Z</time>
      </trkpt>
      <trkpt lat="47.2552" lon="-2.33278">
        <ele>3.5999999046326</ele>
        <time>2020-06-28T07:08:29.000Z</time>
      </trkpt>
      <trkpt lat="47.25528" lon="-2.33336">
        <ele>3.5999999046326</ele>
        <time>2020-06-28T07:08:37.000Z</time>
      </trkpt>
      <trkpt lat="47.25537" lon="-2.33393">
        <ele>3.5999999046326</ele>
        <time>2020-06-28T07:08:45.000Z</time>
      </trkpt>
      <trkpt lat="47.2555" lon="-2.33442">
        <ele>3.5999999046326</ele>
        <time>2020-06-28T07:08:52.000Z</time>
      </trkpt>
      <trkpt lat="47.25567" lon="-2.33481">
        <ele>3.5999999046326</ele>
        <time>2020-06-28T07:08:58.000Z</time>
      </trkpt>
      <trkpt lat="47.2558" lon="-2.33504">
        <ele>3.5999999046326</ele>
        <time>2020-06-28T07:09:02.000Z</time>
      </trkpt>
      <trkpt lat="47.25591" lon="-2.33519">
        <ele>3.5999999046326</ele>
        <time>2020-06-28T07:09:05.000Z</time>
      </trkpt>
      <trkpt lat="47.25618" lon="-2.33547">
        <ele>3.5999999046326</ele>
        <time>2020-06-28T07:09:11.000Z</time>
      </trkpt>
      <trkpt lat="47.25646" lon="-2.33565">
        <ele>3.5999999046326</ele>
        <time>2020-06-28T07:09:17.000Z</time>
      </trkpt>
      <trkpt lat="47.25676" lon="-2.33576">
        <ele>3.5999999046326</ele>
        <time>2020-06-28T07:09:23.000Z</time>
      </trkpt>
      <trkpt lat="47.25713" lon="-2.33578">
        <ele>3.5999999046326</ele>
        <time>2020-06-28T07:09:30.000Z</time>
      </trkpt>
      <trkpt lat="47.25756" lon="-2.33576">
        <ele>3.5999999046326</ele>
        <time>2020-06-28T07:09:38.000Z</time>
      </trkpt>
      <trkpt lat="47.25792" lon="-2.33573">
        <ele>3.5999999046326</ele>
        <time>2020-06-28T07:09:45.000Z</time>
      </trkpt>
      <trkpt lat="47.25819" lon="-2.33573">
        <ele>3.5999999046326</ele>
        <time>2020-06-28T07:09:51.000Z</time>
      </trkpt>
      <trkpt lat="47.25854" lon="-2.3357">
        <ele>3.5999999046326</ele>
        <time>2020-06-28T07:09:58.000Z</time>
      </trkpt>
      <trkpt lat="47.2587" lon="-2.33568">
        <ele>3.5999999046326</ele>
        <time>2020-06-28T07:10:01.000Z</time>
      </trkpt>
      <trkpt lat="47.2588" lon="-2.33562">
        <ele>3.5999999046326</ele>
        <time>2020-06-28T07:10:03.000Z</time>
      </trkpt>
      <trkpt lat="47.25901" lon="-2.33551">
        <ele>3.5999999046326</ele>
        <time>2020-06-28T07:10:07.000Z</time>
      </trkpt>
      <trkpt lat="47.25906" lon="-2.33547">
        <ele>3.5999999046326</ele>
        <time>2020-06-28T07:10:08.000Z</time>
      </trkpt>
      <trkpt lat="47.25926" lon="-2.33529">
        <ele>3.2000000476837</ele>
        <time>2020-06-28T07:10:12.000Z</time>
      </trkpt>
      <trkpt lat="47.25931" lon="-2.33525">
        <ele>2.7999999523163</ele>
        <time>2020-06-28T07:10:13.000Z</time>
      </trkpt>
      <trkpt lat="47.25935" lon="-2.33521">
        <ele>2.4000000953674</ele>
        <time>2020-06-28T07:10:14.000Z</time>
      </trkpt>
      <trkpt lat="47.2594" lon="-2.33516">
        <ele>2</ele>
        <time>2020-06-28T07:10:15.000Z</time>
      </trkpt>
      <trkpt lat="47.25945" lon="-2.33513">
        <ele>1.3999999761581</ele>
        <time>2020-06-28T07:10:16.000Z</time>
      </trkpt>
      <trkpt lat="47.25967" lon="-2.33495">
        <ele>1.3999999761581</ele>
        <time>2020-06-28T07:10:21.000Z</time>
      </trkpt>
      <trkpt lat="47.25988" lon="-2.33494">
        <ele>1</ele>
        <time>2020-06-28T07:10:25.000Z</time>
      </trkpt>
      <trkpt lat="47.25993" lon="-2.33493">
        <ele>0.20000000298023</ele>
        <time>2020-06-28T07:10:26.000Z</time>
      </trkpt>
      <trkpt lat="47.25999" lon="-2.33491">
        <ele>-0.40000000596046</ele>
        <time>2020-06-28T07:10:27.000Z</time>
      </trkpt>
      <trkpt lat="47.26004" lon="-2.33491">
        <ele>-0.80000001192093</ele>
        <time>2020-06-28T07:10:28.000Z</time>
      </trkpt>
      <trkpt lat="47.26015" lon="-2.33488">
        <ele>-0.80000001192093</ele>
        <time>2020-06-28T07:10:30.000Z</time>
      </trkpt>
      <trkpt lat="47.2602" lon="-2.33486">
        <ele>-0.80000001192093</ele>
        <time>2020-06-28T07:10:31.000Z</time>
      </trkpt>
      <trkpt lat="47.2603" lon="-2.3348">
        <ele>-0.80000001192093</ele>
        <time>2020-06-28T07:10:33.000Z</time>
      </trkpt>
      <trkpt lat="47.26042" lon="-2.33464">
        <ele>-0.80000001192093</ele>
        <time>2020-06-28T07:10:36.000Z</time>
      </trkpt>
      <trkpt lat="47.26045" lon="-2.33458">
        <ele>-0.80000001192093</ele>
        <time>2020-06-28T07:10:37.000Z</time>
      </trkpt>
      <trkpt lat="47.26052" lon="-2.33447">
        <ele>-0.80000001192093</ele>
        <time>2020-06-28T07:10:39.000Z</time>
      </trkpt>
      <trkpt lat="47.26064" lon="-2.3343">
        <ele>-0.80000001192093</ele>
        <time>2020-06-28T07:10:42.000Z</time>
      </trkpt>
      <trkpt lat="47.26069" lon="-2.33417">
        <ele>-0.80000001192093</ele>
        <time>2020-06-28T07:10:44.000Z</time>
      </trkpt>
      <trkpt lat="47.26072" lon="-2.33411">
        <ele>-0.80000001192093</ele>
        <time>2020-06-28T07:10:45.000Z</time>
      </trkpt>
      <trkpt lat="47.2608" lon="-2.33402">
        <ele>-0.80000001192093</ele>
        <time>2020-06-28T07:10:47.000Z</time>
      </trkpt>
      <trkpt lat="47.26099" lon="-2.33403">
        <ele>-0.80000001192093</ele>
        <time>2020-06-28T07:10:51.000Z</time>
      </trkpt>
      <trkpt lat="47.26108" lon="-2.33411">
        <ele>-0.40000000596046</ele>
        <time>2020-06-28T07:10:53.000Z</time>
      </trkpt>
      <trkpt lat="47.26111" lon="-2.33416">
        <ele>4</ele>
        <time>2020-06-28T07:10:54.000Z</time>
      </trkpt>
      <trkpt lat="47.26114" lon="-2.33421">
        <ele>0.40000000596046</ele>
        <time>2020-06-28T07:10:55.000Z</time>
      </trkpt>
      <trkpt lat="47.26116" lon="-2.33426">
        <ele>0.80000001192093</ele>
        <time>2020-06-28T07:10:56.000Z</time>
      </trkpt>
      <trkpt lat="47.26119" lon="-2.3343">
        <ele>1.2000000476837</ele>
        <time>2020-06-28T07:10:57.000Z</time>
      </trkpt>
      <trkpt lat="47.26127" lon="-2.33436">
        <ele>1.2000000476837</ele>
        <time>2020-06-28T07:10:59.000Z</time>
      </trkpt>
      <trkpt lat="47.26152" lon="-2.33441">
        <ele>1.2000000476837</ele>
        <time>2020-06-28T07:11:04.000Z</time>
      </trkpt>
      <trkpt lat="47.26157" lon="-2.33442">
        <ele>1.2000000476837</ele>
        <time>2020-06-28T07:11:05.000Z</time>
      </trkpt>
      <trkpt lat="47.26198" lon="-2.33443">
        <ele>1.2000000476837</ele>
        <time>2020-06-28T07:11:12.000Z</time>
      </trkpt>
      <trkpt lat="47.26247" lon="-2.33433">
        <ele>1.2000000476837</ele>
        <time>2020-06-28T07:11:20.000Z</time>
      </trkpt>
      <trkpt lat="47.26277" lon="-2.33427">
        <ele>0.80000001192093</ele>
        <time>2020-06-28T07:11:25.000Z</time>
      </trkpt>
      <trkpt lat="47.26283" lon="-2.33426">
        <ele>0.40000000596046</ele>
        <time>2020-06-28T07:11:26.000Z</time>
      </trkpt>
      <trkpt lat="47.26289" lon="-2.33425">
        <ele>3</ele>
        <time>2020-06-28T07:11:27.000Z</time>
      </trkpt>
      <trkpt lat="47.26295" lon="-2.33424">
        <ele>-0.40000000596046</ele>
        <time>2020-06-28T07:11:28.000Z</time>
      </trkpt>
      <trkpt lat="47.26301" lon="-2.33422">
        <ele>-0.80000001192093</ele>
        <time>2020-06-28T07:11:29.000Z</time>
      </trkpt>
      <trkpt lat="47.26337" lon="-2.33413">
        <ele>-0.80000001192093</ele>
        <time>2020-06-28T07:11:35.000Z</time>
      </trkpt>
      <trkpt lat="47.26388" lon="-2.33396">
        <ele>-0.80000001192093</ele>
        <time>2020-06-28T07:11:44.000Z</time>
      </trkpt>
      <trkpt lat="47.26432" lon="-2.33373">
        <ele>-0.80000001192093</ele>
        <time>2020-06-28T07:11:52.000Z</time>
      </trkpt>
      <trkpt lat="47.26472" lon="-2.33346">
        <ele>-0.80000001192093</ele>
        <time>2020-06-28T07:12:00.000Z</time>
      </trkpt>
      <trkpt lat="47.26485" lon="-2.33337">
        <ele>-0.80000001192093</ele>
        <time>2020-06-28T07:12:04.000Z</time>
      </trkpt>
      <trkpt lat="47.26489" lon="-2.33344">
        <ele>-0.80000001192093</ele>
        <time>2020-06-28T07:12:08.000Z</time>
      </trkpt>
      <trkpt lat="47.26499" lon="-2.33348">
        <ele>-0.80000001192093</ele>
        <time>2020-06-28T07:12:11.000Z</time>
      </trkpt>
      <trkpt lat="47.26508" lon="-2.3335">
        <ele>-0.80000001192093</ele>
        <time>2020-06-28T07:12:13.000Z</time>
      </trkpt>
      <trkpt lat="47.2652" lon="-2.33361">
        <ele>-0.80000001192093</ele>
        <time>2020-06-28T07:12:16.000Z</time>
      </trkpt>
      <trkpt lat="47.26526" lon="-2.33372">
        <ele>-0.80000001192093</ele>
        <time>2020-06-28T07:12:18.000Z</time>
      </trkpt>
      <trkpt lat="47.2653" lon="-2.33376">
        <ele>-0.80000001192093</ele>
        <time>2020-06-28T07:12:19.000Z</time>
      </trkpt>
      <trkpt lat="47.26534" lon="-2.33381">
        <ele>-0.80000001192093</ele>
        <time>2020-06-28T07:12:20.000Z</time>
      </trkpt>
      <trkpt lat="47.26537" lon="-2.33387">
        <ele>-0.80000001192093</ele>
        <time>2020-06-28T07:12:21.000Z</time>
      </trkpt>
      <trkpt lat="47.2654" lon="-2.33403">
        <ele>-0.80000001192093</ele>
        <time>2020-06-28T07:12:23.000Z</time>
      </trkpt>
      <trkpt lat="47.26548" lon="-2.33453">
        <ele>-0.80000001192093</ele>
        <time>2020-06-28T07:12:29.000Z</time>
      </trkpt>
      <trkpt lat="47.26551" lon="-2.3347">
        <ele>-0.80000001192093</ele>
        <time>2020-06-28T07:12:31.000Z</time>
      </trkpt>
      <trkpt lat="47.26556" lon="-2.33503">
        <ele>-0.80000001192093</ele>
        <time>2020-06-28T07:12:35.000Z</time>
      </trkpt>
      <trkpt lat="47.26562" lon="-2.33549">
        <ele>-0.40000000596046</ele>
        <time>2020-06-28T07:12:41.000Z</time>
      </trkpt>
      <trkpt lat="47.26563" lon="-2.33557">
        <ele>4</ele>
        <time>2020-06-28T07:12:42.000Z</time>
      </trkpt>
      <trkpt lat="47.26564" lon="-2.33565">
        <ele>0.40000000596046</ele>
        <time>2020-06-28T07:12:43.000Z</time>
      </trkpt>
      <trkpt lat="47.26565" lon="-2.33572">
        <ele>1</ele>
        <time>2020-06-28T07:12:44.000Z</time>
      </trkpt>
      <trkpt lat="47.26566" lon="-2.3358">
        <ele>1.3999999761581</ele>
        <time>2020-06-28T07:12:45.000Z</time>
      </trkpt>
      <trkpt lat="47.26572" lon="-2.33625">
        <ele>1.3999999761581</ele>
        <time>2020-06-28T07:12:51.000Z</time>
      </trkpt>
      <trkpt lat="47.26579" lon="-2.33666">
        <ele>1.3999999761581</ele>
        <time>2020-06-28T07:12:57.000Z</time>
      </trkpt>
      <trkpt lat="47.26588" lon="-2.33681">
        <ele>1.7999999523163</ele>
        <time>2020-06-28T07:13:00.000Z</time>
      </trkpt>
      <trkpt lat="47.26591" lon="-2.33687">
        <ele>2.2000000476837</ele>
        <time>2020-06-28T07:13:01.000Z</time>
      </trkpt>
      <trkpt lat="47.26594" lon="-2.33691">
        <ele>2.5999999046326</ele>
        <time>2020-06-28T07:13:02.000Z</time>
      </trkpt>
      <trkpt lat="47.26598" lon="-2.33696">
        <ele>3</ele>
        <time>2020-06-28T07:13:03.000Z</time>
      </trkpt>
      <trkpt lat="47.26601" lon="-2.337">
        <ele>3.4000000953674</ele>
        <time>2020-06-28T07:13:04.000Z</time>
      </trkpt>
      <trkpt lat="47.26611" lon="-2.33713">
        <ele>3.4000000953674</ele>
        <time>2020-06-28T07:13:07.000Z</time>
      </trkpt>
      <trkpt lat="47.26621" lon="-2.33726">
        <ele>3.4000000953674</ele>
        <time>2020-06-28T07:13:10.000Z</time>
      </trkpt>
      <trkpt lat="47.26627" lon="-2.33736">
        <ele>3.4000000953674</ele>
        <time>2020-06-28T07:13:12.000Z</time>
      </trkpt>
      <trkpt lat="47.26652" lon="-2.33774">
        <ele>3.4000000953674</ele>
        <time>2020-06-28T07:13:19.000Z</time>
      </trkpt>
      <trkpt lat="47.26676" lon="-2.33812">
        <ele>3.4000000953674</ele>
        <time>2020-06-28T07:13:26.000Z</time>
      </trkpt>
      <trkpt lat="47.26686" lon="-2.33828">
        <ele>3.4000000953674</ele>
        <time>2020-06-28T07:13:29.000Z</time>
      </trkpt>
      <trkpt lat="47.26696" lon="-2.33843">
        <ele>3.4000000953674</ele>
        <time>2020-06-28T07:13:32.000Z</time>
      </trkpt>
      <trkpt lat="47.26716" lon="-2.33873">
        <ele>3.4000000953674</ele>
        <time>2020-06-28T07:13:38.000Z</time>
      </trkpt>
      <trkpt lat="47.26729" lon="-2.33896">
        <ele>3.7999999523163</ele>
        <time>2020-06-28T07:13:42.000Z</time>
      </trkpt>
      <trkpt lat="47.26732" lon="-2.33901">
        <ele>4.5999999046326</ele>
        <time>2020-06-28T07:13:43.000Z</time>
      </trkpt>
      <trkpt lat="47.26735" lon="-2.33907">
        <ele>5</ele>
        <time>2020-06-28T07:13:44.000Z</time>
      </trkpt>
      <trkpt lat="47.26738" lon="-2.33912">
        <ele>5.4000000953674</ele>
        <time>2020-06-28T07:13:45.000Z</time>
      </trkpt>
      <trkpt lat="47.26761" lon="-2.3395">
        <ele>5.4000000953674</ele>
        <time>2020-06-28T07:13:52.000Z</time>
      </trkpt>
      <trkpt lat="47.2679" lon="-2.33994">
        <ele>5.4000000953674</ele>
        <time>2020-06-28T07:14:00.000Z</time>
      </trkpt>
      <trkpt lat="47.26814" lon="-2.34031">
        <ele>5.4000000953674</ele>
        <time>2020-06-28T07:14:07.000Z</time>
      </trkpt>
      <trkpt lat="47.26822" lon="-2.34053">
        <ele>5.4000000953674</ele>
        <time>2020-06-28T07:14:12.000Z</time>
      </trkpt>
      <trkpt lat="47.2681" lon="-2.34064">
        <ele>5.4000000953674</ele>
        <time>2020-06-28T07:14:15.000Z</time>
      </trkpt>
      <trkpt lat="47.2678" lon="-2.34089">
        <ele>5.4000000953674</ele>
        <time>2020-06-28T07:14:22.000Z</time>
      </trkpt>
      <trkpt lat="47.26759" lon="-2.34105">
        <ele>5.4000000953674</ele>
        <time>2020-06-28T07:14:27.000Z</time>
      </trkpt>
      <trkpt lat="47.2675" lon="-2.3411">
        <ele>5.4000000953674</ele>
        <time>2020-06-28T07:14:29.000Z</time>
      </trkpt>
      <trkpt lat="47.26735" lon="-2.34125">
        <ele>5.4000000953674</ele>
        <time>2020-06-28T07:14:33.000Z</time>
      </trkpt>
      <trkpt lat="47.26718" lon="-2.34148">
        <ele>5.4000000953674</ele>
        <time>2020-06-28T07:14:39.000Z</time>
      </trkpt>
      <trkpt lat="47.26725" lon="-2.34158">
        <ele>5.4000000953674</ele>
        <time>2020-06-28T07:14:42.000Z</time>
      </trkpt>
      <trkpt lat="47.26728" lon="-2.3416">
        <ele>5.4000000953674</ele>
        <time>2020-06-28T07:14:43.000Z</time>
      </trkpt>
      <trkpt lat="47.26749" lon="-2.34173">
        <ele>5.4000000953674</ele>
        <time>2020-06-28T07:14:48.000Z</time>
      </trkpt>
      <trkpt lat="47.26784" lon="-2.34199">
        <ele>5.4000000953674</ele>
        <time>2020-06-28T07:14:56.000Z</time>
      </trkpt>
      <trkpt lat="47.26793" lon="-2.34204">
        <ele>5.4000000953674</ele>
        <time>2020-06-28T07:14:58.000Z</time>
      </trkpt>
      <trkpt lat="47.26802" lon="-2.3421">
        <ele>5.4000000953674</ele>
        <time>2020-06-28T07:15:00.000Z</time>
      </trkpt>
      <trkpt lat="47.2681" lon="-2.34216">
        <ele>5.4000000953674</ele>
        <time>2020-06-28T07:15:02.000Z</time>
      </trkpt>
      <trkpt lat="47.26838" lon="-2.34237">
        <ele>5.4000000953674</ele>
        <time>2020-06-28T07:15:08.000Z</time>
      </trkpt>
      <trkpt lat="47.26867" lon="-2.34257">
        <ele>5.4000000953674</ele>
        <time>2020-06-28T07:15:14.000Z</time>
      </trkpt>
      <trkpt lat="47.26898" lon="-2.34278">
        <ele>5.4000000953674</ele>
        <time>2020-06-28T07:15:21.000Z</time>
      </trkpt>
      <trkpt lat="47.2691" lon="-2.34289">
        <ele>5.4000000953674</ele>
        <time>2020-06-28T07:15:24.000Z</time>
      </trkpt>
      <trkpt lat="47.26917" lon="-2.34298">
        <ele>5.4000000953674</ele>
        <time>2020-06-28T07:15:26.000Z</time>
      </trkpt>
      <trkpt lat="47.26934" lon="-2.34305">
        <ele>5.4000000953674</ele>
        <time>2020-06-28T07:15:30.000Z</time>
      </trkpt>
      <trkpt lat="47.26943" lon="-2.34305">
        <ele>5.4000000953674</ele>
        <time>2020-06-28T07:15:32.000Z</time>
      </trkpt>
      <trkpt lat="47.26951" lon="-2.34307">
        <ele>5.4000000953674</ele>
        <time>2020-06-28T07:15:34.000Z</time>
      </trkpt>
      <trkpt lat="47.2696" lon="-2.34309">
        <ele>5.4000000953674</ele>
        <time>2020-06-28T07:15:36.000Z</time>
      </trkpt>
      <trkpt lat="47.26975" lon="-2.34314">
        <ele>5.4000000953674</ele>
        <time>2020-06-28T07:15:39.000Z</time>
      </trkpt>
      <trkpt lat="47.26989" lon="-2.34318">
        <ele>5.4000000953674</ele>
        <time>2020-06-28T07:15:42.000Z</time>
      </trkpt>
      <trkpt lat="47.27006" lon="-2.34324">
        <ele>5.4000000953674</ele>
        <time>2020-06-28T07:15:46.000Z</time>
      </trkpt>
      <trkpt lat="47.27008" lon="-2.34329">
        <ele>5.4000000953674</ele>
        <time>2020-06-28T07:15:47.000Z</time>
      </trkpt>
      <trkpt lat="47.27012" lon="-2.34347">
        <ele>5.4000000953674</ele>
        <time>2020-06-28T07:15:50.000Z</time>
      </trkpt>
      <trkpt lat="47.27013" lon="-2.34353">
        <ele>5.4000000953674</ele>
        <time>2020-06-28T07:15:51.000Z</time>
      </trkpt>
      <trkpt lat="47.27023" lon="-2.344">
        <ele>5.4000000953674</ele>
        <time>2020-06-28T07:15:59.000Z</time>
      </trkpt>
      <trkpt lat="47.27028" lon="-2.34418">
        <ele>5.8000001907349</ele>
        <time>2020-06-28T07:16:02.000Z</time>
      </trkpt>
      <trkpt lat="47.27029" lon="-2.34423">
        <ele>6.1999998092651</ele>
        <time>2020-06-28T07:16:03.000Z</time>
      </trkpt>
      <trkpt lat="47.2703" lon="-2.34429">
        <ele>6.5999999046326</ele>
        <time>2020-06-28T07:16:04.000Z</time>
      </trkpt>
      <trkpt lat="47.27031" lon="-2.34435">
        <ele>7</ele>
        <time>2020-06-28T07:16:05.000Z</time>
      </trkpt>
      <trkpt lat="47.27032" lon="-2.3444">
        <ele>7.4000000953674</ele>
        <time>2020-06-28T07:16:06.000Z</time>
      </trkpt>
      <trkpt lat="47.27034" lon="-2.3446">
        <ele>7.4000000953674</ele>
        <time>2020-06-28T07:16:10.000Z</time>
      </trkpt>
      <trkpt lat="47.2704" lon="-2.34484">
        <ele>7.4000000953674</ele>
        <time>2020-06-28T07:16:16.000Z</time>
      </trkpt>
      <trkpt lat="47.2704" lon="-2.34487">
        <ele>7.4000000953674</ele>
        <time>2020-06-28T07:16:19.000Z</time>
      </trkpt>
      <trkpt lat="47.27036" lon="-2.34493">
        <ele>7.4000000953674</ele>
        <time>2020-06-28T07:23:16.000Z</time>
      </trkpt>
      <trkpt lat="47.27037" lon="-2.34512">
        <ele>7.4000000953674</ele>
        <time>2020-06-28T07:23:21.000Z</time>
      </trkpt>
      <trkpt lat="47.27046" lon="-2.34541">
        <ele>7.4000000953674</ele>
        <time>2020-06-28T07:23:27.000Z</time>
      </trkpt>
      <trkpt lat="47.2705" lon="-2.34543">
        <ele>7.4000000953674</ele>
        <time>2020-06-28T07:23:28.000Z</time>
      </trkpt>
      <trkpt lat="47.27057" lon="-2.34548">
        <ele>7.4000000953674</ele>
        <time>2020-06-28T07:23:30.000Z</time>
      </trkpt>
      <trkpt lat="47.27059" lon="-2.34554">
        <ele>7.4000000953674</ele>
        <time>2020-06-28T07:23:31.000Z</time>
      </trkpt>
      <trkpt lat="47.27062" lon="-2.34565">
        <ele>7.4000000953674</ele>
        <time>2020-06-28T07:23:33.000Z</time>
      </trkpt>
      <trkpt lat="47.27073" lon="-2.34608">
        <ele>7.4000000953674</ele>
        <time>2020-06-28T07:23:40.000Z</time>
      </trkpt>
      <trkpt lat="47.27081" lon="-2.34658">
        <ele>7.4000000953674</ele>
        <time>2020-06-28T07:23:48.000Z</time>
      </trkpt>
      <trkpt lat="47.2708" lon="-2.3467">
        <ele>7.4000000953674</ele>
        <time>2020-06-28T07:23:50.000Z</time>
      </trkpt>
      <trkpt lat="47.27074" lon="-2.3468">
        <ele>7.4000000953674</ele>
        <time>2020-06-28T07:23:52.000Z</time>
      </trkpt>
      <trkpt lat="47.27067" lon="-2.34687">
        <ele>7.4000000953674</ele>
        <time>2020-06-28T07:23:54.000Z</time>
      </trkpt>
      <trkpt lat="47.27054" lon="-2.34694">
        <ele>7.4000000953674</ele>
        <time>2020-06-28T07:23:57.000Z</time>
      </trkpt>
      <trkpt lat="47.27039" lon="-2.34707">
        <ele>7.4000000953674</ele>
        <time>2020-06-28T07:24:02.000Z</time>
      </trkpt>
      <trkpt lat="47.27043" lon="-2.34723">
        <ele>7.4000000953674</ele>
        <time>2020-06-28T07:24:05.000Z</time>
      </trkpt>
      <trkpt lat="47.27045" lon="-2.34729">
        <ele>7.4000000953674</ele>
        <time>2020-06-28T07:24:06.000Z</time>
      </trkpt>
      <trkpt lat="47.27053" lon="-2.34755">
        <ele>7.4000000953674</ele>
        <time>2020-06-28T07:24:10.000Z</time>
      </trkpt>
      <trkpt lat="47.27055" lon="-2.34762">
        <ele>7.4000000953674</ele>
        <time>2020-06-28T07:24:11.000Z</time>
      </trkpt>
      <trkpt lat="47.27067" lon="-2.34803">
        <ele>7.8000001907349</ele>
        <time>2020-06-28T07:24:17.000Z</time>
      </trkpt>
      <trkpt lat="47.27069" lon="-2.3481">
        <ele>8.1999998092651</ele>
        <time>2020-06-28T07:24:18.000Z</time>
      </trkpt>
      <trkpt lat="47.2707" lon="-2.34816">
        <ele>8.6000003814697</ele>
        <time>2020-06-28T07:24:19.000Z</time>
      </trkpt>
      <trkpt lat="47.27072" lon="-2.34823">
        <ele>9</ele>
        <time>2020-06-28T07:24:20.000Z</time>
      </trkpt>
      <trkpt lat="47.27073" lon="-2.3483">
        <ele>9.3999996185303</ele>
        <time>2020-06-28T07:24:21.000Z</time>
      </trkpt>
      <trkpt lat="47.27079" lon="-2.3485">
        <ele>9.3999996185303</ele>
        <time>2020-06-28T07:24:24.000Z</time>
      </trkpt>
      <trkpt lat="47.27096" lon="-2.34914">
        <ele>9.3999996185303</ele>
        <time>2020-06-28T07:24:33.000Z</time>
      </trkpt>
      <trkpt lat="47.27114" lon="-2.34973">
        <ele>9.3999996185303</ele>
        <time>2020-06-28T07:24:41.000Z</time>
      </trkpt>
      <trkpt lat="47.27133" lon="-2.35034">
        <ele>9.3999996185303</ele>
        <time>2020-06-28T07:24:49.000Z</time>
      </trkpt>
      <trkpt lat="47.27143" lon="-2.35069">
        <ele>9</ele>
        <time>2020-06-28T07:24:54.000Z</time>
      </trkpt>
      <trkpt lat="47.27145" lon="-2.35072">
        <ele>8.6000003814697</ele>
        <time>2020-06-28T07:24:55.000Z</time>
      </trkpt>
      <trkpt lat="47.27146" lon="-2.35075">
        <ele>8.1999998092651</ele>
        <time>2020-06-28T07:24:56.000Z</time>
      </trkpt>
      <trkpt lat="47.27146" lon="-2.3508">
        <ele>7.5999999046326</ele>
        <time>2020-06-28T07:24:57.000Z</time>
      </trkpt>
      <trkpt lat="47.27148" lon="-2.35086">
        <ele>7.1999998092651</ele>
        <time>2020-06-28T07:24:58.000Z</time>
      </trkpt>
      <trkpt lat="47.27158" lon="-2.35106">
        <ele>7.1999998092651</ele>
        <time>2020-06-28T07:25:01.000Z</time>
      </trkpt>
      <trkpt lat="47.27161" lon="-2.35115">
        <ele>7.1999998092651</ele>
        <time>2020-06-28T07:25:02.000Z</time>
      </trkpt>
      <trkpt lat="47.27175" lon="-2.3515">
        <ele>7.1999998092651</ele>
        <time>2020-06-28T07:25:06.000Z</time>
      </trkpt>
      <trkpt lat="47.27203" lon="-2.3522">
        <ele>7.1999998092651</ele>
        <time>2020-06-28T07:25:14.000Z</time>
      </trkpt>
      <trkpt lat="47.27227" lon="-2.35273">
        <ele>7.1999998092651</ele>
        <time>2020-06-28T07:25:21.000Z</time>
      </trkpt>
      <trkpt lat="47.27254" lon="-2.35336">
        <ele>7.1999998092651</ele>
        <time>2020-06-28T07:25:29.000Z</time>
      </trkpt>
      <trkpt lat="47.2727" lon="-2.35393">
        <ele>7.1999998092651</ele>
        <time>2020-06-28T07:25:35.000Z</time>
      </trkpt>
      <trkpt lat="47.27284" lon="-2.35455">
        <ele>7.1999998092651</ele>
        <time>2020-06-28T07:25:41.000Z</time>
      </trkpt>
      <trkpt lat="47.27301" lon="-2.35523">
        <ele>7.1999998092651</ele>
        <time>2020-06-28T07:25:48.000Z</time>
      </trkpt>
      <trkpt lat="47.27304" lon="-2.35532">
        <ele>6.8000001907349</ele>
        <time>2020-06-28T07:25:49.000Z</time>
      </trkpt>
      <trkpt lat="47.27306" lon="-2.35542">
        <ele>6.4000000953674</ele>
        <time>2020-06-28T07:25:50.000Z</time>
      </trkpt>
      <trkpt lat="47.27307" lon="-2.35552">
        <ele>6</ele>
        <time>2020-06-28T07:25:51.000Z</time>
      </trkpt>
      <trkpt lat="47.27309" lon="-2.35561">
        <ele>5.5999999046326</ele>
        <time>2020-06-28T07:25:52.000Z</time>
      </trkpt>
      <trkpt lat="47.27311" lon="-2.35571">
        <ele>5.1999998092651</ele>
        <time>2020-06-28T07:25:53.000Z</time>
      </trkpt>
      <trkpt lat="47.27316" lon="-2.3559">
        <ele>5.1999998092651</ele>
        <time>2020-06-28T07:25:55.000Z</time>
      </trkpt>
      <trkpt lat="47.27332" lon="-2.35646">
        <ele>5.1999998092651</ele>
        <time>2020-06-28T07:26:01.000Z</time>
      </trkpt>
      <trkpt lat="47.27335" lon="-2.35656">
        <ele>5.1999998092651</ele>
        <time>2020-06-28T07:26:02.000Z</time>
      </trkpt>
      <trkpt lat="47.27346" lon="-2.3568">
        <ele>5.1999998092651</ele>
        <time>2020-06-28T07:26:05.000Z</time>
      </trkpt>
      <trkpt lat="47.27351" lon="-2.35684">
        <ele>5.1999998092651</ele>
        <time>2020-06-28T07:26:06.000Z</time>
      </trkpt>
      <trkpt lat="47.27364" lon="-2.35685">
        <ele>5.1999998092651</ele>
        <time>2020-06-28T07:26:08.000Z</time>
      </trkpt>
      <trkpt lat="47.2737" lon="-2.35684">
        <ele>4.8000001907349</ele>
        <time>2020-06-28T07:26:09.000Z</time>
      </trkpt>
      <trkpt lat="47.27375" lon="-2.35682">
        <ele>4.4000000953674</ele>
        <time>2020-06-28T07:26:10.000Z</time>
      </trkpt>
      <trkpt lat="47.2738" lon="-2.3568">
        <ele>4</ele>
        <time>2020-06-28T07:26:11.000Z</time>
      </trkpt>
      <trkpt lat="47.27385" lon="-2.35681">
        <ele>3.5999999046326</ele>
        <time>2020-06-28T07:26:12.000Z</time>
      </trkpt>
      <trkpt lat="47.2739" lon="-2.35684">
        <ele>3.2000000476837</ele>
        <time>2020-06-28T07:26:13.000Z</time>
      </trkpt>
      <trkpt lat="47.27397" lon="-2.35697">
        <ele>3.2000000476837</ele>
        <time>2020-06-28T07:26:15.000Z</time>
      </trkpt>
      <trkpt lat="47.27401" lon="-2.35711">
        <ele>3.2000000476837</ele>
        <time>2020-06-28T07:26:17.000Z</time>
      </trkpt>
      <trkpt lat="47.27408" lon="-2.35732">
        <ele>3.2000000476837</ele>
        <time>2020-06-28T07:26:20.000Z</time>
      </trkpt>
      <trkpt lat="47.27424" lon="-2.35781">
        <ele>3.2000000476837</ele>
        <time>2020-06-28T07:26:27.000Z</time>
      </trkpt>
      <trkpt lat="47.27438" lon="-2.35829">
        <ele>3.2000000476837</ele>
        <time>2020-06-28T07:26:34.000Z</time>
      </trkpt>
      <trkpt lat="47.27443" lon="-2.35843">
        <ele>3.5999999046326</ele>
        <time>2020-06-28T07:26:36.000Z</time>
      </trkpt>
      <trkpt lat="47.27445" lon="-2.35851">
        <ele>4</ele>
        <time>2020-06-28T07:26:37.000Z</time>
      </trkpt>
      <trkpt lat="47.27448" lon="-2.35858">
        <ele>4.4000000953674</ele>
        <time>2020-06-28T07:26:38.000Z</time>
      </trkpt>
      <trkpt lat="47.2745" lon="-2.35866">
        <ele>4.8000001907349</ele>
        <time>2020-06-28T07:26:39.000Z</time>
      </trkpt>
      <trkpt lat="47.27452" lon="-2.35874">
        <ele>5.4000000953674</ele>
        <time>2020-06-28T07:26:40.000Z</time>
      </trkpt>
      <trkpt lat="47.27466" lon="-2.3592">
        <ele>5.4000000953674</ele>
        <time>2020-06-28T07:26:46.000Z</time>
      </trkpt>
      <trkpt lat="47.27485" lon="-2.35976">
        <ele>5.4000000953674</ele>
        <time>2020-06-28T07:26:53.000Z</time>
      </trkpt>
      <trkpt lat="47.27488" lon="-2.35985">
        <ele>5.8000001907349</ele>
        <time>2020-06-28T07:26:54.000Z</time>
      </trkpt>
      <trkpt lat="47.27491" lon="-2.35993">
        <ele>6.5999999046326</ele>
        <time>2020-06-28T07:26:55.000Z</time>
      </trkpt>
      <trkpt lat="47.27493" lon="-2.36001">
        <ele>7</ele>
        <time>2020-06-28T07:26:56.000Z</time>
      </trkpt>
      <trkpt lat="47.27496" lon="-2.36009">
        <ele>7.4000000953674</ele>
        <time>2020-06-28T07:26:57.000Z</time>
      </trkpt>
      <trkpt lat="47.27504" lon="-2.36032">
        <ele>7.4000000953674</ele>
        <time>2020-06-28T07:27:00.000Z</time>
      </trkpt>
      <trkpt lat="47.27522" lon="-2.36085">
        <ele>7.4000000953674</ele>
        <time>2020-06-28T07:27:07.000Z</time>
      </trkpt>
      <trkpt lat="47.27538" lon="-2.36128">
        <ele>7.4000000953674</ele>
        <time>2020-06-28T07:27:13.000Z</time>
      </trkpt>
      <trkpt lat="47.27562" lon="-2.36155">
        <ele>7.4000000953674</ele>
        <time>2020-06-28T07:27:18.000Z</time>
      </trkpt>
      <trkpt lat="47.27596" lon="-2.36184">
        <ele>7.4000000953674</ele>
        <time>2020-06-28T07:27:25.000Z</time>
      </trkpt>
      <trkpt lat="47.27627" lon="-2.36205">
        <ele>7.4000000953674</ele>
        <time>2020-06-28T07:27:31.000Z</time>
      </trkpt>
      <trkpt lat="47.27648" lon="-2.36213">
        <ele>7.4000000953674</ele>
        <time>2020-06-28T07:27:35.000Z</time>
      </trkpt>
      <trkpt lat="47.27659" lon="-2.36235">
        <ele>7.4000000953674</ele>
        <time>2020-06-28T07:27:38.000Z</time>
      </trkpt>
      <trkpt lat="47.27682" lon="-2.36253">
        <ele>7.4000000953674</ele>
        <time>2020-06-28T07:27:42.000Z</time>
      </trkpt>
      <trkpt lat="47.27712" lon="-2.36278">
        <ele>7</ele>
        <time>2020-06-28T07:27:47.000Z</time>
      </trkpt>
      <trkpt lat="47.27718" lon="-2.36283">
        <ele>6.5999999046326</ele>
        <time>2020-06-28T07:27:48.000Z</time>
      </trkpt>
      <trkpt lat="47.27723" lon="-2.36287">
        <ele>6.1999998092651</ele>
        <time>2020-06-28T07:27:49.000Z</time>
      </trkpt>
      <trkpt lat="47.27728" lon="-2.36292">
        <ele>5.8000001907349</ele>
        <time>2020-06-28T07:27:50.000Z</time>
      </trkpt>
      <trkpt lat="47.27734" lon="-2.36296">
        <ele>5.4000000953674</ele>
        <time>2020-06-28T07:27:51.000Z</time>
      </trkpt>
      <trkpt lat="47.27751" lon="-2.3631">
        <ele>5.4000000953674</ele>
        <time>2020-06-28T07:27:54.000Z</time>
      </trkpt>
      <trkpt lat="47.27786" lon="-2.36339">
        <ele>5.4000000953674</ele>
        <time>2020-06-28T07:28:00.000Z</time>
      </trkpt>
      <trkpt lat="47.27821" lon="-2.36372">
        <ele>5.4000000953674</ele>
        <time>2020-06-28T07:28:06.000Z</time>
      </trkpt>
      <trkpt lat="47.27839" lon="-2.36387">
        <ele>5</ele>
        <time>2020-06-28T07:28:09.000Z</time>
      </trkpt>
      <trkpt lat="47.27845" lon="-2.36392">
        <ele>4.1999998092651</ele>
        <time>2020-06-28T07:28:10.000Z</time>
      </trkpt>
      <trkpt lat="47.2785" lon="-2.36397">
        <ele>3.7999999523163</ele>
        <time>2020-06-28T07:28:11.000Z</time>
      </trkpt>
      <trkpt lat="47.27856" lon="-2.36402">
        <ele>3.4000000953674</ele>
        <time>2020-06-28T07:28:12.000Z</time>
      </trkpt>
      <trkpt lat="47.27867" lon="-2.36412">
        <ele>3.4000000953674</ele>
        <time>2020-06-28T07:28:14.000Z</time>
      </trkpt>
      <trkpt lat="47.27883" lon="-2.36425">
        <ele>3.4000000953674</ele>
        <time>2020-06-28T07:28:17.000Z</time>
      </trkpt>
      <trkpt lat="47.27895" lon="-2.36429">
        <ele>3.4000000953674</ele>
        <time>2020-06-28T07:28:19.000Z</time>
      </trkpt>
      <trkpt lat="47.27905" lon="-2.36437">
        <ele>3.4000000953674</ele>
        <time>2020-06-28T07:28:21.000Z</time>
      </trkpt>
      <trkpt lat="47.27911" lon="-2.36451">
        <ele>3.4000000953674</ele>
        <time>2020-06-28T07:28:23.000Z</time>
      </trkpt>
      <trkpt lat="47.27932" lon="-2.36498">
        <ele>3.4000000953674</ele>
        <time>2020-06-28T07:28:30.000Z</time>
      </trkpt>
      <trkpt lat="47.27965" lon="-2.36559">
        <ele>3.4000000953674</ele>
        <time>2020-06-28T07:28:39.000Z</time>
      </trkpt>
      <trkpt lat="47.27979" lon="-2.36583">
        <ele>3.4000000953674</ele>
        <time>2020-06-28T07:28:44.000Z</time>
      </trkpt>
      <trkpt lat="47.27985" lon="-2.36589">
        <ele>3.4000000953674</ele>
        <time>2020-06-28T07:28:49.000Z</time>
      </trkpt>
      <trkpt lat="47.2799" lon="-2.36596">
        <ele>3.4000000953674</ele>
        <time>2020-06-28T07:28:53.000Z</time>
      </trkpt>
      <trkpt lat="47.27989" lon="-2.36602">
        <ele>3.4000000953674</ele>
        <time>2020-06-28T07:28:55.000Z</time>
      </trkpt>
      <trkpt lat="47.2799" lon="-2.36605">
        <ele>3.4000000953674</ele>
        <time>2020-06-28T07:28:56.000Z</time>
      </trkpt>
      <trkpt lat="47.27996" lon="-2.36614">
        <ele>3.4000000953674</ele>
        <time>2020-06-28T07:28:59.000Z</time>
      </trkpt>
      <trkpt lat="47.28009" lon="-2.36637">
        <ele>3.4000000953674</ele>
        <time>2020-06-28T07:29:03.000Z</time>
      </trkpt>
      <trkpt lat="47.28033" lon="-2.36687">
        <ele>3.4000000953674</ele>
        <time>2020-06-28T07:29:11.000Z</time>
      </trkpt>
      <trkpt lat="47.2805" lon="-2.36721">
        <ele>3.4000000953674</ele>
        <time>2020-06-28T07:29:17.000Z</time>
      </trkpt>
      <trkpt lat="47.28078" lon="-2.36772">
        <ele>3.4000000953674</ele>
        <time>2020-06-28T07:29:25.000Z</time>
      </trkpt>
      <trkpt lat="47.28092" lon="-2.36796">
        <ele>3.4000000953674</ele>
        <time>2020-06-28T07:29:30.000Z</time>
      </trkpt>
      <trkpt lat="47.28098" lon="-2.36805">
        <ele>3.4000000953674</ele>
        <time>2020-06-28T07:29:35.000Z</time>
      </trkpt>
      <trkpt lat="47.28099" lon="-2.36806">
        <ele>3.4000000953674</ele>
        <time>2020-06-28T07:29:37.000Z</time>
      </trkpt>
      <trkpt lat="47.28102" lon="-2.36806">
        <ele>3.4000000953674</ele>
        <time>2020-06-28T07:29:40.000Z</time>
      </trkpt>
      <trkpt lat="47.28103" lon="-2.36806">
        <ele>3.4000000953674</ele>
        <time>2020-06-28T07:29:41.000Z</time>
      </trkpt>
      <trkpt lat="47.28112" lon="-2.36801">
        <ele>3.4000000953674</ele>
        <time>2020-06-28T07:29:45.000Z</time>
      </trkpt>
      <trkpt lat="47.28117" lon="-2.368">
        <ele>3.4000000953674</ele>
        <time>2020-06-28T07:29:46.000Z</time>
      </trkpt>
      <trkpt lat="47.28129" lon="-2.36805">
        <ele>3.4000000953674</ele>
        <time>2020-06-28T07:29:48.000Z</time>
      </trkpt>
      <trkpt lat="47.28139" lon="-2.36808">
        <ele>3.4000000953674</ele>
        <time>2020-06-28T07:29:50.000Z</time>
      </trkpt>
      <trkpt lat="47.28147" lon="-2.36801">
        <ele>3.4000000953674</ele>
        <time>2020-06-28T07:29:52.000Z</time>
      </trkpt>
      <trkpt lat="47.28154" lon="-2.36792">
        <ele>3.4000000953674</ele>
        <time>2020-06-28T07:29:54.000Z</time>
      </trkpt>
      <trkpt lat="47.28171" lon="-2.36773">
        <ele>3.4000000953674</ele>
        <time>2020-06-28T07:29:58.000Z</time>
      </trkpt>
      <trkpt lat="47.282" lon="-2.36744">
        <ele>3.4000000953674</ele>
        <time>2020-06-28T07:30:04.000Z</time>
      </trkpt>
      <trkpt lat="47.28216" lon="-2.36732">
        <ele>3.7999999523163</ele>
        <time>2020-06-28T07:30:07.000Z</time>
      </trkpt>
      <trkpt lat="47.28221" lon="-2.36724">
        <ele>4.1999998092651</ele>
        <time>2020-06-28T07:30:08.000Z</time>
      </trkpt>
      <trkpt lat="47.28227" lon="-2.36717">
        <ele>4.8000001907349</ele>
        <time>2020-06-28T07:30:09.000Z</time>
      </trkpt>
      <trkpt lat="47.28232" lon="-2.3671">
        <ele>5.1999998092651</ele>
        <time>2020-06-28T07:30:10.000Z</time>
      </trkpt>
      <trkpt lat="47.28237" lon="-2.36703">
        <ele>5.5999999046326</ele>
        <time>2020-06-28T07:30:11.000Z</time>
      </trkpt>
      <trkpt lat="47.2827" lon="-2.36665">
        <ele>5.5999999046326</ele>
        <time>2020-06-28T07:30:18.000Z</time>
      </trkpt>
      <trkpt lat="47.28274" lon="-2.3666">
        <ele>6</ele>
        <time>2020-06-28T07:30:19.000Z</time>
      </trkpt>
      <trkpt lat="47.28279" lon="-2.36656">
        <ele>6.4000000953674</ele>
        <time>2020-06-28T07:30:20.000Z</time>
      </trkpt>
      <trkpt lat="47.28283" lon="-2.36651">
        <ele>6.8000001907349</ele>
        <time>2020-06-28T07:30:21.000Z</time>
      </trkpt>
      <trkpt lat="47.28287" lon="-2.36646">
        <ele>7.1999998092651</ele>
        <time>2020-06-28T07:30:22.000Z</time>
      </trkpt>
      <trkpt lat="47.28291" lon="-2.36642">
        <ele>7.5999999046326</ele>
        <time>2020-06-28T07:30:23.000Z</time>
      </trkpt>
      <trkpt lat="47.28295" lon="-2.36637">
        <ele>7.5999999046326</ele>
        <time>2020-06-28T07:30:24.000Z</time>
      </trkpt>
      <trkpt lat="47.28307" lon="-2.36624">
        <ele>8</ele>
        <time>2020-06-28T07:30:27.000Z</time>
      </trkpt>
      <trkpt lat="47.28311" lon="-2.3662">
        <ele>8.3999996185303</ele>
        <time>2020-06-28T07:30:28.000Z</time>
      </trkpt>
      <trkpt lat="47.28315" lon="-2.36617">
        <ele>8.8000001907349</ele>
        <time>2020-06-28T07:30:29.000Z</time>
      </trkpt>
      <trkpt lat="47.28318" lon="-2.36613">
        <ele>9.3999996185303</ele>
        <time>2020-06-28T07:30:30.000Z</time>
      </trkpt>
      <trkpt lat="47.28322" lon="-2.36608">
        <ele>9.8000001907349</ele>
        <time>2020-06-28T07:30:31.000Z</time>
      </trkpt>
      <trkpt lat="47.28325" lon="-2.36604">
        <ele>9.8000001907349</ele>
        <time>2020-06-28T07:30:32.000Z</time>
      </trkpt>
      <trkpt lat="47.28337" lon="-2.3659">
        <ele>10.60000038147</ele>
        <time>2020-06-28T07:30:36.000Z</time>
      </trkpt>
      <trkpt lat="47.28341" lon="-2.36584">
        <ele>11.60000038147</ele>
        <time>2020-06-28T07:30:38.000Z</time>
      </trkpt>
      <trkpt lat="47.28344" lon="-2.3658">
        <ele>12</ele>
        <time>2020-06-28T07:30:39.000Z</time>
      </trkpt>
      <trkpt lat="47.28357" lon="-2.36565">
        <ele>12.39999961853</ele>
        <time>2020-06-28T07:30:44.000Z</time>
      </trkpt>
      <trkpt lat="47.28361" lon="-2.36567">
        <ele>12.800000190735</ele>
        <time>2020-06-28T07:30:45.000Z</time>
      </trkpt>
      <trkpt lat="47.28364" lon="-2.36571">
        <ele>13.199999809265</ele>
        <time>2020-06-28T07:30:46.000Z</time>
      </trkpt>
      <trkpt lat="47.28367" lon="-2.36576">
        <ele>13.60000038147</ele>
        <time>2020-06-28T07:30:47.000Z</time>
      </trkpt>
      <trkpt lat="47.2837" lon="-2.36579">
        <ele>14</ele>
        <time>2020-06-28T07:30:48.000Z</time>
      </trkpt>
      <trkpt lat="47.28372" lon="-2.36582">
        <ele>14</ele>
        <time>2020-06-28T07:30:49.000Z</time>
      </trkpt>
      <trkpt lat="47.28381" lon="-2.36597">
        <ele>14.60000038147</ele>
        <time>2020-06-28T07:30:53.000Z</time>
      </trkpt>
      <trkpt lat="47.28383" lon="-2.366">
        <ele>15</ele>
        <time>2020-06-28T07:30:54.000Z</time>
      </trkpt>
      <trkpt lat="47.28385" lon="-2.36604">
        <ele>15.39999961853</ele>
        <time>2020-06-28T07:30:55.000Z</time>
      </trkpt>
      <trkpt lat="47.28387" lon="-2.36608">
        <ele>16</ele>
        <time>2020-06-28T07:30:56.000Z</time>
      </trkpt>
      <trkpt lat="47.28389" lon="-2.36611">
        <ele>16.39999961853</ele>
        <time>2020-06-28T07:30:57.000Z</time>
      </trkpt>
      <trkpt lat="47.28396" lon="-2.36621">
        <ele>16.39999961853</ele>
        <time>2020-06-28T07:31:00.000Z</time>
      </trkpt>
      <trkpt lat="47.28398" lon="-2.36624">
        <ele>16.799999237061</ele>
        <time>2020-06-28T07:31:01.000Z</time>
      </trkpt>
      <trkpt lat="47.284" lon="-2.36627">
        <ele>17.200000762939</ele>
        <time>2020-06-28T07:31:02.000Z</time>
      </trkpt>
      <trkpt lat="47.28403" lon="-2.36631">
        <ele>18.200000762939</ele>
        <time>2020-06-28T07:31:03.000Z</time>
      </trkpt>
      <trkpt lat="47.28407" lon="-2.36635">
        <ele>18.60000038147</ele>
        <time>2020-06-28T07:31:04.000Z</time>
      </trkpt>
      <trkpt lat="47.28415" lon="-2.36647">
        <ele>18.60000038147</ele>
        <time>2020-06-28T07:31:07.000Z</time>
      </trkpt>
      <trkpt lat="47.28417" lon="-2.3665">
        <ele>19</ele>
        <time>2020-06-28T07:31:08.000Z</time>
      </trkpt>
      <trkpt lat="47.2842" lon="-2.36655">
        <ele>19.39999961853</ele>
        <time>2020-06-28T07:31:09.000Z</time>
      </trkpt>
      <trkpt lat="47.28422" lon="-2.3666">
        <ele>19.799999237061</ele>
        <time>2020-06-28T07:31:10.000Z</time>
      </trkpt>
      <trkpt lat="47.28425" lon="-2.36665">
        <ele>20.39999961853</ele>
        <time>2020-06-28T07:31:11.000Z</time>
      </trkpt>
      <trkpt lat="47.28427" lon="-2.3667">
        <ele>20.799999237061</ele>
        <time>2020-06-28T07:31:12.000Z</time>
      </trkpt>
      <trkpt lat="47.28432" lon="-2.3668">
        <ele>20.799999237061</ele>
        <time>2020-06-28T07:31:14.000Z</time>
      </trkpt>
      <trkpt lat="47.28449" lon="-2.36714">
        <ele>20.799999237061</ele>
        <time>2020-06-28T07:31:21.000Z</time>
      </trkpt>
      <trkpt lat="47.2846" lon="-2.36711">
        <ele>20.799999237061</ele>
        <time>2020-06-28T07:31:24.000Z</time>
      </trkpt>
      <trkpt lat="47.28464" lon="-2.36707">
        <ele>20.799999237061</ele>
        <time>2020-06-28T07:31:25.000Z</time>
      </trkpt>
      <trkpt lat="47.28479" lon="-2.36691">
        <ele>20.799999237061</ele>
        <time>2020-06-28T07:31:29.000Z</time>
      </trkpt>
      <trkpt lat="47.2849" lon="-2.36681">
        <ele>20.799999237061</ele>
        <time>2020-06-28T07:31:32.000Z</time>
      </trkpt>
      <trkpt lat="47.28501" lon="-2.36678">
        <ele>20.799999237061</ele>
        <time>2020-06-28T07:31:35.000Z</time>
      </trkpt>
      <trkpt lat="47.28508" lon="-2.3668">
        <ele>21.200000762939</ele>
        <time>2020-06-28T07:31:37.000Z</time>
      </trkpt>
      <trkpt lat="47.28512" lon="-2.36683">
        <ele>21.60000038147</ele>
        <time>2020-06-28T07:31:38.000Z</time>
      </trkpt>
      <trkpt lat="47.28516" lon="-2.36686">
        <ele>22</ele>
        <time>2020-06-28T07:31:39.000Z</time>
      </trkpt>
      <trkpt lat="47.28519" lon="-2.36693">
        <ele>22.39999961853</ele>
        <time>2020-06-28T07:31:40.000Z</time>
      </trkpt>
      <trkpt lat="47.28523" lon="-2.36698">
        <ele>22.799999237061</ele>
        <time>2020-06-28T07:31:41.000Z</time>
      </trkpt>
      <trkpt lat="47.28527" lon="-2.36705">
        <ele>22.799999237061</ele>
        <time>2020-06-28T07:31:42.000Z</time>
      </trkpt>
      <trkpt lat="47.28551" lon="-2.36748">
        <ele>22.39999961853</ele>
        <time>2020-06-28T07:31:48.000Z</time>
      </trkpt>
      <trkpt lat="47.28554" lon="-2.36755">
        <ele>22</ele>
        <time>2020-06-28T07:31:49.000Z</time>
      </trkpt>
      <trkpt lat="47.28558" lon="-2.36763">
        <ele>21.39999961853</ele>
        <time>2020-06-28T07:31:50.000Z</time>
      </trkpt>
      <trkpt lat="47.28561" lon="-2.36772">
        <ele>20.60000038147</ele>
        <time>2020-06-28T07:31:51.000Z</time>
      </trkpt>
      <trkpt lat="47.28574" lon="-2.36796">
        <ele>20.60000038147</ele>
        <time>2020-06-28T07:31:54.000Z</time>
      </trkpt>
      <trkpt lat="47.28577" lon="-2.36803">
        <ele>20.200000762939</ele>
        <time>2020-06-28T07:31:55.000Z</time>
      </trkpt>
      <trkpt lat="47.28582" lon="-2.36812">
        <ele>19.799999237061</ele>
        <time>2020-06-28T07:31:56.000Z</time>
      </trkpt>
      <trkpt lat="47.28586" lon="-2.36819">
        <ele>19.39999961853</ele>
        <time>2020-06-28T07:31:57.000Z</time>
      </trkpt>
      <trkpt lat="47.28589" lon="-2.36826">
        <ele>19</ele>
        <time>2020-06-28T07:31:58.000Z</time>
      </trkpt>
      <trkpt lat="47.28593" lon="-2.36833">
        <ele>18.60000038147</ele>
        <time>2020-06-28T07:31:59.000Z</time>
      </trkpt>
      <trkpt lat="47.28597" lon="-2.36839">
        <ele>18.60000038147</ele>
        <time>2020-06-28T07:32:00.000Z</time>
      </trkpt>
      <trkpt lat="47.28601" lon="-2.36843">
        <ele>18.60000038147</ele>
        <time>2020-06-28T07:32:01.000Z</time>
      </trkpt>
      <trkpt lat="47.28614" lon="-2.36841">
        <ele>18.60000038147</ele>
        <time>2020-06-28T07:32:04.000Z</time>
      </trkpt>
      <trkpt lat="47.28625" lon="-2.36828">
        <ele>18.60000038147</ele>
        <time>2020-06-28T07:32:07.000Z</time>
      </trkpt>
      <trkpt lat="47.28632" lon="-2.36819">
        <ele>18.60000038147</ele>
        <time>2020-06-28T07:32:09.000Z</time>
      </trkpt>
      <trkpt lat="47.28651" lon="-2.36797">
        <ele>18.60000038147</ele>
        <time>2020-06-28T07:32:14.000Z</time>
      </trkpt>
      <trkpt lat="47.28658" lon="-2.36789">
        <ele>18.60000038147</ele>
        <time>2020-06-28T07:32:16.000Z</time>
      </trkpt>
      <trkpt lat="47.28669" lon="-2.36776">
        <ele>19</ele>
        <time>2020-06-28T07:32:21.000Z</time>
      </trkpt>
      <trkpt lat="47.2867" lon="-2.36773">
        <ele>19.39999961853</ele>
        <time>2020-06-28T07:32:22.000Z</time>
      </trkpt>
      <trkpt lat="47.28671" lon="-2.36771">
        <ele>19.799999237061</ele>
        <time>2020-06-28T07:32:23.000Z</time>
      </trkpt>
      <trkpt lat="47.28672" lon="-2.36769">
        <ele>20.200000762939</ele>
        <time>2020-06-28T07:32:24.000Z</time>
      </trkpt>
      <trkpt lat="47.28673" lon="-2.36767">
        <ele>20.60000038147</ele>
        <time>2020-06-28T07:32:25.000Z</time>
      </trkpt>
      <trkpt lat="47.28677" lon="-2.36763">
        <ele>20.60000038147</ele>
        <time>2020-06-28T07:32:27.000Z</time>
      </trkpt>
      <trkpt lat="47.28683" lon="-2.36756">
        <ele>21.200000762939</ele>
        <time>2020-06-28T07:32:30.000Z</time>
      </trkpt>
      <trkpt lat="47.28685" lon="-2.36753">
        <ele>21.60000038147</ele>
        <time>2020-06-28T07:32:31.000Z</time>
      </trkpt>
      <trkpt lat="47.28687" lon="-2.3675">
        <ele>22</ele>
        <time>2020-06-28T07:32:32.000Z</time>
      </trkpt>
      <trkpt lat="47.28689" lon="-2.36746">
        <ele>22.60000038147</ele>
        <time>2020-06-28T07:32:33.000Z</time>
      </trkpt>
      <trkpt lat="47.28691" lon="-2.36743">
        <ele>23</ele>
        <time>2020-06-28T07:32:34.000Z</time>
      </trkpt>
      <trkpt lat="47.28705" lon="-2.36715">
        <ele>23</ele>
        <time>2020-06-28T07:32:41.000Z</time>
      </trkpt>
      <trkpt lat="47.28711" lon="-2.36701">
        <ele>23.39999961853</ele>
        <time>2020-06-28T07:32:45.000Z</time>
      </trkpt>
      <trkpt lat="47.28713" lon="-2.36698">
        <ele>23.799999237061</ele>
        <time>2020-06-28T07:32:46.000Z</time>
      </trkpt>
      <trkpt lat="47.28715" lon="-2.36695">
        <ele>24.200000762939</ele>
        <time>2020-06-28T07:32:47.000Z</time>
      </trkpt>
      <trkpt lat="47.28717" lon="-2.36693">
        <ele>24.799999237061</ele>
        <time>2020-06-28T07:32:48.000Z</time>
      </trkpt>
      <trkpt lat="47.28719" lon="-2.3669">
        <ele>25.200000762939</ele>
        <time>2020-06-28T07:32:49.000Z</time>
      </trkpt>
      <trkpt lat="47.28728" lon="-2.36674">
        <ele>25.60000038147</ele>
        <time>2020-06-28T07:32:54.000Z</time>
      </trkpt>
      <trkpt lat="47.2873" lon="-2.3667">
        <ele>26</ele>
        <time>2020-06-28T07:32:55.000Z</time>
      </trkpt>
      <trkpt lat="47.28732" lon="-2.36666">
        <ele>26.39999961853</ele>
        <time>2020-06-28T07:32:56.000Z</time>
      </trkpt>
      <trkpt lat="47.28734" lon="-2.36661">
        <ele>27</ele>
        <time>2020-06-28T07:32:57.000Z</time>
      </trkpt>
      <trkpt lat="47.28735" lon="-2.36657">
        <ele>27.39999961853</ele>
        <time>2020-06-28T07:32:58.000Z</time>
      </trkpt>
      <trkpt lat="47.28745" lon="-2.36637">
        <ele>27.39999961853</ele>
        <time>2020-06-28T07:33:02.000Z</time>
      </trkpt>
      <trkpt lat="47.28763" lon="-2.36605">
        <ele>27.39999961853</ele>
        <time>2020-06-28T07:33:08.000Z</time>
      </trkpt>
      <trkpt lat="47.28769" lon="-2.36596">
        <ele>27.799999237061</ele>
        <time>2020-06-28T07:33:10.000Z</time>
      </trkpt>
      <trkpt lat="47.28772" lon="-2.36591">
        <ele>28.200000762939</ele>
        <time>2020-06-28T07:33:11.000Z</time>
      </trkpt>
      <trkpt lat="47.28774" lon="-2.36587">
        <ele>28.60000038147</ele>
        <time>2020-06-28T07:33:12.000Z</time>
      </trkpt>
      <trkpt lat="47.28777" lon="-2.36583">
        <ele>29</ele>
        <time>2020-06-28T07:33:13.000Z</time>
      </trkpt>
      <trkpt lat="47.28779" lon="-2.36579">
        <ele>29.39999961853</ele>
        <time>2020-06-28T07:33:14.000Z</time>
      </trkpt>
      <trkpt lat="47.28784" lon="-2.36569">
        <ele>29.39999961853</ele>
        <time>2020-06-28T07:33:16.000Z</time>
      </trkpt>
      <trkpt lat="47.28783" lon="-2.3656">
        <ele>29.39999961853</ele>
        <time>2020-06-28T07:33:18.000Z</time>
      </trkpt>
      <trkpt lat="47.28786" lon="-2.36528">
        <ele>29.39999961853</ele>
        <time>2020-06-28T07:33:25.000Z</time>
      </trkpt>
      <trkpt lat="47.28794" lon="-2.36507">
        <ele>29.39999961853</ele>
        <time>2020-06-28T07:33:30.000Z</time>
      </trkpt>
      <trkpt lat="47.28795" lon="-2.36503">
        <ele>29.799999237061</ele>
        <time>2020-06-28T07:33:31.000Z</time>
      </trkpt>
      <trkpt lat="47.28796" lon="-2.36499">
        <ele>30.200000762939</ele>
        <time>2020-06-28T07:33:32.000Z</time>
      </trkpt>
      <trkpt lat="47.28797" lon="-2.36495">
        <ele>30.799999237061</ele>
        <time>2020-06-28T07:33:33.000Z</time>
      </trkpt>
      <trkpt lat="47.28798" lon="-2.36491">
        <ele>31.200000762939</ele>
        <time>2020-06-28T07:33:34.000Z</time>
      </trkpt>
      <trkpt lat="47.28799" lon="-2.36487">
        <ele>31.60000038147</ele>
        <time>2020-06-28T07:33:35.000Z</time>
      </trkpt>
      <trkpt lat="47.28801" lon="-2.36474">
        <ele>31.60000038147</ele>
        <time>2020-06-28T07:33:38.000Z</time>
      </trkpt>
      <trkpt lat="47.28805" lon="-2.36451">
        <ele>32</ele>
        <time>2020-06-28T07:33:44.000Z</time>
      </trkpt>
      <trkpt lat="47.28805" lon="-2.36447">
        <ele>32.400001525879</ele>
        <time>2020-06-28T07:33:45.000Z</time>
      </trkpt>
      <trkpt lat="47.28804" lon="-2.36444">
        <ele>32.799999237061</ele>
        <time>2020-06-28T07:33:46.000Z</time>
      </trkpt>
      <trkpt lat="47.28803" lon="-2.36437">
        <ele>33.400001525879</ele>
        <time>2020-06-28T07:33:47.000Z</time>
      </trkpt>
      <trkpt lat="47.28803" lon="-2.3643">
        <ele>33.799999237061</ele>
        <time>2020-06-28T07:33:48.000Z</time>
      </trkpt>
      <trkpt lat="47.28803" lon="-2.36425">
        <ele>33.799999237061</ele>
        <time>2020-06-28T07:33:49.000Z</time>
      </trkpt>
      <trkpt lat="47.28813" lon="-2.36393">
        <ele>33.799999237061</ele>
        <time>2020-06-28T07:33:55.000Z</time>
      </trkpt>
      <trkpt lat="47.2882" lon="-2.36374">
        <ele>33.799999237061</ele>
        <time>2020-06-28T07:33:58.000Z</time>
      </trkpt>
      <trkpt lat="47.28831" lon="-2.36358">
        <ele>33.799999237061</ele>
        <time>2020-06-28T07:34:01.000Z</time>
      </trkpt>
      <trkpt lat="47.28846" lon="-2.36335">
        <ele>33.400001525879</ele>
        <time>2020-06-28T07:34:06.000Z</time>
      </trkpt>
      <trkpt lat="47.28848" lon="-2.36332">
        <ele>33</ele>
        <time>2020-06-28T07:34:07.000Z</time>
      </trkpt>
      <trkpt lat="47.28851" lon="-2.36329">
        <ele>32.400001525879</ele>
        <time>2020-06-28T07:34:08.000Z</time>
      </trkpt>
      <trkpt lat="47.28852" lon="-2.36328">
        <ele>32</ele>
        <time>2020-06-28T07:34:09.000Z</time>
      </trkpt>
      <trkpt lat="47.28853" lon="-2.36327">
        <ele>31.60000038147</ele>
        <time>2020-06-28T07:34:10.000Z</time>
      </trkpt>
      <trkpt lat="47.28853" lon="-2.36327">
        <ele>31.60000038147</ele>
        <time>2020-06-28T07:34:11.000Z</time>
      </trkpt>
      <trkpt lat="47.28855" lon="-2.3633">
        <ele>31.60000038147</ele>
        <time>2020-06-28T07:34:23.000Z</time>
      </trkpt>
      <trkpt lat="47.28857" lon="-2.3633">
        <ele>31.200000762939</ele>
        <time>2020-06-28T07:34:24.000Z</time>
      </trkpt>
      <trkpt lat="47.28859" lon="-2.3633">
        <ele>30.799999237061</ele>
        <time>2020-06-28T07:34:25.000Z</time>
      </trkpt>
      <trkpt lat="47.28862" lon="-2.36332">
        <ele>30.39999961853</ele>
        <time>2020-06-28T07:34:26.000Z</time>
      </trkpt>
      <trkpt lat="47.28865" lon="-2.36335">
        <ele>30</ele>
        <time>2020-06-28T07:34:27.000Z</time>
      </trkpt>
      <trkpt lat="47.28869" lon="-2.36339">
        <ele>29.60000038147</ele>
        <time>2020-06-28T07:34:28.000Z</time>
      </trkpt>
      <trkpt lat="47.28873" lon="-2.36343">
        <ele>29</ele>
        <time>2020-06-28T07:34:29.000Z</time>
      </trkpt>
      <trkpt lat="47.28878" lon="-2.36348">
        <ele>28.39999961853</ele>
        <time>2020-06-28T07:34:30.000Z</time>
      </trkpt>
      <trkpt lat="47.28885" lon="-2.36353">
        <ele>28</ele>
        <time>2020-06-28T07:34:31.000Z</time>
      </trkpt>
      <trkpt lat="47.28892" lon="-2.36359">
        <ele>27.39999961853</ele>
        <time>2020-06-28T07:34:32.000Z</time>
      </trkpt>
      <trkpt lat="47.28899" lon="-2.36365">
        <ele>26.799999237061</ele>
        <time>2020-06-28T07:34:33.000Z</time>
      </trkpt>
      <trkpt lat="47.28909" lon="-2.36372">
        <ele>26.200000762939</ele>
        <time>2020-06-28T07:34:34.000Z</time>
      </trkpt>
      <trkpt lat="47.28918" lon="-2.36378">
        <ele>25.60000038147</ele>
        <time>2020-06-28T07:34:35.000Z</time>
      </trkpt>
      <trkpt lat="47.28926" lon="-2.36386">
        <ele>25</ele>
        <time>2020-06-28T07:34:36.000Z</time>
      </trkpt>
      <trkpt lat="47.28934" lon="-2.36394">
        <ele>24.39999961853</ele>
        <time>2020-06-28T07:34:37.000Z</time>
      </trkpt>
      <trkpt lat="47.28943" lon="-2.36402">
        <ele>23.60000038147</ele>
        <time>2020-06-28T07:34:38.000Z</time>
      </trkpt>
      <trkpt lat="47.28952" lon="-2.36412">
        <ele>23</ele>
        <time>2020-06-28T07:34:39.000Z</time>
      </trkpt>
      <trkpt lat="47.2896" lon="-2.36421">
        <ele>22.39999961853</ele>
        <time>2020-06-28T07:34:40.000Z</time>
      </trkpt>
      <trkpt lat="47.28968" lon="-2.36431">
        <ele>22</ele>
        <time>2020-06-28T07:34:41.000Z</time>
      </trkpt>
      <trkpt lat="47.28976" lon="-2.36441">
        <ele>21.60000038147</ele>
        <time>2020-06-28T07:34:42.000Z</time>
      </trkpt>
      <trkpt lat="47.28983" lon="-2.36451">
        <ele>21</ele>
        <time>2020-06-28T07:34:43.000Z</time>
      </trkpt>
      <trkpt lat="47.28989" lon="-2.3646">
        <ele>20.60000038147</ele>
        <time>2020-06-28T07:34:44.000Z</time>
      </trkpt>
      <trkpt lat="47.28995" lon="-2.36468">
        <ele>20.200000762939</ele>
        <time>2020-06-28T07:34:45.000Z</time>
      </trkpt>
      <trkpt lat="47.29009" lon="-2.3649">
        <ele>20.200000762939</ele>
        <time>2020-06-28T07:34:48.000Z</time>
      </trkpt>
      <trkpt lat="47.29017" lon="-2.36502">
        <ele>20.200000762939</ele>
        <time>2020-06-28T07:34:51.000Z</time>
      </trkpt>
      <trkpt lat="47.2902" lon="-2.36506">
        <ele>20.200000762939</ele>
        <time>2020-06-28T07:34:54.000Z</time>
      </trkpt>
      <trkpt lat="47.29019" lon="-2.36512">
        <ele>20.200000762939</ele>
        <time>2020-06-28T07:34:56.000Z</time>
      </trkpt>
      <trkpt lat="47.29007" lon="-2.36527">
        <ele>20.60000038147</ele>
        <time>2020-06-28T07:35:00.000Z</time>
      </trkpt>
      <trkpt lat="47.29002" lon="-2.36531">
        <ele>21</ele>
        <time>2020-06-28T07:35:01.000Z</time>
      </trkpt>
      <trkpt lat="47.28997" lon="-2.36535">
        <ele>21.39999961853</ele>
        <time>2020-06-28T07:35:02.000Z</time>
      </trkpt>
      <trkpt lat="47.28993" lon="-2.36539">
        <ele>21.799999237061</ele>
        <time>2020-06-28T07:35:03.000Z</time>
      </trkpt>
      <trkpt lat="47.28988" lon="-2.36544">
        <ele>22.200000762939</ele>
        <time>2020-06-28T07:35:04.000Z</time>
      </trkpt>
      <trkpt lat="47.2897" lon="-2.36564">
        <ele>22.200000762939</ele>
        <time>2020-06-28T07:35:08.000Z</time>
      </trkpt>
      <trkpt lat="47.28953" lon="-2.3659">
        <ele>22.200000762939</ele>
        <time>2020-06-28T07:35:12.000Z</time>
      </trkpt>
      <trkpt lat="47.28942" lon="-2.36612">
        <ele>22.200000762939</ele>
        <time>2020-06-28T07:35:15.000Z</time>
      </trkpt>
      <trkpt lat="47.28938" lon="-2.3662">
        <ele>22.200000762939</ele>
        <time>2020-06-28T07:35:16.000Z</time>
      </trkpt>
      <trkpt lat="47.28929" lon="-2.36642">
        <ele>22.200000762939</ele>
        <time>2020-06-28T07:35:19.000Z</time>
      </trkpt>
      <trkpt lat="47.28926" lon="-2.3665">
        <ele>22.200000762939</ele>
        <time>2020-06-28T07:35:20.000Z</time>
      </trkpt>
      <trkpt lat="47.2891" lon="-2.36685">
        <ele>22.200000762939</ele>
        <time>2020-06-28T07:35:25.000Z</time>
      </trkpt>
      <trkpt lat="47.28893" lon="-2.36725">
        <ele>22.200000762939</ele>
        <time>2020-06-28T07:35:31.000Z</time>
      </trkpt>
      <trkpt lat="47.28881" lon="-2.36756">
        <ele>22.200000762939</ele>
        <time>2020-06-28T07:35:36.000Z</time>
      </trkpt>
      <trkpt lat="47.28879" lon="-2.36763">
        <ele>22.200000762939</ele>
        <time>2020-06-28T07:35:37.000Z</time>
      </trkpt>
      <trkpt lat="47.28873" lon="-2.36782">
        <ele>22.200000762939</ele>
        <time>2020-06-28T07:35:41.000Z</time>
      </trkpt>
      <trkpt lat="47.2887" lon="-2.36799">
        <ele>22.200000762939</ele>
        <time>2020-06-28T07:35:46.000Z</time>
      </trkpt>
      <trkpt lat="47.28869" lon="-2.36802">
        <ele>21.799999237061</ele>
        <time>2020-06-28T07:35:47.000Z</time>
      </trkpt>
      <trkpt lat="47.28869" lon="-2.36805">
        <ele>21.39999961853</ele>
        <time>2020-06-28T07:35:48.000Z</time>
      </trkpt>
      <trkpt lat="47.28869" lon="-2.36808">
        <ele>21</ele>
        <time>2020-06-28T07:35:49.000Z</time>
      </trkpt>
      <trkpt lat="47.28869" lon="-2.36809">
        <ele>20.60000038147</ele>
        <time>2020-06-28T07:35:50.000Z</time>
      </trkpt>
      <trkpt lat="47.28868" lon="-2.3681">
        <ele>20.200000762939</ele>
        <time>2020-06-28T07:35:51.000Z</time>
      </trkpt>
      <trkpt lat="47.28867" lon="-2.36812">
        <ele>20.200000762939</ele>
        <time>2020-06-28T07:41:41.000Z</time>
      </trkpt>
      <trkpt lat="47.2886" lon="-2.36828">
        <ele>20.200000762939</ele>
        <time>2020-06-28T07:41:45.000Z</time>
      </trkpt>
      <trkpt lat="47.28856" lon="-2.36845">
        <ele>20.200000762939</ele>
        <time>2020-06-28T07:41:48.000Z</time>
      </trkpt>
      <trkpt lat="47.28853" lon="-2.36864">
        <ele>20.200000762939</ele>
        <time>2020-06-28T07:41:51.000Z</time>
      </trkpt>
      <trkpt lat="47.28851" lon="-2.36885">
        <ele>19.799999237061</ele>
        <time>2020-06-28T07:41:54.000Z</time>
      </trkpt>
      <trkpt lat="47.28851" lon="-2.36892">
        <ele>19.200000762939</ele>
        <time>2020-06-28T07:41:55.000Z</time>
      </trkpt>
      <trkpt lat="47.28852" lon="-2.36898">
        <ele>18.799999237061</ele>
        <time>2020-06-28T07:41:56.000Z</time>
      </trkpt>
      <trkpt lat="47.28852" lon="-2.36905">
        <ele>18.39999961853</ele>
        <time>2020-06-28T07:41:57.000Z</time>
      </trkpt>
      <trkpt lat="47.28852" lon="-2.36912">
        <ele>18</ele>
        <time>2020-06-28T07:41:58.000Z</time>
      </trkpt>
      <trkpt lat="47.28855" lon="-2.36926">
        <ele>18</ele>
        <time>2020-06-28T07:42:00.000Z</time>
      </trkpt>
      <trkpt lat="47.28858" lon="-2.3694">
        <ele>18</ele>
        <time>2020-06-28T07:42:02.000Z</time>
      </trkpt>
      <trkpt lat="47.28872" lon="-2.36997">
        <ele>18</ele>
        <time>2020-06-28T07:42:09.000Z</time>
      </trkpt>
      <trkpt lat="47.28882" lon="-2.3703">
        <ele>17.60000038147</ele>
        <time>2020-06-28T07:42:13.000Z</time>
      </trkpt>
      <trkpt lat="47.28885" lon="-2.37039">
        <ele>17.200000762939</ele>
        <time>2020-06-28T07:42:14.000Z</time>
      </trkpt>
      <trkpt lat="47.28889" lon="-2.37046">
        <ele>16.799999237061</ele>
        <time>2020-06-28T07:42:15.000Z</time>
      </trkpt>
      <trkpt lat="47.28892" lon="-2.37054">
        <ele>16.200000762939</ele>
        <time>2020-06-28T07:42:16.000Z</time>
      </trkpt>
      <trkpt lat="47.28896" lon="-2.37061">
        <ele>15.800000190735</ele>
        <time>2020-06-28T07:42:17.000Z</time>
      </trkpt>
      <trkpt lat="47.289" lon="-2.37067">
        <ele>15.800000190735</ele>
        <time>2020-06-28T07:42:18.000Z</time>
      </trkpt>
      <trkpt lat="47.2892" lon="-2.3709">
        <ele>15.800000190735</ele>
        <time>2020-06-28T07:42:22.000Z</time>
      </trkpt>
      <trkpt lat="47.28949" lon="-2.37122">
        <ele>15.39999961853</ele>
        <time>2020-06-28T07:42:28.000Z</time>
      </trkpt>
      <trkpt lat="47.28953" lon="-2.37128">
        <ele>15</ele>
        <time>2020-06-28T07:42:29.000Z</time>
      </trkpt>
      <trkpt lat="47.28957" lon="-2.37136">
        <ele>14.60000038147</ele>
        <time>2020-06-28T07:42:30.000Z</time>
      </trkpt>
      <trkpt lat="47.28961" lon="-2.37144">
        <ele>14.199999809265</ele>
        <time>2020-06-28T07:42:31.000Z</time>
      </trkpt>
      <trkpt lat="47.28964" lon="-2.37152">
        <ele>13.800000190735</ele>
        <time>2020-06-28T07:42:32.000Z</time>
      </trkpt>
      <trkpt lat="47.28967" lon="-2.3716">
        <ele>13.800000190735</ele>
        <time>2020-06-28T07:42:33.000Z</time>
      </trkpt>
      <trkpt lat="47.28974" lon="-2.37179">
        <ele>13.199999809265</ele>
        <time>2020-06-28T07:42:36.000Z</time>
      </trkpt>
      <trkpt lat="47.28977" lon="-2.37183">
        <ele>12.800000190735</ele>
        <time>2020-06-28T07:42:37.000Z</time>
      </trkpt>
      <trkpt lat="47.28981" lon="-2.37183">
        <ele>12.39999961853</ele>
        <time>2020-06-28T07:42:38.000Z</time>
      </trkpt>
      <trkpt lat="47.28985" lon="-2.37181">
        <ele>11.800000190735</ele>
        <time>2020-06-28T07:42:39.000Z</time>
      </trkpt>
      <trkpt lat="47.28989" lon="-2.37178">
        <ele>11.39999961853</ele>
        <time>2020-06-28T07:42:40.000Z</time>
      </trkpt>
      <trkpt lat="47.28992" lon="-2.37176">
        <ele>11.39999961853</ele>
        <time>2020-06-28T07:42:41.000Z</time>
      </trkpt>
      <trkpt lat="47.29003" lon="-2.37171">
        <ele>11.39999961853</ele>
        <time>2020-06-28T07:42:44.000Z</time>
      </trkpt>
      <trkpt lat="47.29013" lon="-2.37178">
        <ele>11.800000190735</ele>
        <time>2020-06-28T07:42:47.000Z</time>
      </trkpt>
      <trkpt lat="47.29015" lon="-2.37181">
        <ele>12.199999809265</ele>
        <time>2020-06-28T07:42:48.000Z</time>
      </trkpt>
      <trkpt lat="47.29018" lon="-2.37184">
        <ele>12.800000190735</ele>
        <time>2020-06-28T07:42:49.000Z</time>
      </trkpt>
      <trkpt lat="47.29021" lon="-2.37187">
        <ele>13.199999809265</ele>
        <time>2020-06-28T07:42:50.000Z</time>
      </trkpt>
      <trkpt lat="47.29023" lon="-2.3719">
        <ele>13.800000190735</ele>
        <time>2020-06-28T07:42:51.000Z</time>
      </trkpt>
      <trkpt lat="47.29039" lon="-2.37207">
        <ele>13.800000190735</ele>
        <time>2020-06-28T07:42:57.000Z</time>
      </trkpt>
      <trkpt lat="47.29047" lon="-2.37215">
        <ele>14.199999809265</ele>
        <time>2020-06-28T07:43:00.000Z</time>
      </trkpt>
      <trkpt lat="47.29049" lon="-2.37218">
        <ele>14.60000038147</ele>
        <time>2020-06-28T07:43:01.000Z</time>
      </trkpt>
      <trkpt lat="47.29052" lon="-2.37221">
        <ele>15</ele>
        <time>2020-06-28T07:43:02.000Z</time>
      </trkpt>
      <trkpt lat="47.29055" lon="-2.37224">
        <ele>15.39999961853</ele>
        <time>2020-06-28T07:43:03.000Z</time>
      </trkpt>
      <trkpt lat="47.29058" lon="-2.37227">
        <ele>15.800000190735</ele>
        <time>2020-06-28T07:43:04.000Z</time>
      </trkpt>
      <trkpt lat="47.2906" lon="-2.3723">
        <ele>15.800000190735</ele>
        <time>2020-06-28T07:43:05.000Z</time>
      </trkpt>
      <trkpt lat="47.29081" lon="-2.3725">
        <ele>15.800000190735</ele>
        <time>2020-06-28T07:43:12.000Z</time>
      </trkpt>
      <trkpt lat="47.29103" lon="-2.37273">
        <ele>16.200000762939</ele>
        <time>2020-06-28T07:43:20.000Z</time>
      </trkpt>
      <trkpt lat="47.29106" lon="-2.37276">
        <ele>16.60000038147</ele>
        <time>2020-06-28T07:43:21.000Z</time>
      </trkpt>
      <trkpt lat="47.29109" lon="-2.37279">
        <ele>17</ele>
        <time>2020-06-28T07:43:22.000Z</time>
      </trkpt>
      <trkpt lat="47.29112" lon="-2.37282">
        <ele>17.39999961853</ele>
        <time>2020-06-28T07:43:23.000Z</time>
      </trkpt>
      <trkpt lat="47.29114" lon="-2.37285">
        <ele>17.799999237061</ele>
        <time>2020-06-28T07:43:24.000Z</time>
      </trkpt>
      <trkpt lat="47.29125" lon="-2.37296">
        <ele>17.799999237061</ele>
        <time>2020-06-28T07:43:28.000Z</time>
      </trkpt>
      <trkpt lat="47.29145" lon="-2.37317">
        <ele>17.799999237061</ele>
        <time>2020-06-28T07:43:35.000Z</time>
      </trkpt>
      <trkpt lat="47.29161" lon="-2.37345">
        <ele>17.799999237061</ele>
        <time>2020-06-28T07:43:42.000Z</time>
      </trkpt>
      <trkpt lat="47.29177" lon="-2.37382">
        <ele>17.799999237061</ele>
        <time>2020-06-28T07:43:50.000Z</time>
      </trkpt>
      <trkpt lat="47.29194" lon="-2.37409">
        <ele>17.799999237061</ele>
        <time>2020-06-28T07:43:57.000Z</time>
      </trkpt>
      <trkpt lat="47.292" lon="-2.37418">
        <ele>17.799999237061</ele>
        <time>2020-06-28T07:43:59.000Z</time>
      </trkpt>
      <trkpt lat="47.29214" lon="-2.37444">
        <ele>17.799999237061</ele>
        <time>2020-06-28T07:44:04.000Z</time>
      </trkpt>
      <trkpt lat="47.29239" lon="-2.37484">
        <ele>17.799999237061</ele>
        <time>2020-06-28T07:44:11.000Z</time>
      </trkpt>
      <trkpt lat="47.29243" lon="-2.3749">
        <ele>17.39999961853</ele>
        <time>2020-06-28T07:44:12.000Z</time>
      </trkpt>
      <trkpt lat="47.29247" lon="-2.37496">
        <ele>16.60000038147</ele>
        <time>2020-06-28T07:44:13.000Z</time>
      </trkpt>
      <trkpt lat="47.29251" lon="-2.37502">
        <ele>16.200000762939</ele>
        <time>2020-06-28T07:44:14.000Z</time>
      </trkpt>
      <trkpt lat="47.29256" lon="-2.37508">
        <ele>15.800000190735</ele>
        <time>2020-06-28T07:44:15.000Z</time>
      </trkpt>
      <trkpt lat="47.2926" lon="-2.37512">
        <ele>15.800000190735</ele>
        <time>2020-06-28T07:44:16.000Z</time>
      </trkpt>
      <trkpt lat="47.29269" lon="-2.37517">
        <ele>15.800000190735</ele>
        <time>2020-06-28T07:44:18.000Z</time>
      </trkpt>
      <trkpt lat="47.29279" lon="-2.37536">
        <ele>15.800000190735</ele>
        <time>2020-06-28T07:44:21.000Z</time>
      </trkpt>
      <trkpt lat="47.29282" lon="-2.37545">
        <ele>15.800000190735</ele>
        <time>2020-06-28T07:44:22.000Z</time>
      </trkpt>
      <trkpt lat="47.29285" lon="-2.37553">
        <ele>15.800000190735</ele>
        <time>2020-06-28T07:44:23.000Z</time>
      </trkpt>
      <trkpt lat="47.29296" lon="-2.37574">
        <ele>15.800000190735</ele>
        <time>2020-06-28T07:44:26.000Z</time>
      </trkpt>
      <trkpt lat="47.29317" lon="-2.3761">
        <ele>15.800000190735</ele>
        <time>2020-06-28T07:44:32.000Z</time>
      </trkpt>
      <trkpt lat="47.29327" lon="-2.3763">
        <ele>15.800000190735</ele>
        <time>2020-06-28T07:44:35.000Z</time>
      </trkpt>
      <trkpt lat="47.29334" lon="-2.37651">
        <ele>15.800000190735</ele>
        <time>2020-06-28T07:44:38.000Z</time>
      </trkpt>
      <trkpt lat="47.29337" lon="-2.37665">
        <ele>15.800000190735</ele>
        <time>2020-06-28T07:44:40.000Z</time>
      </trkpt>
      <trkpt lat="47.29337" lon="-2.37681">
        <ele>15.800000190735</ele>
        <time>2020-06-28T07:44:42.000Z</time>
      </trkpt>
      <trkpt lat="47.29336" lon="-2.3772">
        <ele>15.800000190735</ele>
        <time>2020-06-28T07:44:46.000Z</time>
      </trkpt>
      <trkpt lat="47.29336" lon="-2.37731">
        <ele>15.199999809265</ele>
        <time>2020-06-28T07:44:47.000Z</time>
      </trkpt>
      <trkpt lat="47.29336" lon="-2.37741">
        <ele>14.800000190735</ele>
        <time>2020-06-28T07:44:48.000Z</time>
      </trkpt>
      <trkpt lat="47.29336" lon="-2.37753">
        <ele>14.199999809265</ele>
        <time>2020-06-28T07:44:49.000Z</time>
      </trkpt>
      <trkpt lat="47.29336" lon="-2.37765">
        <ele>13.800000190735</ele>
        <time>2020-06-28T07:44:50.000Z</time>
      </trkpt>
      <trkpt lat="47.29337" lon="-2.37777">
        <ele>13.199999809265</ele>
        <time>2020-06-28T07:44:51.000Z</time>
      </trkpt>
      <trkpt lat="47.29337" lon="-2.3779">
        <ele>12.60000038147</ele>
        <time>2020-06-28T07:44:52.000Z</time>
      </trkpt>
      <trkpt lat="47.29338" lon="-2.37802">
        <ele>12</ele>
        <time>2020-06-28T07:44:53.000Z</time>
      </trkpt>
      <trkpt lat="47.29338" lon="-2.37815">
        <ele>11.39999961853</ele>
        <time>2020-06-28T07:44:54.000Z</time>
      </trkpt>
      <trkpt lat="47.29339" lon="-2.37829">
        <ele>10.800000190735</ele>
        <time>2020-06-28T07:44:55.000Z</time>
      </trkpt>
      <trkpt lat="47.29343" lon="-2.37854">
        <ele>10.800000190735</ele>
        <time>2020-06-28T07:44:57.000Z</time>
      </trkpt>
      <trkpt lat="47.29349" lon="-2.37877">
        <ele>10.199999809265</ele>
        <time>2020-06-28T07:44:59.000Z</time>
      </trkpt>
      <trkpt lat="47.29352" lon="-2.37889">
        <ele>9.8000001907349</ele>
        <time>2020-06-28T07:45:00.000Z</time>
      </trkpt>
      <trkpt lat="47.29356" lon="-2.379">
        <ele>9.3999996185303</ele>
        <time>2020-06-28T07:45:01.000Z</time>
      </trkpt>
      <trkpt lat="47.29359" lon="-2.3791">
        <ele>8.8000001907349</ele>
        <time>2020-06-28T07:45:02.000Z</time>
      </trkpt>
      <trkpt lat="47.29363" lon="-2.3792">
        <ele>8</ele>
        <time>2020-06-28T07:45:03.000Z</time>
      </trkpt>
      <trkpt lat="47.29366" lon="-2.37929">
        <ele>7.5999999046326</ele>
        <time>2020-06-28T07:45:04.000Z</time>
      </trkpt>
      <trkpt lat="47.2937" lon="-2.37939">
        <ele>7.1999998092651</ele>
        <time>2020-06-28T07:45:05.000Z</time>
      </trkpt>
      <trkpt lat="47.29373" lon="-2.37947">
        <ele>6.8000001907349</ele>
        <time>2020-06-28T07:45:06.000Z</time>
      </trkpt>
      <trkpt lat="47.29377" lon="-2.37956">
        <ele>6.1999998092651</ele>
        <time>2020-06-28T07:45:07.000Z</time>
      </trkpt>
      <trkpt lat="47.29383" lon="-2.37971">
        <ele>5.8000001907349</ele>
        <time>2020-06-28T07:45:09.000Z</time>
      </trkpt>
      <trkpt lat="47.29386" lon="-2.37977">
        <ele>5.4000000953674</ele>
        <time>2020-06-28T07:45:10.000Z</time>
      </trkpt>
      <trkpt lat="47.29389" lon="-2.37983">
        <ele>5</ele>
        <time>2020-06-28T07:45:11.000Z</time>
      </trkpt>
      <trkpt lat="47.29391" lon="-2.37988">
        <ele>4.5999999046326</ele>
        <time>2020-06-28T07:45:12.000Z</time>
      </trkpt>
      <trkpt lat="47.29393" lon="-2.37994">
        <ele>4.1999998092651</ele>
        <time>2020-06-28T07:45:13.000Z</time>
      </trkpt>
      <trkpt lat="47.29398" lon="-2.38006">
        <ele>4.1999998092651</ele>
        <time>2020-06-28T07:45:15.000Z</time>
      </trkpt>
      <trkpt lat="47.29416" lon="-2.3805">
        <ele>4.1999998092651</ele>
        <time>2020-06-28T07:45:21.000Z</time>
      </trkpt>
      <trkpt lat="47.29434" lon="-2.381">
        <ele>4.1999998092651</ele>
        <time>2020-06-28T07:45:27.000Z</time>
      </trkpt>
      <trkpt lat="47.29436" lon="-2.38108">
        <ele>3.7999999523163</ele>
        <time>2020-06-28T07:45:28.000Z</time>
      </trkpt>
      <trkpt lat="47.29439" lon="-2.38116">
        <ele>3</ele>
        <time>2020-06-28T07:45:29.000Z</time>
      </trkpt>
      <trkpt lat="47.29441" lon="-2.38124">
        <ele>2.5999999046326</ele>
        <time>2020-06-28T07:45:30.000Z</time>
      </trkpt>
      <trkpt lat="47.29443" lon="-2.38132">
        <ele>2</ele>
        <time>2020-06-28T07:45:31.000Z</time>
      </trkpt>
      <trkpt lat="47.2945" lon="-2.38157">
        <ele>2</ele>
        <time>2020-06-28T07:45:34.000Z</time>
      </trkpt>
      <trkpt lat="47.29455" lon="-2.3821">
        <ele>2</ele>
        <time>2020-06-28T07:45:40.000Z</time>
      </trkpt>
      <trkpt lat="47.29456" lon="-2.38236">
        <ele>2</ele>
        <time>2020-06-28T07:45:44.000Z</time>
      </trkpt>
      <trkpt lat="47.29461" lon="-2.38269">
        <ele>2</ele>
        <time>2020-06-28T07:45:51.000Z</time>
      </trkpt>
      <trkpt lat="47.29461" lon="-2.38286">
        <ele>2</ele>
        <time>2020-06-28T07:45:56.000Z</time>
      </trkpt>
      <trkpt lat="47.29458" lon="-2.38317">
        <ele>2</ele>
        <time>2020-06-28T07:46:04.000Z</time>
      </trkpt>
      <trkpt lat="47.29459" lon="-2.38335">
        <ele>2</ele>
        <time>2020-06-28T07:46:09.000Z</time>
      </trkpt>
      <trkpt lat="47.29459" lon="-2.38335">
        <ele>2</ele>
        <time>2020-06-28T07:46:10.000Z</time>
      </trkpt>
      <trkpt lat="47.29455" lon="-2.38332">
        <ele>2</ele>
        <time>2020-06-28T07:46:19.000Z</time>
      </trkpt>
      <trkpt lat="47.29455" lon="-2.38328">
        <ele>2</ele>
        <time>2020-06-28T07:46:20.000Z</time>
      </trkpt>
      <trkpt lat="47.29456" lon="-2.38305">
        <ele>2</ele>
        <time>2020-06-28T07:46:26.000Z</time>
      </trkpt>
      <trkpt lat="47.29459" lon="-2.38282">
        <ele>2</ele>
        <time>2020-06-28T07:46:32.000Z</time>
      </trkpt>
      <trkpt lat="47.2946" lon="-2.38276">
        <ele>2</ele>
        <time>2020-06-28T07:46:34.000Z</time>
      </trkpt>
      <trkpt lat="47.29459" lon="-2.3827">
        <ele>2</ele>
        <time>2020-06-28T07:46:37.000Z</time>
      </trkpt>
      <trkpt lat="47.29459" lon="-2.38268">
        <ele>2</ele>
        <time>2020-06-28T07:46:38.000Z</time>
      </trkpt>
      <trkpt lat="47.29459" lon="-2.38267">
        <ele>2</ele>
        <time>2020-06-28T07:46:40.000Z</time>
      </trkpt>
      <trkpt lat="47.29459" lon="-2.38271">
        <ele>2</ele>
        <time>2020-06-28T07:47:13.000Z</time>
      </trkpt>
      <trkpt lat="47.29458" lon="-2.38288">
        <ele>2</ele>
        <time>2020-06-28T07:47:17.000Z</time>
      </trkpt>
      <trkpt lat="47.29458" lon="-2.38293">
        <ele>2</ele>
        <time>2020-06-28T07:47:18.000Z</time>
      </trkpt>
      <trkpt lat="47.29456" lon="-2.38333">
        <ele>2</ele>
        <time>2020-06-28T07:47:24.000Z</time>
      </trkpt>
      <trkpt lat="47.29456" lon="-2.38394">
        <ele>2</ele>
        <time>2020-06-28T07:47:32.000Z</time>
      </trkpt>
      <trkpt lat="47.29459" lon="-2.38449">
        <ele>2</ele>
        <time>2020-06-28T07:47:40.000Z</time>
      </trkpt>
      <trkpt lat="47.29461" lon="-2.38507">
        <ele>2</ele>
        <time>2020-06-28T07:47:48.000Z</time>
      </trkpt>
      <trkpt lat="47.29462" lon="-2.38578">
        <ele>2</ele>
        <time>2020-06-28T07:47:57.000Z</time>
      </trkpt>
      <trkpt lat="47.29463" lon="-2.38643">
        <ele>2</ele>
        <time>2020-06-28T07:48:05.000Z</time>
      </trkpt>
      <trkpt lat="47.29464" lon="-2.38659">
        <ele>2</ele>
        <time>2020-06-28T07:48:07.000Z</time>
      </trkpt>
      <trkpt lat="47.29465" lon="-2.38667">
        <ele>2.5999999046326</ele>
        <time>2020-06-28T07:48:08.000Z</time>
      </trkpt>
      <trkpt lat="47.29466" lon="-2.38676">
        <ele>3</ele>
        <time>2020-06-28T07:48:09.000Z</time>
      </trkpt>
      <trkpt lat="47.29467" lon="-2.38684">
        <ele>3.4000000953674</ele>
        <time>2020-06-28T07:48:10.000Z</time>
      </trkpt>
      <trkpt lat="47.29468" lon="-2.38692">
        <ele>3.7999999523163</ele>
        <time>2020-06-28T07:48:11.000Z</time>
      </trkpt>
      <trkpt lat="47.2947" lon="-2.38701">
        <ele>4.1999998092651</ele>
        <time>2020-06-28T07:48:12.000Z</time>
      </trkpt>
      <trkpt lat="47.29472" lon="-2.38743">
        <ele>4.1999998092651</ele>
        <time>2020-06-28T07:48:17.000Z</time>
      </trkpt>
      <trkpt lat="47.29475" lon="-2.38808">
        <ele>4.1999998092651</ele>
        <time>2020-06-28T07:48:25.000Z</time>
      </trkpt>
      <trkpt lat="47.29476" lon="-2.38832">
        <ele>4.1999998092651</ele>
        <time>2020-06-28T07:48:28.000Z</time>
      </trkpt>
      <trkpt lat="47.29478" lon="-2.38854">
        <ele>4.1999998092651</ele>
        <time>2020-06-28T07:48:31.000Z</time>
      </trkpt>
      <trkpt lat="47.29485" lon="-2.38885">
        <ele>4.1999998092651</ele>
        <time>2020-06-28T07:48:35.000Z</time>
      </trkpt>
      <trkpt lat="47.29501" lon="-2.38931">
        <ele>4.1999998092651</ele>
        <time>2020-06-28T07:48:41.000Z</time>
      </trkpt>
      <trkpt lat="47.29504" lon="-2.38939">
        <ele>4.1999998092651</ele>
        <time>2020-06-28T07:48:42.000Z</time>
      </trkpt>
      <trkpt lat="47.29513" lon="-2.3895">
        <ele>4.8000001907349</ele>
        <time>2020-06-28T07:48:44.000Z</time>
      </trkpt>
      <trkpt lat="47.29518" lon="-2.38955">
        <ele>5.1999998092651</ele>
        <time>2020-06-28T07:48:45.000Z</time>
      </trkpt>
      <trkpt lat="47.29523" lon="-2.3896">
        <ele>5.5999999046326</ele>
        <time>2020-06-28T07:48:46.000Z</time>
      </trkpt>
      <trkpt lat="47.29528" lon="-2.38965">
        <ele>6.4000000953674</ele>
        <time>2020-06-28T07:48:47.000Z</time>
      </trkpt>
      <trkpt lat="47.29533" lon="-2.38969">
        <ele>6.4000000953674</ele>
        <time>2020-06-28T07:48:48.000Z</time>
      </trkpt>
      <trkpt lat="47.29549" lon="-2.38981">
        <ele>6.4000000953674</ele>
        <time>2020-06-28T07:48:51.000Z</time>
      </trkpt>
      <trkpt lat="47.29583" lon="-2.39001">
        <ele>6.4000000953674</ele>
        <time>2020-06-28T07:48:57.000Z</time>
      </trkpt>
      <trkpt lat="47.29611" lon="-2.39014">
        <ele>6.4000000953674</ele>
        <time>2020-06-28T07:49:02.000Z</time>
      </trkpt>
      <trkpt lat="47.29621" lon="-2.39023">
        <ele>6.4000000953674</ele>
        <time>2020-06-28T07:49:04.000Z</time>
      </trkpt>
      <trkpt lat="47.29629" lon="-2.39046">
        <ele>6.4000000953674</ele>
        <time>2020-06-28T07:49:07.000Z</time>
      </trkpt>
      <trkpt lat="47.29629" lon="-2.39075">
        <ele>6.4000000953674</ele>
        <time>2020-06-28T07:49:10.000Z</time>
      </trkpt>
      <trkpt lat="47.29629" lon="-2.39094">
        <ele>6.4000000953674</ele>
        <time>2020-06-28T07:49:12.000Z</time>
      </trkpt>
      <trkpt lat="47.29636" lon="-2.39158">
        <ele>6.4000000953674</ele>
        <time>2020-06-28T07:49:19.000Z</time>
      </trkpt>
      <trkpt lat="47.29646" lon="-2.39179">
        <ele>6</ele>
        <time>2020-06-28T07:49:22.000Z</time>
      </trkpt>
      <trkpt lat="47.29651" lon="-2.39184">
        <ele>5.4000000953674</ele>
        <time>2020-06-28T07:49:23.000Z</time>
      </trkpt>
      <trkpt lat="47.29656" lon="-2.39187">
        <ele>5</ele>
        <time>2020-06-28T07:49:24.000Z</time>
      </trkpt>
      <trkpt lat="47.2966" lon="-2.3919">
        <ele>4.5999999046326</ele>
        <time>2020-06-28T07:49:25.000Z</time>
      </trkpt>
      <trkpt lat="47.29663" lon="-2.39195">
        <ele>4</ele>
        <time>2020-06-28T07:49:26.000Z</time>
      </trkpt>
      <trkpt lat="47.29666" lon="-2.39212">
        <ele>4</ele>
        <time>2020-06-28T07:49:29.000Z</time>
      </trkpt>
      <trkpt lat="47.2966" lon="-2.39234">
        <ele>4</ele>
        <time>2020-06-28T07:49:32.000Z</time>
      </trkpt>
      <trkpt lat="47.29656" lon="-2.39253">
        <ele>4</ele>
        <time>2020-06-28T07:49:34.000Z</time>
      </trkpt>
      <trkpt lat="47.29652" lon="-2.39291">
        <ele>4</ele>
        <time>2020-06-28T07:49:38.000Z</time>
      </trkpt>
      <trkpt lat="47.29645" lon="-2.39364">
        <ele>4</ele>
        <time>2020-06-28T07:49:46.000Z</time>
      </trkpt>
      <trkpt lat="47.29641" lon="-2.39391">
        <ele>4</ele>
        <time>2020-06-28T07:49:49.000Z</time>
      </trkpt>
      <trkpt lat="47.29636" lon="-2.39408">
        <ele>4</ele>
        <time>2020-06-28T07:49:51.000Z</time>
      </trkpt>
      <trkpt lat="47.29633" lon="-2.39426">
        <ele>4</ele>
        <time>2020-06-28T07:49:53.000Z</time>
      </trkpt>
      <trkpt lat="47.29628" lon="-2.39444">
        <ele>4</ele>
        <time>2020-06-28T07:49:55.000Z</time>
      </trkpt>
      <trkpt lat="47.29624" lon="-2.39451">
        <ele>4</ele>
        <time>2020-06-28T07:49:56.000Z</time>
      </trkpt>
      <trkpt lat="47.29606" lon="-2.39479">
        <ele>3.5999999046326</ele>
        <time>2020-06-28T07:50:00.000Z</time>
      </trkpt>
      <trkpt lat="47.29602" lon="-2.39486">
        <ele>3.2000000476837</ele>
        <time>2020-06-28T07:50:01.000Z</time>
      </trkpt>
      <trkpt lat="47.29598" lon="-2.39492">
        <ele>2.4000000953674</ele>
        <time>2020-06-28T07:50:02.000Z</time>
      </trkpt>
      <trkpt lat="47.29593" lon="-2.39497">
        <ele>1.7999999523163</ele>
        <time>2020-06-28T07:50:03.000Z</time>
      </trkpt>
      <trkpt lat="47.29578" lon="-2.39499">
        <ele>1.7999999523163</ele>
        <time>2020-06-28T07:50:06.000Z</time>
      </trkpt>
      <trkpt lat="47.29569" lon="-2.39494">
        <ele>1.7999999523163</ele>
        <time>2020-06-28T07:50:08.000Z</time>
      </trkpt>
      <trkpt lat="47.29562" lon="-2.39493">
        <ele>1.7999999523163</ele>
        <time>2020-06-28T07:50:10.000Z</time>
      </trkpt>
      <trkpt lat="47.29557" lon="-2.39497">
        <ele>1.7999999523163</ele>
        <time>2020-06-28T07:50:12.000Z</time>
      </trkpt>
      <trkpt lat="47.29556" lon="-2.39501">
        <ele>1.7999999523163</ele>
        <time>2020-06-28T07:50:13.000Z</time>
      </trkpt>
      <trkpt lat="47.29555" lon="-2.3951">
        <ele>1.7999999523163</ele>
        <time>2020-06-28T07:50:16.000Z</time>
      </trkpt>
      <trkpt lat="47.29555" lon="-2.39512">
        <ele>1.7999999523163</ele>
        <time>2020-06-28T07:50:17.000Z</time>
      </trkpt>
      <trkpt lat="47.29557" lon="-2.3953">
        <ele>1.7999999523163</ele>
        <time>2020-06-28T07:50:23.000Z</time>
      </trkpt>
      <trkpt lat="47.29557" lon="-2.39534">
        <ele>2.4000000953674</ele>
        <time>2020-06-28T07:50:24.000Z</time>
      </trkpt>
      <trkpt lat="47.29556" lon="-2.39538">
        <ele>2.7999999523163</ele>
        <time>2020-06-28T07:50:25.000Z</time>
      </trkpt>
      <trkpt lat="47.29558" lon="-2.39542">
        <ele>3.7999999523163</ele>
        <time>2020-06-28T07:50:26.000Z</time>
      </trkpt>
      <trkpt lat="47.2956" lon="-2.39544">
        <ele>4.1999998092651</ele>
        <time>2020-06-28T07:50:27.000Z</time>
      </trkpt>
      <trkpt lat="47.29566" lon="-2.39545">
        <ele>4.1999998092651</ele>
        <time>2020-06-28T07:50:29.000Z</time>
      </trkpt>
      <trkpt lat="47.29569" lon="-2.39545">
        <ele>4.1999998092651</ele>
        <time>2020-06-28T07:50:30.000Z</time>
      </trkpt>
      <trkpt lat="47.29579" lon="-2.39546">
        <ele>4.5999999046326</ele>
        <time>2020-06-28T07:50:33.000Z</time>
      </trkpt>
      <trkpt lat="47.29583" lon="-2.39546">
        <ele>5.1999998092651</ele>
        <time>2020-06-28T07:50:34.000Z</time>
      </trkpt>
      <trkpt lat="47.29585" lon="-2.39547">
        <ele>5.5999999046326</ele>
        <time>2020-06-28T07:50:35.000Z</time>
      </trkpt>
      <trkpt lat="47.29588" lon="-2.39548">
        <ele>6.1999998092651</ele>
        <time>2020-06-28T07:50:36.000Z</time>
      </trkpt>
      <trkpt lat="47.29591" lon="-2.39548">
        <ele>6.5999999046326</ele>
        <time>2020-06-28T07:50:37.000Z</time>
      </trkpt>
      <trkpt lat="47.29594" lon="-2.39548">
        <ele>7</ele>
        <time>2020-06-28T07:50:38.000Z</time>
      </trkpt>
      <trkpt lat="47.29597" lon="-2.39549">
        <ele>7.4000000953674</ele>
        <time>2020-06-28T07:50:39.000Z</time>
      </trkpt>
      <trkpt lat="47.29601" lon="-2.3955">
        <ele>8</ele>
        <time>2020-06-28T07:50:40.000Z</time>
      </trkpt>
      <trkpt lat="47.29605" lon="-2.3955">
        <ele>8.3999996185303</ele>
        <time>2020-06-28T07:50:41.000Z</time>
      </trkpt>
      <trkpt lat="47.29611" lon="-2.39551">
        <ele>8.8000001907349</ele>
        <time>2020-06-28T07:50:42.000Z</time>
      </trkpt>
      <trkpt lat="47.29622" lon="-2.39555">
        <ele>8.3999996185303</ele>
        <time>2020-06-28T07:50:45.000Z</time>
      </trkpt>
      <trkpt lat="47.29624" lon="-2.39558">
        <ele>7.8000001907349</ele>
        <time>2020-06-28T07:50:46.000Z</time>
      </trkpt>
      <trkpt lat="47.29625" lon="-2.3956">
        <ele>7.4000000953674</ele>
        <time>2020-06-28T07:50:47.000Z</time>
      </trkpt>
      <trkpt lat="47.29624" lon="-2.39562">
        <ele>7</ele>
        <time>2020-06-28T07:50:48.000Z</time>
      </trkpt>
      <trkpt lat="47.29623" lon="-2.39565">
        <ele>6.4000000953674</ele>
        <time>2020-06-28T07:50:49.000Z</time>
      </trkpt>
      <trkpt lat="47.29617" lon="-2.39569">
        <ele>6</ele>
        <time>2020-06-28T07:50:51.000Z</time>
      </trkpt>
      <trkpt lat="47.29615" lon="-2.39572">
        <ele>5.5999999046326</ele>
        <time>2020-06-28T07:50:52.000Z</time>
      </trkpt>
      <trkpt lat="47.29616" lon="-2.39576">
        <ele>5.1999998092651</ele>
        <time>2020-06-28T07:50:53.000Z</time>
      </trkpt>
      <trkpt lat="47.2962" lon="-2.39579">
        <ele>4.8000001907349</ele>
        <time>2020-06-28T07:50:54.000Z</time>
      </trkpt>
      <trkpt lat="47.29625" lon="-2.3958">
        <ele>4.4000000953674</ele>
        <time>2020-06-28T07:50:55.000Z</time>
      </trkpt>
      <trkpt lat="47.29631" lon="-2.39581">
        <ele>4.4000000953674</ele>
        <time>2020-06-28T07:50:56.000Z</time>
      </trkpt>
      <trkpt lat="47.29635" lon="-2.39582">
        <ele>4</ele>
        <time>2020-06-28T07:50:57.000Z</time>
      </trkpt>
      <trkpt lat="47.29639" lon="-2.39586">
        <ele>3.5999999046326</ele>
        <time>2020-06-28T07:50:58.000Z</time>
      </trkpt>
      <trkpt lat="47.29642" lon="-2.3959">
        <ele>3.2000000476837</ele>
        <time>2020-06-28T07:50:59.000Z</time>
      </trkpt>
      <trkpt lat="47.29644" lon="-2.39595">
        <ele>2.7999999523163</ele>
        <time>2020-06-28T07:51:00.000Z</time>
      </trkpt>
      <trkpt lat="47.29643" lon="-2.39602">
        <ele>2.4000000953674</ele>
        <time>2020-06-28T07:51:01.000Z</time>
      </trkpt>
      <trkpt lat="47.29643" lon="-2.39609">
        <ele>2.4000000953674</ele>
        <time>2020-06-28T07:51:02.000Z</time>
      </trkpt>
      <trkpt lat="47.29642" lon="-2.39618">
        <ele>2.4000000953674</ele>
        <time>2020-06-28T07:51:03.000Z</time>
      </trkpt>
      <trkpt lat="47.29638" lon="-2.39644">
        <ele>2.4000000953674</ele>
        <time>2020-06-28T07:51:06.000Z</time>
      </trkpt>
      <trkpt lat="47.29632" lon="-2.3966">
        <ele>2.4000000953674</ele>
        <time>2020-06-28T07:51:08.000Z</time>
      </trkpt>
      <trkpt lat="47.29613" lon="-2.3969">
        <ele>2.4000000953674</ele>
        <time>2020-06-28T07:51:12.000Z</time>
      </trkpt>
      <trkpt lat="47.29608" lon="-2.39698">
        <ele>2.4000000953674</ele>
        <time>2020-06-28T07:51:13.000Z</time>
      </trkpt>
      <trkpt lat="47.29582" lon="-2.39744">
        <ele>2.4000000953674</ele>
        <time>2020-06-28T07:51:19.000Z</time>
      </trkpt>
      <trkpt lat="47.29551" lon="-2.39808">
        <ele>2.4000000953674</ele>
        <time>2020-06-28T07:51:27.000Z</time>
      </trkpt>
      <trkpt lat="47.29522" lon="-2.39864">
        <ele>2.4000000953674</ele>
        <time>2020-06-28T07:51:35.000Z</time>
      </trkpt>
      <trkpt lat="47.29512" lon="-2.39883">
        <ele>2.4000000953674</ele>
        <time>2020-06-28T07:51:38.000Z</time>
      </trkpt>
      <trkpt lat="47.29501" lon="-2.39897">
        <ele>2.4000000953674</ele>
        <time>2020-06-28T07:51:41.000Z</time>
      </trkpt>
      <trkpt lat="47.29493" lon="-2.39906">
        <ele>2.4000000953674</ele>
        <time>2020-06-28T07:51:45.000Z</time>
      </trkpt>
      <trkpt lat="47.29492" lon="-2.39909">
        <ele>2.4000000953674</ele>
        <time>2020-06-28T07:51:46.000Z</time>
      </trkpt>
      <trkpt lat="47.29489" lon="-2.39922">
        <ele>2.4000000953674</ele>
        <time>2020-06-28T07:51:49.000Z</time>
      </trkpt>
      <trkpt lat="47.29485" lon="-2.39929">
        <ele>2.4000000953674</ele>
        <time>2020-06-28T07:51:51.000Z</time>
      </trkpt>
      <trkpt lat="47.29483" lon="-2.39935">
        <ele>2.4000000953674</ele>
        <time>2020-06-28T07:51:52.000Z</time>
      </trkpt>
      <trkpt lat="47.29479" lon="-2.39941">
        <ele>2.4000000953674</ele>
        <time>2020-06-28T07:51:53.000Z</time>
      </trkpt>
      <trkpt lat="47.29464" lon="-2.39978">
        <ele>2.4000000953674</ele>
        <time>2020-06-28T07:51:58.000Z</time>
      </trkpt>
      <trkpt lat="47.29463" lon="-2.39986">
        <ele>2.4000000953674</ele>
        <time>2020-06-28T07:51:59.000Z</time>
      </trkpt>
      <trkpt lat="47.2946" lon="-2.40031">
        <ele>2.4000000953674</ele>
        <time>2020-06-28T07:52:04.000Z</time>
      </trkpt>
      <trkpt lat="47.29461" lon="-2.4004">
        <ele>2.4000000953674</ele>
        <time>2020-06-28T07:52:05.000Z</time>
      </trkpt>
      <trkpt lat="47.29461" lon="-2.40086">
        <ele>2.4000000953674</ele>
        <time>2020-06-28T07:52:10.000Z</time>
      </trkpt>
      <trkpt lat="47.29459" lon="-2.40096">
        <ele>2.4000000953674</ele>
        <time>2020-06-28T07:52:11.000Z</time>
      </trkpt>
      <trkpt lat="47.29455" lon="-2.40131">
        <ele>2.4000000953674</ele>
        <time>2020-06-28T07:52:15.000Z</time>
      </trkpt>
      <trkpt lat="47.29451" lon="-2.40173">
        <ele>2.4000000953674</ele>
        <time>2020-06-28T07:52:20.000Z</time>
      </trkpt>
      <trkpt lat="47.29442" lon="-2.40218">
        <ele>2.4000000953674</ele>
        <time>2020-06-28T07:52:26.000Z</time>
      </trkpt>
      <trkpt lat="47.29438" lon="-2.40221">
        <ele>2.4000000953674</ele>
        <time>2020-06-28T07:52:27.000Z</time>
      </trkpt>
      <trkpt lat="47.29417" lon="-2.40226">
        <ele>2.4000000953674</ele>
        <time>2020-06-28T07:52:31.000Z</time>
      </trkpt>
      <trkpt lat="47.29412" lon="-2.40229">
        <ele>2.4000000953674</ele>
        <time>2020-06-28T07:52:32.000Z</time>
      </trkpt>
      <trkpt lat="47.29386" lon="-2.40244">
        <ele>2.4000000953674</ele>
        <time>2020-06-28T07:52:37.000Z</time>
      </trkpt>
      <trkpt lat="47.2937" lon="-2.40255">
        <ele>2.4000000953674</ele>
        <time>2020-06-28T07:52:40.000Z</time>
      </trkpt>
      <trkpt lat="47.29355" lon="-2.40271">
        <ele>2.4000000953674</ele>
        <time>2020-06-28T07:52:43.000Z</time>
      </trkpt>
      <trkpt lat="47.2935" lon="-2.40274">
        <ele>2</ele>
        <time>2020-06-28T07:52:44.000Z</time>
      </trkpt>
      <trkpt lat="47.29344" lon="-2.40279">
        <ele>1.6000000238419</ele>
        <time>2020-06-28T07:52:45.000Z</time>
      </trkpt>
      <trkpt lat="47.29339" lon="-2.40283">
        <ele>1.2000000476837</ele>
        <time>2020-06-28T07:52:46.000Z</time>
      </trkpt>
      <trkpt lat="47.29335" lon="-2.40288">
        <ele>0.80000001192093</ele>
        <time>2020-06-28T07:52:47.000Z</time>
      </trkpt>
      <trkpt lat="47.29331" lon="-2.40293">
        <ele>0.40000000596046</ele>
        <time>2020-06-28T07:52:48.000Z</time>
      </trkpt>
      <trkpt lat="47.29301" lon="-2.40327">
        <ele>0.40000000596046</ele>
        <time>2020-06-28T07:52:55.000Z</time>
      </trkpt>
      <trkpt lat="47.29289" lon="-2.4034">
        <ele>0.40000000596046</ele>
        <time>2020-06-28T07:52:58.000Z</time>
      </trkpt>
      <trkpt lat="47.29285" lon="-2.40353">
        <ele>0.40000000596046</ele>
        <time>2020-06-28T07:53:00.000Z</time>
      </trkpt>
      <trkpt lat="47.2929" lon="-2.40375">
        <ele>0.40000000596046</ele>
        <time>2020-06-28T07:53:03.000Z</time>
      </trkpt>
      <trkpt lat="47.29301" lon="-2.40395">
        <ele>0.40000000596046</ele>
        <time>2020-06-28T07:53:06.000Z</time>
      </trkpt>
      <trkpt lat="47.29306" lon="-2.40409">
        <ele>0.40000000596046</ele>
        <time>2020-06-28T07:53:08.000Z</time>
      </trkpt>
      <trkpt lat="47.29303" lon="-2.40425">
        <ele>0.40000000596046</ele>
        <time>2020-06-28T07:53:10.000Z</time>
      </trkpt>
      <trkpt lat="47.29295" lon="-2.40447">
        <ele>0.40000000596046</ele>
        <time>2020-06-28T07:53:13.000Z</time>
      </trkpt>
      <trkpt lat="47.2929" lon="-2.4046">
        <ele>0.40000000596046</ele>
        <time>2020-06-28T07:53:15.000Z</time>
      </trkpt>
      <trkpt lat="47.29286" lon="-2.40465">
        <ele>0.40000000596046</ele>
        <time>2020-06-28T07:53:16.000Z</time>
      </trkpt>
      <trkpt lat="47.2927" lon="-2.40473">
        <ele>0.40000000596046</ele>
        <time>2020-06-28T07:53:19.000Z</time>
      </trkpt>
      <trkpt lat="47.29264" lon="-2.40475">
        <ele>0.40000000596046</ele>
        <time>2020-06-28T07:53:20.000Z</time>
      </trkpt>
      <trkpt lat="47.29259" lon="-2.40478">
        <ele>0.40000000596046</ele>
        <time>2020-06-28T07:53:21.000Z</time>
      </trkpt>
      <trkpt lat="47.29238" lon="-2.40489">
        <ele>0.40000000596046</ele>
        <time>2020-06-28T07:53:25.000Z</time>
      </trkpt>
      <trkpt lat="47.29195" lon="-2.40515">
        <ele>0.40000000596046</ele>
        <time>2020-06-28T07:53:33.000Z</time>
      </trkpt>
      <trkpt lat="47.29173" lon="-2.40522">
        <ele>0.40000000596046</ele>
        <time>2020-06-28T07:53:37.000Z</time>
      </trkpt>
      <trkpt lat="47.29169" lon="-2.40517">
        <ele>0.40000000596046</ele>
        <time>2020-06-28T07:53:38.000Z</time>
      </trkpt>
      <trkpt lat="47.2916" lon="-2.40496">
        <ele>0.40000000596046</ele>
        <time>2020-06-28T07:53:41.000Z</time>
      </trkpt>
      <trkpt lat="47.29148" lon="-2.40487">
        <ele>0.40000000596046</ele>
        <time>2020-06-28T07:53:44.000Z</time>
      </trkpt>
      <trkpt lat="47.2913" lon="-2.40493">
        <ele>0.40000000596046</ele>
        <time>2020-06-28T07:53:47.000Z</time>
      </trkpt>
      <trkpt lat="47.29119" lon="-2.405">
        <ele>0.40000000596046</ele>
        <time>2020-06-28T07:53:49.000Z</time>
      </trkpt>
      <trkpt lat="47.29104" lon="-2.40512">
        <ele>0.40000000596046</ele>
        <time>2020-06-28T07:53:52.000Z</time>
      </trkpt>
      <trkpt lat="47.29097" lon="-2.40536">
        <ele>0.40000000596046</ele>
        <time>2020-06-28T07:53:55.000Z</time>
      </trkpt>
      <trkpt lat="47.29103" lon="-2.40558">
        <ele>0.40000000596046</ele>
        <time>2020-06-28T07:53:58.000Z</time>
      </trkpt>
      <trkpt lat="47.29116" lon="-2.40573">
        <ele>0.40000000596046</ele>
        <time>2020-06-28T07:54:01.000Z</time>
      </trkpt>
      <trkpt lat="47.29121" lon="-2.40579">
        <ele>0.40000000596046</ele>
        <time>2020-06-28T07:54:02.000Z</time>
      </trkpt>
      <trkpt lat="47.29129" lon="-2.40592">
        <ele>0.40000000596046</ele>
        <time>2020-06-28T07:54:04.000Z</time>
      </trkpt>
      <trkpt lat="47.29136" lon="-2.40607">
        <ele>0.40000000596046</ele>
        <time>2020-06-28T07:54:06.000Z</time>
      </trkpt>
      <trkpt lat="47.29141" lon="-2.40639">
        <ele>0.40000000596046</ele>
        <time>2020-06-28T07:54:10.000Z</time>
      </trkpt>
      <trkpt lat="47.29143" lon="-2.40653">
        <ele>0.40000000596046</ele>
        <time>2020-06-28T07:54:13.000Z</time>
      </trkpt>
      <trkpt lat="47.29145" lon="-2.40653">
        <ele>0.40000000596046</ele>
        <time>2020-06-28T07:54:14.000Z</time>
      </trkpt>
      <trkpt lat="47.29156" lon="-2.40645">
        <ele>0.40000000596046</ele>
        <time>2020-06-28T07:54:17.000Z</time>
      </trkpt>
      <trkpt lat="47.29179" lon="-2.40629">
        <ele>0.40000000596046</ele>
        <time>2020-06-28T07:54:22.000Z</time>
      </trkpt>
      <trkpt lat="47.29188" lon="-2.40621">
        <ele>0.40000000596046</ele>
        <time>2020-06-28T07:54:24.000Z</time>
      </trkpt>
      <trkpt lat="47.29198" lon="-2.40614">
        <ele>0.40000000596046</ele>
        <time>2020-06-28T07:54:26.000Z</time>
      </trkpt>
      <trkpt lat="47.29204" lon="-2.40615">
        <ele>0.40000000596046</ele>
        <time>2020-06-28T07:54:27.000Z</time>
      </trkpt>
      <trkpt lat="47.29217" lon="-2.40631">
        <ele>0.40000000596046</ele>
        <time>2020-06-28T07:54:30.000Z</time>
      </trkpt>
      <trkpt lat="47.29221" lon="-2.40637">
        <ele>0.40000000596046</ele>
        <time>2020-06-28T07:54:31.000Z</time>
      </trkpt>
      <trkpt lat="47.29225" lon="-2.40644">
        <ele>0.40000000596046</ele>
        <time>2020-06-28T07:54:32.000Z</time>
      </trkpt>
      <trkpt lat="47.29233" lon="-2.40665">
        <ele>0.40000000596046</ele>
        <time>2020-06-28T07:54:35.000Z</time>
      </trkpt>
      <trkpt lat="47.29232" lon="-2.40688">
        <ele>0.40000000596046</ele>
        <time>2020-06-28T07:54:38.000Z</time>
      </trkpt>
      <trkpt lat="47.29227" lon="-2.40701">
        <ele>0.40000000596046</ele>
        <time>2020-06-28T07:54:40.000Z</time>
      </trkpt>
      <trkpt lat="47.2922" lon="-2.40713">
        <ele>0.40000000596046</ele>
        <time>2020-06-28T07:54:42.000Z</time>
      </trkpt>
      <trkpt lat="47.29193" lon="-2.40756">
        <ele>0.40000000596046</ele>
        <time>2020-06-28T07:54:49.000Z</time>
      </trkpt>
      <trkpt lat="47.29182" lon="-2.40785">
        <ele>0.40000000596046</ele>
        <time>2020-06-28T07:54:53.000Z</time>
      </trkpt>
      <trkpt lat="47.29171" lon="-2.40821">
        <ele>0.40000000596046</ele>
        <time>2020-06-28T07:54:58.000Z</time>
      </trkpt>
      <trkpt lat="47.2917" lon="-2.40829">
        <ele>0.40000000596046</ele>
        <time>2020-06-28T07:54:59.000Z</time>
      </trkpt>
      <trkpt lat="47.29172" lon="-2.40853">
        <ele>0.40000000596046</ele>
        <time>2020-06-28T07:55:02.000Z</time>
      </trkpt>
      <trkpt lat="47.29172" lon="-2.40861">
        <ele>0.40000000596046</ele>
        <time>2020-06-28T07:55:03.000Z</time>
      </trkpt>
      <trkpt lat="47.29171" lon="-2.4087">
        <ele>0.40000000596046</ele>
        <time>2020-06-28T07:55:04.000Z</time>
      </trkpt>
      <trkpt lat="47.29165" lon="-2.40894">
        <ele>0.40000000596046</ele>
        <time>2020-06-28T07:55:07.000Z</time>
      </trkpt>
      <trkpt lat="47.29162" lon="-2.40909">
        <ele>0.40000000596046</ele>
        <time>2020-06-28T07:55:09.000Z</time>
      </trkpt>
      <trkpt lat="47.29163" lon="-2.40932">
        <ele>0.40000000596046</ele>
        <time>2020-06-28T07:55:12.000Z</time>
      </trkpt>
      <trkpt lat="47.29176" lon="-2.40946">
        <ele>0.40000000596046</ele>
        <time>2020-06-28T07:55:15.000Z</time>
      </trkpt>
      <trkpt lat="47.29194" lon="-2.40949">
        <ele>0.40000000596046</ele>
        <time>2020-06-28T07:55:18.000Z</time>
      </trkpt>
      <trkpt lat="47.292" lon="-2.40951">
        <ele>0.40000000596046</ele>
        <time>2020-06-28T07:55:19.000Z</time>
      </trkpt>
      <trkpt lat="47.29205" lon="-2.40954">
        <ele>0.40000000596046</ele>
        <time>2020-06-28T07:55:20.000Z</time>
      </trkpt>
      <trkpt lat="47.29214" lon="-2.40966">
        <ele>0.40000000596046</ele>
        <time>2020-06-28T07:55:22.000Z</time>
      </trkpt>
      <trkpt lat="47.29223" lon="-2.4099">
        <ele>0.40000000596046</ele>
        <time>2020-06-28T07:55:25.000Z</time>
      </trkpt>
      <trkpt lat="47.29226" lon="-2.40997">
        <ele>0.80000001192093</ele>
        <time>2020-06-28T07:55:26.000Z</time>
      </trkpt>
      <trkpt lat="47.2923" lon="-2.41004">
        <ele>1.2000000476837</ele>
        <time>2020-06-28T07:55:27.000Z</time>
      </trkpt>
      <trkpt lat="47.29233" lon="-2.41011">
        <ele>1.6000000238419</ele>
        <time>2020-06-28T07:55:28.000Z</time>
      </trkpt>
      <trkpt lat="47.29237" lon="-2.41018">
        <ele>2</ele>
        <time>2020-06-28T07:55:29.000Z</time>
      </trkpt>
      <trkpt lat="47.29241" lon="-2.41025">
        <ele>2.4000000953674</ele>
        <time>2020-06-28T07:55:30.000Z</time>
      </trkpt>
      <trkpt lat="47.2925" lon="-2.41036">
        <ele>2.4000000953674</ele>
        <time>2020-06-28T07:55:32.000Z</time>
      </trkpt>
      <trkpt lat="47.29257" lon="-2.41058">
        <ele>2.4000000953674</ele>
        <time>2020-06-28T07:55:35.000Z</time>
      </trkpt>
      <trkpt lat="47.2925" lon="-2.41071">
        <ele>2.4000000953674</ele>
        <time>2020-06-28T07:55:37.000Z</time>
      </trkpt>
      <trkpt lat="47.29246" lon="-2.41078">
        <ele>2.4000000953674</ele>
        <time>2020-06-28T07:55:38.000Z</time>
      </trkpt>
      <trkpt lat="47.29246" lon="-2.41085">
        <ele>2.4000000953674</ele>
        <time>2020-06-28T07:55:39.000Z</time>
      </trkpt>
      <trkpt lat="47.29248" lon="-2.41092">
        <ele>2.4000000953674</ele>
        <time>2020-06-28T07:55:40.000Z</time>
      </trkpt>
      <trkpt lat="47.2926" lon="-2.41109">
        <ele>2.4000000953674</ele>
        <time>2020-06-28T07:55:43.000Z</time>
      </trkpt>
      <trkpt lat="47.29284" lon="-2.41139">
        <ele>2.4000000953674</ele>
        <time>2020-06-28T07:55:48.000Z</time>
      </trkpt>
      <trkpt lat="47.29288" lon="-2.41146">
        <ele>2.4000000953674</ele>
        <time>2020-06-28T07:55:49.000Z</time>
      </trkpt>
      <trkpt lat="47.29303" lon="-2.41184">
        <ele>2.4000000953674</ele>
        <time>2020-06-28T07:55:54.000Z</time>
      </trkpt>
      <trkpt lat="47.29307" lon="-2.41191">
        <ele>2.4000000953674</ele>
        <time>2020-06-28T07:55:55.000Z</time>
      </trkpt>
      <trkpt lat="47.29318" lon="-2.41203">
        <ele>2.4000000953674</ele>
        <time>2020-06-28T07:55:57.000Z</time>
      </trkpt>
      <trkpt lat="47.29353" lon="-2.41246">
        <ele>2.4000000953674</ele>
        <time>2020-06-28T07:56:04.000Z</time>
      </trkpt>
      <trkpt lat="47.29356" lon="-2.41254">
        <ele>2.4000000953674</ele>
        <time>2020-06-28T07:56:05.000Z</time>
      </trkpt>
      <trkpt lat="47.29361" lon="-2.41287">
        <ele>2.4000000953674</ele>
        <time>2020-06-28T07:56:09.000Z</time>
      </trkpt>
      <trkpt lat="47.29362" lon="-2.41295">
        <ele>2.4000000953674</ele>
        <time>2020-06-28T07:56:10.000Z</time>
      </trkpt>
      <trkpt lat="47.29361" lon="-2.41302">
        <ele>2.4000000953674</ele>
        <time>2020-06-28T07:56:11.000Z</time>
      </trkpt>
      <trkpt lat="47.29357" lon="-2.41317">
        <ele>2.4000000953674</ele>
        <time>2020-06-28T07:56:13.000Z</time>
      </trkpt>
      <trkpt lat="47.29351" lon="-2.4133">
        <ele>2.4000000953674</ele>
        <time>2020-06-28T07:56:15.000Z</time>
      </trkpt>
      <trkpt lat="47.29349" lon="-2.41338">
        <ele>2.4000000953674</ele>
        <time>2020-06-28T07:56:16.000Z</time>
      </trkpt>
      <trkpt lat="47.29349" lon="-2.41354">
        <ele>2.4000000953674</ele>
        <time>2020-06-28T07:56:18.000Z</time>
      </trkpt>
      <trkpt lat="47.29358" lon="-2.41371">
        <ele>2.4000000953674</ele>
        <time>2020-06-28T07:56:21.000Z</time>
      </trkpt>
      <trkpt lat="47.29362" lon="-2.41376">
        <ele>2.4000000953674</ele>
        <time>2020-06-28T07:56:22.000Z</time>
      </trkpt>
      <trkpt lat="47.29383" lon="-2.41405">
        <ele>2.4000000953674</ele>
        <time>2020-06-28T07:56:27.000Z</time>
      </trkpt>
      <trkpt lat="47.29389" lon="-2.41419">
        <ele>2.4000000953674</ele>
        <time>2020-06-28T07:56:29.000Z</time>
      </trkpt>
      <trkpt lat="47.29398" lon="-2.41441">
        <ele>2.4000000953674</ele>
        <time>2020-06-28T07:56:32.000Z</time>
      </trkpt>
      <trkpt lat="47.29404" lon="-2.41455">
        <ele>2.4000000953674</ele>
        <time>2020-06-28T07:56:34.000Z</time>
      </trkpt>
      <trkpt lat="47.29416" lon="-2.41471">
        <ele>2.4000000953674</ele>
        <time>2020-06-28T07:56:37.000Z</time>
      </trkpt>
      <trkpt lat="47.29433" lon="-2.41488">
        <ele>2.4000000953674</ele>
        <time>2020-06-28T07:56:41.000Z</time>
      </trkpt>
      <trkpt lat="47.29438" lon="-2.41489">
        <ele>2.4000000953674</ele>
        <time>2020-06-28T07:56:42.000Z</time>
      </trkpt>
      <trkpt lat="47.29459" lon="-2.41487">
        <ele>2.4000000953674</ele>
        <time>2020-06-28T07:56:46.000Z</time>
      </trkpt>
      <trkpt lat="47.29469" lon="-2.41485">
        <ele>2.4000000953674</ele>
        <time>2020-06-28T07:56:48.000Z</time>
      </trkpt>
      <trkpt lat="47.29485" lon="-2.41489">
        <ele>2.4000000953674</ele>
        <time>2020-06-28T07:56:51.000Z</time>
      </trkpt>
      <trkpt lat="47.2949" lon="-2.41488">
        <ele>2.4000000953674</ele>
        <time>2020-06-28T07:56:52.000Z</time>
      </trkpt>
      <trkpt lat="47.29501" lon="-2.41481">
        <ele>2.4000000953674</ele>
        <time>2020-06-28T07:56:54.000Z</time>
      </trkpt>
      <trkpt lat="47.29511" lon="-2.41477">
        <ele>2.4000000953674</ele>
        <time>2020-06-28T07:56:56.000Z</time>
      </trkpt>
      <trkpt lat="47.29517" lon="-2.4148">
        <ele>2</ele>
        <time>2020-06-28T07:56:57.000Z</time>
      </trkpt>
      <trkpt lat="47.29522" lon="-2.41483">
        <ele>1.6000000238419</ele>
        <time>2020-06-28T07:56:58.000Z</time>
      </trkpt>
      <trkpt lat="47.29526" lon="-2.41489">
        <ele>1.2000000476837</ele>
        <time>2020-06-28T07:56:59.000Z</time>
      </trkpt>
      <trkpt lat="47.2953" lon="-2.41495">
        <ele>0.80000001192093</ele>
        <time>2020-06-28T07:57:00.000Z</time>
      </trkpt>
      <trkpt lat="47.29533" lon="-2.41501">
        <ele>0.20000000298023</ele>
        <time>2020-06-28T07:57:01.000Z</time>
      </trkpt>
      <trkpt lat="47.29537" lon="-2.41508">
        <ele>0.20000000298023</ele>
        <time>2020-06-28T07:57:02.000Z</time>
      </trkpt>
      <trkpt lat="47.29542" lon="-2.41521">
        <ele>0.20000000298023</ele>
        <time>2020-06-28T07:57:04.000Z</time>
      </trkpt>
      <trkpt lat="47.29543" lon="-2.41545">
        <ele>0.20000000298023</ele>
        <time>2020-06-28T07:57:07.000Z</time>
      </trkpt>
      <trkpt lat="47.29535" lon="-2.41568">
        <ele>0.20000000298023</ele>
        <time>2020-06-28T07:57:10.000Z</time>
      </trkpt>
      <trkpt lat="47.29533" lon="-2.41576">
        <ele>0.20000000298023</ele>
        <time>2020-06-28T07:57:11.000Z</time>
      </trkpt>
      <trkpt lat="47.29529" lon="-2.41591">
        <ele>0.20000000298023</ele>
        <time>2020-06-28T07:57:13.000Z</time>
      </trkpt>
      <trkpt lat="47.29527" lon="-2.41614">
        <ele>0.20000000298023</ele>
        <time>2020-06-28T07:57:16.000Z</time>
      </trkpt>
      <trkpt lat="47.29531" lon="-2.41643">
        <ele>0.20000000298023</ele>
        <time>2020-06-28T07:57:20.000Z</time>
      </trkpt>
      <trkpt lat="47.29532" lon="-2.4165">
        <ele>0.20000000298023</ele>
        <time>2020-06-28T07:57:21.000Z</time>
      </trkpt>
      <trkpt lat="47.29534" lon="-2.41657">
        <ele>0.20000000298023</ele>
        <time>2020-06-28T07:57:22.000Z</time>
      </trkpt>
      <trkpt lat="47.29537" lon="-2.41664">
        <ele>0.20000000298023</ele>
        <time>2020-06-28T07:57:23.000Z</time>
      </trkpt>
      <trkpt lat="47.29539" lon="-2.41671">
        <ele>0.80000001192093</ele>
        <time>2020-06-28T07:57:24.000Z</time>
      </trkpt>
      <trkpt lat="47.29542" lon="-2.41678">
        <ele>1.2000000476837</ele>
        <time>2020-06-28T07:57:25.000Z</time>
      </trkpt>
      <trkpt lat="47.29545" lon="-2.41684">
        <ele>1.6000000238419</ele>
        <time>2020-06-28T07:57:26.000Z</time>
      </trkpt>
      <trkpt lat="47.29548" lon="-2.41691">
        <ele>2.4000000953674</ele>
        <time>2020-06-28T07:57:27.000Z</time>
      </trkpt>
      <trkpt lat="47.29551" lon="-2.41697">
        <ele>2.4000000953674</ele>
        <time>2020-06-28T07:57:28.000Z</time>
      </trkpt>
      <trkpt lat="47.29555" lon="-2.41703">
        <ele>2.4000000953674</ele>
        <time>2020-06-28T07:57:29.000Z</time>
      </trkpt>
      <trkpt lat="47.2957" lon="-2.41713">
        <ele>2.4000000953674</ele>
        <time>2020-06-28T07:57:32.000Z</time>
      </trkpt>
      <trkpt lat="47.29592" lon="-2.41725">
        <ele>2.4000000953674</ele>
        <time>2020-06-28T07:57:36.000Z</time>
      </trkpt>
      <trkpt lat="47.29598" lon="-2.4173">
        <ele>2.4000000953674</ele>
        <time>2020-06-28T07:57:37.000Z</time>
      </trkpt>
      <trkpt lat="47.29623" lon="-2.41757">
        <ele>2.4000000953674</ele>
        <time>2020-06-28T07:57:42.000Z</time>
      </trkpt>
      <trkpt lat="47.29635" lon="-2.41776">
        <ele>2.4000000953674</ele>
        <time>2020-06-28T07:57:45.000Z</time>
      </trkpt>
      <trkpt lat="47.29638" lon="-2.41792">
        <ele>2.4000000953674</ele>
        <time>2020-06-28T07:57:47.000Z</time>
      </trkpt>
      <trkpt lat="47.2964" lon="-2.41815">
        <ele>2.4000000953674</ele>
        <time>2020-06-28T07:57:50.000Z</time>
      </trkpt>
      <trkpt lat="47.29653" lon="-2.41829">
        <ele>2.4000000953674</ele>
        <time>2020-06-28T07:57:53.000Z</time>
      </trkpt>
      <trkpt lat="47.29669" lon="-2.41825">
        <ele>2.4000000953674</ele>
        <time>2020-06-28T07:57:56.000Z</time>
      </trkpt>
      <trkpt lat="47.29698" lon="-2.41816">
        <ele>2.4000000953674</ele>
        <time>2020-06-28T07:58:01.000Z</time>
      </trkpt>
      <trkpt lat="47.29715" lon="-2.41791">
        <ele>2.4000000953674</ele>
        <time>2020-06-28T07:58:05.000Z</time>
      </trkpt>
      <trkpt lat="47.29718" lon="-2.41785">
        <ele>2.4000000953674</ele>
        <time>2020-06-28T07:58:06.000Z</time>
      </trkpt>
      <trkpt lat="47.29722" lon="-2.4178">
        <ele>2.4000000953674</ele>
        <time>2020-06-28T07:58:07.000Z</time>
      </trkpt>
      <trkpt lat="47.29734" lon="-2.41766">
        <ele>2.4000000953674</ele>
        <time>2020-06-28T07:58:10.000Z</time>
      </trkpt>
      <trkpt lat="47.29756" lon="-2.41749">
        <ele>2.4000000953674</ele>
        <time>2020-06-28T07:58:15.000Z</time>
      </trkpt>
      <trkpt lat="47.29761" lon="-2.41748">
        <ele>2.4000000953674</ele>
        <time>2020-06-28T07:58:16.000Z</time>
      </trkpt>
      <trkpt lat="47.29769" lon="-2.41758">
        <ele>2.4000000953674</ele>
        <time>2020-06-28T07:58:19.000Z</time>
      </trkpt>
      <trkpt lat="47.29771" lon="-2.41775">
        <ele>2.4000000953674</ele>
        <time>2020-06-28T07:58:22.000Z</time>
      </trkpt>
      <trkpt lat="47.29771" lon="-2.41782">
        <ele>2.4000000953674</ele>
        <time>2020-06-28T07:58:23.000Z</time>
      </trkpt>
      <trkpt lat="47.29772" lon="-2.41834">
        <ele>2.4000000953674</ele>
        <time>2020-06-28T07:58:30.000Z</time>
      </trkpt>
      <trkpt lat="47.29772" lon="-2.419">
        <ele>2.4000000953674</ele>
        <time>2020-06-28T07:58:38.000Z</time>
      </trkpt>
      <trkpt lat="47.29781" lon="-2.41952">
        <ele>2.4000000953674</ele>
        <time>2020-06-28T07:58:44.000Z</time>
      </trkpt>
      <trkpt lat="47.2979" lon="-2.42013">
        <ele>2.4000000953674</ele>
        <time>2020-06-28T07:58:51.000Z</time>
      </trkpt>
      <trkpt lat="47.29789" lon="-2.42022">
        <ele>2.4000000953674</ele>
        <time>2020-06-28T07:58:52.000Z</time>
      </trkpt>
      <trkpt lat="47.29777" lon="-2.4205">
        <ele>2.4000000953674</ele>
        <time>2020-06-28T07:58:56.000Z</time>
      </trkpt>
      <trkpt lat="47.29756" lon="-2.42085">
        <ele>2</ele>
        <time>2020-06-28T07:59:02.000Z</time>
      </trkpt>
      <trkpt lat="47.29753" lon="-2.42091">
        <ele>1.6000000238419</ele>
        <time>2020-06-28T07:59:03.000Z</time>
      </trkpt>
      <trkpt lat="47.29749" lon="-2.42096">
        <ele>1</ele>
        <time>2020-06-28T07:59:04.000Z</time>
      </trkpt>
      <trkpt lat="47.29747" lon="-2.42101">
        <ele>0.20000000298023</ele>
        <time>2020-06-28T07:59:05.000Z</time>
      </trkpt>
      <trkpt lat="47.29731" lon="-2.42129">
        <ele>0.20000000298023</ele>
        <time>2020-06-28T07:59:10.000Z</time>
      </trkpt>
      <trkpt lat="47.297" lon="-2.42184">
        <ele>0.20000000298023</ele>
        <time>2020-06-28T07:59:20.000Z</time>
      </trkpt>
      <trkpt lat="47.29673" lon="-2.42234">
        <ele>0.20000000298023</ele>
        <time>2020-06-28T07:59:29.000Z</time>
      </trkpt>
      <trkpt lat="47.29661" lon="-2.42276">
        <ele>0.20000000298023</ele>
        <time>2020-06-28T07:59:35.000Z</time>
      </trkpt>
      <trkpt lat="47.29648" lon="-2.42329">
        <ele>0.20000000298023</ele>
        <time>2020-06-28T07:59:42.000Z</time>
      </trkpt>
      <trkpt lat="47.29636" lon="-2.42385">
        <ele>0.20000000298023</ele>
        <time>2020-06-28T07:59:50.000Z</time>
      </trkpt>
      <trkpt lat="47.29628" lon="-2.42423">
        <ele>0.20000000298023</ele>
        <time>2020-06-28T07:59:57.000Z</time>
      </trkpt>
      <trkpt lat="47.2962" lon="-2.42439">
        <ele>0.20000000298023</ele>
        <time>2020-06-28T08:00:02.000Z</time>
      </trkpt>
      <trkpt lat="47.29605" lon="-2.42433">
        <ele>0.20000000298023</ele>
        <time>2020-06-28T08:00:06.000Z</time>
      </trkpt>
      <trkpt lat="47.296" lon="-2.42431">
        <ele>0.20000000298023</ele>
        <time>2020-06-28T08:00:07.000Z</time>
      </trkpt>
      <trkpt lat="47.29591" lon="-2.42428">
        <ele>0.20000000298023</ele>
        <time>2020-06-28T08:00:09.000Z</time>
      </trkpt>
      <trkpt lat="47.29582" lon="-2.42427">
        <ele>0.20000000298023</ele>
        <time>2020-06-28T08:00:11.000Z</time>
      </trkpt>
      <trkpt lat="47.29565" lon="-2.42429">
        <ele>0.20000000298023</ele>
        <time>2020-06-28T08:00:16.000Z</time>
      </trkpt>
      <trkpt lat="47.29549" lon="-2.42441">
        <ele>0.20000000298023</ele>
        <time>2020-06-28T08:00:21.000Z</time>
      </trkpt>
      <trkpt lat="47.29544" lon="-2.42451">
        <ele>0.20000000298023</ele>
        <time>2020-06-28T08:00:23.000Z</time>
      </trkpt>
      <trkpt lat="47.29536" lon="-2.42466">
        <ele>0.20000000298023</ele>
        <time>2020-06-28T08:00:26.000Z</time>
      </trkpt>
      <trkpt lat="47.29525" lon="-2.4248">
        <ele>0.20000000298023</ele>
        <time>2020-06-28T08:00:29.000Z</time>
      </trkpt>
      <trkpt lat="47.29516" lon="-2.42485">
        <ele>0.20000000298023</ele>
        <time>2020-06-28T08:00:31.000Z</time>
      </trkpt>
      <trkpt lat="47.29498" lon="-2.42505">
        <ele>0.20000000298023</ele>
        <time>2020-06-28T08:00:36.000Z</time>
      </trkpt>
      <trkpt lat="47.29494" lon="-2.42509">
        <ele>0.20000000298023</ele>
        <time>2020-06-28T08:00:37.000Z</time>
      </trkpt>
      <trkpt lat="47.29491" lon="-2.42513">
        <ele>0.20000000298023</ele>
        <time>2020-06-28T08:00:38.000Z</time>
      </trkpt>
      <trkpt lat="47.29475" lon="-2.42527">
        <ele>0.20000000298023</ele>
        <time>2020-06-28T08:00:42.000Z</time>
      </trkpt>
      <trkpt lat="47.2945" lon="-2.42553">
        <ele>0.20000000298023</ele>
        <time>2020-06-28T08:00:48.000Z</time>
      </trkpt>
      <trkpt lat="47.29433" lon="-2.42574">
        <ele>0.20000000298023</ele>
        <time>2020-06-28T08:00:52.000Z</time>
      </trkpt>
      <trkpt lat="47.29421" lon="-2.42596">
        <ele>0.20000000298023</ele>
        <time>2020-06-28T08:00:56.000Z</time>
      </trkpt>
      <trkpt lat="47.2942" lon="-2.42604">
        <ele>0.20000000298023</ele>
        <time>2020-06-28T08:00:57.000Z</time>
      </trkpt>
      <trkpt lat="47.2942" lon="-2.42637">
        <ele>0.20000000298023</ele>
        <time>2020-06-28T08:01:01.000Z</time>
      </trkpt>
      <trkpt lat="47.29413" lon="-2.42688">
        <ele>0.20000000298023</ele>
        <time>2020-06-28T08:01:07.000Z</time>
      </trkpt>
      <trkpt lat="47.2941" lon="-2.42695">
        <ele>0.20000000298023</ele>
        <time>2020-06-28T08:01:08.000Z</time>
      </trkpt>
      <trkpt lat="47.2939" lon="-2.42746">
        <ele>0.20000000298023</ele>
        <time>2020-06-28T08:01:15.000Z</time>
      </trkpt>
      <trkpt lat="47.29379" lon="-2.4279">
        <ele>0.20000000298023</ele>
        <time>2020-06-28T08:01:21.000Z</time>
      </trkpt>
      <trkpt lat="47.29375" lon="-2.42804">
        <ele>0.20000000298023</ele>
        <time>2020-06-28T08:01:23.000Z</time>
      </trkpt>
      <trkpt lat="47.29364" lon="-2.42818">
        <ele>0.20000000298023</ele>
        <time>2020-06-28T08:01:26.000Z</time>
      </trkpt>
      <trkpt lat="47.29346" lon="-2.42842">
        <ele>0.20000000298023</ele>
        <time>2020-06-28T08:01:30.000Z</time>
      </trkpt>
      <trkpt lat="47.29329" lon="-2.42877">
        <ele>0.20000000298023</ele>
        <time>2020-06-28T08:01:35.000Z</time>
      </trkpt>
      <trkpt lat="47.29325" lon="-2.42894">
        <ele>0.20000000298023</ele>
        <time>2020-06-28T08:01:37.000Z</time>
      </trkpt>
      <trkpt lat="47.29316" lon="-2.42927">
        <ele>0.20000000298023</ele>
        <time>2020-06-28T08:01:41.000Z</time>
      </trkpt>
      <trkpt lat="47.29313" lon="-2.42944">
        <ele>0.20000000298023</ele>
        <time>2020-06-28T08:01:43.000Z</time>
      </trkpt>
      <trkpt lat="47.29315" lon="-2.42962">
        <ele>0.20000000298023</ele>
        <time>2020-06-28T08:01:45.000Z</time>
      </trkpt>
      <trkpt lat="47.29314" lon="-2.42995">
        <ele>0.20000000298023</ele>
        <time>2020-06-28T08:01:49.000Z</time>
      </trkpt>
      <trkpt lat="47.29307" lon="-2.43045">
        <ele>0.20000000298023</ele>
        <time>2020-06-28T08:01:55.000Z</time>
      </trkpt>
      <trkpt lat="47.29306" lon="-2.43063">
        <ele>0.20000000298023</ele>
        <time>2020-06-28T08:01:57.000Z</time>
      </trkpt>
      <trkpt lat="47.29311" lon="-2.43078">
        <ele>0.20000000298023</ele>
        <time>2020-06-28T08:01:59.000Z</time>
      </trkpt>
      <trkpt lat="47.29323" lon="-2.43083">
        <ele>0.20000000298023</ele>
        <time>2020-06-28T08:02:01.000Z</time>
      </trkpt>
      <trkpt lat="47.29329" lon="-2.43086">
        <ele>0.20000000298023</ele>
        <time>2020-06-28T08:02:02.000Z</time>
      </trkpt>
      <trkpt lat="47.29344" lon="-2.43098">
        <ele>0.20000000298023</ele>
        <time>2020-06-28T08:02:05.000Z</time>
      </trkpt>
      <trkpt lat="47.29349" lon="-2.43103">
        <ele>0.20000000298023</ele>
        <time>2020-06-28T08:02:06.000Z</time>
      </trkpt>
      <trkpt lat="47.29352" lon="-2.4311">
        <ele>0.20000000298023</ele>
        <time>2020-06-28T08:02:07.000Z</time>
      </trkpt>
      <trkpt lat="47.29358" lon="-2.43122">
        <ele>0.20000000298023</ele>
        <time>2020-06-28T08:02:09.000Z</time>
      </trkpt>
      <trkpt lat="47.2937" lon="-2.43157">
        <ele>0.20000000298023</ele>
        <time>2020-06-28T08:02:14.000Z</time>
      </trkpt>
      <trkpt lat="47.29372" lon="-2.43165">
        <ele>0.20000000298023</ele>
        <time>2020-06-28T08:02:15.000Z</time>
      </trkpt>
      <trkpt lat="47.29378" lon="-2.43203">
        <ele>0.20000000298023</ele>
        <time>2020-06-28T08:02:20.000Z</time>
      </trkpt>
      <trkpt lat="47.29377" lon="-2.43211">
        <ele>0.20000000298023</ele>
        <time>2020-06-28T08:02:21.000Z</time>
      </trkpt>
      <trkpt lat="47.29368" lon="-2.43231">
        <ele>0.20000000298023</ele>
        <time>2020-06-28T08:02:24.000Z</time>
      </trkpt>
      <trkpt lat="47.29365" lon="-2.43236">
        <ele>0.20000000298023</ele>
        <time>2020-06-28T08:02:25.000Z</time>
      </trkpt>
      <trkpt lat="47.29363" lon="-2.43242">
        <ele>0.20000000298023</ele>
        <time>2020-06-28T08:02:26.000Z</time>
      </trkpt>
      <trkpt lat="47.29362" lon="-2.43253">
        <ele>0.20000000298023</ele>
        <time>2020-06-28T08:02:28.000Z</time>
      </trkpt>
      <trkpt lat="47.29364" lon="-2.43267">
        <ele>0.20000000298023</ele>
        <time>2020-06-28T08:02:30.000Z</time>
      </trkpt>
      <trkpt lat="47.29366" lon="-2.43287">
        <ele>0.20000000298023</ele>
        <time>2020-06-28T08:02:33.000Z</time>
      </trkpt>
      <trkpt lat="47.29367" lon="-2.43293">
        <ele>0.20000000298023</ele>
        <time>2020-06-28T08:02:34.000Z</time>
      </trkpt>
      <trkpt lat="47.29378" lon="-2.4331">
        <ele>0.20000000298023</ele>
        <time>2020-06-28T08:02:37.000Z</time>
      </trkpt>
      <trkpt lat="47.29401" lon="-2.43342">
        <ele>0.20000000298023</ele>
        <time>2020-06-28T08:02:43.000Z</time>
      </trkpt>
      <trkpt lat="47.29405" lon="-2.43347">
        <ele>0.20000000298023</ele>
        <time>2020-06-28T08:02:44.000Z</time>
      </trkpt>
      <trkpt lat="47.29409" lon="-2.43353">
        <ele>0.20000000298023</ele>
        <time>2020-06-28T08:02:45.000Z</time>
      </trkpt>
      <trkpt lat="47.29413" lon="-2.43372">
        <ele>0.20000000298023</ele>
        <time>2020-06-28T08:02:48.000Z</time>
      </trkpt>
      <trkpt lat="47.29422" lon="-2.43389">
        <ele>0.20000000298023</ele>
        <time>2020-06-28T08:02:52.000Z</time>
      </trkpt>
      <trkpt lat="47.29437" lon="-2.43402">
        <ele>0.20000000298023</ele>
        <time>2020-06-28T08:02:56.000Z</time>
      </trkpt>
      <trkpt lat="47.29441" lon="-2.43431">
        <ele>0.20000000298023</ele>
        <time>2020-06-28T08:03:00.000Z</time>
      </trkpt>
      <trkpt lat="47.29445" lon="-2.43445">
        <ele>0.20000000298023</ele>
        <time>2020-06-28T08:03:03.000Z</time>
      </trkpt>
      <trkpt lat="47.29447" lon="-2.43449">
        <ele>0.20000000298023</ele>
        <time>2020-06-28T08:03:04.000Z</time>
      </trkpt>
      <trkpt lat="47.29449" lon="-2.43459">
        <ele>0.20000000298023</ele>
        <time>2020-06-28T08:03:07.000Z</time>
      </trkpt>
      <trkpt lat="47.29451" lon="-2.43464">
        <ele>0.20000000298023</ele>
        <time>2020-06-28T08:03:09.000Z</time>
      </trkpt>
      <trkpt lat="47.2945" lon="-2.43481">
        <ele>0.20000000298023</ele>
        <time>2020-06-28T08:03:14.000Z</time>
      </trkpt>
      <trkpt lat="47.29443" lon="-2.43495">
        <ele>0.20000000298023</ele>
        <time>2020-06-28T08:03:17.000Z</time>
      </trkpt>
      <trkpt lat="47.2944" lon="-2.435">
        <ele>0.20000000298023</ele>
        <time>2020-06-28T08:03:18.000Z</time>
      </trkpt>
      <trkpt lat="47.29418" lon="-2.43536">
        <ele>0.20000000298023</ele>
        <time>2020-06-28T08:03:26.000Z</time>
      </trkpt>
      <trkpt lat="47.2941" lon="-2.43537">
        <ele>0.20000000298023</ele>
        <time>2020-06-28T08:03:28.000Z</time>
      </trkpt>
      <trkpt lat="47.29405" lon="-2.43538">
        <ele>0.20000000298023</ele>
        <time>2020-06-28T08:03:29.000Z</time>
      </trkpt>
      <trkpt lat="47.2939" lon="-2.43541">
        <ele>0.20000000298023</ele>
        <time>2020-06-28T08:03:32.000Z</time>
      </trkpt>
      <trkpt lat="47.29377" lon="-2.43546">
        <ele>0.20000000298023</ele>
        <time>2020-06-28T08:03:35.000Z</time>
      </trkpt>
      <trkpt lat="47.29367" lon="-2.43551">
        <ele>0.20000000298023</ele>
        <time>2020-06-28T08:03:37.000Z</time>
      </trkpt>
      <trkpt lat="47.2936" lon="-2.43558">
        <ele>0.20000000298023</ele>
        <time>2020-06-28T08:03:39.000Z</time>
      </trkpt>
      <trkpt lat="47.29353" lon="-2.43567">
        <ele>0.20000000298023</ele>
        <time>2020-06-28T08:03:41.000Z</time>
      </trkpt>
      <trkpt lat="47.2935" lon="-2.43585">
        <ele>0.20000000298023</ele>
        <time>2020-06-28T08:03:44.000Z</time>
      </trkpt>
      <trkpt lat="47.29352" lon="-2.43598">
        <ele>0.20000000298023</ele>
        <time>2020-06-28T08:03:46.000Z</time>
      </trkpt>
      <trkpt lat="47.29352" lon="-2.43604">
        <ele>0.20000000298023</ele>
        <time>2020-06-28T08:03:47.000Z</time>
      </trkpt>
      <trkpt lat="47.2935" lon="-2.4361">
        <ele>0.20000000298023</ele>
        <time>2020-06-28T08:03:48.000Z</time>
      </trkpt>
      <trkpt lat="47.2934" lon="-2.43622">
        <ele>0.20000000298023</ele>
        <time>2020-06-28T08:03:51.000Z</time>
      </trkpt>
      <trkpt lat="47.29313" lon="-2.43648">
        <ele>0.20000000298023</ele>
        <time>2020-06-28T08:03:58.000Z</time>
      </trkpt>
      <trkpt lat="47.29309" lon="-2.43651">
        <ele>0.20000000298023</ele>
        <time>2020-06-28T08:03:59.000Z</time>
      </trkpt>
      <trkpt lat="47.29282" lon="-2.43675">
        <ele>0.20000000298023</ele>
        <time>2020-06-28T08:04:06.000Z</time>
      </trkpt>
      <trkpt lat="47.29267" lon="-2.43682">
        <ele>0.20000000298023</ele>
        <time>2020-06-28T08:04:10.000Z</time>
      </trkpt>
      <trkpt lat="47.29264" lon="-2.43678">
        <ele>0.20000000298023</ele>
        <time>2020-06-28T08:04:11.000Z</time>
      </trkpt>
      <trkpt lat="47.2926" lon="-2.43659">
        <ele>0.20000000298023</ele>
        <time>2020-06-28T08:04:14.000Z</time>
      </trkpt>
      <trkpt lat="47.29258" lon="-2.43652">
        <ele>0.20000000298023</ele>
        <time>2020-06-28T08:04:15.000Z</time>
      </trkpt>
      <trkpt lat="47.29247" lon="-2.43619">
        <ele>0.20000000298023</ele>
        <time>2020-06-28T08:04:20.000Z</time>
      </trkpt>
      <trkpt lat="47.29228" lon="-2.43596">
        <ele>0.20000000298023</ele>
        <time>2020-06-28T08:04:25.000Z</time>
      </trkpt>
      <trkpt lat="47.29223" lon="-2.43593">
        <ele>0.20000000298023</ele>
        <time>2020-06-28T08:04:26.000Z</time>
      </trkpt>
      <trkpt lat="47.29208" lon="-2.43591">
        <ele>0.20000000298023</ele>
        <time>2020-06-28T08:04:29.000Z</time>
      </trkpt>
      <trkpt lat="47.29196" lon="-2.43596">
        <ele>0.20000000298023</ele>
        <time>2020-06-28T08:04:32.000Z</time>
      </trkpt>
      <trkpt lat="47.29189" lon="-2.43602">
        <ele>0.20000000298023</ele>
        <time>2020-06-28T08:04:34.000Z</time>
      </trkpt>
      <trkpt lat="47.29187" lon="-2.43608">
        <ele>0.20000000298023</ele>
        <time>2020-06-28T08:04:35.000Z</time>
      </trkpt>
      <trkpt lat="47.29187" lon="-2.43613">
        <ele>0.20000000298023</ele>
        <time>2020-06-28T08:04:37.000Z</time>
      </trkpt>
      <trkpt lat="47.29187" lon="-2.43612">
        <ele>0.20000000298023</ele>
        <time>2020-06-28T08:04:38.000Z</time>
      </trkpt>
      <trkpt lat="47.2919" lon="-2.43607">
        <ele>0.20000000298023</ele>
        <time>2020-06-28T08:05:08.000Z</time>
      </trkpt>
      <trkpt lat="47.29192" lon="-2.43604">
        <ele>0.20000000298023</ele>
        <time>2020-06-28T08:05:09.000Z</time>
      </trkpt>
      <trkpt lat="47.29205" lon="-2.43596">
        <ele>0.20000000298023</ele>
        <time>2020-06-28T08:05:15.000Z</time>
      </trkpt>
      <trkpt lat="47.29225" lon="-2.43597">
        <ele>0.20000000298023</ele>
        <time>2020-06-28T08:05:21.000Z</time>
      </trkpt>
      <trkpt lat="47.29244" lon="-2.43616">
        <ele>0.20000000298023</ele>
        <time>2020-06-28T08:05:27.000Z</time>
      </trkpt>
      <trkpt lat="47.29252" lon="-2.43634">
        <ele>0.20000000298023</ele>
        <time>2020-06-28T08:05:31.000Z</time>
      </trkpt>
      <trkpt lat="47.29255" lon="-2.43645">
        <ele>0.20000000298023</ele>
        <time>2020-06-28T08:05:33.000Z</time>
      </trkpt>
      <trkpt lat="47.29269" lon="-2.43686">
        <ele>0.20000000298023</ele>
        <time>2020-06-28T08:05:41.000Z</time>
      </trkpt>
      <trkpt lat="47.29273" lon="-2.43686">
        <ele>0.20000000298023</ele>
        <time>2020-06-28T08:05:42.000Z</time>
      </trkpt>
      <trkpt lat="47.2928" lon="-2.4368">
        <ele>0.20000000298023</ele>
        <time>2020-06-28T08:05:44.000Z</time>
      </trkpt>
      <trkpt lat="47.29287" lon="-2.43673">
        <ele>0.20000000298023</ele>
        <time>2020-06-28T08:05:46.000Z</time>
      </trkpt>
      <trkpt lat="47.29303" lon="-2.43658">
        <ele>0.20000000298023</ele>
        <time>2020-06-28T08:05:51.000Z</time>
      </trkpt>
      <trkpt lat="47.29335" lon="-2.43629">
        <ele>0.20000000298023</ele>
        <time>2020-06-28T08:06:00.000Z</time>
      </trkpt>
      <trkpt lat="47.29354" lon="-2.43598">
        <ele>0.20000000298023</ele>
        <time>2020-06-28T08:06:07.000Z</time>
      </trkpt>
      <trkpt lat="47.29354" lon="-2.43587">
        <ele>0.20000000298023</ele>
        <time>2020-06-28T08:06:09.000Z</time>
      </trkpt>
      <trkpt lat="47.29353" lon="-2.43575">
        <ele>0.20000000298023</ele>
        <time>2020-06-28T08:06:11.000Z</time>
      </trkpt>
      <trkpt lat="47.29354" lon="-2.43569">
        <ele>0.20000000298023</ele>
        <time>2020-06-28T08:06:12.000Z</time>
      </trkpt>
      <trkpt lat="47.29364" lon="-2.43554">
        <ele>0.20000000298023</ele>
        <time>2020-06-28T08:06:16.000Z</time>
      </trkpt>
      <trkpt lat="47.29371" lon="-2.4355">
        <ele>0.20000000298023</ele>
        <time>2020-06-28T08:06:18.000Z</time>
      </trkpt>
      <trkpt lat="47.29386" lon="-2.43542">
        <ele>0.20000000298023</ele>
        <time>2020-06-28T08:06:22.000Z</time>
      </trkpt>
      <trkpt lat="47.29412" lon="-2.43538">
        <ele>0.20000000298023</ele>
        <time>2020-06-28T08:06:29.000Z</time>
      </trkpt>
      <trkpt lat="47.29415" lon="-2.4354">
        <ele>0.20000000298023</ele>
        <time>2020-06-28T08:06:31.000Z</time>
      </trkpt>
      <trkpt lat="47.29415" lon="-2.43545">
        <ele>0.20000000298023</ele>
        <time>2020-06-28T08:06:33.000Z</time>
      </trkpt>
      <trkpt lat="47.29412" lon="-2.43552">
        <ele>0.20000000298023</ele>
        <time>2020-06-28T08:06:35.000Z</time>
      </trkpt>
      <trkpt lat="47.29403" lon="-2.43569">
        <ele>0.20000000298023</ele>
        <time>2020-06-28T08:06:39.000Z</time>
      </trkpt>
      <trkpt lat="47.29382" lon="-2.43605">
        <ele>0.20000000298023</ele>
        <time>2020-06-28T08:06:48.000Z</time>
      </trkpt>
      <trkpt lat="47.2938" lon="-2.43625">
        <ele>0.20000000298023</ele>
        <time>2020-06-28T08:06:53.000Z</time>
      </trkpt>
      <trkpt lat="47.29379" lon="-2.43629">
        <ele>0.20000000298023</ele>
        <time>2020-06-28T08:06:54.000Z</time>
      </trkpt>
      <trkpt lat="47.29376" lon="-2.43632">
        <ele>0.20000000298023</ele>
        <time>2020-06-28T08:06:55.000Z</time>
      </trkpt>
      <trkpt lat="47.2937" lon="-2.43637">
        <ele>0.20000000298023</ele>
        <time>2020-06-28T08:06:57.000Z</time>
      </trkpt>
      <trkpt lat="47.29347" lon="-2.43661">
        <ele>0.20000000298023</ele>
        <time>2020-06-28T08:07:05.000Z</time>
      </trkpt>
      <trkpt lat="47.29332" lon="-2.43676">
        <ele>0.20000000298023</ele>
        <time>2020-06-28T08:07:11.000Z</time>
      </trkpt>
      <trkpt lat="47.29317" lon="-2.43687">
        <ele>0.20000000298023</ele>
        <time>2020-06-28T08:07:18.000Z</time>
      </trkpt>
      <trkpt lat="47.293" lon="-2.43699">
        <ele>0.20000000298023</ele>
        <time>2020-06-28T08:07:26.000Z</time>
      </trkpt>
      <trkpt lat="47.2928" lon="-2.43713">
        <ele>0.20000000298023</ele>
        <time>2020-06-28T08:07:34.000Z</time>
      </trkpt>
      <trkpt lat="47.2926" lon="-2.4373">
        <ele>0.20000000298023</ele>
        <time>2020-06-28T08:07:40.000Z</time>
      </trkpt>
      <trkpt lat="47.29236" lon="-2.4375">
        <ele>0.20000000298023</ele>
        <time>2020-06-28T08:07:46.000Z</time>
      </trkpt>
      <trkpt lat="47.29196" lon="-2.43785">
        <ele>0.20000000298023</ele>
        <time>2020-06-28T08:07:55.000Z</time>
      </trkpt>
      <trkpt lat="47.29154" lon="-2.43823">
        <ele>0.20000000298023</ele>
        <time>2020-06-28T08:08:04.000Z</time>
      </trkpt>
      <trkpt lat="47.29108" lon="-2.43858">
        <ele>0.20000000298023</ele>
        <time>2020-06-28T08:08:13.000Z</time>
      </trkpt>
      <trkpt lat="47.29082" lon="-2.43873">
        <ele>0.20000000298023</ele>
        <time>2020-06-28T08:08:18.000Z</time>
      </trkpt>
      <trkpt lat="47.29078" lon="-2.43878">
        <ele>0.20000000298023</ele>
        <time>2020-06-28T08:08:19.000Z</time>
      </trkpt>
      <trkpt lat="47.29069" lon="-2.43886">
        <ele>0.20000000298023</ele>
        <time>2020-06-28T08:08:21.000Z</time>
      </trkpt>
      <trkpt lat="47.2906" lon="-2.43888">
        <ele>0.20000000298023</ele>
        <time>2020-06-28T08:08:23.000Z</time>
      </trkpt>
      <trkpt lat="47.29048" lon="-2.43873">
        <ele>0.20000000298023</ele>
        <time>2020-06-28T08:08:26.000Z</time>
      </trkpt>
      <trkpt lat="47.29044" lon="-2.43867">
        <ele>0.20000000298023</ele>
        <time>2020-06-28T08:08:27.000Z</time>
      </trkpt>
      <trkpt lat="47.29041" lon="-2.43861">
        <ele>0.20000000298023</ele>
        <time>2020-06-28T08:08:28.000Z</time>
      </trkpt>
      <trkpt lat="47.29027" lon="-2.43845">
        <ele>0.20000000298023</ele>
        <time>2020-06-28T08:08:31.000Z</time>
      </trkpt>
      <trkpt lat="47.29017" lon="-2.43837">
        <ele>0.20000000298023</ele>
        <time>2020-06-28T08:08:33.000Z</time>
      </trkpt>
      <trkpt lat="47.28996" lon="-2.43824">
        <ele>0.20000000298023</ele>
        <time>2020-06-28T08:08:37.000Z</time>
      </trkpt>
      <trkpt lat="47.28958" lon="-2.43806">
        <ele>0.20000000298023</ele>
        <time>2020-06-28T08:08:44.000Z</time>
      </trkpt>
      <trkpt lat="47.28918" lon="-2.43806">
        <ele>0.20000000298023</ele>
        <time>2020-06-28T08:08:51.000Z</time>
      </trkpt>
      <trkpt lat="47.28906" lon="-2.43809">
        <ele>0.20000000298023</ele>
        <time>2020-06-28T08:08:53.000Z</time>
      </trkpt>
      <trkpt lat="47.28889" lon="-2.43817">
        <ele>0.20000000298023</ele>
        <time>2020-06-28T08:08:56.000Z</time>
      </trkpt>
      <trkpt lat="47.2886" lon="-2.43829">
        <ele>0.20000000298023</ele>
        <time>2020-06-28T08:09:01.000Z</time>
      </trkpt>
      <trkpt lat="47.28854" lon="-2.43831">
        <ele>0.20000000298023</ele>
        <time>2020-06-28T08:09:02.000Z</time>
      </trkpt>
      <trkpt lat="47.28832" lon="-2.43834">
        <ele>0.20000000298023</ele>
        <time>2020-06-28T08:09:06.000Z</time>
      </trkpt>
      <trkpt lat="47.2882" lon="-2.43832">
        <ele>0.20000000298023</ele>
        <time>2020-06-28T08:09:08.000Z</time>
      </trkpt>
      <trkpt lat="47.28803" lon="-2.43822">
        <ele>0.20000000298023</ele>
        <time>2020-06-28T08:09:11.000Z</time>
      </trkpt>
      <trkpt lat="47.28797" lon="-2.43817">
        <ele>0.20000000298023</ele>
        <time>2020-06-28T08:09:12.000Z</time>
      </trkpt>
      <trkpt lat="47.28748" lon="-2.43778">
        <ele>0.20000000298023</ele>
        <time>2020-06-28T08:09:21.000Z</time>
      </trkpt>
      <trkpt lat="47.28742" lon="-2.43774">
        <ele>0.20000000298023</ele>
        <time>2020-06-28T08:09:22.000Z</time>
      </trkpt>
      <trkpt lat="47.28699" lon="-2.43743">
        <ele>0.20000000298023</ele>
        <time>2020-06-28T08:09:30.000Z</time>
      </trkpt>
      <trkpt lat="47.28656" lon="-2.43708">
        <ele>0.20000000298023</ele>
        <time>2020-06-28T08:09:38.000Z</time>
      </trkpt>
      <trkpt lat="47.28615" lon="-2.43677">
        <ele>0.20000000298023</ele>
        <time>2020-06-28T08:09:46.000Z</time>
      </trkpt>
      <trkpt lat="47.28574" lon="-2.43645">
        <ele>0.20000000298023</ele>
        <time>2020-06-28T08:09:54.000Z</time>
      </trkpt>
      <trkpt lat="47.28538" lon="-2.43616">
        <ele>0.20000000298023</ele>
        <time>2020-06-28T08:10:01.000Z</time>
      </trkpt>
      <trkpt lat="47.28494" lon="-2.43581">
        <ele>0.20000000298023</ele>
        <time>2020-06-28T08:10:10.000Z</time>
      </trkpt>
      <trkpt lat="47.28448" lon="-2.43545">
        <ele>0.20000000298023</ele>
        <time>2020-06-28T08:10:19.000Z</time>
      </trkpt>
      <trkpt lat="47.28398" lon="-2.43505">
        <ele>0.20000000298023</ele>
        <time>2020-06-28T08:10:29.000Z</time>
      </trkpt>
      <trkpt lat="47.28379" lon="-2.4349">
        <ele>0.20000000298023</ele>
        <time>2020-06-28T08:10:33.000Z</time>
      </trkpt>
      <trkpt lat="47.28363" lon="-2.43477">
        <ele>0.20000000298023</ele>
        <time>2020-06-28T08:10:36.000Z</time>
      </trkpt>
      <trkpt lat="47.28323" lon="-2.43446">
        <ele>0.20000000298023</ele>
        <time>2020-06-28T08:10:44.000Z</time>
      </trkpt>
      <trkpt lat="47.28307" lon="-2.4343">
        <ele>0.20000000298023</ele>
        <time>2020-06-28T08:10:48.000Z</time>
      </trkpt>
      <trkpt lat="47.28299" lon="-2.43424">
        <ele>0.20000000298023</ele>
        <time>2020-06-28T08:10:50.000Z</time>
      </trkpt>
      <trkpt lat="47.28289" lon="-2.43414">
        <ele>0.20000000298023</ele>
        <time>2020-06-28T08:10:54.000Z</time>
      </trkpt>
      <trkpt lat="47.28281" lon="-2.43409">
        <ele>0.20000000298023</ele>
        <time>2020-06-28T08:11:00.000Z</time>
      </trkpt>
      <trkpt lat="47.2828" lon="-2.43408">
        <ele>0.20000000298023</ele>
        <time>2020-06-28T08:11:10.000Z</time>
      </trkpt>
      <trkpt lat="47.28271" lon="-2.43401">
        <ele>0.20000000298023</ele>
        <time>2020-06-28T08:11:14.000Z</time>
      </trkpt>
      <trkpt lat="47.28254" lon="-2.43387">
        <ele>0.20000000298023</ele>
        <time>2020-06-28T08:11:19.000Z</time>
      </trkpt>
      <trkpt lat="47.28238" lon="-2.43374">
        <ele>0.20000000298023</ele>
        <time>2020-06-28T08:11:24.000Z</time>
      </trkpt>
      <trkpt lat="47.28232" lon="-2.43368">
        <ele>0.20000000298023</ele>
        <time>2020-06-28T08:11:26.000Z</time>
      </trkpt>
      <trkpt lat="47.28225" lon="-2.4336">
        <ele>0.20000000298023</ele>
        <time>2020-06-28T08:11:28.000Z</time>
      </trkpt>
      <trkpt lat="47.28222" lon="-2.43356">
        <ele>0.20000000298023</ele>
        <time>2020-06-28T08:11:29.000Z</time>
      </trkpt>
      <trkpt lat="47.2821" lon="-2.43336">
        <ele>0.20000000298023</ele>
        <time>2020-06-28T08:11:33.000Z</time>
      </trkpt>
      <trkpt lat="47.28201" lon="-2.43331">
        <ele>0.20000000298023</ele>
        <time>2020-06-28T08:11:35.000Z</time>
      </trkpt>
      <trkpt lat="47.2819" lon="-2.43334">
        <ele>0.20000000298023</ele>
        <time>2020-06-28T08:11:38.000Z</time>
      </trkpt>
      <trkpt lat="47.28188" lon="-2.43336">
        <ele>0.20000000298023</ele>
        <time>2020-06-28T08:11:39.000Z</time>
      </trkpt>
      <trkpt lat="47.28185" lon="-2.43338">
        <ele>0.20000000298023</ele>
        <time>2020-06-28T08:11:40.000Z</time>
      </trkpt>
      <trkpt lat="47.28179" lon="-2.43335">
        <ele>0.20000000298023</ele>
        <time>2020-06-28T08:11:42.000Z</time>
      </trkpt>
      <trkpt lat="47.28169" lon="-2.43343">
        <ele>0.20000000298023</ele>
        <time>2020-06-28T08:11:45.000Z</time>
      </trkpt>
      <trkpt lat="47.28152" lon="-2.43372">
        <ele>0.20000000298023</ele>
        <time>2020-06-28T08:11:50.000Z</time>
      </trkpt>
      <trkpt lat="47.28118" lon="-2.43422">
        <ele>0.20000000298023</ele>
        <time>2020-06-28T08:11:59.000Z</time>
      </trkpt>
      <trkpt lat="47.28079" lon="-2.43479">
        <ele>0.20000000298023</ele>
        <time>2020-06-28T08:12:09.000Z</time>
      </trkpt>
      <trkpt lat="47.28075" lon="-2.43485">
        <ele>0.20000000298023</ele>
        <time>2020-06-28T08:12:10.000Z</time>
      </trkpt>
      <trkpt lat="47.28042" lon="-2.43533">
        <ele>0.20000000298023</ele>
        <time>2020-06-28T08:12:18.000Z</time>
      </trkpt>
      <trkpt lat="47.28011" lon="-2.43578">
        <ele>0.20000000298023</ele>
        <time>2020-06-28T08:12:25.000Z</time>
      </trkpt>
      <trkpt lat="47.2797" lon="-2.43639">
        <ele>0.20000000298023</ele>
        <time>2020-06-28T08:12:35.000Z</time>
      </trkpt>
      <trkpt lat="47.27966" lon="-2.43645">
        <ele>0.20000000298023</ele>
        <time>2020-06-28T08:12:36.000Z</time>
      </trkpt>
      <trkpt lat="47.27927" lon="-2.437">
        <ele>0.20000000298023</ele>
        <time>2020-06-28T08:12:45.000Z</time>
      </trkpt>
      <trkpt lat="47.27922" lon="-2.43707">
        <ele>0.20000000298023</ele>
        <time>2020-06-28T08:12:46.000Z</time>
      </trkpt>
      <trkpt lat="47.27887" lon="-2.43746">
        <ele>0.20000000298023</ele>
        <time>2020-06-28T08:12:53.000Z</time>
      </trkpt>
      <trkpt lat="47.27847" lon="-2.43784">
        <ele>0.20000000298023</ele>
        <time>2020-06-28T08:13:01.000Z</time>
      </trkpt>
      <trkpt lat="47.27816" lon="-2.438">
        <ele>0.20000000298023</ele>
        <time>2020-06-28T08:13:07.000Z</time>
      </trkpt>
      <trkpt lat="47.27811" lon="-2.438">
        <ele>0.20000000298023</ele>
        <time>2020-06-28T08:13:08.000Z</time>
      </trkpt>
      <trkpt lat="47.27794" lon="-2.43793">
        <ele>0.20000000298023</ele>
        <time>2020-06-28T08:13:12.000Z</time>
      </trkpt>
      <trkpt lat="47.27777" lon="-2.43789">
        <ele>0.20000000298023</ele>
        <time>2020-06-28T08:13:17.000Z</time>
      </trkpt>
      <trkpt lat="47.27763" lon="-2.438">
        <ele>0.20000000298023</ele>
        <time>2020-06-28T08:13:20.000Z</time>
      </trkpt>
      <trkpt lat="47.2775" lon="-2.43817">
        <ele>0.20000000298023</ele>
        <time>2020-06-28T08:13:23.000Z</time>
      </trkpt>
      <trkpt lat="47.27739" lon="-2.43822">
        <ele>0.20000000298023</ele>
        <time>2020-06-28T08:13:25.000Z</time>
      </trkpt>
      <trkpt lat="47.27723" lon="-2.43825">
        <ele>0.20000000298023</ele>
        <time>2020-06-28T08:13:28.000Z</time>
      </trkpt>
      <trkpt lat="47.2771" lon="-2.43827">
        <ele>0.20000000298023</ele>
        <time>2020-06-28T08:13:30.000Z</time>
      </trkpt>
      <trkpt lat="47.2767" lon="-2.43835">
        <ele>0.20000000298023</ele>
        <time>2020-06-28T08:13:37.000Z</time>
      </trkpt>
      <trkpt lat="47.27632" lon="-2.43849">
        <ele>0.20000000298023</ele>
        <time>2020-06-28T08:13:44.000Z</time>
      </trkpt>
      <trkpt lat="47.27596" lon="-2.43864">
        <ele>0.20000000298023</ele>
        <time>2020-06-28T08:13:51.000Z</time>
      </trkpt>
      <trkpt lat="47.27555" lon="-2.43882">
        <ele>0.20000000298023</ele>
        <time>2020-06-28T08:13:59.000Z</time>
      </trkpt>
      <trkpt lat="47.2754" lon="-2.4389">
        <ele>0.20000000298023</ele>
        <time>2020-06-28T08:14:02.000Z</time>
      </trkpt>
      <trkpt lat="47.27526" lon="-2.43897">
        <ele>0.20000000298023</ele>
        <time>2020-06-28T08:14:05.000Z</time>
      </trkpt>
      <trkpt lat="47.27508" lon="-2.43905">
        <ele>0.20000000298023</ele>
        <time>2020-06-28T08:14:10.000Z</time>
      </trkpt>
      <trkpt lat="47.27501" lon="-2.43908">
        <ele>0.20000000298023</ele>
        <time>2020-06-28T08:14:12.000Z</time>
      </trkpt>
      <trkpt lat="47.27488" lon="-2.43913">
        <ele>0.20000000298023</ele>
        <time>2020-06-28T08:14:15.000Z</time>
      </trkpt>
      <trkpt lat="47.2747" lon="-2.4392">
        <ele>0.20000000298023</ele>
        <time>2020-06-28T08:14:19.000Z</time>
      </trkpt>
      <trkpt lat="47.27462" lon="-2.43924">
        <ele>0.20000000298023</ele>
        <time>2020-06-28T08:14:21.000Z</time>
      </trkpt>
      <trkpt lat="47.27432" lon="-2.43937">
        <ele>0.20000000298023</ele>
        <time>2020-06-28T08:14:28.000Z</time>
      </trkpt>
      <trkpt lat="47.27424" lon="-2.4394">
        <ele>0.20000000298023</ele>
        <time>2020-06-28T08:14:30.000Z</time>
      </trkpt>
      <trkpt lat="47.27407" lon="-2.43947">
        <ele>0.20000000298023</ele>
        <time>2020-06-28T08:14:34.000Z</time>
      </trkpt>
      <trkpt lat="47.27387" lon="-2.43958">
        <ele>0.20000000298023</ele>
        <time>2020-06-28T08:14:39.000Z</time>
      </trkpt>
      <trkpt lat="47.27379" lon="-2.43963">
        <ele>0.20000000298023</ele>
        <time>2020-06-28T08:14:41.000Z</time>
      </trkpt>
      <trkpt lat="47.27348" lon="-2.43975">
        <ele>0.20000000298023</ele>
        <time>2020-06-28T08:14:48.000Z</time>
      </trkpt>
      <trkpt lat="47.2732" lon="-2.43984">
        <ele>0.20000000298023</ele>
        <time>2020-06-28T08:14:55.000Z</time>
      </trkpt>
      <trkpt lat="47.2731" lon="-2.43986">
        <ele>0.20000000298023</ele>
        <time>2020-06-28T08:15:00.000Z</time>
      </trkpt>
      <trkpt lat="47.27306" lon="-2.43988">
        <ele>0.20000000298023</ele>
        <time>2020-06-28T08:15:02.000Z</time>
      </trkpt>
      <trkpt lat="47.27305" lon="-2.43993">
        <ele>0.20000000298023</ele>
        <time>2020-06-28T08:15:04.000Z</time>
      </trkpt>
      <trkpt lat="47.27308" lon="-2.44007">
        <ele>0.20000000298023</ele>
        <time>2020-06-28T08:15:07.000Z</time>
      </trkpt>
      <trkpt lat="47.27308" lon="-2.44013">
        <ele>0.20000000298023</ele>
        <time>2020-06-28T08:15:08.000Z</time>
      </trkpt>
      <trkpt lat="47.27306" lon="-2.44033">
        <ele>0.20000000298023</ele>
        <time>2020-06-28T08:15:11.000Z</time>
      </trkpt>
      <trkpt lat="47.27307" lon="-2.44048">
        <ele>0.20000000298023</ele>
        <time>2020-06-28T08:15:13.000Z</time>
      </trkpt>
      <trkpt lat="47.27316" lon="-2.44098">
        <ele>0.20000000298023</ele>
        <time>2020-06-28T08:15:20.000Z</time>
      </trkpt>
      <trkpt lat="47.2732" lon="-2.44119">
        <ele>0.20000000298023</ele>
        <time>2020-06-28T08:15:23.000Z</time>
      </trkpt>
      <trkpt lat="47.27325" lon="-2.44147">
        <ele>0.20000000298023</ele>
        <time>2020-06-28T08:15:27.000Z</time>
      </trkpt>
      <trkpt lat="47.27332" lon="-2.44179">
        <ele>0.20000000298023</ele>
        <time>2020-06-28T08:15:32.000Z</time>
      </trkpt>
      <trkpt lat="47.27336" lon="-2.44183">
        <ele>0.20000000298023</ele>
        <time>2020-06-28T08:15:33.000Z</time>
      </trkpt>
      <trkpt lat="47.27343" lon="-2.44186">
        <ele>0.60000002384186</ele>
        <time>2020-06-28T08:15:35.000Z</time>
      </trkpt>
      <trkpt lat="47.27346" lon="-2.44186">
        <ele>1.6000000238419</ele>
        <time>2020-06-28T08:15:36.000Z</time>
      </trkpt>
      <trkpt lat="47.2735" lon="-2.44185">
        <ele>2</ele>
        <time>2020-06-28T08:15:37.000Z</time>
      </trkpt>
      <trkpt lat="47.27354" lon="-2.44184">
        <ele>2.4000000953674</ele>
        <time>2020-06-28T08:15:38.000Z</time>
      </trkpt>
      <trkpt lat="47.27361" lon="-2.4418">
        <ele>2.4000000953674</ele>
        <time>2020-06-28T08:15:40.000Z</time>
      </trkpt>
      <trkpt lat="47.27372" lon="-2.44174">
        <ele>2.4000000953674</ele>
        <time>2020-06-28T08:15:43.000Z</time>
      </trkpt>
      <trkpt lat="47.27398" lon="-2.44157">
        <ele>2.4000000953674</ele>
        <time>2020-06-28T08:15:49.000Z</time>
      </trkpt>
      <trkpt lat="47.27411" lon="-2.44166">
        <ele>2.4000000953674</ele>
        <time>2020-06-28T08:15:52.000Z</time>
      </trkpt>
      <trkpt lat="47.27416" lon="-2.44188">
        <ele>2.4000000953674</ele>
        <time>2020-06-28T08:15:55.000Z</time>
      </trkpt>
      <trkpt lat="47.27417" lon="-2.44195">
        <ele>2.4000000953674</ele>
        <time>2020-06-28T08:15:56.000Z</time>
      </trkpt>
      <trkpt lat="47.27424" lon="-2.44247">
        <ele>2.4000000953674</ele>
        <time>2020-06-28T08:16:02.000Z</time>
      </trkpt>
      <trkpt lat="47.27432" lon="-2.44316">
        <ele>2.4000000953674</ele>
        <time>2020-06-28T08:16:09.000Z</time>
      </trkpt>
      <trkpt lat="47.27438" lon="-2.4436">
        <ele>2.4000000953674</ele>
        <time>2020-06-28T08:16:14.000Z</time>
      </trkpt>
      <trkpt lat="47.27443" lon="-2.44403">
        <ele>2.4000000953674</ele>
        <time>2020-06-28T08:16:20.000Z</time>
      </trkpt>
      <trkpt lat="47.27443" lon="-2.4441">
        <ele>2.4000000953674</ele>
        <time>2020-06-28T08:16:21.000Z</time>
      </trkpt>
      <trkpt lat="47.27441" lon="-2.44423">
        <ele>2.4000000953674</ele>
        <time>2020-06-28T08:16:23.000Z</time>
      </trkpt>
      <trkpt lat="47.2744" lon="-2.4447">
        <ele>2.4000000953674</ele>
        <time>2020-06-28T08:16:29.000Z</time>
      </trkpt>
      <trkpt lat="47.27443" lon="-2.44506">
        <ele>2.4000000953674</ele>
        <time>2020-06-28T08:16:34.000Z</time>
      </trkpt>
      <trkpt lat="47.27445" lon="-2.44513">
        <ele>2.4000000953674</ele>
        <time>2020-06-28T08:16:35.000Z</time>
      </trkpt>
      <trkpt lat="47.27451" lon="-2.44534">
        <ele>2.4000000953674</ele>
        <time>2020-06-28T08:16:38.000Z</time>
      </trkpt>
      <trkpt lat="47.27452" lon="-2.4455">
        <ele>2.4000000953674</ele>
        <time>2020-06-28T08:16:40.000Z</time>
      </trkpt>
      <trkpt lat="47.27453" lon="-2.44566">
        <ele>2.4000000953674</ele>
        <time>2020-06-28T08:16:42.000Z</time>
      </trkpt>
      <trkpt lat="47.27455" lon="-2.44598">
        <ele>2.4000000953674</ele>
        <time>2020-06-28T08:16:46.000Z</time>
      </trkpt>
      <trkpt lat="47.27464" lon="-2.44619">
        <ele>2.4000000953674</ele>
        <time>2020-06-28T08:16:49.000Z</time>
      </trkpt>
      <trkpt lat="47.27468" lon="-2.44626">
        <ele>2.4000000953674</ele>
        <time>2020-06-28T08:16:50.000Z</time>
      </trkpt>
      <trkpt lat="47.27472" lon="-2.44633">
        <ele>2.4000000953674</ele>
        <time>2020-06-28T08:16:51.000Z</time>
      </trkpt>
      <trkpt lat="47.27483" lon="-2.44657">
        <ele>2.4000000953674</ele>
        <time>2020-06-28T08:16:54.000Z</time>
      </trkpt>
      <trkpt lat="47.27509" lon="-2.44699">
        <ele>2.4000000953674</ele>
        <time>2020-06-28T08:17:00.000Z</time>
      </trkpt>
      <trkpt lat="47.27516" lon="-2.44714">
        <ele>2.4000000953674</ele>
        <time>2020-06-28T08:17:02.000Z</time>
      </trkpt>
      <trkpt lat="47.27523" lon="-2.44739">
        <ele>2.4000000953674</ele>
        <time>2020-06-28T08:17:05.000Z</time>
      </trkpt>
      <trkpt lat="47.27536" lon="-2.44805">
        <ele>2.4000000953674</ele>
        <time>2020-06-28T08:17:13.000Z</time>
      </trkpt>
      <trkpt lat="47.27537" lon="-2.44812">
        <ele>2.4000000953674</ele>
        <time>2020-06-28T08:17:14.000Z</time>
      </trkpt>
      <trkpt lat="47.27534" lon="-2.44824">
        <ele>2.4000000953674</ele>
        <time>2020-06-28T08:17:16.000Z</time>
      </trkpt>
      <trkpt lat="47.27522" lon="-2.44838">
        <ele>2.4000000953674</ele>
        <time>2020-06-28T08:17:19.000Z</time>
      </trkpt>
      <trkpt lat="47.27518" lon="-2.44843">
        <ele>2.4000000953674</ele>
        <time>2020-06-28T08:17:20.000Z</time>
      </trkpt>
      <trkpt lat="47.27507" lon="-2.44857">
        <ele>2.4000000953674</ele>
        <time>2020-06-28T08:17:23.000Z</time>
      </trkpt>
      <trkpt lat="47.27506" lon="-2.44863">
        <ele>2.4000000953674</ele>
        <time>2020-06-28T08:17:24.000Z</time>
      </trkpt>
      <trkpt lat="47.27507" lon="-2.4489">
        <ele>2.4000000953674</ele>
        <time>2020-06-28T08:17:28.000Z</time>
      </trkpt>
      <trkpt lat="47.27509" lon="-2.44903">
        <ele>2.4000000953674</ele>
        <time>2020-06-28T08:17:30.000Z</time>
      </trkpt>
      <trkpt lat="47.27514" lon="-2.44926">
        <ele>2.4000000953674</ele>
        <time>2020-06-28T08:17:33.000Z</time>
      </trkpt>
      <trkpt lat="47.27531" lon="-2.44977">
        <ele>2.4000000953674</ele>
        <time>2020-06-28T08:17:40.000Z</time>
      </trkpt>
      <trkpt lat="47.27556" lon="-2.45043">
        <ele>2.4000000953674</ele>
        <time>2020-06-28T08:17:49.000Z</time>
      </trkpt>
      <trkpt lat="47.2756" lon="-2.4505">
        <ele>2.4000000953674</ele>
        <time>2020-06-28T08:17:50.000Z</time>
      </trkpt>
      <trkpt lat="47.27574" lon="-2.45078">
        <ele>2.4000000953674</ele>
        <time>2020-06-28T08:17:54.000Z</time>
      </trkpt>
      <trkpt lat="47.2758" lon="-2.45088">
        <ele>2.4000000953674</ele>
        <time>2020-06-28T08:17:57.000Z</time>
      </trkpt>
      <trkpt lat="47.27582" lon="-2.45089">
        <ele>2</ele>
        <time>2020-06-28T08:18:00.000Z</time>
      </trkpt>
      <trkpt lat="47.2758" lon="-2.45094">
        <ele>0.40000000596046</ele>
        <time>2020-06-28T08:18:11.000Z</time>
      </trkpt>
      <trkpt lat="47.27569" lon="-2.45104">
        <ele>0.40000000596046</ele>
        <time>2020-06-28T08:18:16.000Z</time>
      </trkpt>
      <trkpt lat="47.27552" lon="-2.45124">
        <ele>0.40000000596046</ele>
        <time>2020-06-28T08:18:21.000Z</time>
      </trkpt>
      <trkpt lat="47.27525" lon="-2.45158">
        <ele>0.40000000596046</ele>
        <time>2020-06-28T08:18:29.000Z</time>
      </trkpt>
      <trkpt lat="47.27521" lon="-2.45162">
        <ele>0.40000000596046</ele>
        <time>2020-06-28T08:18:30.000Z</time>
      </trkpt>
      <trkpt lat="47.27497" lon="-2.45184">
        <ele>0.40000000596046</ele>
        <time>2020-06-28T08:18:36.000Z</time>
      </trkpt>
      <trkpt lat="47.27466" lon="-2.45205">
        <ele>0.40000000596046</ele>
        <time>2020-06-28T08:18:43.000Z</time>
      </trkpt>
      <trkpt lat="47.27447" lon="-2.45214">
        <ele>0.40000000596046</ele>
        <time>2020-06-28T08:18:47.000Z</time>
      </trkpt>
      <trkpt lat="47.27432" lon="-2.45217">
        <ele>0.40000000596046</ele>
        <time>2020-06-28T08:18:50.000Z</time>
      </trkpt>
      <trkpt lat="47.27402" lon="-2.45215">
        <ele>0.40000000596046</ele>
        <time>2020-06-28T08:18:56.000Z</time>
      </trkpt>
      <trkpt lat="47.27382" lon="-2.45216">
        <ele>0.40000000596046</ele>
        <time>2020-06-28T08:19:01.000Z</time>
      </trkpt>
      <trkpt lat="47.27378" lon="-2.45217">
        <ele>0.40000000596046</ele>
        <time>2020-06-28T08:19:02.000Z</time>
      </trkpt>
      <trkpt lat="47.2737" lon="-2.45221">
        <ele>0.40000000596046</ele>
        <time>2020-06-28T08:19:04.000Z</time>
      </trkpt>
      <trkpt lat="47.27363" lon="-2.45229">
        <ele>0.40000000596046</ele>
        <time>2020-06-28T08:19:06.000Z</time>
      </trkpt>
      <trkpt lat="47.27352" lon="-2.45244">
        <ele>0.40000000596046</ele>
        <time>2020-06-28T08:19:11.000Z</time>
      </trkpt>
      <trkpt lat="47.27342" lon="-2.45256">
        <ele>0.40000000596046</ele>
        <time>2020-06-28T08:19:17.000Z</time>
      </trkpt>
      <trkpt lat="47.27331" lon="-2.45263">
        <ele>0.80000001192093</ele>
        <time>2020-06-28T08:19:21.000Z</time>
      </trkpt>
      <trkpt lat="47.27328" lon="-2.45263">
        <ele>1.2000000476837</ele>
        <time>2020-06-28T08:19:22.000Z</time>
      </trkpt>
      <trkpt lat="47.27327" lon="-2.45263">
        <ele>1.6000000238419</ele>
        <time>2020-06-28T08:19:23.000Z</time>
      </trkpt>
      <trkpt lat="47.27326" lon="-2.45263">
        <ele>2</ele>
        <time>2020-06-28T08:19:24.000Z</time>
      </trkpt>
      <trkpt lat="47.27325" lon="-2.45263">
        <ele>2.4000000953674</ele>
        <time>2020-06-28T08:19:25.000Z</time>
      </trkpt>
      <trkpt lat="47.27324" lon="-2.45264">
        <ele>2.4000000953674</ele>
        <time>2020-06-28T08:19:26.000Z</time>
      </trkpt>
      <trkpt lat="47.27316" lon="-2.45267">
        <ele>2.4000000953674</ele>
        <time>2020-06-28T08:19:32.000Z</time>
      </trkpt>
      <trkpt lat="47.2732" lon="-2.45274">
        <ele>2.4000000953674</ele>
        <time>2020-06-28T08:19:35.000Z</time>
      </trkpt>
      <trkpt lat="47.27322" lon="-2.45275">
        <ele>2.4000000953674</ele>
        <time>2020-06-28T08:19:36.000Z</time>
      </trkpt>
      <trkpt lat="47.27327" lon="-2.45282">
        <ele>2.4000000953674</ele>
        <time>2020-06-28T08:19:38.000Z</time>
      </trkpt>
      <trkpt lat="47.27328" lon="-2.45286">
        <ele>2.4000000953674</ele>
        <time>2020-06-28T08:19:39.000Z</time>
      </trkpt>
      <trkpt lat="47.27333" lon="-2.45321">
        <ele>2.4000000953674</ele>
        <time>2020-06-28T08:19:45.000Z</time>
      </trkpt>
      <trkpt lat="47.27343" lon="-2.45372">
        <ele>2.4000000953674</ele>
        <time>2020-06-28T08:19:52.000Z</time>
      </trkpt>
      <trkpt lat="47.27362" lon="-2.45438">
        <ele>2.4000000953674</ele>
        <time>2020-06-28T08:20:01.000Z</time>
      </trkpt>
      <trkpt lat="47.27379" lon="-2.45477">
        <ele>2.4000000953674</ele>
        <time>2020-06-28T08:20:07.000Z</time>
      </trkpt>
      <trkpt lat="47.27383" lon="-2.45481">
        <ele>2.4000000953674</ele>
        <time>2020-06-28T08:20:08.000Z</time>
      </trkpt>
      <trkpt lat="47.27401" lon="-2.45498">
        <ele>2.4000000953674</ele>
        <time>2020-06-28T08:20:12.000Z</time>
      </trkpt>
      <trkpt lat="47.2741" lon="-2.45504">
        <ele>2.4000000953674</ele>
        <time>2020-06-28T08:20:14.000Z</time>
      </trkpt>
      <trkpt lat="47.27415" lon="-2.45507">
        <ele>2.4000000953674</ele>
        <time>2020-06-28T08:20:15.000Z</time>
      </trkpt>
      <trkpt lat="47.27419" lon="-2.45511">
        <ele>2.4000000953674</ele>
        <time>2020-06-28T08:20:16.000Z</time>
      </trkpt>
      <trkpt lat="47.27423" lon="-2.45521">
        <ele>2.4000000953674</ele>
        <time>2020-06-28T08:20:18.000Z</time>
      </trkpt>
      <trkpt lat="47.27429" lon="-2.45544">
        <ele>2.7999999523163</ele>
        <time>2020-06-28T08:20:22.000Z</time>
      </trkpt>
      <trkpt lat="47.2743" lon="-2.45549">
        <ele>3.4000000953674</ele>
        <time>2020-06-28T08:20:23.000Z</time>
      </trkpt>
      <trkpt lat="47.27429" lon="-2.45554">
        <ele>3.7999999523163</ele>
        <time>2020-06-28T08:20:24.000Z</time>
      </trkpt>
      <trkpt lat="47.27427" lon="-2.45558">
        <ele>4.1999998092651</ele>
        <time>2020-06-28T08:20:25.000Z</time>
      </trkpt>
      <trkpt lat="47.27424" lon="-2.45561">
        <ele>4.5999999046326</ele>
        <time>2020-06-28T08:20:26.000Z</time>
      </trkpt>
      <trkpt lat="47.2742" lon="-2.45564">
        <ele>4.5999999046326</ele>
        <time>2020-06-28T08:20:27.000Z</time>
      </trkpt>
      <trkpt lat="47.27411" lon="-2.45566">
        <ele>4.5999999046326</ele>
        <time>2020-06-28T08:20:29.000Z</time>
      </trkpt>
      <trkpt lat="47.27395" lon="-2.4557">
        <ele>4.5999999046326</ele>
        <time>2020-06-28T08:20:32.000Z</time>
      </trkpt>
      <trkpt lat="47.27362" lon="-2.45584">
        <ele>4.5999999046326</ele>
        <time>2020-06-28T08:20:38.000Z</time>
      </trkpt>
      <trkpt lat="47.27328" lon="-2.45606">
        <ele>4.5999999046326</ele>
        <time>2020-06-28T08:20:45.000Z</time>
      </trkpt>
      <trkpt lat="47.27323" lon="-2.45624">
        <ele>4.5999999046326</ele>
        <time>2020-06-28T08:20:48.000Z</time>
      </trkpt>
      <trkpt lat="47.27328" lon="-2.45648">
        <ele>4.5999999046326</ele>
        <time>2020-06-28T08:20:52.000Z</time>
      </trkpt>
      <trkpt lat="47.27336" lon="-2.45672">
        <ele>4.5999999046326</ele>
        <time>2020-06-28T08:20:56.000Z</time>
      </trkpt>
      <trkpt lat="47.27341" lon="-2.45685">
        <ele>4.5999999046326</ele>
        <time>2020-06-28T08:20:58.000Z</time>
      </trkpt>
      <trkpt lat="47.27359" lon="-2.45734">
        <ele>4.5999999046326</ele>
        <time>2020-06-28T08:21:05.000Z</time>
      </trkpt>
      <trkpt lat="47.2737" lon="-2.45765">
        <ele>4.5999999046326</ele>
        <time>2020-06-28T08:21:10.000Z</time>
      </trkpt>
      <trkpt lat="47.27371" lon="-2.45771">
        <ele>4.5999999046326</ele>
        <time>2020-06-28T08:21:11.000Z</time>
      </trkpt>
      <trkpt lat="47.27376" lon="-2.45777">
        <ele>4.5999999046326</ele>
        <time>2020-06-28T08:21:13.000Z</time>
      </trkpt>
      <trkpt lat="47.2738" lon="-2.45777">
        <ele>4.5999999046326</ele>
        <time>2020-06-28T08:21:14.000Z</time>
      </trkpt>
      <trkpt lat="47.27398" lon="-2.45773">
        <ele>4.5999999046326</ele>
        <time>2020-06-28T08:21:18.000Z</time>
      </trkpt>
      <trkpt lat="47.27439" lon="-2.45766">
        <ele>4.5999999046326</ele>
        <time>2020-06-28T08:21:25.000Z</time>
      </trkpt>
      <trkpt lat="47.2745" lon="-2.45762">
        <ele>4.5999999046326</ele>
        <time>2020-06-28T08:21:27.000Z</time>
      </trkpt>
      <trkpt lat="47.27456" lon="-2.45761">
        <ele>4.5999999046326</ele>
        <time>2020-06-28T08:21:28.000Z</time>
      </trkpt>
      <trkpt lat="47.27485" lon="-2.45752">
        <ele>4.5999999046326</ele>
        <time>2020-06-28T08:21:33.000Z</time>
      </trkpt>
      <trkpt lat="47.27531" lon="-2.45736">
        <ele>4.5999999046326</ele>
        <time>2020-06-28T08:21:41.000Z</time>
      </trkpt>
      <trkpt lat="47.27577" lon="-2.45721">
        <ele>4.5999999046326</ele>
        <time>2020-06-28T08:21:49.000Z</time>
      </trkpt>
      <trkpt lat="47.27611" lon="-2.45709">
        <ele>4.5999999046326</ele>
        <time>2020-06-28T08:21:56.000Z</time>
      </trkpt>
      <trkpt lat="47.27625" lon="-2.45706">
        <ele>4.5999999046326</ele>
        <time>2020-06-28T08:21:59.000Z</time>
      </trkpt>
      <trkpt lat="47.27633" lon="-2.45714">
        <ele>4.5999999046326</ele>
        <time>2020-06-28T08:22:01.000Z</time>
      </trkpt>
      <trkpt lat="47.27641" lon="-2.45741">
        <ele>4.5999999046326</ele>
        <time>2020-06-28T08:22:05.000Z</time>
      </trkpt>
      <trkpt lat="47.27643" lon="-2.45751">
        <ele>4.5999999046326</ele>
        <time>2020-06-28T08:22:06.000Z</time>
      </trkpt>
      <trkpt lat="47.27645" lon="-2.45781">
        <ele>4.5999999046326</ele>
        <time>2020-06-28T08:22:09.000Z</time>
      </trkpt>
      <trkpt lat="47.27648" lon="-2.45839">
        <ele>4.5999999046326</ele>
        <time>2020-06-28T08:22:15.000Z</time>
      </trkpt>
      <trkpt lat="47.27644" lon="-2.45891">
        <ele>4.5999999046326</ele>
        <time>2020-06-28T08:22:20.000Z</time>
      </trkpt>
      <trkpt lat="47.27641" lon="-2.45962">
        <ele>4.5999999046326</ele>
        <time>2020-06-28T08:22:27.000Z</time>
      </trkpt>
      <trkpt lat="47.27643" lon="-2.46013">
        <ele>4.5999999046326</ele>
        <time>2020-06-28T08:22:33.000Z</time>
      </trkpt>
      <trkpt lat="47.27653" lon="-2.46068">
        <ele>4.5999999046326</ele>
        <time>2020-06-28T08:22:40.000Z</time>
      </trkpt>
      <trkpt lat="47.27661" lon="-2.46116">
        <ele>4.5999999046326</ele>
        <time>2020-06-28T08:22:46.000Z</time>
      </trkpt>
      <trkpt lat="47.27666" lon="-2.46149">
        <ele>4.5999999046326</ele>
        <time>2020-06-28T08:22:51.000Z</time>
      </trkpt>
      <trkpt lat="47.2767" lon="-2.46168">
        <ele>4.5999999046326</ele>
        <time>2020-06-28T08:22:54.000Z</time>
      </trkpt>
      <trkpt lat="47.2767" lon="-2.46184">
        <ele>4.5999999046326</ele>
        <time>2020-06-28T08:22:56.000Z</time>
      </trkpt>
      <trkpt lat="47.27672" lon="-2.46233">
        <ele>4.5999999046326</ele>
        <time>2020-06-28T08:23:01.000Z</time>
      </trkpt>
      <trkpt lat="47.27674" lon="-2.46258">
        <ele>4.5999999046326</ele>
        <time>2020-06-28T08:23:04.000Z</time>
      </trkpt>
      <trkpt lat="47.27669" lon="-2.46272">
        <ele>4.5999999046326</ele>
        <time>2020-06-28T08:23:06.000Z</time>
      </trkpt>
      <trkpt lat="47.2766" lon="-2.4629">
        <ele>4.5999999046326</ele>
        <time>2020-06-28T08:23:09.000Z</time>
      </trkpt>
      <trkpt lat="47.27664" lon="-2.46302">
        <ele>4.5999999046326</ele>
        <time>2020-06-28T08:23:11.000Z</time>
      </trkpt>
      <trkpt lat="47.27667" lon="-2.46307">
        <ele>4.5999999046326</ele>
        <time>2020-06-28T08:23:12.000Z</time>
      </trkpt>
      <trkpt lat="47.2767" lon="-2.46314">
        <ele>4.5999999046326</ele>
        <time>2020-06-28T08:23:13.000Z</time>
      </trkpt>
      <trkpt lat="47.27676" lon="-2.46336">
        <ele>4.5999999046326</ele>
        <time>2020-06-28T08:23:16.000Z</time>
      </trkpt>
      <trkpt lat="47.27677" lon="-2.46344">
        <ele>4.5999999046326</ele>
        <time>2020-06-28T08:23:17.000Z</time>
      </trkpt>
      <trkpt lat="47.27684" lon="-2.4637">
        <ele>4.5999999046326</ele>
        <time>2020-06-28T08:23:20.000Z</time>
      </trkpt>
      <trkpt lat="47.27687" lon="-2.46378">
        <ele>4.5999999046326</ele>
        <time>2020-06-28T08:23:21.000Z</time>
      </trkpt>
      <trkpt lat="47.27709" lon="-2.46435">
        <ele>4.5999999046326</ele>
        <time>2020-06-28T08:23:29.000Z</time>
      </trkpt>
      <trkpt lat="47.27728" lon="-2.46478">
        <ele>4.5999999046326</ele>
        <time>2020-06-28T08:23:35.000Z</time>
      </trkpt>
      <trkpt lat="47.2774" lon="-2.46528">
        <ele>4.5999999046326</ele>
        <time>2020-06-28T08:23:42.000Z</time>
      </trkpt>
      <trkpt lat="47.2775" lon="-2.46567">
        <ele>4.5999999046326</ele>
        <time>2020-06-28T08:23:49.000Z</time>
      </trkpt>
      <trkpt lat="47.27759" lon="-2.46588">
        <ele>4.5999999046326</ele>
        <time>2020-06-28T08:23:55.000Z</time>
      </trkpt>
      <trkpt lat="47.27766" lon="-2.46604">
        <ele>4.5999999046326</ele>
        <time>2020-06-28T08:24:01.000Z</time>
      </trkpt>
      <trkpt lat="47.27762" lon="-2.46626">
        <ele>4.5999999046326</ele>
        <time>2020-06-28T08:24:08.000Z</time>
      </trkpt>
      <trkpt lat="47.27766" lon="-2.46646">
        <ele>4.5999999046326</ele>
        <time>2020-06-28T08:24:12.000Z</time>
      </trkpt>
      <trkpt lat="47.27764" lon="-2.46665">
        <ele>4.5999999046326</ele>
        <time>2020-06-28T08:24:15.000Z</time>
      </trkpt>
      <trkpt lat="47.27764" lon="-2.46672">
        <ele>4.5999999046326</ele>
        <time>2020-06-28T08:24:16.000Z</time>
      </trkpt>
      <trkpt lat="47.27764" lon="-2.46693">
        <ele>4.5999999046326</ele>
        <time>2020-06-28T08:24:19.000Z</time>
      </trkpt>
      <trkpt lat="47.27761" lon="-2.46705">
        <ele>4.5999999046326</ele>
        <time>2020-06-28T08:24:21.000Z</time>
      </trkpt>
      <trkpt lat="47.27761" lon="-2.46729">
        <ele>4.5999999046326</ele>
        <time>2020-06-28T08:24:26.000Z</time>
      </trkpt>
      <trkpt lat="47.27762" lon="-2.46733">
        <ele>4.1999998092651</ele>
        <time>2020-06-28T08:24:27.000Z</time>
      </trkpt>
      <trkpt lat="47.27763" lon="-2.46736">
        <ele>3.7999999523163</ele>
        <time>2020-06-28T08:24:28.000Z</time>
      </trkpt>
      <trkpt lat="47.27765" lon="-2.46739">
        <ele>3.4000000953674</ele>
        <time>2020-06-28T08:24:29.000Z</time>
      </trkpt>
      <trkpt lat="47.27766" lon="-2.46743">
        <ele>3</ele>
        <time>2020-06-28T08:24:30.000Z</time>
      </trkpt>
      <trkpt lat="47.27767" lon="-2.46748">
        <ele>2.5999999046326</ele>
        <time>2020-06-28T08:24:31.000Z</time>
      </trkpt>
      <trkpt lat="47.27774" lon="-2.46773">
        <ele>2.5999999046326</ele>
        <time>2020-06-28T08:24:35.000Z</time>
      </trkpt>
      <trkpt lat="47.27783" lon="-2.46823">
        <ele>2.5999999046326</ele>
        <time>2020-06-28T08:24:42.000Z</time>
      </trkpt>
      <trkpt lat="47.2779" lon="-2.46853">
        <ele>2.5999999046326</ele>
        <time>2020-06-28T08:24:47.000Z</time>
      </trkpt>
      <trkpt lat="47.27794" lon="-2.46865">
        <ele>2.5999999046326</ele>
        <time>2020-06-28T08:24:49.000Z</time>
      </trkpt>
      <trkpt lat="47.27796" lon="-2.46879">
        <ele>2.5999999046326</ele>
        <time>2020-06-28T08:24:51.000Z</time>
      </trkpt>
      <trkpt lat="47.278" lon="-2.46901">
        <ele>2.5999999046326</ele>
        <time>2020-06-28T08:24:54.000Z</time>
      </trkpt>
      <trkpt lat="47.27806" lon="-2.46914">
        <ele>2.5999999046326</ele>
        <time>2020-06-28T08:24:56.000Z</time>
      </trkpt>
      <trkpt lat="47.27816" lon="-2.46933">
        <ele>2.5999999046326</ele>
        <time>2020-06-28T08:24:59.000Z</time>
      </trkpt>
      <trkpt lat="47.27827" lon="-2.46943">
        <ele>2.5999999046326</ele>
        <time>2020-06-28T08:25:01.000Z</time>
      </trkpt>
      <trkpt lat="47.27839" lon="-2.46951">
        <ele>2.5999999046326</ele>
        <time>2020-06-28T08:25:03.000Z</time>
      </trkpt>
      <trkpt lat="47.27852" lon="-2.46959">
        <ele>2.5999999046326</ele>
        <time>2020-06-28T08:25:05.000Z</time>
      </trkpt>
      <trkpt lat="47.27858" lon="-2.46964">
        <ele>2.5999999046326</ele>
        <time>2020-06-28T08:25:06.000Z</time>
      </trkpt>
      <trkpt lat="47.2788" lon="-2.46986">
        <ele>2.5999999046326</ele>
        <time>2020-06-28T08:25:10.000Z</time>
      </trkpt>
      <trkpt lat="47.27907" lon="-2.47015">
        <ele>2.5999999046326</ele>
        <time>2020-06-28T08:25:16.000Z</time>
      </trkpt>
      <trkpt lat="47.27943" lon="-2.47064">
        <ele>2.5999999046326</ele>
        <time>2020-06-28T08:25:24.000Z</time>
      </trkpt>
      <trkpt lat="47.27961" lon="-2.47108">
        <ele>2.5999999046326</ele>
        <time>2020-06-28T08:25:30.000Z</time>
      </trkpt>
      <trkpt lat="47.27963" lon="-2.47116">
        <ele>2.5999999046326</ele>
        <time>2020-06-28T08:25:31.000Z</time>
      </trkpt>
      <trkpt lat="47.27971" lon="-2.47158">
        <ele>2.5999999046326</ele>
        <time>2020-06-28T08:25:36.000Z</time>
      </trkpt>
      <trkpt lat="47.27983" lon="-2.47231">
        <ele>2.5999999046326</ele>
        <time>2020-06-28T08:25:44.000Z</time>
      </trkpt>
      <trkpt lat="47.27993" lon="-2.47283">
        <ele>2.5999999046326</ele>
        <time>2020-06-28T08:25:51.000Z</time>
      </trkpt>
      <trkpt lat="47.28004" lon="-2.47328">
        <ele>2.5999999046326</ele>
        <time>2020-06-28T08:25:58.000Z</time>
      </trkpt>
      <trkpt lat="47.28006" lon="-2.47333">
        <ele>2.5999999046326</ele>
        <time>2020-06-28T08:25:59.000Z</time>
      </trkpt>
      <trkpt lat="47.28015" lon="-2.47336">
        <ele>2.5999999046326</ele>
        <time>2020-06-28T08:26:01.000Z</time>
      </trkpt>
      <trkpt lat="47.2803" lon="-2.47333">
        <ele>2.5999999046326</ele>
        <time>2020-06-28T08:26:04.000Z</time>
      </trkpt>
      <trkpt lat="47.2804" lon="-2.4733">
        <ele>2.5999999046326</ele>
        <time>2020-06-28T08:26:06.000Z</time>
      </trkpt>
      <trkpt lat="47.28079" lon="-2.47319">
        <ele>2.5999999046326</ele>
        <time>2020-06-28T08:26:13.000Z</time>
      </trkpt>
      <trkpt lat="47.28113" lon="-2.47313">
        <ele>2.5999999046326</ele>
        <time>2020-06-28T08:26:19.000Z</time>
      </trkpt>
      <trkpt lat="47.28118" lon="-2.47317">
        <ele>2.5999999046326</ele>
        <time>2020-06-28T08:26:20.000Z</time>
      </trkpt>
      <trkpt lat="47.28125" lon="-2.47337">
        <ele>2.5999999046326</ele>
        <time>2020-06-28T08:26:23.000Z</time>
      </trkpt>
      <trkpt lat="47.28124" lon="-2.47363">
        <ele>2.5999999046326</ele>
        <time>2020-06-28T08:26:26.000Z</time>
      </trkpt>
      <trkpt lat="47.28122" lon="-2.47372">
        <ele>2.5999999046326</ele>
        <time>2020-06-28T08:26:27.000Z</time>
      </trkpt>
      <trkpt lat="47.2811" lon="-2.47427">
        <ele>2.5999999046326</ele>
        <time>2020-06-28T08:26:33.000Z</time>
      </trkpt>
      <trkpt lat="47.28099" lon="-2.47487">
        <ele>2.5999999046326</ele>
        <time>2020-06-28T08:26:40.000Z</time>
      </trkpt>
      <trkpt lat="47.2809" lon="-2.47534">
        <ele>2.5999999046326</ele>
        <time>2020-06-28T08:26:46.000Z</time>
      </trkpt>
      <trkpt lat="47.28089" lon="-2.47542">
        <ele>2.5999999046326</ele>
        <time>2020-06-28T08:26:47.000Z</time>
      </trkpt>
      <trkpt lat="47.28082" lon="-2.47598">
        <ele>2.5999999046326</ele>
        <time>2020-06-28T08:26:54.000Z</time>
      </trkpt>
      <trkpt lat="47.28082" lon="-2.47664">
        <ele>2.5999999046326</ele>
        <time>2020-06-28T08:27:02.000Z</time>
      </trkpt>
      <trkpt lat="47.28088" lon="-2.47725">
        <ele>2.5999999046326</ele>
        <time>2020-06-28T08:27:09.000Z</time>
      </trkpt>
      <trkpt lat="47.28098" lon="-2.47791">
        <ele>2.5999999046326</ele>
        <time>2020-06-28T08:27:17.000Z</time>
      </trkpt>
      <trkpt lat="47.28105" lon="-2.47851">
        <ele>2.5999999046326</ele>
        <time>2020-06-28T08:27:25.000Z</time>
      </trkpt>
      <trkpt lat="47.28109" lon="-2.47864">
        <ele>2.5999999046326</ele>
        <time>2020-06-28T08:27:27.000Z</time>
      </trkpt>
      <trkpt lat="47.28112" lon="-2.47876">
        <ele>2.5999999046326</ele>
        <time>2020-06-28T08:27:29.000Z</time>
      </trkpt>
      <trkpt lat="47.28112" lon="-2.47884">
        <ele>2.5999999046326</ele>
        <time>2020-06-28T08:27:30.000Z</time>
      </trkpt>
      <trkpt lat="47.28116" lon="-2.47915">
        <ele>2.5999999046326</ele>
        <time>2020-06-28T08:27:34.000Z</time>
      </trkpt>
      <trkpt lat="47.28131" lon="-2.47939">
        <ele>2.5999999046326</ele>
        <time>2020-06-28T08:27:38.000Z</time>
      </trkpt>
      <trkpt lat="47.28152" lon="-2.47954">
        <ele>2.5999999046326</ele>
        <time>2020-06-28T08:27:42.000Z</time>
      </trkpt>
      <trkpt lat="47.28155" lon="-2.47977">
        <ele>2.5999999046326</ele>
        <time>2020-06-28T08:27:45.000Z</time>
      </trkpt>
      <trkpt lat="47.28157" lon="-2.48009">
        <ele>2.5999999046326</ele>
        <time>2020-06-28T08:27:49.000Z</time>
      </trkpt>
      <trkpt lat="47.28163" lon="-2.48062">
        <ele>2.5999999046326</ele>
        <time>2020-06-28T08:27:56.000Z</time>
      </trkpt>
      <trkpt lat="47.28171" lon="-2.48133">
        <ele>2.5999999046326</ele>
        <time>2020-06-28T08:28:05.000Z</time>
      </trkpt>
      <trkpt lat="47.28178" lon="-2.48182">
        <ele>2.5999999046326</ele>
        <time>2020-06-28T08:28:12.000Z</time>
      </trkpt>
      <trkpt lat="47.28186" lon="-2.48218">
        <ele>2.5999999046326</ele>
        <time>2020-06-28T08:28:19.000Z</time>
      </trkpt>
      <trkpt lat="47.282" lon="-2.48238">
        <ele>2.5999999046326</ele>
        <time>2020-06-28T08:28:24.000Z</time>
      </trkpt>
      <trkpt lat="47.28201" lon="-2.48257">
        <ele>2.5999999046326</ele>
        <time>2020-06-28T08:28:27.000Z</time>
      </trkpt>
      <trkpt lat="47.282" lon="-2.4827">
        <ele>2.5999999046326</ele>
        <time>2020-06-28T08:28:29.000Z</time>
      </trkpt>
      <trkpt lat="47.28194" lon="-2.48311">
        <ele>3</ele>
        <time>2020-06-28T08:28:35.000Z</time>
      </trkpt>
      <trkpt lat="47.28193" lon="-2.48317">
        <ele>3.4000000953674</ele>
        <time>2020-06-28T08:28:36.000Z</time>
      </trkpt>
      <trkpt lat="47.28193" lon="-2.48322">
        <ele>3.7999999523163</ele>
        <time>2020-06-28T08:28:37.000Z</time>
      </trkpt>
      <trkpt lat="47.28194" lon="-2.48328">
        <ele>4.1999998092651</ele>
        <time>2020-06-28T08:28:38.000Z</time>
      </trkpt>
      <trkpt lat="47.28194" lon="-2.48333">
        <ele>4.5999999046326</ele>
        <time>2020-06-28T08:28:39.000Z</time>
      </trkpt>
      <trkpt lat="47.28195" lon="-2.48338">
        <ele>4.5999999046326</ele>
        <time>2020-06-28T08:28:40.000Z</time>
      </trkpt>
      <trkpt lat="47.28201" lon="-2.4835">
        <ele>4.5999999046326</ele>
        <time>2020-06-28T08:28:43.000Z</time>
      </trkpt>
      <trkpt lat="47.28205" lon="-2.48349">
        <ele>4.5999999046326</ele>
        <time>2020-06-28T08:28:44.000Z</time>
      </trkpt>
      <trkpt lat="47.28226" lon="-2.48343">
        <ele>4.5999999046326</ele>
        <time>2020-06-28T08:28:48.000Z</time>
      </trkpt>
      <trkpt lat="47.28237" lon="-2.48343">
        <ele>4.5999999046326</ele>
        <time>2020-06-28T08:28:50.000Z</time>
      </trkpt>
      <trkpt lat="47.28248" lon="-2.48351">
        <ele>4.5999999046326</ele>
        <time>2020-06-28T08:28:52.000Z</time>
      </trkpt>
      <trkpt lat="47.28256" lon="-2.48364">
        <ele>4.1999998092651</ele>
        <time>2020-06-28T08:28:54.000Z</time>
      </trkpt>
      <trkpt lat="47.28261" lon="-2.48369">
        <ele>3.7999999523163</ele>
        <time>2020-06-28T08:28:55.000Z</time>
      </trkpt>
      <trkpt lat="47.28267" lon="-2.48371">
        <ele>3.2000000476837</ele>
        <time>2020-06-28T08:28:56.000Z</time>
      </trkpt>
      <trkpt lat="47.28273" lon="-2.4837">
        <ele>2.7999999523163</ele>
        <time>2020-06-28T08:28:57.000Z</time>
      </trkpt>
      <trkpt lat="47.28278" lon="-2.48368">
        <ele>2.4000000953674</ele>
        <time>2020-06-28T08:28:58.000Z</time>
      </trkpt>
      <trkpt lat="47.28283" lon="-2.48367">
        <ele>2.4000000953674</ele>
        <time>2020-06-28T08:28:59.000Z</time>
      </trkpt>
      <trkpt lat="47.28292" lon="-2.48367">
        <ele>2.4000000953674</ele>
        <time>2020-06-28T08:29:02.000Z</time>
      </trkpt>
      <trkpt lat="47.28298" lon="-2.48376">
        <ele>2</ele>
        <time>2020-06-28T08:29:06.000Z</time>
      </trkpt>
      <trkpt lat="47.283" lon="-2.48378">
        <ele>1.6000000238419</ele>
        <time>2020-06-28T08:29:07.000Z</time>
      </trkpt>
      <trkpt lat="47.28302" lon="-2.4838">
        <ele>1.2000000476837</ele>
        <time>2020-06-28T08:29:08.000Z</time>
      </trkpt>
      <trkpt lat="47.28306" lon="-2.4838">
        <ele>0.80000001192093</ele>
        <time>2020-06-28T08:29:09.000Z</time>
      </trkpt>
      <trkpt lat="47.2831" lon="-2.48378">
        <ele>0.40000000596046</ele>
        <time>2020-06-28T08:29:10.000Z</time>
      </trkpt>
      <trkpt lat="47.28331" lon="-2.48364">
        <ele>0.40000000596046</ele>
        <time>2020-06-28T08:29:14.000Z</time>
      </trkpt>
      <trkpt lat="47.28348" lon="-2.48354">
        <ele>0.40000000596046</ele>
        <time>2020-06-28T08:29:17.000Z</time>
      </trkpt>
      <trkpt lat="47.2836" lon="-2.48355">
        <ele>0.40000000596046</ele>
        <time>2020-06-28T08:29:19.000Z</time>
      </trkpt>
      <trkpt lat="47.28379" lon="-2.48352">
        <ele>0.80000001192093</ele>
        <time>2020-06-28T08:29:22.000Z</time>
      </trkpt>
      <trkpt lat="47.28386" lon="-2.48352">
        <ele>1.2000000476837</ele>
        <time>2020-06-28T08:29:23.000Z</time>
      </trkpt>
      <trkpt lat="47.28393" lon="-2.48354">
        <ele>1.7999999523163</ele>
        <time>2020-06-28T08:29:24.000Z</time>
      </trkpt>
      <trkpt lat="47.28399" lon="-2.48358">
        <ele>2.2000000476837</ele>
        <time>2020-06-28T08:29:25.000Z</time>
      </trkpt>
      <trkpt lat="47.28406" lon="-2.48362">
        <ele>2.5999999046326</ele>
        <time>2020-06-28T08:29:26.000Z</time>
      </trkpt>
      <trkpt lat="47.28418" lon="-2.48373">
        <ele>2.5999999046326</ele>
        <time>2020-06-28T08:29:28.000Z</time>
      </trkpt>
      <trkpt lat="47.28423" lon="-2.48379">
        <ele>2.5999999046326</ele>
        <time>2020-06-28T08:29:29.000Z</time>
      </trkpt>
      <trkpt lat="47.28445" lon="-2.48395">
        <ele>2.5999999046326</ele>
        <time>2020-06-28T08:29:33.000Z</time>
      </trkpt>
      <trkpt lat="47.28449" lon="-2.484">
        <ele>2.5999999046326</ele>
        <time>2020-06-28T08:29:34.000Z</time>
      </trkpt>
      <trkpt lat="47.28449" lon="-2.48415">
        <ele>2.5999999046326</ele>
        <time>2020-06-28T08:29:36.000Z</time>
      </trkpt>
      <trkpt lat="47.28445" lon="-2.48448">
        <ele>2.5999999046326</ele>
        <time>2020-06-28T08:29:40.000Z</time>
      </trkpt>
      <trkpt lat="47.28442" lon="-2.48485">
        <ele>2.5999999046326</ele>
        <time>2020-06-28T08:29:44.000Z</time>
      </trkpt>
      <trkpt lat="47.28442" lon="-2.48502">
        <ele>2.5999999046326</ele>
        <time>2020-06-28T08:29:46.000Z</time>
      </trkpt>
      <trkpt lat="47.2844" lon="-2.48509">
        <ele>2.5999999046326</ele>
        <time>2020-06-28T08:29:47.000Z</time>
      </trkpt>
      <trkpt lat="47.28433" lon="-2.4853">
        <ele>2.5999999046326</ele>
        <time>2020-06-28T08:29:50.000Z</time>
      </trkpt>
      <trkpt lat="47.28433" lon="-2.48538">
        <ele>2.5999999046326</ele>
        <time>2020-06-28T08:29:51.000Z</time>
      </trkpt>
      <trkpt lat="47.28435" lon="-2.48544">
        <ele>2.5999999046326</ele>
        <time>2020-06-28T08:29:52.000Z</time>
      </trkpt>
      <trkpt lat="47.2845" lon="-2.48554">
        <ele>2.5999999046326</ele>
        <time>2020-06-28T08:29:55.000Z</time>
      </trkpt>
      <trkpt lat="47.28456" lon="-2.48557">
        <ele>2.5999999046326</ele>
        <time>2020-06-28T08:29:56.000Z</time>
      </trkpt>
      <trkpt lat="47.28467" lon="-2.48565">
        <ele>2.5999999046326</ele>
        <time>2020-06-28T08:29:58.000Z</time>
      </trkpt>
      <trkpt lat="47.28472" lon="-2.4858">
        <ele>2.5999999046326</ele>
        <time>2020-06-28T08:30:00.000Z</time>
      </trkpt>
      <trkpt lat="47.28478" lon="-2.48602">
        <ele>2.5999999046326</ele>
        <time>2020-06-28T08:30:03.000Z</time>
      </trkpt>
      <trkpt lat="47.28479" lon="-2.48611">
        <ele>2.5999999046326</ele>
        <time>2020-06-28T08:30:04.000Z</time>
      </trkpt>
      <trkpt lat="47.28474" lon="-2.48635">
        <ele>2.5999999046326</ele>
        <time>2020-06-28T08:30:07.000Z</time>
      </trkpt>
      <trkpt lat="47.28471" lon="-2.48651">
        <ele>2.5999999046326</ele>
        <time>2020-06-28T08:30:09.000Z</time>
      </trkpt>
      <trkpt lat="47.28469" lon="-2.48678">
        <ele>2.5999999046326</ele>
        <time>2020-06-28T08:30:12.000Z</time>
      </trkpt>
      <trkpt lat="47.28482" lon="-2.48699">
        <ele>2.5999999046326</ele>
        <time>2020-06-28T08:30:15.000Z</time>
      </trkpt>
      <trkpt lat="47.28486" lon="-2.48704">
        <ele>2.5999999046326</ele>
        <time>2020-06-28T08:30:16.000Z</time>
      </trkpt>
      <trkpt lat="47.2851" lon="-2.48733">
        <ele>2.5999999046326</ele>
        <time>2020-06-28T08:30:21.000Z</time>
      </trkpt>
      <trkpt lat="47.28532" lon="-2.48767">
        <ele>2.5999999046326</ele>
        <time>2020-06-28T08:30:27.000Z</time>
      </trkpt>
      <trkpt lat="47.28552" lon="-2.48805">
        <ele>2.5999999046326</ele>
        <time>2020-06-28T08:30:33.000Z</time>
      </trkpt>
      <trkpt lat="47.2856" lon="-2.48818">
        <ele>2.5999999046326</ele>
        <time>2020-06-28T08:30:35.000Z</time>
      </trkpt>
      <trkpt lat="47.28573" lon="-2.48834">
        <ele>2.5999999046326</ele>
        <time>2020-06-28T08:30:38.000Z</time>
      </trkpt>
      <trkpt lat="47.28576" lon="-2.48841">
        <ele>2.5999999046326</ele>
        <time>2020-06-28T08:30:39.000Z</time>
      </trkpt>
      <trkpt lat="47.28579" lon="-2.48857">
        <ele>2.5999999046326</ele>
        <time>2020-06-28T08:30:41.000Z</time>
      </trkpt>
      <trkpt lat="47.28579" lon="-2.48879">
        <ele>2.5999999046326</ele>
        <time>2020-06-28T08:30:44.000Z</time>
      </trkpt>
      <trkpt lat="47.28578" lon="-2.48893">
        <ele>2.5999999046326</ele>
        <time>2020-06-28T08:30:46.000Z</time>
      </trkpt>
      <trkpt lat="47.28577" lon="-2.489">
        <ele>2.5999999046326</ele>
        <time>2020-06-28T08:30:47.000Z</time>
      </trkpt>
      <trkpt lat="47.28569" lon="-2.48911">
        <ele>2.5999999046326</ele>
        <time>2020-06-28T08:30:49.000Z</time>
      </trkpt>
      <trkpt lat="47.28554" lon="-2.48919">
        <ele>2.5999999046326</ele>
        <time>2020-06-28T08:30:52.000Z</time>
      </trkpt>
      <trkpt lat="47.28549" lon="-2.48921">
        <ele>2.5999999046326</ele>
        <time>2020-06-28T08:30:53.000Z</time>
      </trkpt>
      <trkpt lat="47.28538" lon="-2.48926">
        <ele>2.5999999046326</ele>
        <time>2020-06-28T08:30:55.000Z</time>
      </trkpt>
      <trkpt lat="47.28523" lon="-2.48931">
        <ele>2.5999999046326</ele>
        <time>2020-06-28T08:30:58.000Z</time>
      </trkpt>
      <trkpt lat="47.28507" lon="-2.48929">
        <ele>2.5999999046326</ele>
        <time>2020-06-28T08:31:01.000Z</time>
      </trkpt>
      <trkpt lat="47.28495" lon="-2.48927">
        <ele>2.5999999046326</ele>
        <time>2020-06-28T08:31:03.000Z</time>
      </trkpt>
      <trkpt lat="47.28485" lon="-2.48925">
        <ele>2.5999999046326</ele>
        <time>2020-06-28T08:31:05.000Z</time>
      </trkpt>
      <trkpt lat="47.28472" lon="-2.48931">
        <ele>2.5999999046326</ele>
        <time>2020-06-28T08:31:08.000Z</time>
      </trkpt>
      <trkpt lat="47.2847" lon="-2.48937">
        <ele>2.2000000476837</ele>
        <time>2020-06-28T08:31:09.000Z</time>
      </trkpt>
      <trkpt lat="47.28468" lon="-2.48944">
        <ele>1.6000000238419</ele>
        <time>2020-06-28T08:31:10.000Z</time>
      </trkpt>
      <trkpt lat="47.28467" lon="-2.4895">
        <ele>1.2000000476837</ele>
        <time>2020-06-28T08:31:11.000Z</time>
      </trkpt>
      <trkpt lat="47.28465" lon="-2.48957">
        <ele>0.80000001192093</ele>
        <time>2020-06-28T08:31:12.000Z</time>
      </trkpt>
      <trkpt lat="47.28465" lon="-2.48963">
        <ele>0.20000000298023</ele>
        <time>2020-06-28T08:31:13.000Z</time>
      </trkpt>
      <trkpt lat="47.2847" lon="-2.48969">
        <ele>0.20000000298023</ele>
        <time>2020-06-28T08:31:15.000Z</time>
      </trkpt>
      <trkpt lat="47.28482" lon="-2.48976">
        <ele>0.20000000298023</ele>
        <time>2020-06-28T08:31:18.000Z</time>
      </trkpt>
      <trkpt lat="47.28491" lon="-2.48981">
        <ele>0.60000002384186</ele>
        <time>2020-06-28T08:31:20.000Z</time>
      </trkpt>
      <trkpt lat="47.28495" lon="-2.48982">
        <ele>1.2000000476837</ele>
        <time>2020-06-28T08:31:21.000Z</time>
      </trkpt>
      <trkpt lat="47.28501" lon="-2.48981">
        <ele>1.6000000238419</ele>
        <time>2020-06-28T08:31:22.000Z</time>
      </trkpt>
      <trkpt lat="47.28506" lon="-2.4898">
        <ele>2</ele>
        <time>2020-06-28T08:31:23.000Z</time>
      </trkpt>
      <trkpt lat="47.28511" lon="-2.48977">
        <ele>2.4000000953674</ele>
        <time>2020-06-28T08:31:24.000Z</time>
      </trkpt>
      <trkpt lat="47.28517" lon="-2.48975">
        <ele>2.4000000953674</ele>
        <time>2020-06-28T08:31:25.000Z</time>
      </trkpt>
      <trkpt lat="47.28545" lon="-2.48971">
        <ele>2.4000000953674</ele>
        <time>2020-06-28T08:31:30.000Z</time>
      </trkpt>
      <trkpt lat="47.28567" lon="-2.48971">
        <ele>2.4000000953674</ele>
        <time>2020-06-28T08:31:34.000Z</time>
      </trkpt>
      <trkpt lat="47.28578" lon="-2.48978">
        <ele>2.4000000953674</ele>
        <time>2020-06-28T08:31:36.000Z</time>
      </trkpt>
      <trkpt lat="47.28588" lon="-2.48997">
        <ele>2.4000000953674</ele>
        <time>2020-06-28T08:31:39.000Z</time>
      </trkpt>
      <trkpt lat="47.2859" lon="-2.49004">
        <ele>2.4000000953674</ele>
        <time>2020-06-28T08:31:40.000Z</time>
      </trkpt>
      <trkpt lat="47.28593" lon="-2.49011">
        <ele>2.4000000953674</ele>
        <time>2020-06-28T08:31:41.000Z</time>
      </trkpt>
      <trkpt lat="47.28596" lon="-2.49034">
        <ele>2.4000000953674</ele>
        <time>2020-06-28T08:31:44.000Z</time>
      </trkpt>
      <trkpt lat="47.28596" lon="-2.49057">
        <ele>2.4000000953674</ele>
        <time>2020-06-28T08:31:47.000Z</time>
      </trkpt>
      <trkpt lat="47.28596" lon="-2.49075">
        <ele>2.4000000953674</ele>
        <time>2020-06-28T08:31:49.000Z</time>
      </trkpt>
      <trkpt lat="47.28595" lon="-2.49092">
        <ele>2.4000000953674</ele>
        <time>2020-06-28T08:31:51.000Z</time>
      </trkpt>
      <trkpt lat="47.28599" lon="-2.49115">
        <ele>2.4000000953674</ele>
        <time>2020-06-28T08:31:54.000Z</time>
      </trkpt>
      <trkpt lat="47.28601" lon="-2.49121">
        <ele>2.4000000953674</ele>
        <time>2020-06-28T08:31:55.000Z</time>
      </trkpt>
      <trkpt lat="47.28607" lon="-2.4915">
        <ele>2.4000000953674</ele>
        <time>2020-06-28T08:32:00.000Z</time>
      </trkpt>
      <trkpt lat="47.28611" lon="-2.49186">
        <ele>2.4000000953674</ele>
        <time>2020-06-28T08:32:05.000Z</time>
      </trkpt>
      <trkpt lat="47.28615" lon="-2.49231">
        <ele>2.4000000953674</ele>
        <time>2020-06-28T08:32:11.000Z</time>
      </trkpt>
      <trkpt lat="47.28617" lon="-2.49239">
        <ele>2.4000000953674</ele>
        <time>2020-06-28T08:32:12.000Z</time>
      </trkpt>
      <trkpt lat="47.28623" lon="-2.4927">
        <ele>2.4000000953674</ele>
        <time>2020-06-28T08:32:16.000Z</time>
      </trkpt>
      <trkpt lat="47.28634" lon="-2.49324">
        <ele>2.4000000953674</ele>
        <time>2020-06-28T08:32:23.000Z</time>
      </trkpt>
      <trkpt lat="47.28634" lon="-2.49332">
        <ele>2.4000000953674</ele>
        <time>2020-06-28T08:32:24.000Z</time>
      </trkpt>
      <trkpt lat="47.28631" lon="-2.49379">
        <ele>2.4000000953674</ele>
        <time>2020-06-28T08:32:30.000Z</time>
      </trkpt>
      <trkpt lat="47.28633" lon="-2.49419">
        <ele>2.4000000953674</ele>
        <time>2020-06-28T08:32:35.000Z</time>
      </trkpt>
      <trkpt lat="47.28634" lon="-2.49427">
        <ele>2.4000000953674</ele>
        <time>2020-06-28T08:32:36.000Z</time>
      </trkpt>
      <trkpt lat="47.28635" lon="-2.49482">
        <ele>2.4000000953674</ele>
        <time>2020-06-28T08:32:43.000Z</time>
      </trkpt>
      <trkpt lat="47.28635" lon="-2.49537">
        <ele>2.4000000953674</ele>
        <time>2020-06-28T08:32:50.000Z</time>
      </trkpt>
      <trkpt lat="47.28639" lon="-2.49591">
        <ele>2.4000000953674</ele>
        <time>2020-06-28T08:32:57.000Z</time>
      </trkpt>
      <trkpt lat="47.28638" lon="-2.49632">
        <ele>2.4000000953674</ele>
        <time>2020-06-28T08:33:02.000Z</time>
      </trkpt>
      <trkpt lat="47.28634" lon="-2.49637">
        <ele>2.4000000953674</ele>
        <time>2020-06-28T08:33:03.000Z</time>
      </trkpt>
      <trkpt lat="47.28618" lon="-2.49645">
        <ele>2.4000000953674</ele>
        <time>2020-06-28T08:33:06.000Z</time>
      </trkpt>
      <trkpt lat="47.28607" lon="-2.49647">
        <ele>2.4000000953674</ele>
        <time>2020-06-28T08:33:08.000Z</time>
      </trkpt>
      <trkpt lat="47.2859" lon="-2.49651">
        <ele>2.4000000953674</ele>
        <time>2020-06-28T08:33:11.000Z</time>
      </trkpt>
      <trkpt lat="47.28584" lon="-2.49653">
        <ele>2.4000000953674</ele>
        <time>2020-06-28T08:33:12.000Z</time>
      </trkpt>
      <trkpt lat="47.28564" lon="-2.49662">
        <ele>2.4000000953674</ele>
        <time>2020-06-28T08:33:16.000Z</time>
      </trkpt>
      <trkpt lat="47.28535" lon="-2.49675">
        <ele>2.4000000953674</ele>
        <time>2020-06-28T08:33:22.000Z</time>
      </trkpt>
      <trkpt lat="47.28531" lon="-2.49679">
        <ele>2.4000000953674</ele>
        <time>2020-06-28T08:33:23.000Z</time>
      </trkpt>
      <trkpt lat="47.28519" lon="-2.49692">
        <ele>2.4000000953674</ele>
        <time>2020-06-28T08:33:26.000Z</time>
      </trkpt>
      <trkpt lat="47.28519" lon="-2.49706">
        <ele>2.4000000953674</ele>
        <time>2020-06-28T08:33:28.000Z</time>
      </trkpt>
      <trkpt lat="47.28517" lon="-2.49718">
        <ele>2.4000000953674</ele>
        <time>2020-06-28T08:33:30.000Z</time>
      </trkpt>
      <trkpt lat="47.28513" lon="-2.49721">
        <ele>2.4000000953674</ele>
        <time>2020-06-28T08:33:31.000Z</time>
      </trkpt>
      <trkpt lat="47.285" lon="-2.49723">
        <ele>2.4000000953674</ele>
        <time>2020-06-28T08:33:34.000Z</time>
      </trkpt>
      <trkpt lat="47.28495" lon="-2.49724">
        <ele>2.4000000953674</ele>
        <time>2020-06-28T08:33:35.000Z</time>
      </trkpt>
      <trkpt lat="47.28454" lon="-2.49731">
        <ele>2.4000000953674</ele>
        <time>2020-06-28T08:33:43.000Z</time>
      </trkpt>
      <trkpt lat="47.28418" lon="-2.4973">
        <ele>2.4000000953674</ele>
        <time>2020-06-28T08:33:50.000Z</time>
      </trkpt>
      <trkpt lat="47.28404" lon="-2.49736">
        <ele>2.4000000953674</ele>
        <time>2020-06-28T08:33:53.000Z</time>
      </trkpt>
      <trkpt lat="47.28399" lon="-2.49739">
        <ele>2.4000000953674</ele>
        <time>2020-06-28T08:33:54.000Z</time>
      </trkpt>
      <trkpt lat="47.28371" lon="-2.4976">
        <ele>2.4000000953674</ele>
        <time>2020-06-28T08:34:00.000Z</time>
      </trkpt>
      <trkpt lat="47.28347" lon="-2.49778">
        <ele>2.4000000953674</ele>
        <time>2020-06-28T08:34:05.000Z</time>
      </trkpt>
      <trkpt lat="47.28343" lon="-2.49792">
        <ele>2.4000000953674</ele>
        <time>2020-06-28T08:34:07.000Z</time>
      </trkpt>
      <trkpt lat="47.28342" lon="-2.49805">
        <ele>2.4000000953674</ele>
        <time>2020-06-28T08:34:09.000Z</time>
      </trkpt>
      <trkpt lat="47.28343" lon="-2.49819">
        <ele>2.4000000953674</ele>
        <time>2020-06-28T08:34:11.000Z</time>
      </trkpt>
      <trkpt lat="47.28346" lon="-2.49824">
        <ele>2.4000000953674</ele>
        <time>2020-06-28T08:34:12.000Z</time>
      </trkpt>
      <trkpt lat="47.28362" lon="-2.49831">
        <ele>2.4000000953674</ele>
        <time>2020-06-28T08:34:15.000Z</time>
      </trkpt>
      <trkpt lat="47.28367" lon="-2.49833">
        <ele>2.4000000953674</ele>
        <time>2020-06-28T08:34:16.000Z</time>
      </trkpt>
      <trkpt lat="47.28383" lon="-2.49839">
        <ele>2.4000000953674</ele>
        <time>2020-06-28T08:34:19.000Z</time>
      </trkpt>
      <trkpt lat="47.28388" lon="-2.49844">
        <ele>2.4000000953674</ele>
        <time>2020-06-28T08:34:20.000Z</time>
      </trkpt>
      <trkpt lat="47.28397" lon="-2.49868">
        <ele>2.4000000953674</ele>
        <time>2020-06-28T08:34:23.000Z</time>
      </trkpt>
      <trkpt lat="47.28401" lon="-2.49883">
        <ele>2.4000000953674</ele>
        <time>2020-06-28T08:34:25.000Z</time>
      </trkpt>
      <trkpt lat="47.28406" lon="-2.49899">
        <ele>2.4000000953674</ele>
        <time>2020-06-28T08:34:27.000Z</time>
      </trkpt>
      <trkpt lat="47.2841" lon="-2.49905">
        <ele>2.4000000953674</ele>
        <time>2020-06-28T08:34:28.000Z</time>
      </trkpt>
      <trkpt lat="47.28426" lon="-2.49913">
        <ele>2.4000000953674</ele>
        <time>2020-06-28T08:34:31.000Z</time>
      </trkpt>
      <trkpt lat="47.28448" lon="-2.49911">
        <ele>2.4000000953674</ele>
        <time>2020-06-28T08:34:35.000Z</time>
      </trkpt>
      <trkpt lat="47.28458" lon="-2.49902">
        <ele>2.4000000953674</ele>
        <time>2020-06-28T08:34:37.000Z</time>
      </trkpt>
      <trkpt lat="47.28468" lon="-2.49896">
        <ele>2.4000000953674</ele>
        <time>2020-06-28T08:34:39.000Z</time>
      </trkpt>
      <trkpt lat="47.28496" lon="-2.4989">
        <ele>2.4000000953674</ele>
        <time>2020-06-28T08:34:44.000Z</time>
      </trkpt>
      <trkpt lat="47.28515" lon="-2.49889">
        <ele>2.4000000953674</ele>
        <time>2020-06-28T08:34:47.000Z</time>
      </trkpt>
      <trkpt lat="47.28525" lon="-2.49895">
        <ele>2.4000000953674</ele>
        <time>2020-06-28T08:34:49.000Z</time>
      </trkpt>
      <trkpt lat="47.2853" lon="-2.49916">
        <ele>2.4000000953674</ele>
        <time>2020-06-28T08:34:52.000Z</time>
      </trkpt>
      <trkpt lat="47.28531" lon="-2.49923">
        <ele>2.4000000953674</ele>
        <time>2020-06-28T08:34:53.000Z</time>
      </trkpt>
      <trkpt lat="47.28535" lon="-2.49964">
        <ele>2.4000000953674</ele>
        <time>2020-06-28T08:34:59.000Z</time>
      </trkpt>
      <trkpt lat="47.28539" lon="-2.50008">
        <ele>2.4000000953674</ele>
        <time>2020-06-28T08:35:05.000Z</time>
      </trkpt>
      <trkpt lat="47.2854" lon="-2.50015">
        <ele>2.4000000953674</ele>
        <time>2020-06-28T08:35:06.000Z</time>
      </trkpt>
      <trkpt lat="47.28546" lon="-2.50045">
        <ele>2.4000000953674</ele>
        <time>2020-06-28T08:35:10.000Z</time>
      </trkpt>
      <trkpt lat="47.28549" lon="-2.50065">
        <ele>2.4000000953674</ele>
        <time>2020-06-28T08:35:13.000Z</time>
      </trkpt>
      <trkpt lat="47.28552" lon="-2.50088">
        <ele>2.4000000953674</ele>
        <time>2020-06-28T08:35:16.000Z</time>
      </trkpt>
      <trkpt lat="47.28556" lon="-2.50135">
        <ele>2.4000000953674</ele>
        <time>2020-06-28T08:35:23.000Z</time>
      </trkpt>
      <trkpt lat="47.28552" lon="-2.50163">
        <ele>2.4000000953674</ele>
        <time>2020-06-28T08:35:28.000Z</time>
      </trkpt>
      <trkpt lat="47.28541" lon="-2.50166">
        <ele>2.4000000953674</ele>
        <time>2020-06-28T08:35:31.000Z</time>
      </trkpt>
      <trkpt lat="47.28529" lon="-2.50168">
        <ele>2</ele>
        <time>2020-06-28T08:35:34.000Z</time>
      </trkpt>
      <trkpt lat="47.28525" lon="-2.50169">
        <ele>1.6000000238419</ele>
        <time>2020-06-28T08:35:35.000Z</time>
      </trkpt>
      <trkpt lat="47.28522" lon="-2.50171">
        <ele>1</ele>
        <time>2020-06-28T08:35:36.000Z</time>
      </trkpt>
      <trkpt lat="47.2852" lon="-2.5017">
        <ele>0.60000002384186</ele>
        <time>2020-06-28T08:35:37.000Z</time>
      </trkpt>
      <trkpt lat="47.28518" lon="-2.50167">
        <ele>0.20000000298023</ele>
        <time>2020-06-28T08:35:38.000Z</time>
      </trkpt>
      <trkpt lat="47.28513" lon="-2.50163">
        <ele>0.20000000298023</ele>
        <time>2020-06-28T08:35:40.000Z</time>
      </trkpt>
      <trkpt lat="47.28501" lon="-2.50165">
        <ele>0.20000000298023</ele>
        <time>2020-06-28T08:35:45.000Z</time>
      </trkpt>
      <trkpt lat="47.28498" lon="-2.5018">
        <ele>0.20000000298023</ele>
        <time>2020-06-28T08:35:48.000Z</time>
      </trkpt>
      <trkpt lat="47.28498" lon="-2.50185">
        <ele>0.20000000298023</ele>
        <time>2020-06-28T08:35:49.000Z</time>
      </trkpt>
      <trkpt lat="47.28498" lon="-2.50212">
        <ele>0.20000000298023</ele>
        <time>2020-06-28T08:35:54.000Z</time>
      </trkpt>
      <trkpt lat="47.28492" lon="-2.50235">
        <ele>0.20000000298023</ele>
        <time>2020-06-28T08:35:59.000Z</time>
      </trkpt>
      <trkpt lat="47.2849" lon="-2.50237">
        <ele>0.20000000298023</ele>
        <time>2020-06-28T08:36:00.000Z</time>
      </trkpt>
      <trkpt lat="47.28485" lon="-2.50244">
        <ele>0.20000000298023</ele>
        <time>2020-06-28T08:36:03.000Z</time>
      </trkpt>
      <trkpt lat="47.28486" lon="-2.50259">
        <ele>0.20000000298023</ele>
        <time>2020-06-28T08:36:07.000Z</time>
      </trkpt>
      <trkpt lat="47.2849" lon="-2.50266">
        <ele>0.20000000298023</ele>
        <time>2020-06-28T08:36:09.000Z</time>
      </trkpt>
      <trkpt lat="47.28492" lon="-2.50271">
        <ele>0.20000000298023</ele>
        <time>2020-06-28T08:36:11.000Z</time>
      </trkpt>
      <trkpt lat="47.28506" lon="-2.50277">
        <ele>0.20000000298023</ele>
        <time>2020-06-28T08:36:16.000Z</time>
      </trkpt>
      <trkpt lat="47.2853" lon="-2.50293">
        <ele>0.20000000298023</ele>
        <time>2020-06-28T08:36:23.000Z</time>
      </trkpt>
      <trkpt lat="47.28539" lon="-2.50298">
        <ele>0.20000000298023</ele>
        <time>2020-06-28T08:36:25.000Z</time>
      </trkpt>
      <trkpt lat="47.28547" lon="-2.50304">
        <ele>0.20000000298023</ele>
        <time>2020-06-28T08:36:27.000Z</time>
      </trkpt>
      <trkpt lat="47.28552" lon="-2.50307">
        <ele>0.60000002384186</ele>
        <time>2020-06-28T08:36:28.000Z</time>
      </trkpt>
      <trkpt lat="47.28556" lon="-2.5031">
        <ele>1</ele>
        <time>2020-06-28T08:36:29.000Z</time>
      </trkpt>
      <trkpt lat="47.2856" lon="-2.50312">
        <ele>1.3999999761581</ele>
        <time>2020-06-28T08:36:30.000Z</time>
      </trkpt>
      <trkpt lat="47.28564" lon="-2.50316">
        <ele>1.7999999523163</ele>
        <time>2020-06-28T08:36:31.000Z</time>
      </trkpt>
      <trkpt lat="47.28569" lon="-2.50319">
        <ele>2.2000000476837</ele>
        <time>2020-06-28T08:36:32.000Z</time>
      </trkpt>
      <trkpt lat="47.28577" lon="-2.50325">
        <ele>2.2000000476837</ele>
        <time>2020-06-28T08:36:34.000Z</time>
      </trkpt>
      <trkpt lat="47.28602" lon="-2.50326">
        <ele>2.2000000476837</ele>
        <time>2020-06-28T08:36:39.000Z</time>
      </trkpt>
      <trkpt lat="47.28621" lon="-2.50335">
        <ele>2.2000000476837</ele>
        <time>2020-06-28T08:36:43.000Z</time>
      </trkpt>
      <trkpt lat="47.28625" lon="-2.50338">
        <ele>2.2000000476837</ele>
        <time>2020-06-28T08:36:44.000Z</time>
      </trkpt>
      <trkpt lat="47.28653" lon="-2.50357">
        <ele>2.2000000476837</ele>
        <time>2020-06-28T08:36:50.000Z</time>
      </trkpt>
      <trkpt lat="47.28683" lon="-2.50384">
        <ele>2.2000000476837</ele>
        <time>2020-06-28T08:36:57.000Z</time>
      </trkpt>
      <trkpt lat="47.28702" lon="-2.504">
        <ele>2.2000000476837</ele>
        <time>2020-06-28T08:37:02.000Z</time>
      </trkpt>
      <trkpt lat="47.28706" lon="-2.50402">
        <ele>2.2000000476837</ele>
        <time>2020-06-28T08:37:03.000Z</time>
      </trkpt>
      <trkpt lat="47.2872" lon="-2.50417">
        <ele>2.2000000476837</ele>
        <time>2020-06-28T08:37:08.000Z</time>
      </trkpt>
      <trkpt lat="47.28734" lon="-2.50437">
        <ele>2.2000000476837</ele>
        <time>2020-06-28T08:37:14.000Z</time>
      </trkpt>
      <trkpt lat="47.28746" lon="-2.50453">
        <ele>2.2000000476837</ele>
        <time>2020-06-28T08:37:18.000Z</time>
      </trkpt>
      <trkpt lat="47.28753" lon="-2.50459">
        <ele>2.2000000476837</ele>
        <time>2020-06-28T08:37:20.000Z</time>
      </trkpt>
      <trkpt lat="47.28775" lon="-2.50476">
        <ele>2.2000000476837</ele>
        <time>2020-06-28T08:37:27.000Z</time>
      </trkpt>
      <trkpt lat="47.28795" lon="-2.50489">
        <ele>2.2000000476837</ele>
        <time>2020-06-28T08:37:33.000Z</time>
      </trkpt>
      <trkpt lat="47.28819" lon="-2.50508">
        <ele>2.2000000476837</ele>
        <time>2020-06-28T08:37:40.000Z</time>
      </trkpt>
      <trkpt lat="47.2884" lon="-2.50523">
        <ele>2.2000000476837</ele>
        <time>2020-06-28T08:37:46.000Z</time>
      </trkpt>
      <trkpt lat="47.28847" lon="-2.50528">
        <ele>2.2000000476837</ele>
        <time>2020-06-28T08:37:48.000Z</time>
      </trkpt>
      <trkpt lat="47.28876" lon="-2.50548">
        <ele>2.2000000476837</ele>
        <time>2020-06-28T08:37:57.000Z</time>
      </trkpt>
      <trkpt lat="47.28901" lon="-2.50564">
        <ele>2.2000000476837</ele>
        <time>2020-06-28T08:38:05.000Z</time>
      </trkpt>
      <trkpt lat="47.28926" lon="-2.50582">
        <ele>2.2000000476837</ele>
        <time>2020-06-28T08:38:12.000Z</time>
      </trkpt>
      <trkpt lat="47.28956" lon="-2.50603">
        <ele>2.2000000476837</ele>
        <time>2020-06-28T08:38:20.000Z</time>
      </trkpt>
      <trkpt lat="47.28981" lon="-2.50618">
        <ele>2.2000000476837</ele>
        <time>2020-06-28T08:38:27.000Z</time>
      </trkpt>
      <trkpt lat="47.2901" lon="-2.50637">
        <ele>2.2000000476837</ele>
        <time>2020-06-28T08:38:35.000Z</time>
      </trkpt>
      <trkpt lat="47.29038" lon="-2.50658">
        <ele>2.2000000476837</ele>
        <time>2020-06-28T08:38:44.000Z</time>
      </trkpt>
      <trkpt lat="47.2905" lon="-2.5067">
        <ele>2.2000000476837</ele>
        <time>2020-06-28T08:38:48.000Z</time>
      </trkpt>
      <trkpt lat="47.2906" lon="-2.50685">
        <ele>2.2000000476837</ele>
        <time>2020-06-28T08:38:52.000Z</time>
      </trkpt>
      <trkpt lat="47.29075" lon="-2.50689">
        <ele>2.2000000476837</ele>
        <time>2020-06-28T08:38:56.000Z</time>
      </trkpt>
      <trkpt lat="47.29091" lon="-2.50685">
        <ele>2.2000000476837</ele>
        <time>2020-06-28T08:39:00.000Z</time>
      </trkpt>
      <trkpt lat="47.29101" lon="-2.50683">
        <ele>2.7999999523163</ele>
        <time>2020-06-28T08:39:02.000Z</time>
      </trkpt>
      <trkpt lat="47.29106" lon="-2.50683">
        <ele>3.2000000476837</ele>
        <time>2020-06-28T08:39:03.000Z</time>
      </trkpt>
      <trkpt lat="47.29112" lon="-2.50684">
        <ele>3.5999999046326</ele>
        <time>2020-06-28T08:39:04.000Z</time>
      </trkpt>
      <trkpt lat="47.29117" lon="-2.50683">
        <ele>4</ele>
        <time>2020-06-28T08:39:05.000Z</time>
      </trkpt>
      <trkpt lat="47.29122" lon="-2.50682">
        <ele>4.4000000953674</ele>
        <time>2020-06-28T08:39:06.000Z</time>
      </trkpt>
      <trkpt lat="47.29149" lon="-2.50674">
        <ele>4.4000000953674</ele>
        <time>2020-06-28T08:39:12.000Z</time>
      </trkpt>
      <trkpt lat="47.29175" lon="-2.50663">
        <ele>4.4000000953674</ele>
        <time>2020-06-28T08:39:18.000Z</time>
      </trkpt>
      <trkpt lat="47.2918" lon="-2.5066">
        <ele>4.4000000953674</ele>
        <time>2020-06-28T08:39:19.000Z</time>
      </trkpt>
      <trkpt lat="47.29191" lon="-2.50666">
        <ele>4.4000000953674</ele>
        <time>2020-06-28T08:39:22.000Z</time>
      </trkpt>
      <trkpt lat="47.29194" lon="-2.50678">
        <ele>4.4000000953674</ele>
        <time>2020-06-28T08:39:25.000Z</time>
      </trkpt>
      <trkpt lat="47.29193" lon="-2.50682">
        <ele>4.8000001907349</ele>
        <time>2020-06-28T08:39:26.000Z</time>
      </trkpt>
      <trkpt lat="47.29193" lon="-2.50686">
        <ele>5.1999998092651</ele>
        <time>2020-06-28T08:39:27.000Z</time>
      </trkpt>
      <trkpt lat="47.29192" lon="-2.5069">
        <ele>5.5999999046326</ele>
        <time>2020-06-28T08:39:28.000Z</time>
      </trkpt>
      <trkpt lat="47.29191" lon="-2.50695">
        <ele>6</ele>
        <time>2020-06-28T08:39:29.000Z</time>
      </trkpt>
      <trkpt lat="47.2919" lon="-2.50699">
        <ele>6.4000000953674</ele>
        <time>2020-06-28T08:39:30.000Z</time>
      </trkpt>
      <trkpt lat="47.29186" lon="-2.50728">
        <ele>6.4000000953674</ele>
        <time>2020-06-28T08:39:36.000Z</time>
      </trkpt>
      <trkpt lat="47.29182" lon="-2.50753">
        <ele>6.4000000953674</ele>
        <time>2020-06-28T08:39:42.000Z</time>
      </trkpt>
      <trkpt lat="47.29181" lon="-2.50778">
        <ele>6.4000000953674</ele>
        <time>2020-06-28T08:39:48.000Z</time>
      </trkpt>
      <trkpt lat="47.29184" lon="-2.50786">
        <ele>6.4000000953674</ele>
        <time>2020-06-28T08:39:50.000Z</time>
      </trkpt>
      <trkpt lat="47.29189" lon="-2.50793">
        <ele>6.4000000953674</ele>
        <time>2020-06-28T08:39:52.000Z</time>
      </trkpt>
      <trkpt lat="47.29203" lon="-2.50811">
        <ele>6.4000000953674</ele>
        <time>2020-06-28T08:39:57.000Z</time>
      </trkpt>
      <trkpt lat="47.29213" lon="-2.50823">
        <ele>6.4000000953674</ele>
        <time>2020-06-28T08:40:01.000Z</time>
      </trkpt>
      <trkpt lat="47.29216" lon="-2.50827">
        <ele>6.4000000953674</ele>
        <time>2020-06-28T08:40:02.000Z</time>
      </trkpt>
      <trkpt lat="47.29225" lon="-2.50843">
        <ele>6.4000000953674</ele>
        <time>2020-06-28T08:40:07.000Z</time>
      </trkpt>
      <trkpt lat="47.29228" lon="-2.50844">
        <ele>6.4000000953674</ele>
        <time>2020-06-28T08:40:08.000Z</time>
      </trkpt>
      <trkpt lat="47.29231" lon="-2.50846">
        <ele>6</ele>
        <time>2020-06-28T08:40:09.000Z</time>
      </trkpt>
      <trkpt lat="47.29234" lon="-2.50849">
        <ele>5.5999999046326</ele>
        <time>2020-06-28T08:40:10.000Z</time>
      </trkpt>
      <trkpt lat="47.29237" lon="-2.50852">
        <ele>5.1999998092651</ele>
        <time>2020-06-28T08:40:11.000Z</time>
      </trkpt>
      <trkpt lat="47.29241" lon="-2.50856">
        <ele>4.8000001907349</ele>
        <time>2020-06-28T08:40:12.000Z</time>
      </trkpt>
      <trkpt lat="47.29245" lon="-2.50859">
        <ele>4.4000000953674</ele>
        <time>2020-06-28T08:40:13.000Z</time>
      </trkpt>
      <trkpt lat="47.2926" lon="-2.50874">
        <ele>4.4000000953674</ele>
        <time>2020-06-28T08:40:17.000Z</time>
      </trkpt>
      <trkpt lat="47.29276" lon="-2.50892">
        <ele>4.4000000953674</ele>
        <time>2020-06-28T08:40:23.000Z</time>
      </trkpt>
      <trkpt lat="47.29287" lon="-2.509">
        <ele>4.4000000953674</ele>
        <time>2020-06-28T08:40:28.000Z</time>
      </trkpt>
      <trkpt lat="47.29304" lon="-2.50904">
        <ele>4.4000000953674</ele>
        <time>2020-06-28T08:40:32.000Z</time>
      </trkpt>
      <trkpt lat="47.29315" lon="-2.50909">
        <ele>4.4000000953674</ele>
        <time>2020-06-28T08:40:34.000Z</time>
      </trkpt>
      <trkpt lat="47.29332" lon="-2.50918">
        <ele>4.4000000953674</ele>
        <time>2020-06-28T08:40:37.000Z</time>
      </trkpt>
      <trkpt lat="47.29351" lon="-2.50931">
        <ele>4.4000000953674</ele>
        <time>2020-06-28T08:40:41.000Z</time>
      </trkpt>
      <trkpt lat="47.29356" lon="-2.50934">
        <ele>4.4000000953674</ele>
        <time>2020-06-28T08:40:42.000Z</time>
      </trkpt>
      <trkpt lat="47.29361" lon="-2.50935">
        <ele>4.4000000953674</ele>
        <time>2020-06-28T08:40:43.000Z</time>
      </trkpt>
      <trkpt lat="47.2937" lon="-2.50937">
        <ele>4.4000000953674</ele>
        <time>2020-06-28T08:40:45.000Z</time>
      </trkpt>
      <trkpt lat="47.29379" lon="-2.50952">
        <ele>4.4000000953674</ele>
        <time>2020-06-28T08:40:48.000Z</time>
      </trkpt>
      <trkpt lat="47.29382" lon="-2.50958">
        <ele>4.4000000953674</ele>
        <time>2020-06-28T08:40:49.000Z</time>
      </trkpt>
      <trkpt lat="47.29385" lon="-2.50965">
        <ele>4.4000000953674</ele>
        <time>2020-06-28T08:40:50.000Z</time>
      </trkpt>
      <trkpt lat="47.2939" lon="-2.50986">
        <ele>4.4000000953674</ele>
        <time>2020-06-28T08:40:53.000Z</time>
      </trkpt>
      <trkpt lat="47.29393" lon="-2.51008">
        <ele>4.4000000953674</ele>
        <time>2020-06-28T08:40:56.000Z</time>
      </trkpt>
      <trkpt lat="47.29396" lon="-2.51013">
        <ele>4.4000000953674</ele>
        <time>2020-06-28T08:40:57.000Z</time>
      </trkpt>
      <trkpt lat="47.29406" lon="-2.51027">
        <ele>4.4000000953674</ele>
        <time>2020-06-28T08:41:00.000Z</time>
      </trkpt>
      <trkpt lat="47.29413" lon="-2.51036">
        <ele>4.4000000953674</ele>
        <time>2020-06-28T08:41:02.000Z</time>
      </trkpt>
      <trkpt lat="47.29419" lon="-2.51046">
        <ele>4.4000000953674</ele>
        <time>2020-06-28T08:41:04.000Z</time>
      </trkpt>
      <trkpt lat="47.29427" lon="-2.51059">
        <ele>4.4000000953674</ele>
        <time>2020-06-28T08:41:07.000Z</time>
      </trkpt>
      <trkpt lat="47.29434" lon="-2.51067">
        <ele>4.4000000953674</ele>
        <time>2020-06-28T08:41:09.000Z</time>
      </trkpt>
      <trkpt lat="47.2945" lon="-2.51088">
        <ele>4.4000000953674</ele>
        <time>2020-06-28T08:41:14.000Z</time>
      </trkpt>
      <trkpt lat="47.29472" lon="-2.51116">
        <ele>4.4000000953674</ele>
        <time>2020-06-28T08:41:21.000Z</time>
      </trkpt>
      <trkpt lat="47.29488" lon="-2.51138">
        <ele>4.4000000953674</ele>
        <time>2020-06-28T08:41:27.000Z</time>
      </trkpt>
      <trkpt lat="47.29495" lon="-2.51151">
        <ele>4.4000000953674</ele>
        <time>2020-06-28T08:41:30.000Z</time>
      </trkpt>
      <trkpt lat="47.29503" lon="-2.51169">
        <ele>4.4000000953674</ele>
        <time>2020-06-28T08:41:33.000Z</time>
      </trkpt>
      <trkpt lat="47.29513" lon="-2.512">
        <ele>4.4000000953674</ele>
        <time>2020-06-28T08:41:39.000Z</time>
      </trkpt>
      <trkpt lat="47.29519" lon="-2.51224">
        <ele>4.4000000953674</ele>
        <time>2020-06-28T08:41:44.000Z</time>
      </trkpt>
      <trkpt lat="47.29527" lon="-2.51256">
        <ele>4.4000000953674</ele>
        <time>2020-06-28T08:41:50.000Z</time>
      </trkpt>
      <trkpt lat="47.29535" lon="-2.51284">
        <ele>4.4000000953674</ele>
        <time>2020-06-28T08:41:56.000Z</time>
      </trkpt>
      <trkpt lat="47.29548" lon="-2.51314">
        <ele>4.4000000953674</ele>
        <time>2020-06-28T08:42:03.000Z</time>
      </trkpt>
      <trkpt lat="47.29551" lon="-2.51317">
        <ele>4.4000000953674</ele>
        <time>2020-06-28T08:42:04.000Z</time>
      </trkpt>
      <trkpt lat="47.29584" lon="-2.51335">
        <ele>4.4000000953674</ele>
        <time>2020-06-28T08:42:12.000Z</time>
      </trkpt>
      <trkpt lat="47.29601" lon="-2.51345">
        <ele>4.4000000953674</ele>
        <time>2020-06-28T08:42:16.000Z</time>
      </trkpt>
      <trkpt lat="47.29612" lon="-2.51356">
        <ele>4.4000000953674</ele>
        <time>2020-06-28T08:42:19.000Z</time>
      </trkpt>
      <trkpt lat="47.2965" lon="-2.51388">
        <ele>4.4000000953674</ele>
        <time>2020-06-28T08:42:28.000Z</time>
      </trkpt>
      <trkpt lat="47.29676" lon="-2.5141">
        <ele>4.4000000953674</ele>
        <time>2020-06-28T08:42:35.000Z</time>
      </trkpt>
      <trkpt lat="47.29703" lon="-2.51432">
        <ele>4.4000000953674</ele>
        <time>2020-06-28T08:42:42.000Z</time>
      </trkpt>
      <trkpt lat="47.29727" lon="-2.51447">
        <ele>4.4000000953674</ele>
        <time>2020-06-28T08:42:49.000Z</time>
      </trkpt>
      <trkpt lat="47.29751" lon="-2.51461">
        <ele>4.4000000953674</ele>
        <time>2020-06-28T08:42:56.000Z</time>
      </trkpt>
      <trkpt lat="47.2978" lon="-2.51478">
        <ele>4.4000000953674</ele>
        <time>2020-06-28T08:43:04.000Z</time>
      </trkpt>
      <trkpt lat="47.29802" lon="-2.51484">
        <ele>4.4000000953674</ele>
        <time>2020-06-28T08:43:10.000Z</time>
      </trkpt>
      <trkpt lat="47.29828" lon="-2.51482">
        <ele>4.4000000953674</ele>
        <time>2020-06-28T08:43:17.000Z</time>
      </trkpt>
      <trkpt lat="47.29836" lon="-2.51488">
        <ele>4.4000000953674</ele>
        <time>2020-06-28T08:43:20.000Z</time>
      </trkpt>
      <trkpt lat="47.29838" lon="-2.51492">
        <ele>4.4000000953674</ele>
        <time>2020-06-28T08:43:21.000Z</time>
      </trkpt>
      <trkpt lat="47.29847" lon="-2.5151">
        <ele>4.4000000953674</ele>
        <time>2020-06-28T08:43:26.000Z</time>
      </trkpt>
      <trkpt lat="47.2985" lon="-2.5151">
        <ele>4.4000000953674</ele>
        <time>2020-06-28T08:43:27.000Z</time>
      </trkpt>
      <trkpt lat="47.29863" lon="-2.51508">
        <ele>4.4000000953674</ele>
        <time>2020-06-28T08:43:31.000Z</time>
      </trkpt>
      <trkpt lat="47.29866" lon="-2.51511">
        <ele>4.4000000953674</ele>
        <time>2020-06-28T08:43:32.000Z</time>
      </trkpt>
      <trkpt lat="47.29875" lon="-2.51538">
        <ele>4.4000000953674</ele>
        <time>2020-06-28T08:43:38.000Z</time>
      </trkpt>
      <trkpt lat="47.29877" lon="-2.5155">
        <ele>4.4000000953674</ele>
        <time>2020-06-28T08:43:41.000Z</time>
      </trkpt>
      <trkpt lat="47.2988" lon="-2.5156">
        <ele>4.4000000953674</ele>
        <time>2020-06-28T08:43:44.000Z</time>
      </trkpt>
      <trkpt lat="47.29883" lon="-2.51577">
        <ele>4.4000000953674</ele>
        <time>2020-06-28T08:43:49.000Z</time>
      </trkpt>
      <trkpt lat="47.29891" lon="-2.51605">
        <ele>4.4000000953674</ele>
        <time>2020-06-28T08:43:58.000Z</time>
      </trkpt>
      <trkpt lat="47.29899" lon="-2.51626">
        <ele>4.4000000953674</ele>
        <time>2020-06-28T08:44:05.000Z</time>
      </trkpt>
      <trkpt lat="47.29906" lon="-2.51649">
        <ele>4.4000000953674</ele>
        <time>2020-06-28T08:44:13.000Z</time>
      </trkpt>
      <trkpt lat="47.29907" lon="-2.51664">
        <ele>4.4000000953674</ele>
        <time>2020-06-28T08:44:18.000Z</time>
      </trkpt>
      <trkpt lat="47.29906" lon="-2.51664">
        <ele>4.4000000953674</ele>
        <time>2020-06-28T08:56:12.000Z</time>
      </trkpt>
      <trkpt lat="47.2991" lon="-2.51672">
        <ele>4.4000000953674</ele>
        <time>2020-06-28T08:56:15.000Z</time>
      </trkpt>
      <trkpt lat="47.29916" lon="-2.51678">
        <ele>4.4000000953674</ele>
        <time>2020-06-28T08:56:17.000Z</time>
      </trkpt>
      <trkpt lat="47.2992" lon="-2.51686">
        <ele>4.4000000953674</ele>
        <time>2020-06-28T08:56:19.000Z</time>
      </trkpt>
      <trkpt lat="47.29924" lon="-2.51698">
        <ele>4.4000000953674</ele>
        <time>2020-06-28T08:56:22.000Z</time>
      </trkpt>
      <trkpt lat="47.29926" lon="-2.51708">
        <ele>4.4000000953674</ele>
        <time>2020-06-28T08:56:24.000Z</time>
      </trkpt>
      <trkpt lat="47.29938" lon="-2.51736">
        <ele>4.4000000953674</ele>
        <time>2020-06-28T08:56:30.000Z</time>
      </trkpt>
      <trkpt lat="47.29956" lon="-2.51771">
        <ele>4.4000000953674</ele>
        <time>2020-06-28T08:56:38.000Z</time>
      </trkpt>
      <trkpt lat="47.29969" lon="-2.51802">
        <ele>4.4000000953674</ele>
        <time>2020-06-28T08:56:45.000Z</time>
      </trkpt>
      <trkpt lat="47.29982" lon="-2.51829">
        <ele>4.4000000953674</ele>
        <time>2020-06-28T08:56:52.000Z</time>
      </trkpt>
      <trkpt lat="47.29992" lon="-2.51854">
        <ele>4.4000000953674</ele>
        <time>2020-06-28T08:56:58.000Z</time>
      </trkpt>
      <trkpt lat="47.29988" lon="-2.51871">
        <ele>4.4000000953674</ele>
        <time>2020-06-28T08:57:02.000Z</time>
      </trkpt>
      <trkpt lat="47.29981" lon="-2.51889">
        <ele>4.4000000953674</ele>
        <time>2020-06-28T08:57:07.000Z</time>
      </trkpt>
      <trkpt lat="47.29977" lon="-2.51901">
        <ele>4.4000000953674</ele>
        <time>2020-06-28T08:57:13.000Z</time>
      </trkpt>
      <trkpt lat="47.29983" lon="-2.51912">
        <ele>4.4000000953674</ele>
        <time>2020-06-28T08:57:16.000Z</time>
      </trkpt>
      <trkpt lat="47.29986" lon="-2.51917">
        <ele>4.4000000953674</ele>
        <time>2020-06-28T08:57:17.000Z</time>
      </trkpt>
      <trkpt lat="47.29989" lon="-2.51921">
        <ele>4.4000000953674</ele>
        <time>2020-06-28T08:57:18.000Z</time>
      </trkpt>
      <trkpt lat="47.30001" lon="-2.51937">
        <ele>4.4000000953674</ele>
        <time>2020-06-28T08:57:22.000Z</time>
      </trkpt>
      <trkpt lat="47.3001" lon="-2.5195">
        <ele>4.4000000953674</ele>
        <time>2020-06-28T08:57:25.000Z</time>
      </trkpt>
      <trkpt lat="47.30017" lon="-2.51965">
        <ele>4.4000000953674</ele>
        <time>2020-06-28T08:57:28.000Z</time>
      </trkpt>
      <trkpt lat="47.30019" lon="-2.51971">
        <ele>4.4000000953674</ele>
        <time>2020-06-28T08:57:29.000Z</time>
      </trkpt>
      <trkpt lat="47.30024" lon="-2.51995">
        <ele>4.4000000953674</ele>
        <time>2020-06-28T08:57:33.000Z</time>
      </trkpt>
      <trkpt lat="47.30025" lon="-2.52002">
        <ele>4.4000000953674</ele>
        <time>2020-06-28T08:57:34.000Z</time>
      </trkpt>
      <trkpt lat="47.30027" lon="-2.52037">
        <ele>4.4000000953674</ele>
        <time>2020-06-28T08:57:40.000Z</time>
      </trkpt>
      <trkpt lat="47.30031" lon="-2.52084">
        <ele>4.4000000953674</ele>
        <time>2020-06-28T08:57:48.000Z</time>
      </trkpt>
      <trkpt lat="47.30036" lon="-2.52118">
        <ele>4.4000000953674</ele>
        <time>2020-06-28T08:57:54.000Z</time>
      </trkpt>
      <trkpt lat="47.3004" lon="-2.52164">
        <ele>4.4000000953674</ele>
        <time>2020-06-28T08:58:01.000Z</time>
      </trkpt>
      <trkpt lat="47.30044" lon="-2.5221">
        <ele>4.4000000953674</ele>
        <time>2020-06-28T08:58:08.000Z</time>
      </trkpt>
      <trkpt lat="47.30047" lon="-2.52242">
        <ele>4.4000000953674</ele>
        <time>2020-06-28T08:58:14.000Z</time>
      </trkpt>
      <trkpt lat="47.30048" lon="-2.52266">
        <ele>4.4000000953674</ele>
        <time>2020-06-28T08:58:17.000Z</time>
      </trkpt>
      <trkpt lat="47.3005" lon="-2.52274">
        <ele>4.4000000953674</ele>
        <time>2020-06-28T08:58:18.000Z</time>
      </trkpt>
      <trkpt lat="47.3005" lon="-2.52305">
        <ele>4.4000000953674</ele>
        <time>2020-06-28T08:58:22.000Z</time>
      </trkpt>
      <trkpt lat="47.30051" lon="-2.52314">
        <ele>4.4000000953674</ele>
        <time>2020-06-28T08:58:23.000Z</time>
      </trkpt>
      <trkpt lat="47.30055" lon="-2.52337">
        <ele>4.4000000953674</ele>
        <time>2020-06-28T08:58:26.000Z</time>
      </trkpt>
      <trkpt lat="47.30062" lon="-2.52384">
        <ele>4.4000000953674</ele>
        <time>2020-06-28T08:58:32.000Z</time>
      </trkpt>
      <trkpt lat="47.30067" lon="-2.52441">
        <ele>4.4000000953674</ele>
        <time>2020-06-28T08:58:40.000Z</time>
      </trkpt>
      <trkpt lat="47.30072" lon="-2.5249">
        <ele>4.4000000953674</ele>
        <time>2020-06-28T08:58:46.000Z</time>
      </trkpt>
      <trkpt lat="47.30079" lon="-2.52556">
        <ele>4.4000000953674</ele>
        <time>2020-06-28T08:58:54.000Z</time>
      </trkpt>
      <trkpt lat="47.30086" lon="-2.52605">
        <ele>4.4000000953674</ele>
        <time>2020-06-28T08:59:00.000Z</time>
      </trkpt>
      <trkpt lat="47.30093" lon="-2.52675">
        <ele>4.4000000953674</ele>
        <time>2020-06-28T08:59:09.000Z</time>
      </trkpt>
      <trkpt lat="47.30092" lon="-2.52731">
        <ele>4.4000000953674</ele>
        <time>2020-06-28T08:59:16.000Z</time>
      </trkpt>
      <trkpt lat="47.30086" lon="-2.52785">
        <ele>4.4000000953674</ele>
        <time>2020-06-28T08:59:23.000Z</time>
      </trkpt>
      <trkpt lat="47.30077" lon="-2.52847">
        <ele>4.4000000953674</ele>
        <time>2020-06-28T08:59:31.000Z</time>
      </trkpt>
      <trkpt lat="47.30062" lon="-2.52927">
        <ele>4.4000000953674</ele>
        <time>2020-06-28T08:59:41.000Z</time>
      </trkpt>
      <trkpt lat="47.30053" lon="-2.52957">
        <ele>4.8000001907349</ele>
        <time>2020-06-28T08:59:45.000Z</time>
      </trkpt>
      <trkpt lat="47.30051" lon="-2.52965">
        <ele>5.1999998092651</ele>
        <time>2020-06-28T08:59:46.000Z</time>
      </trkpt>
      <trkpt lat="47.30049" lon="-2.52972">
        <ele>5.5999999046326</ele>
        <time>2020-06-28T08:59:47.000Z</time>
      </trkpt>
      <trkpt lat="47.30047" lon="-2.5298">
        <ele>6</ele>
        <time>2020-06-28T08:59:48.000Z</time>
      </trkpt>
      <trkpt lat="47.30046" lon="-2.52988">
        <ele>6.4000000953674</ele>
        <time>2020-06-28T08:59:49.000Z</time>
      </trkpt>
      <trkpt lat="47.30037" lon="-2.53044">
        <ele>6.4000000953674</ele>
        <time>2020-06-28T08:59:56.000Z</time>
      </trkpt>
      <trkpt lat="47.30037" lon="-2.53078">
        <ele>6.4000000953674</ele>
        <time>2020-06-28T09:00:00.000Z</time>
      </trkpt>
      <trkpt lat="47.30039" lon="-2.53096">
        <ele>6.4000000953674</ele>
        <time>2020-06-28T09:00:02.000Z</time>
      </trkpt>
      <trkpt lat="47.30044" lon="-2.53166">
        <ele>6.4000000953674</ele>
        <time>2020-06-28T09:00:10.000Z</time>
      </trkpt>
      <trkpt lat="47.30047" lon="-2.5323">
        <ele>6.4000000953674</ele>
        <time>2020-06-28T09:00:17.000Z</time>
      </trkpt>
      <trkpt lat="47.30049" lon="-2.53277">
        <ele>6.4000000953674</ele>
        <time>2020-06-28T09:00:23.000Z</time>
      </trkpt>
      <trkpt lat="47.30049" lon="-2.53319">
        <ele>6.4000000953674</ele>
        <time>2020-06-28T09:00:30.000Z</time>
      </trkpt>
      <trkpt lat="47.30048" lon="-2.53327">
        <ele>6.4000000953674</ele>
        <time>2020-06-28T09:00:31.000Z</time>
      </trkpt>
      <trkpt lat="47.30045" lon="-2.53357">
        <ele>6.4000000953674</ele>
        <time>2020-06-28T09:00:35.000Z</time>
      </trkpt>
      <trkpt lat="47.3004" lon="-2.5338">
        <ele>6.4000000953674</ele>
        <time>2020-06-28T09:00:38.000Z</time>
      </trkpt>
      <trkpt lat="47.30034" lon="-2.53397">
        <ele>6.4000000953674</ele>
        <time>2020-06-28T09:00:40.000Z</time>
      </trkpt>
      <trkpt lat="47.30016" lon="-2.53437">
        <ele>6.4000000953674</ele>
        <time>2020-06-28T09:00:45.000Z</time>
      </trkpt>
      <trkpt lat="47.29977" lon="-2.53505">
        <ele>6.4000000953674</ele>
        <time>2020-06-28T09:00:54.000Z</time>
      </trkpt>
      <trkpt lat="47.29949" lon="-2.53551">
        <ele>6.4000000953674</ele>
        <time>2020-06-28T09:01:01.000Z</time>
      </trkpt>
      <trkpt lat="47.29923" lon="-2.53602">
        <ele>6.4000000953674</ele>
        <time>2020-06-28T09:01:08.000Z</time>
      </trkpt>
      <trkpt lat="47.29911" lon="-2.53645">
        <ele>6.4000000953674</ele>
        <time>2020-06-28T09:01:13.000Z</time>
      </trkpt>
      <trkpt lat="47.29907" lon="-2.53693">
        <ele>6.4000000953674</ele>
        <time>2020-06-28T09:01:19.000Z</time>
      </trkpt>
      <trkpt lat="47.29907" lon="-2.53707">
        <ele>6.4000000953674</ele>
        <time>2020-06-28T09:01:21.000Z</time>
      </trkpt>
      <trkpt lat="47.29902" lon="-2.53719">
        <ele>6.4000000953674</ele>
        <time>2020-06-28T09:01:23.000Z</time>
      </trkpt>
      <trkpt lat="47.2989" lon="-2.53735">
        <ele>6.4000000953674</ele>
        <time>2020-06-28T09:01:26.000Z</time>
      </trkpt>
      <trkpt lat="47.29882" lon="-2.53745">
        <ele>6.4000000953674</ele>
        <time>2020-06-28T09:01:28.000Z</time>
      </trkpt>
      <trkpt lat="47.29851" lon="-2.53784">
        <ele>6.4000000953674</ele>
        <time>2020-06-28T09:01:35.000Z</time>
      </trkpt>
      <trkpt lat="47.29824" lon="-2.53823">
        <ele>6.4000000953674</ele>
        <time>2020-06-28T09:01:41.000Z</time>
      </trkpt>
      <trkpt lat="47.29821" lon="-2.5383">
        <ele>6.4000000953674</ele>
        <time>2020-06-28T09:01:42.000Z</time>
      </trkpt>
      <trkpt lat="47.29816" lon="-2.53856">
        <ele>6.4000000953674</ele>
        <time>2020-06-28T09:01:45.000Z</time>
      </trkpt>
      <trkpt lat="47.2981" lon="-2.53892">
        <ele>6.4000000953674</ele>
        <time>2020-06-28T09:01:49.000Z</time>
      </trkpt>
      <trkpt lat="47.29803" lon="-2.53908">
        <ele>6.4000000953674</ele>
        <time>2020-06-28T09:01:51.000Z</time>
      </trkpt>
      <trkpt lat="47.29793" lon="-2.5393">
        <ele>6.4000000953674</ele>
        <time>2020-06-28T09:01:54.000Z</time>
      </trkpt>
      <trkpt lat="47.29783" lon="-2.53939">
        <ele>6.4000000953674</ele>
        <time>2020-06-28T09:01:56.000Z</time>
      </trkpt>
      <trkpt lat="47.29773" lon="-2.53945">
        <ele>6</ele>
        <time>2020-06-28T09:01:58.000Z</time>
      </trkpt>
      <trkpt lat="47.29767" lon="-2.53946">
        <ele>5.5999999046326</ele>
        <time>2020-06-28T09:01:59.000Z</time>
      </trkpt>
      <trkpt lat="47.29762" lon="-2.53946">
        <ele>5.1999998092651</ele>
        <time>2020-06-28T09:02:00.000Z</time>
      </trkpt>
      <trkpt lat="47.29757" lon="-2.53946">
        <ele>4.8000001907349</ele>
        <time>2020-06-28T09:02:01.000Z</time>
      </trkpt>
      <trkpt lat="47.29751" lon="-2.53946">
        <ele>4.1999998092651</ele>
        <time>2020-06-28T09:02:02.000Z</time>
      </trkpt>
      <trkpt lat="47.29729" lon="-2.53947">
        <ele>4.1999998092651</ele>
        <time>2020-06-28T09:02:06.000Z</time>
      </trkpt>
      <trkpt lat="47.29702" lon="-2.53941">
        <ele>4.1999998092651</ele>
        <time>2020-06-28T09:02:12.000Z</time>
      </trkpt>
      <trkpt lat="47.29701" lon="-2.53925">
        <ele>4.1999998092651</ele>
        <time>2020-06-28T09:02:15.000Z</time>
      </trkpt>
      <trkpt lat="47.29701" lon="-2.53911">
        <ele>4.1999998092651</ele>
        <time>2020-06-28T09:02:17.000Z</time>
      </trkpt>
      <trkpt lat="47.29701" lon="-2.53904">
        <ele>4.1999998092651</ele>
        <time>2020-06-28T09:02:18.000Z</time>
      </trkpt>
      <trkpt lat="47.29703" lon="-2.53891">
        <ele>4.1999998092651</ele>
        <time>2020-06-28T09:02:20.000Z</time>
      </trkpt>
      <trkpt lat="47.29705" lon="-2.53869">
        <ele>4.1999998092651</ele>
        <time>2020-06-28T09:02:23.000Z</time>
      </trkpt>
      <trkpt lat="47.29706" lon="-2.53853">
        <ele>4.5999999046326</ele>
        <time>2020-06-28T09:02:25.000Z</time>
      </trkpt>
      <trkpt lat="47.29707" lon="-2.53845">
        <ele>5.1999998092651</ele>
        <time>2020-06-28T09:02:26.000Z</time>
      </trkpt>
      <trkpt lat="47.29707" lon="-2.53837">
        <ele>5.5999999046326</ele>
        <time>2020-06-28T09:02:27.000Z</time>
      </trkpt>
      <trkpt lat="47.29707" lon="-2.53829">
        <ele>6</ele>
        <time>2020-06-28T09:02:28.000Z</time>
      </trkpt>
      <trkpt lat="47.29707" lon="-2.5382">
        <ele>6.4000000953674</ele>
        <time>2020-06-28T09:02:29.000Z</time>
      </trkpt>
      <trkpt lat="47.29705" lon="-2.538">
        <ele>6.4000000953674</ele>
        <time>2020-06-28T09:02:32.000Z</time>
      </trkpt>
      <trkpt lat="47.29693" lon="-2.53794">
        <ele>6.4000000953674</ele>
        <time>2020-06-28T09:02:35.000Z</time>
      </trkpt>
      <trkpt lat="47.29678" lon="-2.53792">
        <ele>6.4000000953674</ele>
        <time>2020-06-28T09:02:38.000Z</time>
      </trkpt>
      <trkpt lat="47.29667" lon="-2.53792">
        <ele>6.4000000953674</ele>
        <time>2020-06-28T09:02:40.000Z</time>
      </trkpt>
      <trkpt lat="47.29662" lon="-2.53794">
        <ele>6.4000000953674</ele>
        <time>2020-06-28T09:02:41.000Z</time>
      </trkpt>
      <trkpt lat="47.29647" lon="-2.53803">
        <ele>6.4000000953674</ele>
        <time>2020-06-28T09:02:44.000Z</time>
      </trkpt>
      <trkpt lat="47.29612" lon="-2.53831">
        <ele>6.4000000953674</ele>
        <time>2020-06-28T09:02:51.000Z</time>
      </trkpt>
      <trkpt lat="47.29574" lon="-2.53867">
        <ele>6.4000000953674</ele>
        <time>2020-06-28T09:02:59.000Z</time>
      </trkpt>
      <trkpt lat="47.2956" lon="-2.53896">
        <ele>6.4000000953674</ele>
        <time>2020-06-28T09:03:03.000Z</time>
      </trkpt>
      <trkpt lat="47.29541" lon="-2.53943">
        <ele>6.4000000953674</ele>
        <time>2020-06-28T09:03:10.000Z</time>
      </trkpt>
      <trkpt lat="47.29514" lon="-2.53988">
        <ele>6.4000000953674</ele>
        <time>2020-06-28T09:03:17.000Z</time>
      </trkpt>
      <trkpt lat="47.2948" lon="-2.54032">
        <ele>6.4000000953674</ele>
        <time>2020-06-28T09:03:25.000Z</time>
      </trkpt>
      <trkpt lat="47.2947" lon="-2.5404">
        <ele>6.8000001907349</ele>
        <time>2020-06-28T09:03:27.000Z</time>
      </trkpt>
      <trkpt lat="47.29465" lon="-2.54043">
        <ele>7.1999998092651</ele>
        <time>2020-06-28T09:03:28.000Z</time>
      </trkpt>
      <trkpt lat="47.2946" lon="-2.54046">
        <ele>7.5999999046326</ele>
        <time>2020-06-28T09:03:29.000Z</time>
      </trkpt>
      <trkpt lat="47.29455" lon="-2.54049">
        <ele>8</ele>
        <time>2020-06-28T09:03:30.000Z</time>
      </trkpt>
      <trkpt lat="47.29449" lon="-2.54052">
        <ele>8.3999996185303</ele>
        <time>2020-06-28T09:03:31.000Z</time>
      </trkpt>
      <trkpt lat="47.29423" lon="-2.54071">
        <ele>8.3999996185303</ele>
        <time>2020-06-28T09:03:36.000Z</time>
      </trkpt>
      <trkpt lat="47.29411" lon="-2.54082">
        <ele>8.3999996185303</ele>
        <time>2020-06-28T09:03:39.000Z</time>
      </trkpt>
      <trkpt lat="47.29407" lon="-2.54094">
        <ele>8.3999996185303</ele>
        <time>2020-06-28T09:03:41.000Z</time>
      </trkpt>
      <trkpt lat="47.29402" lon="-2.54122">
        <ele>8.3999996185303</ele>
        <time>2020-06-28T09:03:46.000Z</time>
      </trkpt>
      <trkpt lat="47.2939" lon="-2.54135">
        <ele>8.3999996185303</ele>
        <time>2020-06-28T09:03:49.000Z</time>
      </trkpt>
      <trkpt lat="47.2938" lon="-2.54142">
        <ele>8.3999996185303</ele>
        <time>2020-06-28T09:03:51.000Z</time>
      </trkpt>
      <trkpt lat="47.29364" lon="-2.54157">
        <ele>8.3999996185303</ele>
        <time>2020-06-28T09:03:54.000Z</time>
      </trkpt>
      <trkpt lat="47.29329" lon="-2.54186">
        <ele>8.3999996185303</ele>
        <time>2020-06-28T09:04:01.000Z</time>
      </trkpt>
      <trkpt lat="47.29288" lon="-2.5422">
        <ele>8.3999996185303</ele>
        <time>2020-06-28T09:04:09.000Z</time>
      </trkpt>
      <trkpt lat="47.29259" lon="-2.54239">
        <ele>8.3999996185303</ele>
        <time>2020-06-28T09:04:15.000Z</time>
      </trkpt>
      <trkpt lat="47.29235" lon="-2.5426">
        <ele>8.3999996185303</ele>
        <time>2020-06-28T09:04:20.000Z</time>
      </trkpt>
      <trkpt lat="47.2923" lon="-2.54264">
        <ele>8.3999996185303</ele>
        <time>2020-06-28T09:04:21.000Z</time>
      </trkpt>
      <trkpt lat="47.29203" lon="-2.54282">
        <ele>8.3999996185303</ele>
        <time>2020-06-28T09:04:26.000Z</time>
      </trkpt>
      <trkpt lat="47.29197" lon="-2.54284">
        <ele>8</ele>
        <time>2020-06-28T09:04:27.000Z</time>
      </trkpt>
      <trkpt lat="47.29192" lon="-2.54287">
        <ele>7.5999999046326</ele>
        <time>2020-06-28T09:04:28.000Z</time>
      </trkpt>
      <trkpt lat="47.29188" lon="-2.54288">
        <ele>7.1999998092651</ele>
        <time>2020-06-28T09:04:29.000Z</time>
      </trkpt>
      <trkpt lat="47.29184" lon="-2.54288">
        <ele>6.8000001907349</ele>
        <time>2020-06-28T09:04:30.000Z</time>
      </trkpt>
      <trkpt lat="47.29181" lon="-2.54288">
        <ele>6.4000000953674</ele>
        <time>2020-06-28T09:04:31.000Z</time>
      </trkpt>
      <trkpt lat="47.29163" lon="-2.54289">
        <ele>6.4000000953674</ele>
        <time>2020-06-28T09:04:36.000Z</time>
      </trkpt>
      <trkpt lat="47.29158" lon="-2.5429">
        <ele>6.4000000953674</ele>
        <time>2020-06-28T09:04:37.000Z</time>
      </trkpt>
      <trkpt lat="47.29138" lon="-2.54293">
        <ele>6.4000000953674</ele>
        <time>2020-06-28T09:04:41.000Z</time>
      </trkpt>
      <trkpt lat="47.29114" lon="-2.54292">
        <ele>6.4000000953674</ele>
        <time>2020-06-28T09:04:46.000Z</time>
      </trkpt>
      <trkpt lat="47.2911" lon="-2.54291">
        <ele>6.4000000953674</ele>
        <time>2020-06-28T09:04:47.000Z</time>
      </trkpt>
      <trkpt lat="47.29088" lon="-2.54284">
        <ele>6.4000000953674</ele>
        <time>2020-06-28T09:04:52.000Z</time>
      </trkpt>
      <trkpt lat="47.29083" lon="-2.54283">
        <ele>6.4000000953674</ele>
        <time>2020-06-28T09:04:53.000Z</time>
      </trkpt>
      <trkpt lat="47.29071" lon="-2.54278">
        <ele>6.4000000953674</ele>
        <time>2020-06-28T09:04:56.000Z</time>
      </trkpt>
      <trkpt lat="47.29062" lon="-2.54275">
        <ele>6.4000000953674</ele>
        <time>2020-06-28T09:04:58.000Z</time>
      </trkpt>
      <trkpt lat="47.29053" lon="-2.54265">
        <ele>6.4000000953674</ele>
        <time>2020-06-28T09:05:01.000Z</time>
      </trkpt>
      <trkpt lat="47.29051" lon="-2.5426">
        <ele>6.4000000953674</ele>
        <time>2020-06-28T09:05:02.000Z</time>
      </trkpt>
      <trkpt lat="47.29048" lon="-2.54246">
        <ele>6.4000000953674</ele>
        <time>2020-06-28T09:05:04.000Z</time>
      </trkpt>
      <trkpt lat="47.29049" lon="-2.54231">
        <ele>6.4000000953674</ele>
        <time>2020-06-28T09:05:06.000Z</time>
      </trkpt>
      <trkpt lat="47.29051" lon="-2.54209">
        <ele>6.4000000953674</ele>
        <time>2020-06-28T09:05:09.000Z</time>
      </trkpt>
      <trkpt lat="47.29059" lon="-2.54186">
        <ele>6.4000000953674</ele>
        <time>2020-06-28T09:05:12.000Z</time>
      </trkpt>
      <trkpt lat="47.29064" lon="-2.54171">
        <ele>6.4000000953674</ele>
        <time>2020-06-28T09:05:14.000Z</time>
      </trkpt>
      <trkpt lat="47.29069" lon="-2.54144">
        <ele>6.4000000953674</ele>
        <time>2020-06-28T09:05:17.000Z</time>
      </trkpt>
      <trkpt lat="47.29069" lon="-2.54135">
        <ele>6.4000000953674</ele>
        <time>2020-06-28T09:05:18.000Z</time>
      </trkpt>
      <trkpt lat="47.29068" lon="-2.5411">
        <ele>6.4000000953674</ele>
        <time>2020-06-28T09:05:21.000Z</time>
      </trkpt>
      <trkpt lat="47.29071" lon="-2.54088">
        <ele>6.8000001907349</ele>
        <time>2020-06-28T09:05:24.000Z</time>
      </trkpt>
      <trkpt lat="47.29073" lon="-2.54082">
        <ele>7.1999998092651</ele>
        <time>2020-06-28T09:05:25.000Z</time>
      </trkpt>
      <trkpt lat="47.29076" lon="-2.54075">
        <ele>7.5999999046326</ele>
        <time>2020-06-28T09:05:26.000Z</time>
      </trkpt>
      <trkpt lat="47.29079" lon="-2.54068">
        <ele>8</ele>
        <time>2020-06-28T09:05:27.000Z</time>
      </trkpt>
      <trkpt lat="47.29083" lon="-2.54059">
        <ele>8.3999996185303</ele>
        <time>2020-06-28T09:05:28.000Z</time>
      </trkpt>
      <trkpt lat="47.29088" lon="-2.54044">
        <ele>8.3999996185303</ele>
        <time>2020-06-28T09:05:30.000Z</time>
      </trkpt>
      <trkpt lat="47.29111" lon="-2.53979">
        <ele>8.3999996185303</ele>
        <time>2020-06-28T09:05:38.000Z</time>
      </trkpt>
      <trkpt lat="47.29117" lon="-2.53954">
        <ele>8.3999996185303</ele>
        <time>2020-06-28T09:05:41.000Z</time>
      </trkpt>
      <trkpt lat="47.29119" lon="-2.53937">
        <ele>8.3999996185303</ele>
        <time>2020-06-28T09:05:43.000Z</time>
      </trkpt>
      <trkpt lat="47.29113" lon="-2.53902">
        <ele>8.8000001907349</ele>
        <time>2020-06-28T09:05:47.000Z</time>
      </trkpt>
      <trkpt lat="47.29112" lon="-2.53893">
        <ele>9.3999996185303</ele>
        <time>2020-06-28T09:05:48.000Z</time>
      </trkpt>
      <trkpt lat="47.2911" lon="-2.53886">
        <ele>9.8000001907349</ele>
        <time>2020-06-28T09:05:49.000Z</time>
      </trkpt>
      <trkpt lat="47.29108" lon="-2.53878">
        <ele>10.199999809265</ele>
        <time>2020-06-28T09:05:50.000Z</time>
      </trkpt>
      <trkpt lat="47.29107" lon="-2.53871">
        <ele>10.60000038147</ele>
        <time>2020-06-28T09:05:51.000Z</time>
      </trkpt>
      <trkpt lat="47.29102" lon="-2.5385">
        <ele>10.60000038147</ele>
        <time>2020-06-28T09:05:54.000Z</time>
      </trkpt>
      <trkpt lat="47.29097" lon="-2.53808">
        <ele>10.60000038147</ele>
        <time>2020-06-28T09:06:00.000Z</time>
      </trkpt>
      <trkpt lat="47.29093" lon="-2.53776">
        <ele>11</ele>
        <time>2020-06-28T09:06:04.000Z</time>
      </trkpt>
      <trkpt lat="47.29093" lon="-2.53769">
        <ele>11.39999961853</ele>
        <time>2020-06-28T09:06:05.000Z</time>
      </trkpt>
      <trkpt lat="47.29093" lon="-2.53761">
        <ele>11.800000190735</ele>
        <time>2020-06-28T09:06:06.000Z</time>
      </trkpt>
      <trkpt lat="47.29093" lon="-2.53753">
        <ele>12.199999809265</ele>
        <time>2020-06-28T09:06:07.000Z</time>
      </trkpt>
      <trkpt lat="47.29093" lon="-2.53744">
        <ele>12.60000038147</ele>
        <time>2020-06-28T09:06:08.000Z</time>
      </trkpt>
      <trkpt lat="47.29095" lon="-2.53717">
        <ele>12.60000038147</ele>
        <time>2020-06-28T09:06:11.000Z</time>
      </trkpt>
      <trkpt lat="47.29097" lon="-2.53651">
        <ele>12.60000038147</ele>
        <time>2020-06-28T09:06:18.000Z</time>
      </trkpt>
      <trkpt lat="47.291" lon="-2.53582">
        <ele>12.60000038147</ele>
        <time>2020-06-28T09:06:25.000Z</time>
      </trkpt>
      <trkpt lat="47.29105" lon="-2.53541">
        <ele>12.60000038147</ele>
        <time>2020-06-28T09:06:30.000Z</time>
      </trkpt>
      <trkpt lat="47.29112" lon="-2.53534">
        <ele>12.60000038147</ele>
        <time>2020-06-28T09:06:33.000Z</time>
      </trkpt>
      <trkpt lat="47.29113" lon="-2.53534">
        <ele>12.60000038147</ele>
        <time>2020-06-28T09:06:35.000Z</time>
      </trkpt>
      <trkpt lat="47.29115" lon="-2.53531">
        <ele>12.60000038147</ele>
        <time>2020-06-28T09:06:39.000Z</time>
      </trkpt>
      <trkpt lat="47.29117" lon="-2.53531">
        <ele>12.60000038147</ele>
        <time>2020-06-28T09:06:40.000Z</time>
      </trkpt>
      <trkpt lat="47.29131" lon="-2.5352">
        <ele>12.60000038147</ele>
        <time>2020-06-28T09:06:46.000Z</time>
      </trkpt>
      <trkpt lat="47.29141" lon="-2.53504">
        <ele>12.60000038147</ele>
        <time>2020-06-28T09:06:51.000Z</time>
      </trkpt>
      <trkpt lat="47.2914" lon="-2.53477">
        <ele>12.60000038147</ele>
        <time>2020-06-28T09:06:55.000Z</time>
      </trkpt>
      <trkpt lat="47.29134" lon="-2.53406">
        <ele>12.60000038147</ele>
        <time>2020-06-28T09:07:04.000Z</time>
      </trkpt>
      <trkpt lat="47.29134" lon="-2.53397">
        <ele>12.60000038147</ele>
        <time>2020-06-28T09:07:05.000Z</time>
      </trkpt>
      <trkpt lat="47.29132" lon="-2.53373">
        <ele>12.60000038147</ele>
        <time>2020-06-28T09:07:08.000Z</time>
      </trkpt>
      <trkpt lat="47.29131" lon="-2.53344">
        <ele>12.60000038147</ele>
        <time>2020-06-28T09:07:12.000Z</time>
      </trkpt>
      <trkpt lat="47.2913" lon="-2.53322">
        <ele>12.60000038147</ele>
        <time>2020-06-28T09:07:15.000Z</time>
      </trkpt>
      <trkpt lat="47.29129" lon="-2.53314">
        <ele>12.60000038147</ele>
        <time>2020-06-28T09:07:16.000Z</time>
      </trkpt>
      <trkpt lat="47.29128" lon="-2.533">
        <ele>12.60000038147</ele>
        <time>2020-06-28T09:07:18.000Z</time>
      </trkpt>
      <trkpt lat="47.29128" lon="-2.53293">
        <ele>12.60000038147</ele>
        <time>2020-06-28T09:07:19.000Z</time>
      </trkpt>
      <trkpt lat="47.29125" lon="-2.53271">
        <ele>13</ele>
        <time>2020-06-28T09:07:22.000Z</time>
      </trkpt>
      <trkpt lat="47.29123" lon="-2.53263">
        <ele>13.39999961853</ele>
        <time>2020-06-28T09:07:23.000Z</time>
      </trkpt>
      <trkpt lat="47.2912" lon="-2.53257">
        <ele>14.199999809265</ele>
        <time>2020-06-28T09:07:24.000Z</time>
      </trkpt>
      <trkpt lat="47.29116" lon="-2.53242">
        <ele>14.60000038147</ele>
        <time>2020-06-28T09:07:26.000Z</time>
      </trkpt>
      <trkpt lat="47.29112" lon="-2.53225">
        <ele>14.60000038147</ele>
        <time>2020-06-28T09:07:28.000Z</time>
      </trkpt>
      <trkpt lat="47.29093" lon="-2.5315">
        <ele>14.60000038147</ele>
        <time>2020-06-28T09:07:37.000Z</time>
      </trkpt>
      <trkpt lat="47.29086" lon="-2.53134">
        <ele>14.60000038147</ele>
        <time>2020-06-28T09:07:39.000Z</time>
      </trkpt>
      <trkpt lat="47.2907" lon="-2.53094">
        <ele>14.60000038147</ele>
        <time>2020-06-28T09:07:44.000Z</time>
      </trkpt>
      <trkpt lat="47.29056" lon="-2.53065">
        <ele>14.60000038147</ele>
        <time>2020-06-28T09:07:48.000Z</time>
      </trkpt>
      <trkpt lat="47.29048" lon="-2.53043">
        <ele>14.60000038147</ele>
        <time>2020-06-28T09:07:51.000Z</time>
      </trkpt>
      <trkpt lat="47.29038" lon="-2.53022">
        <ele>14.60000038147</ele>
        <time>2020-06-28T09:07:54.000Z</time>
      </trkpt>
      <trkpt lat="47.29031" lon="-2.53008">
        <ele>14.60000038147</ele>
        <time>2020-06-28T09:07:56.000Z</time>
      </trkpt>
      <trkpt lat="47.29014" lon="-2.52975">
        <ele>14.60000038147</ele>
        <time>2020-06-28T09:08:01.000Z</time>
      </trkpt>
      <trkpt lat="47.29007" lon="-2.52953">
        <ele>14.60000038147</ele>
        <time>2020-06-28T09:08:04.000Z</time>
      </trkpt>
      <trkpt lat="47.28995" lon="-2.52915">
        <ele>14.60000038147</ele>
        <time>2020-06-28T09:08:09.000Z</time>
      </trkpt>
      <trkpt lat="47.28991" lon="-2.52899">
        <ele>15</ele>
        <time>2020-06-28T09:08:11.000Z</time>
      </trkpt>
      <trkpt lat="47.28988" lon="-2.52891">
        <ele>15.800000190735</ele>
        <time>2020-06-28T09:08:12.000Z</time>
      </trkpt>
      <trkpt lat="47.28984" lon="-2.52877">
        <ele>16.200000762939</ele>
        <time>2020-06-28T09:08:14.000Z</time>
      </trkpt>
      <trkpt lat="47.28983" lon="-2.52869">
        <ele>16.60000038147</ele>
        <time>2020-06-28T09:08:15.000Z</time>
      </trkpt>
      <trkpt lat="47.28982" lon="-2.52862">
        <ele>16.60000038147</ele>
        <time>2020-06-28T09:08:16.000Z</time>
      </trkpt>
      <trkpt lat="47.28977" lon="-2.52851">
        <ele>16.60000038147</ele>
        <time>2020-06-28T09:08:18.000Z</time>
      </trkpt>
      <trkpt lat="47.28972" lon="-2.5284">
        <ele>16.60000038147</ele>
        <time>2020-06-28T09:08:20.000Z</time>
      </trkpt>
      <trkpt lat="47.28963" lon="-2.52817">
        <ele>16.60000038147</ele>
        <time>2020-06-28T09:08:24.000Z</time>
      </trkpt>
      <trkpt lat="47.28958" lon="-2.52806">
        <ele>16.60000038147</ele>
        <time>2020-06-28T09:08:26.000Z</time>
      </trkpt>
      <trkpt lat="47.28954" lon="-2.52795">
        <ele>16.60000038147</ele>
        <time>2020-06-28T09:08:28.000Z</time>
      </trkpt>
      <trkpt lat="47.2895" lon="-2.52775">
        <ele>16.60000038147</ele>
        <time>2020-06-28T09:08:31.000Z</time>
      </trkpt>
      <trkpt lat="47.28947" lon="-2.52731">
        <ele>16.60000038147</ele>
        <time>2020-06-28T09:08:37.000Z</time>
      </trkpt>
      <trkpt lat="47.28946" lon="-2.52707">
        <ele>16.60000038147</ele>
        <time>2020-06-28T09:08:40.000Z</time>
      </trkpt>
      <trkpt lat="47.28942" lon="-2.52624">
        <ele>16.60000038147</ele>
        <time>2020-06-28T09:08:50.000Z</time>
      </trkpt>
      <trkpt lat="47.28938" lon="-2.52558">
        <ele>16.60000038147</ele>
        <time>2020-06-28T09:08:58.000Z</time>
      </trkpt>
      <trkpt lat="47.28938" lon="-2.52542">
        <ele>16.200000762939</ele>
        <time>2020-06-28T09:09:00.000Z</time>
      </trkpt>
      <trkpt lat="47.28938" lon="-2.52535">
        <ele>15.800000190735</ele>
        <time>2020-06-28T09:09:01.000Z</time>
      </trkpt>
      <trkpt lat="47.28937" lon="-2.52527">
        <ele>15.39999961853</ele>
        <time>2020-06-28T09:09:02.000Z</time>
      </trkpt>
      <trkpt lat="47.28936" lon="-2.5252">
        <ele>15</ele>
        <time>2020-06-28T09:09:03.000Z</time>
      </trkpt>
      <trkpt lat="47.28935" lon="-2.52513">
        <ele>14.60000038147</ele>
        <time>2020-06-28T09:09:04.000Z</time>
      </trkpt>
      <trkpt lat="47.28933" lon="-2.52505">
        <ele>14.60000038147</ele>
        <time>2020-06-28T09:09:05.000Z</time>
      </trkpt>
      <trkpt lat="47.28928" lon="-2.52493">
        <ele>14.60000038147</ele>
        <time>2020-06-28T09:09:07.000Z</time>
      </trkpt>
      <trkpt lat="47.28924" lon="-2.5248">
        <ele>14.60000038147</ele>
        <time>2020-06-28T09:09:09.000Z</time>
      </trkpt>
      <trkpt lat="47.28923" lon="-2.52472">
        <ele>14.60000038147</ele>
        <time>2020-06-28T09:09:10.000Z</time>
      </trkpt>
      <trkpt lat="47.2892" lon="-2.52452">
        <ele>14.60000038147</ele>
        <time>2020-06-28T09:09:13.000Z</time>
      </trkpt>
      <trkpt lat="47.28918" lon="-2.52439">
        <ele>14.60000038147</ele>
        <time>2020-06-28T09:09:15.000Z</time>
      </trkpt>
      <trkpt lat="47.28916" lon="-2.52427">
        <ele>14.60000038147</ele>
        <time>2020-06-28T09:09:17.000Z</time>
      </trkpt>
      <trkpt lat="47.28913" lon="-2.5241">
        <ele>14.60000038147</ele>
        <time>2020-06-28T09:09:20.000Z</time>
      </trkpt>
      <trkpt lat="47.28909" lon="-2.52377">
        <ele>14.60000038147</ele>
        <time>2020-06-28T09:09:26.000Z</time>
      </trkpt>
      <trkpt lat="47.28909" lon="-2.52343">
        <ele>14.60000038147</ele>
        <time>2020-06-28T09:09:32.000Z</time>
      </trkpt>
      <trkpt lat="47.28907" lon="-2.523">
        <ele>14.60000038147</ele>
        <time>2020-06-28T09:09:39.000Z</time>
      </trkpt>
      <trkpt lat="47.28907" lon="-2.52294">
        <ele>14.60000038147</ele>
        <time>2020-06-28T09:09:40.000Z</time>
      </trkpt>
      <trkpt lat="47.28907" lon="-2.52264">
        <ele>14.60000038147</ele>
        <time>2020-06-28T09:09:45.000Z</time>
      </trkpt>
      <trkpt lat="47.28904" lon="-2.5223">
        <ele>14.60000038147</ele>
        <time>2020-06-28T09:09:52.000Z</time>
      </trkpt>
      <trkpt lat="47.28896" lon="-2.52212">
        <ele>14.60000038147</ele>
        <time>2020-06-28T09:09:56.000Z</time>
      </trkpt>
      <trkpt lat="47.28881" lon="-2.52171">
        <ele>14.60000038147</ele>
        <time>2020-06-28T09:10:03.000Z</time>
      </trkpt>
      <trkpt lat="47.28866" lon="-2.52132">
        <ele>14.60000038147</ele>
        <time>2020-06-28T09:10:10.000Z</time>
      </trkpt>
      <trkpt lat="47.28861" lon="-2.52109">
        <ele>14.60000038147</ele>
        <time>2020-06-28T09:10:14.000Z</time>
      </trkpt>
      <trkpt lat="47.28859" lon="-2.52102">
        <ele>14.60000038147</ele>
        <time>2020-06-28T09:10:15.000Z</time>
      </trkpt>
      <trkpt lat="47.28833" lon="-2.52043">
        <ele>14.60000038147</ele>
        <time>2020-06-28T09:10:23.000Z</time>
      </trkpt>
      <trkpt lat="47.28811" lon="-2.51992">
        <ele>14.60000038147</ele>
        <time>2020-06-28T09:10:30.000Z</time>
      </trkpt>
      <trkpt lat="47.28793" lon="-2.51947">
        <ele>14.60000038147</ele>
        <time>2020-06-28T09:10:36.000Z</time>
      </trkpt>
      <trkpt lat="47.28789" lon="-2.51941">
        <ele>14.60000038147</ele>
        <time>2020-06-28T09:10:37.000Z</time>
      </trkpt>
      <trkpt lat="47.28773" lon="-2.51913">
        <ele>14.60000038147</ele>
        <time>2020-06-28T09:10:41.000Z</time>
      </trkpt>
      <trkpt lat="47.28771" lon="-2.51905">
        <ele>14.60000038147</ele>
        <time>2020-06-28T09:10:42.000Z</time>
      </trkpt>
      <trkpt lat="47.28767" lon="-2.51881">
        <ele>14.199999809265</ele>
        <time>2020-06-28T09:10:45.000Z</time>
      </trkpt>
      <trkpt lat="47.28769" lon="-2.51873">
        <ele>13.800000190735</ele>
        <time>2020-06-28T09:10:46.000Z</time>
      </trkpt>
      <trkpt lat="47.28771" lon="-2.51868">
        <ele>13.39999961853</ele>
        <time>2020-06-28T09:10:47.000Z</time>
      </trkpt>
      <trkpt lat="47.28774" lon="-2.51864">
        <ele>13</ele>
        <time>2020-06-28T09:10:48.000Z</time>
      </trkpt>
      <trkpt lat="47.28777" lon="-2.51861">
        <ele>12.60000038147</ele>
        <time>2020-06-28T09:10:49.000Z</time>
      </trkpt>
      <trkpt lat="47.28792" lon="-2.51856">
        <ele>12.60000038147</ele>
        <time>2020-06-28T09:10:52.000Z</time>
      </trkpt>
      <trkpt lat="47.28798" lon="-2.51855">
        <ele>12.60000038147</ele>
        <time>2020-06-28T09:10:53.000Z</time>
      </trkpt>
      <trkpt lat="47.28837" lon="-2.51854">
        <ele>12.60000038147</ele>
        <time>2020-06-28T09:10:59.000Z</time>
      </trkpt>
      <trkpt lat="47.28886" lon="-2.51855">
        <ele>12.60000038147</ele>
        <time>2020-06-28T09:11:07.000Z</time>
      </trkpt>
      <trkpt lat="47.28914" lon="-2.51856">
        <ele>12.60000038147</ele>
        <time>2020-06-28T09:11:13.000Z</time>
      </trkpt>
      <trkpt lat="47.28918" lon="-2.51856">
        <ele>12.60000038147</ele>
        <time>2020-06-28T09:11:14.000Z</time>
      </trkpt>
      <trkpt lat="47.28934" lon="-2.5185">
        <ele>12.60000038147</ele>
        <time>2020-06-28T09:11:18.000Z</time>
      </trkpt>
      <trkpt lat="47.28941" lon="-2.51833">
        <ele>12.60000038147</ele>
        <time>2020-06-28T09:11:23.000Z</time>
      </trkpt>
      <trkpt lat="47.2894" lon="-2.5183">
        <ele>12.60000038147</ele>
        <time>2020-06-28T09:11:25.000Z</time>
      </trkpt>
      <trkpt lat="47.2894" lon="-2.51828">
        <ele>12.60000038147</ele>
        <time>2020-06-28T09:11:26.000Z</time>
      </trkpt>
      <trkpt lat="47.28939" lon="-2.51826">
        <ele>12.60000038147</ele>
        <time>2020-06-28T09:11:28.000Z</time>
      </trkpt>
      <trkpt lat="47.28939" lon="-2.51825">
        <ele>12.60000038147</ele>
        <time>2020-06-28T09:11:30.000Z</time>
      </trkpt>
      <trkpt lat="47.28937" lon="-2.51822">
        <ele>12.60000038147</ele>
        <time>2020-06-28T09:11:35.000Z</time>
      </trkpt>
      <trkpt lat="47.28936" lon="-2.51821">
        <ele>12.60000038147</ele>
        <time>2020-06-28T09:11:36.000Z</time>
      </trkpt>
      <trkpt lat="47.2893" lon="-2.51825">
        <ele>12.60000038147</ele>
        <time>2020-06-28T09:11:39.000Z</time>
      </trkpt>
      <trkpt lat="47.28919" lon="-2.51837">
        <ele>12.60000038147</ele>
        <time>2020-06-28T09:11:43.000Z</time>
      </trkpt>
      <trkpt lat="47.28907" lon="-2.51836">
        <ele>12.60000038147</ele>
        <time>2020-06-28T09:11:46.000Z</time>
      </trkpt>
      <trkpt lat="47.28899" lon="-2.51833">
        <ele>12.60000038147</ele>
        <time>2020-06-28T09:11:48.000Z</time>
      </trkpt>
      <trkpt lat="47.2887" lon="-2.51825">
        <ele>12.60000038147</ele>
        <time>2020-06-28T09:11:55.000Z</time>
      </trkpt>
      <trkpt lat="47.28844" lon="-2.51815">
        <ele>12.60000038147</ele>
        <time>2020-06-28T09:12:02.000Z</time>
      </trkpt>
      <trkpt lat="47.28811" lon="-2.51819">
        <ele>12.60000038147</ele>
        <time>2020-06-28T09:12:10.000Z</time>
      </trkpt>
      <trkpt lat="47.28776" lon="-2.51822">
        <ele>12.60000038147</ele>
        <time>2020-06-28T09:12:16.000Z</time>
      </trkpt>
      <trkpt lat="47.28739" lon="-2.51831">
        <ele>12.60000038147</ele>
        <time>2020-06-28T09:12:22.000Z</time>
      </trkpt>
      <trkpt lat="47.28705" lon="-2.51831">
        <ele>12.60000038147</ele>
        <time>2020-06-28T09:12:28.000Z</time>
      </trkpt>
      <trkpt lat="47.2867" lon="-2.51815">
        <ele>12.60000038147</ele>
        <time>2020-06-28T09:12:34.000Z</time>
      </trkpt>
      <trkpt lat="47.28648" lon="-2.51796">
        <ele>12.60000038147</ele>
        <time>2020-06-28T09:12:38.000Z</time>
      </trkpt>
      <trkpt lat="47.28637" lon="-2.51787">
        <ele>12.60000038147</ele>
        <time>2020-06-28T09:12:40.000Z</time>
      </trkpt>
      <trkpt lat="47.28621" lon="-2.5177">
        <ele>12.199999809265</ele>
        <time>2020-06-28T09:12:43.000Z</time>
      </trkpt>
      <trkpt lat="47.28616" lon="-2.51765">
        <ele>11.800000190735</ele>
        <time>2020-06-28T09:12:44.000Z</time>
      </trkpt>
      <trkpt lat="47.28612" lon="-2.51761">
        <ele>11.199999809265</ele>
        <time>2020-06-28T09:12:45.000Z</time>
      </trkpt>
      <trkpt lat="47.28608" lon="-2.51757">
        <ele>10.800000190735</ele>
        <time>2020-06-28T09:12:46.000Z</time>
      </trkpt>
      <trkpt lat="47.28603" lon="-2.51753">
        <ele>10.39999961853</ele>
        <time>2020-06-28T09:12:47.000Z</time>
      </trkpt>
      <trkpt lat="47.28596" lon="-2.51737">
        <ele>10.39999961853</ele>
        <time>2020-06-28T09:12:49.000Z</time>
      </trkpt>
      <trkpt lat="47.28594" lon="-2.5172">
        <ele>10.39999961853</ele>
        <time>2020-06-28T09:12:51.000Z</time>
      </trkpt>
      <trkpt lat="47.28593" lon="-2.51692">
        <ele>10.39999961853</ele>
        <time>2020-06-28T09:12:54.000Z</time>
      </trkpt>
      <trkpt lat="47.28593" lon="-2.51683">
        <ele>10.39999961853</ele>
        <time>2020-06-28T09:12:55.000Z</time>
      </trkpt>
      <trkpt lat="47.2859" lon="-2.51667">
        <ele>10.39999961853</ele>
        <time>2020-06-28T09:12:57.000Z</time>
      </trkpt>
      <trkpt lat="47.28583" lon="-2.51651">
        <ele>10.39999961853</ele>
        <time>2020-06-28T09:12:59.000Z</time>
      </trkpt>
      <trkpt lat="47.28563" lon="-2.51604">
        <ele>10.39999961853</ele>
        <time>2020-06-28T09:13:05.000Z</time>
      </trkpt>
      <trkpt lat="47.28561" lon="-2.51597">
        <ele>10</ele>
        <time>2020-06-28T09:13:06.000Z</time>
      </trkpt>
      <trkpt lat="47.2856" lon="-2.51589">
        <ele>9.6000003814697</ele>
        <time>2020-06-28T09:13:07.000Z</time>
      </trkpt>
      <trkpt lat="47.2856" lon="-2.51581">
        <ele>9.1999998092651</ele>
        <time>2020-06-28T09:13:08.000Z</time>
      </trkpt>
      <trkpt lat="47.2856" lon="-2.51573">
        <ele>8.8000001907349</ele>
        <time>2020-06-28T09:13:09.000Z</time>
      </trkpt>
      <trkpt lat="47.2856" lon="-2.51565">
        <ele>8.3999996185303</ele>
        <time>2020-06-28T09:13:10.000Z</time>
      </trkpt>
      <trkpt lat="47.2856" lon="-2.51535">
        <ele>8.3999996185303</ele>
        <time>2020-06-28T09:13:14.000Z</time>
      </trkpt>
      <trkpt lat="47.28554" lon="-2.51526">
        <ele>8.3999996185303</ele>
        <time>2020-06-28T09:13:16.000Z</time>
      </trkpt>
      <trkpt lat="47.28537" lon="-2.51519">
        <ele>8.3999996185303</ele>
        <time>2020-06-28T09:13:20.000Z</time>
      </trkpt>
      <trkpt lat="47.28528" lon="-2.51511">
        <ele>8.3999996185303</ele>
        <time>2020-06-28T09:13:23.000Z</time>
      </trkpt>
      <trkpt lat="47.28523" lon="-2.51506">
        <ele>8.3999996185303</ele>
        <time>2020-06-28T09:13:25.000Z</time>
      </trkpt>
      <trkpt lat="47.28518" lon="-2.515">
        <ele>8.3999996185303</ele>
        <time>2020-06-28T09:13:27.000Z</time>
      </trkpt>
      <trkpt lat="47.28511" lon="-2.51489">
        <ele>8.3999996185303</ele>
        <time>2020-06-28T09:13:29.000Z</time>
      </trkpt>
      <trkpt lat="47.28507" lon="-2.51484">
        <ele>8.3999996185303</ele>
        <time>2020-06-28T09:13:30.000Z</time>
      </trkpt>
      <trkpt lat="47.2849" lon="-2.51464">
        <ele>8.3999996185303</ele>
        <time>2020-06-28T09:13:34.000Z</time>
      </trkpt>
      <trkpt lat="47.28463" lon="-2.51435">
        <ele>8.3999996185303</ele>
        <time>2020-06-28T09:13:41.000Z</time>
      </trkpt>
      <trkpt lat="47.28459" lon="-2.5143">
        <ele>8.3999996185303</ele>
        <time>2020-06-28T09:13:42.000Z</time>
      </trkpt>
      <trkpt lat="47.2845" lon="-2.51412">
        <ele>8.3999996185303</ele>
        <time>2020-06-28T09:13:45.000Z</time>
      </trkpt>
      <trkpt lat="47.28447" lon="-2.51404">
        <ele>8.3999996185303</ele>
        <time>2020-06-28T09:13:46.000Z</time>
      </trkpt>
      <trkpt lat="47.28442" lon="-2.51372">
        <ele>8.3999996185303</ele>
        <time>2020-06-28T09:13:50.000Z</time>
      </trkpt>
      <trkpt lat="47.28439" lon="-2.51339">
        <ele>8.3999996185303</ele>
        <time>2020-06-28T09:13:54.000Z</time>
      </trkpt>
      <trkpt lat="47.28435" lon="-2.51324">
        <ele>8.3999996185303</ele>
        <time>2020-06-28T09:13:56.000Z</time>
      </trkpt>
      <trkpt lat="47.28429" lon="-2.5131">
        <ele>8.3999996185303</ele>
        <time>2020-06-28T09:13:58.000Z</time>
      </trkpt>
      <trkpt lat="47.28419" lon="-2.51289">
        <ele>8.3999996185303</ele>
        <time>2020-06-28T09:14:01.000Z</time>
      </trkpt>
      <trkpt lat="47.28411" lon="-2.51276">
        <ele>8.3999996185303</ele>
        <time>2020-06-28T09:14:03.000Z</time>
      </trkpt>
      <trkpt lat="47.284" lon="-2.51265">
        <ele>8.3999996185303</ele>
        <time>2020-06-28T09:14:05.000Z</time>
      </trkpt>
      <trkpt lat="47.28352" lon="-2.51234">
        <ele>8.3999996185303</ele>
        <time>2020-06-28T09:14:13.000Z</time>
      </trkpt>
      <trkpt lat="47.28317" lon="-2.51209">
        <ele>8.3999996185303</ele>
        <time>2020-06-28T09:14:19.000Z</time>
      </trkpt>
      <trkpt lat="47.28312" lon="-2.51204">
        <ele>8.3999996185303</ele>
        <time>2020-06-28T09:14:20.000Z</time>
      </trkpt>
      <trkpt lat="47.28296" lon="-2.51176">
        <ele>8.3999996185303</ele>
        <time>2020-06-28T09:14:24.000Z</time>
      </trkpt>
      <trkpt lat="47.28281" lon="-2.51127">
        <ele>8.3999996185303</ele>
        <time>2020-06-28T09:14:30.000Z</time>
      </trkpt>
      <trkpt lat="47.28261" lon="-2.51071">
        <ele>8.3999996185303</ele>
        <time>2020-06-28T09:14:37.000Z</time>
      </trkpt>
      <trkpt lat="47.28248" lon="-2.51021">
        <ele>8.3999996185303</ele>
        <time>2020-06-28T09:14:42.000Z</time>
      </trkpt>
      <trkpt lat="47.28242" lon="-2.50985">
        <ele>8.3999996185303</ele>
        <time>2020-06-28T09:14:45.000Z</time>
      </trkpt>
      <trkpt lat="47.28239" lon="-2.50961">
        <ele>8.3999996185303</ele>
        <time>2020-06-28T09:14:47.000Z</time>
      </trkpt>
      <trkpt lat="47.28225" lon="-2.50875">
        <ele>8.3999996185303</ele>
        <time>2020-06-28T09:14:54.000Z</time>
      </trkpt>
      <trkpt lat="47.28214" lon="-2.50819">
        <ele>8.3999996185303</ele>
        <time>2020-06-28T09:14:59.000Z</time>
      </trkpt>
      <trkpt lat="47.28209" lon="-2.50759">
        <ele>8.3999996185303</ele>
        <time>2020-06-28T09:15:05.000Z</time>
      </trkpt>
      <trkpt lat="47.28211" lon="-2.50703">
        <ele>8.3999996185303</ele>
        <time>2020-06-28T09:15:10.000Z</time>
      </trkpt>
      <trkpt lat="47.28223" lon="-2.50637">
        <ele>8.3999996185303</ele>
        <time>2020-06-28T09:15:16.000Z</time>
      </trkpt>
      <trkpt lat="47.28242" lon="-2.50564">
        <ele>8.3999996185303</ele>
        <time>2020-06-28T09:15:23.000Z</time>
      </trkpt>
      <trkpt lat="47.28262" lon="-2.50486">
        <ele>8.3999996185303</ele>
        <time>2020-06-28T09:15:30.000Z</time>
      </trkpt>
      <trkpt lat="47.28281" lon="-2.50405">
        <ele>8.3999996185303</ele>
        <time>2020-06-28T09:15:37.000Z</time>
      </trkpt>
      <trkpt lat="47.28282" lon="-2.50393">
        <ele>8.3999996185303</ele>
        <time>2020-06-28T09:15:38.000Z</time>
      </trkpt>
      <trkpt lat="47.28289" lon="-2.50326">
        <ele>7.8000001907349</ele>
        <time>2020-06-28T09:15:44.000Z</time>
      </trkpt>
      <trkpt lat="47.28289" lon="-2.50314">
        <ele>7.4000000953674</ele>
        <time>2020-06-28T09:15:45.000Z</time>
      </trkpt>
      <trkpt lat="47.28289" lon="-2.50303">
        <ele>7</ele>
        <time>2020-06-28T09:15:46.000Z</time>
      </trkpt>
      <trkpt lat="47.28288" lon="-2.50291">
        <ele>6.5999999046326</ele>
        <time>2020-06-28T09:15:47.000Z</time>
      </trkpt>
      <trkpt lat="47.28285" lon="-2.5028">
        <ele>6.1999998092651</ele>
        <time>2020-06-28T09:15:48.000Z</time>
      </trkpt>
      <trkpt lat="47.28268" lon="-2.50256">
        <ele>6.1999998092651</ele>
        <time>2020-06-28T09:15:51.000Z</time>
      </trkpt>
      <trkpt lat="47.28261" lon="-2.50249">
        <ele>6.1999998092651</ele>
        <time>2020-06-28T09:15:52.000Z</time>
      </trkpt>
      <trkpt lat="47.28235" lon="-2.50218">
        <ele>6.1999998092651</ele>
        <time>2020-06-28T09:15:56.000Z</time>
      </trkpt>
      <trkpt lat="47.28211" lon="-2.50168">
        <ele>6.1999998092651</ele>
        <time>2020-06-28T09:16:01.000Z</time>
      </trkpt>
      <trkpt lat="47.28194" lon="-2.50096">
        <ele>6.1999998092651</ele>
        <time>2020-06-28T09:16:07.000Z</time>
      </trkpt>
      <trkpt lat="47.28193" lon="-2.50085">
        <ele>6.5999999046326</ele>
        <time>2020-06-28T09:16:08.000Z</time>
      </trkpt>
      <trkpt lat="47.28191" lon="-2.50074">
        <ele>7</ele>
        <time>2020-06-28T09:16:09.000Z</time>
      </trkpt>
      <trkpt lat="47.28189" lon="-2.50063">
        <ele>7.4000000953674</ele>
        <time>2020-06-28T09:16:10.000Z</time>
      </trkpt>
      <trkpt lat="47.28188" lon="-2.50053">
        <ele>8</ele>
        <time>2020-06-28T09:16:11.000Z</time>
      </trkpt>
      <trkpt lat="47.28186" lon="-2.50044">
        <ele>8.3999996185303</ele>
        <time>2020-06-28T09:16:12.000Z</time>
      </trkpt>
      <trkpt lat="47.28184" lon="-2.50033">
        <ele>8.3999996185303</ele>
        <time>2020-06-28T09:16:13.000Z</time>
      </trkpt>
      <trkpt lat="47.28176" lon="-2.49981">
        <ele>8.3999996185303</ele>
        <time>2020-06-28T09:16:18.000Z</time>
      </trkpt>
      <trkpt lat="47.28163" lon="-2.49899">
        <ele>8.3999996185303</ele>
        <time>2020-06-28T09:16:26.000Z</time>
      </trkpt>
      <trkpt lat="47.28162" lon="-2.49889">
        <ele>8.3999996185303</ele>
        <time>2020-06-28T09:16:27.000Z</time>
      </trkpt>
      <trkpt lat="47.2816" lon="-2.49878">
        <ele>8</ele>
        <time>2020-06-28T09:16:28.000Z</time>
      </trkpt>
      <trkpt lat="47.28159" lon="-2.49868">
        <ele>7.5999999046326</ele>
        <time>2020-06-28T09:16:29.000Z</time>
      </trkpt>
      <trkpt lat="47.28158" lon="-2.49858">
        <ele>6.8000001907349</ele>
        <time>2020-06-28T09:16:30.000Z</time>
      </trkpt>
      <trkpt lat="47.28156" lon="-2.49848">
        <ele>6.4000000953674</ele>
        <time>2020-06-28T09:16:31.000Z</time>
      </trkpt>
      <trkpt lat="47.28149" lon="-2.498">
        <ele>6.4000000953674</ele>
        <time>2020-06-28T09:16:36.000Z</time>
      </trkpt>
      <trkpt lat="47.28139" lon="-2.49728">
        <ele>6.4000000953674</ele>
        <time>2020-06-28T09:16:44.000Z</time>
      </trkpt>
      <trkpt lat="47.28135" lon="-2.497">
        <ele>6.8000001907349</ele>
        <time>2020-06-28T09:16:47.000Z</time>
      </trkpt>
      <trkpt lat="47.28133" lon="-2.4969">
        <ele>7.1999998092651</ele>
        <time>2020-06-28T09:16:48.000Z</time>
      </trkpt>
      <trkpt lat="47.28132" lon="-2.4968">
        <ele>7.5999999046326</ele>
        <time>2020-06-28T09:16:49.000Z</time>
      </trkpt>
      <trkpt lat="47.2813" lon="-2.49671">
        <ele>8</ele>
        <time>2020-06-28T09:16:50.000Z</time>
      </trkpt>
      <trkpt lat="47.28128" lon="-2.49661">
        <ele>8.3999996185303</ele>
        <time>2020-06-28T09:16:51.000Z</time>
      </trkpt>
      <trkpt lat="47.28126" lon="-2.49652">
        <ele>8.3999996185303</ele>
        <time>2020-06-28T09:16:52.000Z</time>
      </trkpt>
      <trkpt lat="47.2812" lon="-2.49636">
        <ele>8.3999996185303</ele>
        <time>2020-06-28T09:16:54.000Z</time>
      </trkpt>
      <trkpt lat="47.28112" lon="-2.49622">
        <ele>8.3999996185303</ele>
        <time>2020-06-28T09:16:56.000Z</time>
      </trkpt>
      <trkpt lat="47.28101" lon="-2.49611">
        <ele>8.3999996185303</ele>
        <time>2020-06-28T09:16:58.000Z</time>
      </trkpt>
      <trkpt lat="47.28089" lon="-2.49599">
        <ele>8.8000001907349</ele>
        <time>2020-06-28T09:17:00.000Z</time>
      </trkpt>
      <trkpt lat="47.28084" lon="-2.49593">
        <ele>9.1999998092651</ele>
        <time>2020-06-28T09:17:01.000Z</time>
      </trkpt>
      <trkpt lat="47.28078" lon="-2.49586">
        <ele>9.8000001907349</ele>
        <time>2020-06-28T09:17:02.000Z</time>
      </trkpt>
      <trkpt lat="47.28073" lon="-2.49579">
        <ele>10.199999809265</ele>
        <time>2020-06-28T09:17:03.000Z</time>
      </trkpt>
      <trkpt lat="47.28068" lon="-2.49572">
        <ele>10.60000038147</ele>
        <time>2020-06-28T09:17:04.000Z</time>
      </trkpt>
      <trkpt lat="47.28054" lon="-2.49552">
        <ele>10.199999809265</ele>
        <time>2020-06-28T09:17:07.000Z</time>
      </trkpt>
      <trkpt lat="47.2805" lon="-2.49545">
        <ele>9.8000001907349</ele>
        <time>2020-06-28T09:17:09.000Z</time>
      </trkpt>
      <trkpt lat="47.28045" lon="-2.49539">
        <ele>9.3999996185303</ele>
        <time>2020-06-28T09:17:10.000Z</time>
      </trkpt>
      <trkpt lat="47.28041" lon="-2.49533">
        <ele>9</ele>
        <time>2020-06-28T09:17:11.000Z</time>
      </trkpt>
      <trkpt lat="47.28037" lon="-2.49526">
        <ele>8.6000003814697</ele>
        <time>2020-06-28T09:17:12.000Z</time>
      </trkpt>
      <trkpt lat="47.28032" lon="-2.49516">
        <ele>8.6000003814697</ele>
        <time>2020-06-28T09:17:14.000Z</time>
      </trkpt>
      <trkpt lat="47.28028" lon="-2.49505">
        <ele>8.6000003814697</ele>
        <time>2020-06-28T09:17:18.000Z</time>
      </trkpt>
      <trkpt lat="47.28028" lon="-2.49504">
        <ele>8.6000003814697</ele>
        <time>2020-06-28T09:17:19.000Z</time>
      </trkpt>
      <trkpt lat="47.28028" lon="-2.49485">
        <ele>8.6000003814697</ele>
        <time>2020-06-28T09:17:39.000Z</time>
      </trkpt>
      <trkpt lat="47.28028" lon="-2.49482">
        <ele>8.6000003814697</ele>
        <time>2020-06-28T09:17:40.000Z</time>
      </trkpt>
      <trkpt lat="47.28027" lon="-2.49466">
        <ele>8.6000003814697</ele>
        <time>2020-06-28T09:17:43.000Z</time>
      </trkpt>
      <trkpt lat="47.28026" lon="-2.4946">
        <ele>8.6000003814697</ele>
        <time>2020-06-28T09:17:44.000Z</time>
      </trkpt>
      <trkpt lat="47.28016" lon="-2.49428">
        <ele>8.6000003814697</ele>
        <time>2020-06-28T09:17:50.000Z</time>
      </trkpt>
      <trkpt lat="47.28013" lon="-2.49405">
        <ele>8.6000003814697</ele>
        <time>2020-06-28T09:17:54.000Z</time>
      </trkpt>
      <trkpt lat="47.28013" lon="-2.49398">
        <ele>8.6000003814697</ele>
        <time>2020-06-28T09:17:55.000Z</time>
      </trkpt>
      <trkpt lat="47.28011" lon="-2.49376">
        <ele>8.6000003814697</ele>
        <time>2020-06-28T09:17:58.000Z</time>
      </trkpt>
      <trkpt lat="47.28007" lon="-2.49363">
        <ele>8.6000003814697</ele>
        <time>2020-06-28T09:18:00.000Z</time>
      </trkpt>
      <trkpt lat="47.28004" lon="-2.4935">
        <ele>8.6000003814697</ele>
        <time>2020-06-28T09:18:02.000Z</time>
      </trkpt>
      <trkpt lat="47.28002" lon="-2.49337">
        <ele>8.6000003814697</ele>
        <time>2020-06-28T09:18:04.000Z</time>
      </trkpt>
      <trkpt lat="47.27999" lon="-2.49329">
        <ele>8.6000003814697</ele>
        <time>2020-06-28T09:18:05.000Z</time>
      </trkpt>
      <trkpt lat="47.27994" lon="-2.49312">
        <ele>8.6000003814697</ele>
        <time>2020-06-28T09:18:07.000Z</time>
      </trkpt>
      <trkpt lat="47.27988" lon="-2.49286">
        <ele>8.6000003814697</ele>
        <time>2020-06-28T09:18:10.000Z</time>
      </trkpt>
      <trkpt lat="47.27984" lon="-2.49252">
        <ele>8.6000003814697</ele>
        <time>2020-06-28T09:18:14.000Z</time>
      </trkpt>
      <trkpt lat="47.27983" lon="-2.49244">
        <ele>8.6000003814697</ele>
        <time>2020-06-28T09:18:15.000Z</time>
      </trkpt>
      <trkpt lat="47.27975" lon="-2.49213">
        <ele>8.6000003814697</ele>
        <time>2020-06-28T09:18:19.000Z</time>
      </trkpt>
      <trkpt lat="47.27974" lon="-2.49205">
        <ele>8.6000003814697</ele>
        <time>2020-06-28T09:18:20.000Z</time>
      </trkpt>
      <trkpt lat="47.27965" lon="-2.49164">
        <ele>8.1999998092651</ele>
        <time>2020-06-28T09:18:26.000Z</time>
      </trkpt>
      <trkpt lat="47.27964" lon="-2.49157">
        <ele>7.8000001907349</ele>
        <time>2020-06-28T09:18:27.000Z</time>
      </trkpt>
      <trkpt lat="47.27964" lon="-2.4915">
        <ele>7.4000000953674</ele>
        <time>2020-06-28T09:18:28.000Z</time>
      </trkpt>
      <trkpt lat="47.27964" lon="-2.49143">
        <ele>6.5999999046326</ele>
        <time>2020-06-28T09:18:29.000Z</time>
      </trkpt>
      <trkpt lat="47.27965" lon="-2.49136">
        <ele>6.5999999046326</ele>
        <time>2020-06-28T09:18:30.000Z</time>
      </trkpt>
      <trkpt lat="47.27966" lon="-2.49121">
        <ele>6.5999999046326</ele>
        <time>2020-06-28T09:18:32.000Z</time>
      </trkpt>
      <trkpt lat="47.27968" lon="-2.49107">
        <ele>6.5999999046326</ele>
        <time>2020-06-28T09:18:34.000Z</time>
      </trkpt>
      <trkpt lat="47.2797" lon="-2.491">
        <ele>6.5999999046326</ele>
        <time>2020-06-28T09:18:35.000Z</time>
      </trkpt>
      <trkpt lat="47.27974" lon="-2.49087">
        <ele>6.5999999046326</ele>
        <time>2020-06-28T09:18:37.000Z</time>
      </trkpt>
      <trkpt lat="47.27985" lon="-2.49072">
        <ele>6.5999999046326</ele>
        <time>2020-06-28T09:18:40.000Z</time>
      </trkpt>
      <trkpt lat="47.27989" lon="-2.49069">
        <ele>6.5999999046326</ele>
        <time>2020-06-28T09:18:41.000Z</time>
      </trkpt>
      <trkpt lat="47.27994" lon="-2.49066">
        <ele>6.5999999046326</ele>
        <time>2020-06-28T09:18:42.000Z</time>
      </trkpt>
      <trkpt lat="47.28002" lon="-2.49062">
        <ele>6.5999999046326</ele>
        <time>2020-06-28T09:18:44.000Z</time>
      </trkpt>
      <trkpt lat="47.28007" lon="-2.49059">
        <ele>6.5999999046326</ele>
        <time>2020-06-28T09:18:45.000Z</time>
      </trkpt>
      <trkpt lat="47.28009" lon="-2.49048">
        <ele>6.5999999046326</ele>
        <time>2020-06-28T09:18:47.000Z</time>
      </trkpt>
      <trkpt lat="47.28005" lon="-2.49021">
        <ele>6.5999999046326</ele>
        <time>2020-06-28T09:18:51.000Z</time>
      </trkpt>
      <trkpt lat="47.28002" lon="-2.49008">
        <ele>6.5999999046326</ele>
        <time>2020-06-28T09:18:53.000Z</time>
      </trkpt>
      <trkpt lat="47.27996" lon="-2.48978">
        <ele>6.5999999046326</ele>
        <time>2020-06-28T09:18:57.000Z</time>
      </trkpt>
      <trkpt lat="47.27994" lon="-2.48963">
        <ele>6.5999999046326</ele>
        <time>2020-06-28T09:18:59.000Z</time>
      </trkpt>
      <trkpt lat="47.2799" lon="-2.48933">
        <ele>6.5999999046326</ele>
        <time>2020-06-28T09:19:03.000Z</time>
      </trkpt>
      <trkpt lat="47.27986" lon="-2.48894">
        <ele>6.5999999046326</ele>
        <time>2020-06-28T09:19:09.000Z</time>
      </trkpt>
      <trkpt lat="47.27986" lon="-2.48874">
        <ele>6.5999999046326</ele>
        <time>2020-06-28T09:19:14.000Z</time>
      </trkpt>
      <trkpt lat="47.27987" lon="-2.48856">
        <ele>6.5999999046326</ele>
        <time>2020-06-28T09:19:19.000Z</time>
      </trkpt>
      <trkpt lat="47.27986" lon="-2.48851">
        <ele>7</ele>
        <time>2020-06-28T09:19:21.000Z</time>
      </trkpt>
      <trkpt lat="47.27985" lon="-2.48849">
        <ele>7.4000000953674</ele>
        <time>2020-06-28T09:19:22.000Z</time>
      </trkpt>
      <trkpt lat="47.27983" lon="-2.48845">
        <ele>7.8000001907349</ele>
        <time>2020-06-28T09:19:23.000Z</time>
      </trkpt>
      <trkpt lat="47.27982" lon="-2.48841">
        <ele>8.1999998092651</ele>
        <time>2020-06-28T09:19:24.000Z</time>
      </trkpt>
      <trkpt lat="47.2798" lon="-2.48838">
        <ele>8.6000003814697</ele>
        <time>2020-06-28T09:19:25.000Z</time>
      </trkpt>
      <trkpt lat="47.27979" lon="-2.48818">
        <ele>8.6000003814697</ele>
        <time>2020-06-28T09:19:30.000Z</time>
      </trkpt>
      <trkpt lat="47.2798" lon="-2.48798">
        <ele>8.6000003814697</ele>
        <time>2020-06-28T09:19:35.000Z</time>
      </trkpt>
      <trkpt lat="47.27979" lon="-2.48795">
        <ele>9</ele>
        <time>2020-06-28T09:19:36.000Z</time>
      </trkpt>
      <trkpt lat="47.27978" lon="-2.48791">
        <ele>9.6000003814697</ele>
        <time>2020-06-28T09:19:37.000Z</time>
      </trkpt>
      <trkpt lat="47.27978" lon="-2.48787">
        <ele>10</ele>
        <time>2020-06-28T09:19:38.000Z</time>
      </trkpt>
      <trkpt lat="47.27977" lon="-2.48783">
        <ele>10.39999961853</ele>
        <time>2020-06-28T09:19:39.000Z</time>
      </trkpt>
      <trkpt lat="47.27979" lon="-2.48778">
        <ele>10.800000190735</ele>
        <time>2020-06-28T09:19:40.000Z</time>
      </trkpt>
      <trkpt lat="47.2798" lon="-2.48774">
        <ele>10.800000190735</ele>
        <time>2020-06-28T09:19:41.000Z</time>
      </trkpt>
      <trkpt lat="47.27988" lon="-2.48748">
        <ele>10.800000190735</ele>
        <time>2020-06-28T09:19:46.000Z</time>
      </trkpt>
      <trkpt lat="47.27987" lon="-2.48742">
        <ele>10.800000190735</ele>
        <time>2020-06-28T09:19:47.000Z</time>
      </trkpt>
      <trkpt lat="47.27984" lon="-2.48717">
        <ele>10.800000190735</ele>
        <time>2020-06-28T09:19:51.000Z</time>
      </trkpt>
      <trkpt lat="47.27981" lon="-2.48705">
        <ele>10.800000190735</ele>
        <time>2020-06-28T09:19:53.000Z</time>
      </trkpt>
      <trkpt lat="47.27973" lon="-2.48682">
        <ele>10.800000190735</ele>
        <time>2020-06-28T09:19:57.000Z</time>
      </trkpt>
      <trkpt lat="47.27968" lon="-2.48667">
        <ele>10.800000190735</ele>
        <time>2020-06-28T09:20:00.000Z</time>
      </trkpt>
      <trkpt lat="47.27955" lon="-2.48632">
        <ele>10.800000190735</ele>
        <time>2020-06-28T09:20:07.000Z</time>
      </trkpt>
      <trkpt lat="47.27935" lon="-2.48578">
        <ele>10.800000190735</ele>
        <time>2020-06-28T09:20:15.000Z</time>
      </trkpt>
      <trkpt lat="47.27912" lon="-2.48505">
        <ele>10.800000190735</ele>
        <time>2020-06-28T09:20:24.000Z</time>
      </trkpt>
      <trkpt lat="47.27889" lon="-2.48445">
        <ele>10.800000190735</ele>
        <time>2020-06-28T09:20:32.000Z</time>
      </trkpt>
      <trkpt lat="47.27887" lon="-2.48437">
        <ele>10.800000190735</ele>
        <time>2020-06-28T09:20:33.000Z</time>
      </trkpt>
      <trkpt lat="47.27874" lon="-2.48397">
        <ele>10.800000190735</ele>
        <time>2020-06-28T09:20:38.000Z</time>
      </trkpt>
      <trkpt lat="47.27855" lon="-2.48354">
        <ele>10.800000190735</ele>
        <time>2020-06-28T09:20:44.000Z</time>
      </trkpt>
      <trkpt lat="47.27849" lon="-2.48338">
        <ele>10.800000190735</ele>
        <time>2020-06-28T09:20:46.000Z</time>
      </trkpt>
      <trkpt lat="47.27838" lon="-2.48307">
        <ele>10.800000190735</ele>
        <time>2020-06-28T09:20:50.000Z</time>
      </trkpt>
      <trkpt lat="47.27815" lon="-2.48245">
        <ele>11.199999809265</ele>
        <time>2020-06-28T09:20:58.000Z</time>
      </trkpt>
      <trkpt lat="47.27812" lon="-2.48238">
        <ele>11.60000038147</ele>
        <time>2020-06-28T09:20:59.000Z</time>
      </trkpt>
      <trkpt lat="47.27809" lon="-2.4823">
        <ele>12</ele>
        <time>2020-06-28T09:21:00.000Z</time>
      </trkpt>
      <trkpt lat="47.27807" lon="-2.48223">
        <ele>12.39999961853</ele>
        <time>2020-06-28T09:21:01.000Z</time>
      </trkpt>
      <trkpt lat="47.27804" lon="-2.48216">
        <ele>12.800000190735</ele>
        <time>2020-06-28T09:21:02.000Z</time>
      </trkpt>
      <trkpt lat="47.278" lon="-2.48203">
        <ele>12.800000190735</ele>
        <time>2020-06-28T09:21:04.000Z</time>
      </trkpt>
      <trkpt lat="47.27797" lon="-2.48191">
        <ele>12.800000190735</ele>
        <time>2020-06-28T09:21:06.000Z</time>
      </trkpt>
      <trkpt lat="47.27793" lon="-2.4818">
        <ele>12.800000190735</ele>
        <time>2020-06-28T09:21:08.000Z</time>
      </trkpt>
      <trkpt lat="47.2779" lon="-2.48175">
        <ele>12.800000190735</ele>
        <time>2020-06-28T09:21:09.000Z</time>
      </trkpt>
      <trkpt lat="47.27784" lon="-2.48157">
        <ele>12.800000190735</ele>
        <time>2020-06-28T09:21:12.000Z</time>
      </trkpt>
      <trkpt lat="47.27779" lon="-2.48146">
        <ele>13.199999809265</ele>
        <time>2020-06-28T09:21:14.000Z</time>
      </trkpt>
      <trkpt lat="47.27777" lon="-2.4814">
        <ele>13.800000190735</ele>
        <time>2020-06-28T09:21:15.000Z</time>
      </trkpt>
      <trkpt lat="47.27775" lon="-2.48135">
        <ele>14.199999809265</ele>
        <time>2020-06-28T09:21:16.000Z</time>
      </trkpt>
      <trkpt lat="47.27773" lon="-2.48129">
        <ele>14.60000038147</ele>
        <time>2020-06-28T09:21:17.000Z</time>
      </trkpt>
      <trkpt lat="47.27771" lon="-2.48124">
        <ele>15</ele>
        <time>2020-06-28T09:21:18.000Z</time>
      </trkpt>
      <trkpt lat="47.2777" lon="-2.48117">
        <ele>15</ele>
        <time>2020-06-28T09:21:19.000Z</time>
      </trkpt>
      <trkpt lat="47.27764" lon="-2.481">
        <ele>15</ele>
        <time>2020-06-28T09:21:22.000Z</time>
      </trkpt>
      <trkpt lat="47.27763" lon="-2.48094">
        <ele>15</ele>
        <time>2020-06-28T09:21:23.000Z</time>
      </trkpt>
      <trkpt lat="47.27758" lon="-2.48058">
        <ele>15.39999961853</ele>
        <time>2020-06-28T09:21:29.000Z</time>
      </trkpt>
      <trkpt lat="47.27757" lon="-2.48054">
        <ele>15.800000190735</ele>
        <time>2020-06-28T09:21:30.000Z</time>
      </trkpt>
      <trkpt lat="47.27753" lon="-2.48051">
        <ele>16.200000762939</ele>
        <time>2020-06-28T09:21:31.000Z</time>
      </trkpt>
      <trkpt lat="47.27749" lon="-2.48051">
        <ele>16.60000038147</ele>
        <time>2020-06-28T09:21:32.000Z</time>
      </trkpt>
      <trkpt lat="47.27744" lon="-2.48052">
        <ele>17</ele>
        <time>2020-06-28T09:21:33.000Z</time>
      </trkpt>
      <trkpt lat="47.27736" lon="-2.48055">
        <ele>17</ele>
        <time>2020-06-28T09:21:35.000Z</time>
      </trkpt>
      <trkpt lat="47.27732" lon="-2.48057">
        <ele>17</ele>
        <time>2020-06-28T09:21:36.000Z</time>
      </trkpt>
      <trkpt lat="47.27713" lon="-2.48072">
        <ele>17</ele>
        <time>2020-06-28T09:21:42.000Z</time>
      </trkpt>
      <trkpt lat="47.27695" lon="-2.48082">
        <ele>17</ele>
        <time>2020-06-28T09:21:48.000Z</time>
      </trkpt>
      <trkpt lat="47.27669" lon="-2.48085">
        <ele>17</ele>
        <time>2020-06-28T09:21:54.000Z</time>
      </trkpt>
      <trkpt lat="47.27639" lon="-2.48089">
        <ele>17</ele>
        <time>2020-06-28T09:22:00.000Z</time>
      </trkpt>
      <trkpt lat="47.27617" lon="-2.48089">
        <ele>17</ele>
        <time>2020-06-28T09:22:05.000Z</time>
      </trkpt>
      <trkpt lat="47.27613" lon="-2.48077">
        <ele>17</ele>
        <time>2020-06-28T09:22:07.000Z</time>
      </trkpt>
      <trkpt lat="47.27613" lon="-2.48063">
        <ele>17</ele>
        <time>2020-06-28T09:22:09.000Z</time>
      </trkpt>
      <trkpt lat="47.27616" lon="-2.48045">
        <ele>17</ele>
        <time>2020-06-28T09:22:12.000Z</time>
      </trkpt>
      <trkpt lat="47.27622" lon="-2.48012">
        <ele>17</ele>
        <time>2020-06-28T09:22:17.000Z</time>
      </trkpt>
      <trkpt lat="47.27622" lon="-2.48005">
        <ele>17</ele>
        <time>2020-06-28T09:22:18.000Z</time>
      </trkpt>
      <trkpt lat="47.27612" lon="-2.47985">
        <ele>17</ele>
        <time>2020-06-28T09:22:21.000Z</time>
      </trkpt>
      <trkpt lat="47.27603" lon="-2.47962">
        <ele>17</ele>
        <time>2020-06-28T09:22:24.000Z</time>
      </trkpt>
      <trkpt lat="47.27598" lon="-2.47943">
        <ele>17</ele>
        <time>2020-06-28T09:22:26.000Z</time>
      </trkpt>
      <trkpt lat="47.27583" lon="-2.47891">
        <ele>16.60000038147</ele>
        <time>2020-06-28T09:22:31.000Z</time>
      </trkpt>
      <trkpt lat="47.27581" lon="-2.4788">
        <ele>16.200000762939</ele>
        <time>2020-06-28T09:22:32.000Z</time>
      </trkpt>
      <trkpt lat="47.27578" lon="-2.4787">
        <ele>15.800000190735</ele>
        <time>2020-06-28T09:22:33.000Z</time>
      </trkpt>
      <trkpt lat="47.27576" lon="-2.4786">
        <ele>15.39999961853</ele>
        <time>2020-06-28T09:22:34.000Z</time>
      </trkpt>
      <trkpt lat="47.27574" lon="-2.4785">
        <ele>15</ele>
        <time>2020-06-28T09:22:35.000Z</time>
      </trkpt>
      <trkpt lat="47.27572" lon="-2.47841">
        <ele>15</ele>
        <time>2020-06-28T09:22:36.000Z</time>
      </trkpt>
      <trkpt lat="47.27563" lon="-2.47793">
        <ele>14.39999961853</ele>
        <time>2020-06-28T09:22:41.000Z</time>
      </trkpt>
      <trkpt lat="47.27561" lon="-2.47784">
        <ele>14</ele>
        <time>2020-06-28T09:22:42.000Z</time>
      </trkpt>
      <trkpt lat="47.27558" lon="-2.47774">
        <ele>13.60000038147</ele>
        <time>2020-06-28T09:22:43.000Z</time>
      </trkpt>
      <trkpt lat="47.27557" lon="-2.47764">
        <ele>13.199999809265</ele>
        <time>2020-06-28T09:22:44.000Z</time>
      </trkpt>
      <trkpt lat="47.27556" lon="-2.47755">
        <ele>12.60000038147</ele>
        <time>2020-06-28T09:22:45.000Z</time>
      </trkpt>
      <trkpt lat="47.27557" lon="-2.47747">
        <ele>12.60000038147</ele>
        <time>2020-06-28T09:22:46.000Z</time>
      </trkpt>
      <trkpt lat="47.27551" lon="-2.4773">
        <ele>12.60000038147</ele>
        <time>2020-06-28T09:22:49.000Z</time>
      </trkpt>
      <trkpt lat="47.27538" lon="-2.47704">
        <ele>12.60000038147</ele>
        <time>2020-06-28T09:22:53.000Z</time>
      </trkpt>
      <trkpt lat="47.27533" lon="-2.47677">
        <ele>12.199999809265</ele>
        <time>2020-06-28T09:22:56.000Z</time>
      </trkpt>
      <trkpt lat="47.27532" lon="-2.47668">
        <ele>11.800000190735</ele>
        <time>2020-06-28T09:22:57.000Z</time>
      </trkpt>
      <trkpt lat="47.2753" lon="-2.4766">
        <ele>11.39999961853</ele>
        <time>2020-06-28T09:22:58.000Z</time>
      </trkpt>
      <trkpt lat="47.27529" lon="-2.47651">
        <ele>11</ele>
        <time>2020-06-28T09:22:59.000Z</time>
      </trkpt>
      <trkpt lat="47.27528" lon="-2.47642">
        <ele>10.60000038147</ele>
        <time>2020-06-28T09:23:00.000Z</time>
      </trkpt>
      <trkpt lat="47.27527" lon="-2.47634">
        <ele>10.60000038147</ele>
        <time>2020-06-28T09:23:01.000Z</time>
      </trkpt>
      <trkpt lat="47.27525" lon="-2.47627">
        <ele>10.60000038147</ele>
        <time>2020-06-28T09:23:02.000Z</time>
      </trkpt>
      <trkpt lat="47.27516" lon="-2.47608">
        <ele>10.60000038147</ele>
        <time>2020-06-28T09:23:05.000Z</time>
      </trkpt>
      <trkpt lat="47.27512" lon="-2.47604">
        <ele>10.60000038147</ele>
        <time>2020-06-28T09:23:06.000Z</time>
      </trkpt>
      <trkpt lat="47.27491" lon="-2.476">
        <ele>10.60000038147</ele>
        <time>2020-06-28T09:23:10.000Z</time>
      </trkpt>
      <trkpt lat="47.2748" lon="-2.47602">
        <ele>10.60000038147</ele>
        <time>2020-06-28T09:23:12.000Z</time>
      </trkpt>
      <trkpt lat="47.27463" lon="-2.47601">
        <ele>10.60000038147</ele>
        <time>2020-06-28T09:23:15.000Z</time>
      </trkpt>
      <trkpt lat="47.27458" lon="-2.47599">
        <ele>10.60000038147</ele>
        <time>2020-06-28T09:23:16.000Z</time>
      </trkpt>
      <trkpt lat="47.2744" lon="-2.47585">
        <ele>10.60000038147</ele>
        <time>2020-06-28T09:23:21.000Z</time>
      </trkpt>
      <trkpt lat="47.27438" lon="-2.47561">
        <ele>10.60000038147</ele>
        <time>2020-06-28T09:23:25.000Z</time>
      </trkpt>
      <trkpt lat="47.27436" lon="-2.47548">
        <ele>10.60000038147</ele>
        <time>2020-06-28T09:23:27.000Z</time>
      </trkpt>
      <trkpt lat="47.27431" lon="-2.47528">
        <ele>10.60000038147</ele>
        <time>2020-06-28T09:23:31.000Z</time>
      </trkpt>
      <trkpt lat="47.27432" lon="-2.47519">
        <ele>10.60000038147</ele>
        <time>2020-06-28T09:23:33.000Z</time>
      </trkpt>
      <trkpt lat="47.27434" lon="-2.47513">
        <ele>10.60000038147</ele>
        <time>2020-06-28T09:23:34.000Z</time>
      </trkpt>
      <trkpt lat="47.2744" lon="-2.47493">
        <ele>10.60000038147</ele>
        <time>2020-06-28T09:23:37.000Z</time>
      </trkpt>
      <trkpt lat="47.27442" lon="-2.47486">
        <ele>10.60000038147</ele>
        <time>2020-06-28T09:23:38.000Z</time>
      </trkpt>
      <trkpt lat="47.27441" lon="-2.47477">
        <ele>10.60000038147</ele>
        <time>2020-06-28T09:23:40.000Z</time>
      </trkpt>
      <trkpt lat="47.27439" lon="-2.47474">
        <ele>10.60000038147</ele>
        <time>2020-06-28T09:23:41.000Z</time>
      </trkpt>
      <trkpt lat="47.27425" lon="-2.47469">
        <ele>10.60000038147</ele>
        <time>2020-06-28T09:23:45.000Z</time>
      </trkpt>
      <trkpt lat="47.27417" lon="-2.47468">
        <ele>10.60000038147</ele>
        <time>2020-06-28T09:23:47.000Z</time>
      </trkpt>
      <trkpt lat="47.27398" lon="-2.47464">
        <ele>10.60000038147</ele>
        <time>2020-06-28T09:23:51.000Z</time>
      </trkpt>
      <trkpt lat="47.27383" lon="-2.47462">
        <ele>11</ele>
        <time>2020-06-28T09:23:54.000Z</time>
      </trkpt>
      <trkpt lat="47.27379" lon="-2.47463">
        <ele>11.39999961853</ele>
        <time>2020-06-28T09:23:55.000Z</time>
      </trkpt>
      <trkpt lat="47.27374" lon="-2.47462">
        <ele>11.800000190735</ele>
        <time>2020-06-28T09:23:56.000Z</time>
      </trkpt>
      <trkpt lat="47.27369" lon="-2.47462">
        <ele>12.39999961853</ele>
        <time>2020-06-28T09:23:57.000Z</time>
      </trkpt>
      <trkpt lat="47.27365" lon="-2.47461">
        <ele>12.800000190735</ele>
        <time>2020-06-28T09:23:58.000Z</time>
      </trkpt>
      <trkpt lat="47.27351" lon="-2.4746">
        <ele>12.800000190735</ele>
        <time>2020-06-28T09:24:01.000Z</time>
      </trkpt>
      <trkpt lat="47.27341" lon="-2.47461">
        <ele>12.800000190735</ele>
        <time>2020-06-28T09:24:03.000Z</time>
      </trkpt>
      <trkpt lat="47.27315" lon="-2.47457">
        <ele>12.800000190735</ele>
        <time>2020-06-28T09:24:09.000Z</time>
      </trkpt>
      <trkpt lat="47.27305" lon="-2.47453">
        <ele>12.800000190735</ele>
        <time>2020-06-28T09:24:13.000Z</time>
      </trkpt>
      <trkpt lat="47.27303" lon="-2.47454">
        <ele>12.800000190735</ele>
        <time>2020-06-28T09:24:14.000Z</time>
      </trkpt>
      <trkpt lat="47.27302" lon="-2.47459">
        <ele>12.800000190735</ele>
        <time>2020-06-28T09:24:16.000Z</time>
      </trkpt>
      <trkpt lat="47.27305" lon="-2.47468">
        <ele>12.800000190735</ele>
        <time>2020-06-28T09:24:18.000Z</time>
      </trkpt>
      <trkpt lat="47.27308" lon="-2.47479">
        <ele>12.800000190735</ele>
        <time>2020-06-28T09:24:20.000Z</time>
      </trkpt>
      <trkpt lat="47.27312" lon="-2.47499">
        <ele>13.199999809265</ele>
        <time>2020-06-28T09:24:23.000Z</time>
      </trkpt>
      <trkpt lat="47.27314" lon="-2.47505">
        <ele>13.60000038147</ele>
        <time>2020-06-28T09:24:24.000Z</time>
      </trkpt>
      <trkpt lat="47.27316" lon="-2.47512">
        <ele>14</ele>
        <time>2020-06-28T09:24:25.000Z</time>
      </trkpt>
      <trkpt lat="47.27317" lon="-2.47519">
        <ele>14.39999961853</ele>
        <time>2020-06-28T09:24:26.000Z</time>
      </trkpt>
      <trkpt lat="47.27319" lon="-2.47525">
        <ele>14.800000190735</ele>
        <time>2020-06-28T09:24:27.000Z</time>
      </trkpt>
      <trkpt lat="47.27328" lon="-2.47557">
        <ele>14.800000190735</ele>
        <time>2020-06-28T09:24:32.000Z</time>
      </trkpt>
      <trkpt lat="47.27328" lon="-2.47562">
        <ele>14.800000190735</ele>
        <time>2020-06-28T09:24:33.000Z</time>
      </trkpt>
      <trkpt lat="47.27321" lon="-2.47569">
        <ele>14.800000190735</ele>
        <time>2020-06-28T09:24:36.000Z</time>
      </trkpt>
      <trkpt lat="47.27311" lon="-2.47572">
        <ele>14.800000190735</ele>
        <time>2020-06-28T09:24:41.000Z</time>
      </trkpt>
      <trkpt lat="47.27305" lon="-2.4757">
        <ele>14.800000190735</ele>
        <time>2020-06-28T09:24:44.000Z</time>
      </trkpt>
      <trkpt lat="47.27302" lon="-2.47563">
        <ele>14.800000190735</ele>
        <time>2020-06-28T09:24:46.000Z</time>
      </trkpt>
      <trkpt lat="47.27299" lon="-2.47557">
        <ele>14.800000190735</ele>
        <time>2020-06-28T09:24:47.000Z</time>
      </trkpt>
      <trkpt lat="47.27292" lon="-2.4754">
        <ele>14.800000190735</ele>
        <time>2020-06-28T09:24:50.000Z</time>
      </trkpt>
      <trkpt lat="47.27291" lon="-2.47533">
        <ele>14.800000190735</ele>
        <time>2020-06-28T09:24:51.000Z</time>
      </trkpt>
      <trkpt lat="47.27284" lon="-2.47503">
        <ele>14.800000190735</ele>
        <time>2020-06-28T09:24:55.000Z</time>
      </trkpt>
      <trkpt lat="47.27274" lon="-2.47461">
        <ele>14.800000190735</ele>
        <time>2020-06-28T09:25:01.000Z</time>
      </trkpt>
      <trkpt lat="47.27269" lon="-2.47427">
        <ele>14.800000190735</ele>
        <time>2020-06-28T09:25:06.000Z</time>
      </trkpt>
      <trkpt lat="47.27277" lon="-2.47404">
        <ele>14.800000190735</ele>
        <time>2020-06-28T09:25:10.000Z</time>
      </trkpt>
      <trkpt lat="47.27279" lon="-2.47401">
        <ele>14.800000190735</ele>
        <time>2020-06-28T09:25:11.000Z</time>
      </trkpt>
      <trkpt lat="47.27286" lon="-2.47391">
        <ele>14.800000190735</ele>
        <time>2020-06-28T09:25:14.000Z</time>
      </trkpt>
      <trkpt lat="47.27293" lon="-2.47372">
        <ele>14.800000190735</ele>
        <time>2020-06-28T09:25:18.000Z</time>
      </trkpt>
      <trkpt lat="47.27295" lon="-2.47339">
        <ele>14.800000190735</ele>
        <time>2020-06-28T09:25:24.000Z</time>
      </trkpt>
      <trkpt lat="47.27303" lon="-2.47322">
        <ele>14.800000190735</ele>
        <time>2020-06-28T09:25:28.000Z</time>
      </trkpt>
      <trkpt lat="47.2732" lon="-2.4731">
        <ele>14.800000190735</ele>
        <time>2020-06-28T09:25:33.000Z</time>
      </trkpt>
      <trkpt lat="47.27326" lon="-2.47305">
        <ele>14.800000190735</ele>
        <time>2020-06-28T09:25:35.000Z</time>
      </trkpt>
      <trkpt lat="47.27334" lon="-2.47303">
        <ele>14.800000190735</ele>
        <time>2020-06-28T09:25:37.000Z</time>
      </trkpt>
      <trkpt lat="47.2735" lon="-2.47297">
        <ele>14.800000190735</ele>
        <time>2020-06-28T09:25:40.000Z</time>
      </trkpt>
      <trkpt lat="47.27359" lon="-2.47291">
        <ele>14.800000190735</ele>
        <time>2020-06-28T09:25:42.000Z</time>
      </trkpt>
      <trkpt lat="47.27385" lon="-2.47267">
        <ele>14.800000190735</ele>
        <time>2020-06-28T09:25:48.000Z</time>
      </trkpt>
      <trkpt lat="47.27389" lon="-2.47263">
        <ele>14.800000190735</ele>
        <time>2020-06-28T09:25:49.000Z</time>
      </trkpt>
      <trkpt lat="47.27397" lon="-2.47257">
        <ele>14.39999961853</ele>
        <time>2020-06-28T09:25:51.000Z</time>
      </trkpt>
      <trkpt lat="47.27402" lon="-2.47254">
        <ele>14</ele>
        <time>2020-06-28T09:25:52.000Z</time>
      </trkpt>
      <trkpt lat="47.27406" lon="-2.47251">
        <ele>13.60000038147</ele>
        <time>2020-06-28T09:25:53.000Z</time>
      </trkpt>
      <trkpt lat="47.27412" lon="-2.47248">
        <ele>12.60000038147</ele>
        <time>2020-06-28T09:25:54.000Z</time>
      </trkpt>
      <trkpt lat="47.27446" lon="-2.47225">
        <ele>12.60000038147</ele>
        <time>2020-06-28T09:26:01.000Z</time>
      </trkpt>
      <trkpt lat="47.27484" lon="-2.47202">
        <ele>12.199999809265</ele>
        <time>2020-06-28T09:26:08.000Z</time>
      </trkpt>
      <trkpt lat="47.2749" lon="-2.47199">
        <ele>11.800000190735</ele>
        <time>2020-06-28T09:26:09.000Z</time>
      </trkpt>
      <trkpt lat="47.27495" lon="-2.47196">
        <ele>11.39999961853</ele>
        <time>2020-06-28T09:26:10.000Z</time>
      </trkpt>
      <trkpt lat="47.275" lon="-2.47193">
        <ele>11</ele>
        <time>2020-06-28T09:26:11.000Z</time>
      </trkpt>
      <trkpt lat="47.27504" lon="-2.47188">
        <ele>10.60000038147</ele>
        <time>2020-06-28T09:26:12.000Z</time>
      </trkpt>
      <trkpt lat="47.27505" lon="-2.47182">
        <ele>10.60000038147</ele>
        <time>2020-06-28T09:26:13.000Z</time>
      </trkpt>
      <trkpt lat="47.27501" lon="-2.47169">
        <ele>10.60000038147</ele>
        <time>2020-06-28T09:26:15.000Z</time>
      </trkpt>
      <trkpt lat="47.27499" lon="-2.47162">
        <ele>10.60000038147</ele>
        <time>2020-06-28T09:26:16.000Z</time>
      </trkpt>
      <trkpt lat="47.27496" lon="-2.47154">
        <ele>10.60000038147</ele>
        <time>2020-06-28T09:26:17.000Z</time>
      </trkpt>
      <trkpt lat="47.27486" lon="-2.47123">
        <ele>10.60000038147</ele>
        <time>2020-06-28T09:26:21.000Z</time>
      </trkpt>
      <trkpt lat="47.27477" lon="-2.471">
        <ele>10.60000038147</ele>
        <time>2020-06-28T09:26:24.000Z</time>
      </trkpt>
      <trkpt lat="47.27478" lon="-2.47083">
        <ele>10.60000038147</ele>
        <time>2020-06-28T09:26:26.000Z</time>
      </trkpt>
      <trkpt lat="47.27491" lon="-2.47064">
        <ele>10.60000038147</ele>
        <time>2020-06-28T09:26:29.000Z</time>
      </trkpt>
      <trkpt lat="47.27502" lon="-2.47054">
        <ele>10.60000038147</ele>
        <time>2020-06-28T09:26:31.000Z</time>
      </trkpt>
      <trkpt lat="47.27521" lon="-2.47029">
        <ele>10.60000038147</ele>
        <time>2020-06-28T09:26:35.000Z</time>
      </trkpt>
      <trkpt lat="47.27545" lon="-2.46988">
        <ele>10.60000038147</ele>
        <time>2020-06-28T09:26:41.000Z</time>
      </trkpt>
      <trkpt lat="47.27557" lon="-2.46976">
        <ele>10.60000038147</ele>
        <time>2020-06-28T09:26:44.000Z</time>
      </trkpt>
      <trkpt lat="47.27561" lon="-2.46976">
        <ele>10.60000038147</ele>
        <time>2020-06-28T09:26:45.000Z</time>
      </trkpt>
      <trkpt lat="47.27575" lon="-2.46982">
        <ele>10.60000038147</ele>
        <time>2020-06-28T09:26:48.000Z</time>
      </trkpt>
      <trkpt lat="47.27579" lon="-2.46985">
        <ele>10.60000038147</ele>
        <time>2020-06-28T09:26:49.000Z</time>
      </trkpt>
      <trkpt lat="47.27591" lon="-2.4699">
        <ele>11</ele>
        <time>2020-06-28T09:26:52.000Z</time>
      </trkpt>
      <trkpt lat="47.27595" lon="-2.4699">
        <ele>11.39999961853</ele>
        <time>2020-06-28T09:26:53.000Z</time>
      </trkpt>
      <trkpt lat="47.27599" lon="-2.4699">
        <ele>11.800000190735</ele>
        <time>2020-06-28T09:26:54.000Z</time>
      </trkpt>
      <trkpt lat="47.27602" lon="-2.4699">
        <ele>12.199999809265</ele>
        <time>2020-06-28T09:26:55.000Z</time>
      </trkpt>
      <trkpt lat="47.27606" lon="-2.4699">
        <ele>12.800000190735</ele>
        <time>2020-06-28T09:26:56.000Z</time>
      </trkpt>
      <trkpt lat="47.27618" lon="-2.46988">
        <ele>12.800000190735</ele>
        <time>2020-06-28T09:26:59.000Z</time>
      </trkpt>
      <trkpt lat="47.27635" lon="-2.46988">
        <ele>12.199999809265</ele>
        <time>2020-06-28T09:27:03.000Z</time>
      </trkpt>
      <trkpt lat="47.27641" lon="-2.46989">
        <ele>11.800000190735</ele>
        <time>2020-06-28T09:27:04.000Z</time>
      </trkpt>
      <trkpt lat="47.27647" lon="-2.4699">
        <ele>11.39999961853</ele>
        <time>2020-06-28T09:27:05.000Z</time>
      </trkpt>
      <trkpt lat="47.27652" lon="-2.46991">
        <ele>11</ele>
        <time>2020-06-28T09:27:06.000Z</time>
      </trkpt>
      <trkpt lat="47.27657" lon="-2.46991">
        <ele>10.60000038147</ele>
        <time>2020-06-28T09:27:07.000Z</time>
      </trkpt>
      <trkpt lat="47.2766" lon="-2.46989">
        <ele>10.60000038147</ele>
        <time>2020-06-28T09:27:08.000Z</time>
      </trkpt>
      <trkpt lat="47.27661" lon="-2.46985">
        <ele>10.60000038147</ele>
        <time>2020-06-28T09:27:09.000Z</time>
      </trkpt>
      <trkpt lat="47.27662" lon="-2.4698">
        <ele>10.199999809265</ele>
        <time>2020-06-28T09:27:10.000Z</time>
      </trkpt>
      <trkpt lat="47.27663" lon="-2.46975">
        <ele>9.8000001907349</ele>
        <time>2020-06-28T09:27:11.000Z</time>
      </trkpt>
      <trkpt lat="47.27663" lon="-2.46967">
        <ele>9.1999998092651</ele>
        <time>2020-06-28T09:27:12.000Z</time>
      </trkpt>
      <trkpt lat="47.27663" lon="-2.4696">
        <ele>8.8000001907349</ele>
        <time>2020-06-28T09:27:13.000Z</time>
      </trkpt>
      <trkpt lat="47.27663" lon="-2.46953">
        <ele>8.3999996185303</ele>
        <time>2020-06-28T09:27:14.000Z</time>
      </trkpt>
      <trkpt lat="47.2767" lon="-2.46931">
        <ele>8.3999996185303</ele>
        <time>2020-06-28T09:27:18.000Z</time>
      </trkpt>
      <trkpt lat="47.27683" lon="-2.46933">
        <ele>8.3999996185303</ele>
        <time>2020-06-28T09:27:21.000Z</time>
      </trkpt>
      <trkpt lat="47.27688" lon="-2.46935">
        <ele>8.3999996185303</ele>
        <time>2020-06-28T09:27:22.000Z</time>
      </trkpt>
      <trkpt lat="47.27701" lon="-2.4694">
        <ele>8.3999996185303</ele>
        <time>2020-06-28T09:27:25.000Z</time>
      </trkpt>
      <trkpt lat="47.2771" lon="-2.4694">
        <ele>8.3999996185303</ele>
        <time>2020-06-28T09:27:27.000Z</time>
      </trkpt>
      <trkpt lat="47.27734" lon="-2.46937">
        <ele>8.3999996185303</ele>
        <time>2020-06-28T09:27:32.000Z</time>
      </trkpt>
      <trkpt lat="47.27738" lon="-2.46937">
        <ele>8.3999996185303</ele>
        <time>2020-06-28T09:27:33.000Z</time>
      </trkpt>
      <trkpt lat="47.27756" lon="-2.46928">
        <ele>8.3999996185303</ele>
        <time>2020-06-28T09:27:37.000Z</time>
      </trkpt>
      <trkpt lat="47.27763" lon="-2.46912">
        <ele>8.3999996185303</ele>
        <time>2020-06-28T09:27:40.000Z</time>
      </trkpt>
      <trkpt lat="47.27766" lon="-2.46904">
        <ele>8.3999996185303</ele>
        <time>2020-06-28T09:27:41.000Z</time>
      </trkpt>
      <trkpt lat="47.27778" lon="-2.46869">
        <ele>8.3999996185303</ele>
        <time>2020-06-28T09:27:45.000Z</time>
      </trkpt>
      <trkpt lat="47.27779" lon="-2.46827">
        <ele>8.3999996185303</ele>
        <time>2020-06-28T09:27:49.000Z</time>
      </trkpt>
      <trkpt lat="47.27774" lon="-2.46807">
        <ele>8.3999996185303</ele>
        <time>2020-06-28T09:27:51.000Z</time>
      </trkpt>
      <trkpt lat="47.27768" lon="-2.4678">
        <ele>8.3999996185303</ele>
        <time>2020-06-28T09:27:54.000Z</time>
      </trkpt>
      <trkpt lat="47.27764" lon="-2.46762">
        <ele>8</ele>
        <time>2020-06-28T09:27:56.000Z</time>
      </trkpt>
      <trkpt lat="47.27761" lon="-2.46754">
        <ele>7.1999998092651</ele>
        <time>2020-06-28T09:27:57.000Z</time>
      </trkpt>
      <trkpt lat="47.2776" lon="-2.46747">
        <ele>6.8000001907349</ele>
        <time>2020-06-28T09:27:58.000Z</time>
      </trkpt>
      <trkpt lat="47.27758" lon="-2.46739">
        <ele>6.4000000953674</ele>
        <time>2020-06-28T09:27:59.000Z</time>
      </trkpt>
      <trkpt lat="47.27756" lon="-2.46725">
        <ele>6.4000000953674</ele>
        <time>2020-06-28T09:28:01.000Z</time>
      </trkpt>
      <trkpt lat="47.27757" lon="-2.46702">
        <ele>6.4000000953674</ele>
        <time>2020-06-28T09:28:04.000Z</time>
      </trkpt>
      <trkpt lat="47.27758" lon="-2.46695">
        <ele>6.4000000953674</ele>
        <time>2020-06-28T09:28:05.000Z</time>
      </trkpt>
      <trkpt lat="47.2776" lon="-2.46679">
        <ele>6.4000000953674</ele>
        <time>2020-06-28T09:28:07.000Z</time>
      </trkpt>
      <trkpt lat="47.27761" lon="-2.46657">
        <ele>6.4000000953674</ele>
        <time>2020-06-28T09:28:10.000Z</time>
      </trkpt>
      <trkpt lat="47.27758" lon="-2.4663">
        <ele>6.4000000953674</ele>
        <time>2020-06-28T09:28:14.000Z</time>
      </trkpt>
      <trkpt lat="47.27762" lon="-2.46613">
        <ele>6.4000000953674</ele>
        <time>2020-06-28T09:28:17.000Z</time>
      </trkpt>
      <trkpt lat="47.2776" lon="-2.46591">
        <ele>6.4000000953674</ele>
        <time>2020-06-28T09:28:21.000Z</time>
      </trkpt>
      <trkpt lat="47.27754" lon="-2.46582">
        <ele>6.4000000953674</ele>
        <time>2020-06-28T09:28:23.000Z</time>
      </trkpt>
      <trkpt lat="47.27751" lon="-2.46576">
        <ele>6.8000001907349</ele>
        <time>2020-06-28T09:28:24.000Z</time>
      </trkpt>
      <trkpt lat="47.27748" lon="-2.46569">
        <ele>7.1999998092651</ele>
        <time>2020-06-28T09:28:25.000Z</time>
      </trkpt>
      <trkpt lat="47.27745" lon="-2.46562">
        <ele>7.5999999046326</ele>
        <time>2020-06-28T09:28:26.000Z</time>
      </trkpt>
      <trkpt lat="47.27743" lon="-2.46554">
        <ele>8</ele>
        <time>2020-06-28T09:28:27.000Z</time>
      </trkpt>
      <trkpt lat="47.27741" lon="-2.46546">
        <ele>8.3999996185303</ele>
        <time>2020-06-28T09:28:28.000Z</time>
      </trkpt>
      <trkpt lat="47.27737" lon="-2.46528">
        <ele>8.3999996185303</ele>
        <time>2020-06-28T09:28:30.000Z</time>
      </trkpt>
      <trkpt lat="47.27721" lon="-2.46463">
        <ele>8.3999996185303</ele>
        <time>2020-06-28T09:28:37.000Z</time>
      </trkpt>
      <trkpt lat="47.27715" lon="-2.46446">
        <ele>8.3999996185303</ele>
        <time>2020-06-28T09:28:39.000Z</time>
      </trkpt>
      <trkpt lat="47.27702" lon="-2.46421">
        <ele>8.3999996185303</ele>
        <time>2020-06-28T09:28:42.000Z</time>
      </trkpt>
      <trkpt lat="47.27686" lon="-2.46373">
        <ele>8.3999996185303</ele>
        <time>2020-06-28T09:28:48.000Z</time>
      </trkpt>
      <trkpt lat="47.27674" lon="-2.46336">
        <ele>8.3999996185303</ele>
        <time>2020-06-28T09:28:53.000Z</time>
      </trkpt>
      <trkpt lat="47.27673" lon="-2.4632">
        <ele>8.3999996185303</ele>
        <time>2020-06-28T09:28:55.000Z</time>
      </trkpt>
      <trkpt lat="47.2767" lon="-2.46304">
        <ele>8.3999996185303</ele>
        <time>2020-06-28T09:28:57.000Z</time>
      </trkpt>
      <trkpt lat="47.2766" lon="-2.46286">
        <ele>8.3999996185303</ele>
        <time>2020-06-28T09:29:00.000Z</time>
      </trkpt>
      <trkpt lat="47.27664" lon="-2.46274">
        <ele>8.3999996185303</ele>
        <time>2020-06-28T09:29:02.000Z</time>
      </trkpt>
      <trkpt lat="47.27671" lon="-2.46263">
        <ele>8.3999996185303</ele>
        <time>2020-06-28T09:29:04.000Z</time>
      </trkpt>
      <trkpt lat="47.27674" lon="-2.46256">
        <ele>8.3999996185303</ele>
        <time>2020-06-28T09:29:05.000Z</time>
      </trkpt>
      <trkpt lat="47.27676" lon="-2.46247">
        <ele>8.3999996185303</ele>
        <time>2020-06-28T09:29:06.000Z</time>
      </trkpt>
      <trkpt lat="47.27672" lon="-2.46221">
        <ele>8.3999996185303</ele>
        <time>2020-06-28T09:29:09.000Z</time>
      </trkpt>
      <trkpt lat="47.27671" lon="-2.46212">
        <ele>8.3999996185303</ele>
        <time>2020-06-28T09:29:10.000Z</time>
      </trkpt>
      <trkpt lat="47.2767" lon="-2.46193">
        <ele>8.3999996185303</ele>
        <time>2020-06-28T09:29:12.000Z</time>
      </trkpt>
      <trkpt lat="47.2767" lon="-2.46165">
        <ele>8.3999996185303</ele>
        <time>2020-06-28T09:29:15.000Z</time>
      </trkpt>
      <trkpt lat="47.2767" lon="-2.46146">
        <ele>8.3999996185303</ele>
        <time>2020-06-28T09:29:17.000Z</time>
      </trkpt>
      <trkpt lat="47.27664" lon="-2.46116">
        <ele>8.3999996185303</ele>
        <time>2020-06-28T09:29:20.000Z</time>
      </trkpt>
      <trkpt lat="47.27655" lon="-2.46066">
        <ele>8.3999996185303</ele>
        <time>2020-06-28T09:29:25.000Z</time>
      </trkpt>
      <trkpt lat="47.27653" lon="-2.46056">
        <ele>8.3999996185303</ele>
        <time>2020-06-28T09:29:26.000Z</time>
      </trkpt>
      <trkpt lat="47.27642" lon="-2.45996">
        <ele>8.3999996185303</ele>
        <time>2020-06-28T09:29:32.000Z</time>
      </trkpt>
      <trkpt lat="47.27639" lon="-2.45946">
        <ele>8.3999996185303</ele>
        <time>2020-06-28T09:29:37.000Z</time>
      </trkpt>
      <trkpt lat="47.2764" lon="-2.45888">
        <ele>8.3999996185303</ele>
        <time>2020-06-28T09:29:43.000Z</time>
      </trkpt>
      <trkpt lat="47.27641" lon="-2.45879">
        <ele>8</ele>
        <time>2020-06-28T09:29:44.000Z</time>
      </trkpt>
      <trkpt lat="47.27641" lon="-2.45869">
        <ele>7.5999999046326</ele>
        <time>2020-06-28T09:29:45.000Z</time>
      </trkpt>
      <trkpt lat="47.27641" lon="-2.4586">
        <ele>7.1999998092651</ele>
        <time>2020-06-28T09:29:46.000Z</time>
      </trkpt>
      <trkpt lat="47.27642" lon="-2.45851">
        <ele>6.8000001907349</ele>
        <time>2020-06-28T09:29:47.000Z</time>
      </trkpt>
      <trkpt lat="47.27642" lon="-2.45842">
        <ele>6.4000000953674</ele>
        <time>2020-06-28T09:29:48.000Z</time>
      </trkpt>
      <trkpt lat="47.27643" lon="-2.45825">
        <ele>6.4000000953674</ele>
        <time>2020-06-28T09:29:50.000Z</time>
      </trkpt>
      <trkpt lat="47.27642" lon="-2.45794">
        <ele>6.4000000953674</ele>
        <time>2020-06-28T09:29:54.000Z</time>
      </trkpt>
      <trkpt lat="47.27641" lon="-2.45786">
        <ele>6.4000000953674</ele>
        <time>2020-06-28T09:29:55.000Z</time>
      </trkpt>
      <trkpt lat="47.27636" lon="-2.45733">
        <ele>6.4000000953674</ele>
        <time>2020-06-28T09:30:02.000Z</time>
      </trkpt>
      <trkpt lat="47.27635" lon="-2.45727">
        <ele>6.8000001907349</ele>
        <time>2020-06-28T09:30:03.000Z</time>
      </trkpt>
      <trkpt lat="47.27634" lon="-2.45721">
        <ele>7.4000000953674</ele>
        <time>2020-06-28T09:30:04.000Z</time>
      </trkpt>
      <trkpt lat="47.27632" lon="-2.45716">
        <ele>7.8000001907349</ele>
        <time>2020-06-28T09:30:05.000Z</time>
      </trkpt>
      <trkpt lat="47.27631" lon="-2.45713">
        <ele>8.3999996185303</ele>
        <time>2020-06-28T09:30:06.000Z</time>
      </trkpt>
      <trkpt lat="47.2763" lon="-2.45711">
        <ele>8.8000001907349</ele>
        <time>2020-06-28T09:30:07.000Z</time>
      </trkpt>
      <trkpt lat="47.27627" lon="-2.45706">
        <ele>8.8000001907349</ele>
        <time>2020-06-28T09:30:10.000Z</time>
      </trkpt>
      <trkpt lat="47.27621" lon="-2.45706">
        <ele>8.8000001907349</ele>
        <time>2020-06-28T09:30:12.000Z</time>
      </trkpt>
      <trkpt lat="47.27612" lon="-2.4571">
        <ele>8.8000001907349</ele>
        <time>2020-06-28T09:30:14.000Z</time>
      </trkpt>
      <trkpt lat="47.276" lon="-2.45715">
        <ele>8.8000001907349</ele>
        <time>2020-06-28T09:30:16.000Z</time>
      </trkpt>
      <trkpt lat="47.27569" lon="-2.45729">
        <ele>8.8000001907349</ele>
        <time>2020-06-28T09:30:21.000Z</time>
      </trkpt>
      <trkpt lat="47.27524" lon="-2.45743">
        <ele>8.8000001907349</ele>
        <time>2020-06-28T09:30:28.000Z</time>
      </trkpt>
      <trkpt lat="47.2747" lon="-2.45761">
        <ele>8.8000001907349</ele>
        <time>2020-06-28T09:30:37.000Z</time>
      </trkpt>
      <trkpt lat="47.27422" lon="-2.45772">
        <ele>8.8000001907349</ele>
        <time>2020-06-28T09:30:45.000Z</time>
      </trkpt>
      <trkpt lat="47.27381" lon="-2.45777">
        <ele>8.8000001907349</ele>
        <time>2020-06-28T09:30:52.000Z</time>
      </trkpt>
      <trkpt lat="47.27372" lon="-2.45777">
        <ele>8.8000001907349</ele>
        <time>2020-06-28T09:30:54.000Z</time>
      </trkpt>
      <trkpt lat="47.27369" lon="-2.45772">
        <ele>8.8000001907349</ele>
        <time>2020-06-28T09:30:55.000Z</time>
      </trkpt>
      <trkpt lat="47.27362" lon="-2.4575">
        <ele>8.8000001907349</ele>
        <time>2020-06-28T09:30:58.000Z</time>
      </trkpt>
      <trkpt lat="47.27356" lon="-2.45734">
        <ele>8.8000001907349</ele>
        <time>2020-06-28T09:31:00.000Z</time>
      </trkpt>
      <trkpt lat="47.27348" lon="-2.45709">
        <ele>8.8000001907349</ele>
        <time>2020-06-28T09:31:03.000Z</time>
      </trkpt>
      <trkpt lat="47.27328" lon="-2.45652">
        <ele>8.8000001907349</ele>
        <time>2020-06-28T09:31:10.000Z</time>
      </trkpt>
      <trkpt lat="47.27316" lon="-2.45612">
        <ele>8.8000001907349</ele>
        <time>2020-06-28T09:31:15.000Z</time>
      </trkpt>
      <trkpt lat="47.27314" lon="-2.45607">
        <ele>8.8000001907349</ele>
        <time>2020-06-28T09:31:16.000Z</time>
      </trkpt>
      <trkpt lat="47.27311" lon="-2.45602">
        <ele>8.8000001907349</ele>
        <time>2020-06-28T09:31:17.000Z</time>
      </trkpt>
      <trkpt lat="47.27305" lon="-2.4559">
        <ele>8.8000001907349</ele>
        <time>2020-06-28T09:31:20.000Z</time>
      </trkpt>
      <trkpt lat="47.27296" lon="-2.45564">
        <ele>8.8000001907349</ele>
        <time>2020-06-28T09:31:26.000Z</time>
      </trkpt>
      <trkpt lat="47.27288" lon="-2.45544">
        <ele>8.3999996185303</ele>
        <time>2020-06-28T09:31:31.000Z</time>
      </trkpt>
      <trkpt lat="47.27287" lon="-2.45541">
        <ele>8</ele>
        <time>2020-06-28T09:31:32.000Z</time>
      </trkpt>
      <trkpt lat="47.27286" lon="-2.45537">
        <ele>7.5999999046326</ele>
        <time>2020-06-28T09:31:33.000Z</time>
      </trkpt>
      <trkpt lat="47.27284" lon="-2.45533">
        <ele>7.1999998092651</ele>
        <time>2020-06-28T09:31:34.000Z</time>
      </trkpt>
      <trkpt lat="47.27283" lon="-2.45529">
        <ele>6.8000001907349</ele>
        <time>2020-06-28T09:31:35.000Z</time>
      </trkpt>
      <trkpt lat="47.27279" lon="-2.4552">
        <ele>6.8000001907349</ele>
        <time>2020-06-28T09:31:37.000Z</time>
      </trkpt>
      <trkpt lat="47.27269" lon="-2.45499">
        <ele>6.8000001907349</ele>
        <time>2020-06-28T09:31:41.000Z</time>
      </trkpt>
      <trkpt lat="47.27265" lon="-2.45496">
        <ele>6.8000001907349</ele>
        <time>2020-06-28T09:31:42.000Z</time>
      </trkpt>
      <trkpt lat="47.27247" lon="-2.45467">
        <ele>6.8000001907349</ele>
        <time>2020-06-28T09:31:49.000Z</time>
      </trkpt>
      <trkpt lat="47.27237" lon="-2.45454">
        <ele>6.8000001907349</ele>
        <time>2020-06-28T09:31:54.000Z</time>
      </trkpt>
      <trkpt lat="47.2722" lon="-2.45439">
        <ele>6.8000001907349</ele>
        <time>2020-06-28T09:32:01.000Z</time>
      </trkpt>
      <trkpt lat="47.27207" lon="-2.45429">
        <ele>6.8000001907349</ele>
        <time>2020-06-28T09:32:06.000Z</time>
      </trkpt>
      <trkpt lat="47.27195" lon="-2.45416">
        <ele>6.8000001907349</ele>
        <time>2020-06-28T09:32:11.000Z</time>
      </trkpt>
      <trkpt lat="47.27172" lon="-2.45398">
        <ele>6.8000001907349</ele>
        <time>2020-06-28T09:32:19.000Z</time>
      </trkpt>
      <trkpt lat="47.27156" lon="-2.45382">
        <ele>6.8000001907349</ele>
        <time>2020-06-28T09:32:26.000Z</time>
      </trkpt>
      <trkpt lat="47.27148" lon="-2.45374">
        <ele>6.8000001907349</ele>
        <time>2020-06-28T09:32:31.000Z</time>
      </trkpt>
      <trkpt lat="47.27138" lon="-2.45364">
        <ele>6.8000001907349</ele>
        <time>2020-06-28T09:32:37.000Z</time>
      </trkpt>
      <trkpt lat="47.27127" lon="-2.45349">
        <ele>6.8000001907349</ele>
        <time>2020-06-28T09:32:44.000Z</time>
      </trkpt>
      <trkpt lat="47.2712" lon="-2.45339">
        <ele>7.1999998092651</ele>
        <time>2020-06-28T09:32:48.000Z</time>
      </trkpt>
      <trkpt lat="47.27119" lon="-2.45336">
        <ele>7.5999999046326</ele>
        <time>2020-06-28T09:32:49.000Z</time>
      </trkpt>
      <trkpt lat="47.27118" lon="-2.45333">
        <ele>8</ele>
        <time>2020-06-28T09:32:50.000Z</time>
      </trkpt>
      <trkpt lat="47.27116" lon="-2.45331">
        <ele>8.3999996185303</ele>
        <time>2020-06-28T09:32:51.000Z</time>
      </trkpt>
      <trkpt lat="47.27114" lon="-2.45327">
        <ele>8.8000001907349</ele>
        <time>2020-06-28T09:32:52.000Z</time>
      </trkpt>
      <trkpt lat="47.27105" lon="-2.45314">
        <ele>8.8000001907349</ele>
        <time>2020-06-28T09:32:57.000Z</time>
      </trkpt>
      <trkpt lat="47.27094" lon="-2.45297">
        <ele>8.8000001907349</ele>
        <time>2020-06-28T09:33:04.000Z</time>
      </trkpt>
      <trkpt lat="47.2708" lon="-2.45281">
        <ele>8.8000001907349</ele>
        <time>2020-06-28T09:33:10.000Z</time>
      </trkpt>
      <trkpt lat="47.27066" lon="-2.45283">
        <ele>8.8000001907349</ele>
        <time>2020-06-28T09:33:15.000Z</time>
      </trkpt>
      <trkpt lat="47.27062" lon="-2.45278">
        <ele>8.8000001907349</ele>
        <time>2020-06-28T09:33:18.000Z</time>
      </trkpt>
      <trkpt lat="47.27062" lon="-2.45273">
        <ele>8.8000001907349</ele>
        <time>2020-06-28T09:33:19.000Z</time>
      </trkpt>
      <trkpt lat="47.27062" lon="-2.45254">
        <ele>9.1999998092651</ele>
        <time>2020-06-28T09:33:22.000Z</time>
      </trkpt>
      <trkpt lat="47.27061" lon="-2.45247">
        <ele>9.6000003814697</ele>
        <time>2020-06-28T09:33:23.000Z</time>
      </trkpt>
      <trkpt lat="47.27061" lon="-2.45241">
        <ele>10</ele>
        <time>2020-06-28T09:33:24.000Z</time>
      </trkpt>
      <trkpt lat="47.27062" lon="-2.45234">
        <ele>10.39999961853</ele>
        <time>2020-06-28T09:33:25.000Z</time>
      </trkpt>
      <trkpt lat="47.27062" lon="-2.45227">
        <ele>10.800000190735</ele>
        <time>2020-06-28T09:33:26.000Z</time>
      </trkpt>
      <trkpt lat="47.27062" lon="-2.45199">
        <ele>10.800000190735</ele>
        <time>2020-06-28T09:33:30.000Z</time>
      </trkpt>
      <trkpt lat="47.27063" lon="-2.45139">
        <ele>10.800000190735</ele>
        <time>2020-06-28T09:33:38.000Z</time>
      </trkpt>
      <trkpt lat="47.27064" lon="-2.45099">
        <ele>10.800000190735</ele>
        <time>2020-06-28T09:33:44.000Z</time>
      </trkpt>
      <trkpt lat="47.27064" lon="-2.4505">
        <ele>10.800000190735</ele>
        <time>2020-06-28T09:33:52.000Z</time>
      </trkpt>
      <trkpt lat="47.27066" lon="-2.45007">
        <ele>10.800000190735</ele>
        <time>2020-06-28T09:34:00.000Z</time>
      </trkpt>
      <trkpt lat="47.27066" lon="-2.44998">
        <ele>10.800000190735</ele>
        <time>2020-06-28T09:34:04.000Z</time>
      </trkpt>
      <trkpt lat="47.27068" lon="-2.44995">
        <ele>10.800000190735</ele>
        <time>2020-06-28T09:34:06.000Z</time>
      </trkpt>
      <trkpt lat="47.27073" lon="-2.44994">
        <ele>10.800000190735</ele>
        <time>2020-06-28T09:34:08.000Z</time>
      </trkpt>
      <trkpt lat="47.2709" lon="-2.44996">
        <ele>10.800000190735</ele>
        <time>2020-06-28T09:34:12.000Z</time>
      </trkpt>
      <trkpt lat="47.27124" lon="-2.44999">
        <ele>10.800000190735</ele>
        <time>2020-06-28T09:34:18.000Z</time>
      </trkpt>
      <trkpt lat="47.27152" lon="-2.44997">
        <ele>10.800000190735</ele>
        <time>2020-06-28T09:34:22.000Z</time>
      </trkpt>
      <trkpt lat="47.27167" lon="-2.44994">
        <ele>10.800000190735</ele>
        <time>2020-06-28T09:34:24.000Z</time>
      </trkpt>
      <trkpt lat="47.27226" lon="-2.44983">
        <ele>10.800000190735</ele>
        <time>2020-06-28T09:34:32.000Z</time>
      </trkpt>
      <trkpt lat="47.27247" lon="-2.44975">
        <ele>10.800000190735</ele>
        <time>2020-06-28T09:34:35.000Z</time>
      </trkpt>
      <trkpt lat="47.27269" lon="-2.44964">
        <ele>10.800000190735</ele>
        <time>2020-06-28T09:34:38.000Z</time>
      </trkpt>
      <trkpt lat="47.27276" lon="-2.44963">
        <ele>10.800000190735</ele>
        <time>2020-06-28T09:34:39.000Z</time>
      </trkpt>
      <trkpt lat="47.27298" lon="-2.44964">
        <ele>10.800000190735</ele>
        <time>2020-06-28T09:34:42.000Z</time>
      </trkpt>
      <trkpt lat="47.27325" lon="-2.44959">
        <ele>10.800000190735</ele>
        <time>2020-06-28T09:34:46.000Z</time>
      </trkpt>
      <trkpt lat="47.27332" lon="-2.44956">
        <ele>10.39999961853</ele>
        <time>2020-06-28T09:34:47.000Z</time>
      </trkpt>
      <trkpt lat="47.27338" lon="-2.44952">
        <ele>10</ele>
        <time>2020-06-28T09:34:48.000Z</time>
      </trkpt>
      <trkpt lat="47.27344" lon="-2.44949">
        <ele>9.6000003814697</ele>
        <time>2020-06-28T09:34:49.000Z</time>
      </trkpt>
      <trkpt lat="47.27351" lon="-2.44945">
        <ele>9.1999998092651</ele>
        <time>2020-06-28T09:34:50.000Z</time>
      </trkpt>
      <trkpt lat="47.27357" lon="-2.44942">
        <ele>8.6000003814697</ele>
        <time>2020-06-28T09:34:51.000Z</time>
      </trkpt>
      <trkpt lat="47.27385" lon="-2.44927">
        <ele>8.6000003814697</ele>
        <time>2020-06-28T09:34:55.000Z</time>
      </trkpt>
      <trkpt lat="47.2742" lon="-2.44906">
        <ele>8.6000003814697</ele>
        <time>2020-06-28T09:35:00.000Z</time>
      </trkpt>
      <trkpt lat="47.27427" lon="-2.449">
        <ele>8.6000003814697</ele>
        <time>2020-06-28T09:35:01.000Z</time>
      </trkpt>
      <trkpt lat="47.27444" lon="-2.44878">
        <ele>8.6000003814697</ele>
        <time>2020-06-28T09:35:04.000Z</time>
      </trkpt>
      <trkpt lat="47.27449" lon="-2.44871">
        <ele>8.6000003814697</ele>
        <time>2020-06-28T09:35:05.000Z</time>
      </trkpt>
      <trkpt lat="47.27454" lon="-2.44863">
        <ele>8.1999998092651</ele>
        <time>2020-06-28T09:35:06.000Z</time>
      </trkpt>
      <trkpt lat="47.27458" lon="-2.44856">
        <ele>7.8000001907349</ele>
        <time>2020-06-28T09:35:07.000Z</time>
      </trkpt>
      <trkpt lat="47.27463" lon="-2.44851">
        <ele>7.4000000953674</ele>
        <time>2020-06-28T09:35:08.000Z</time>
      </trkpt>
      <trkpt lat="47.2747" lon="-2.4485">
        <ele>7</ele>
        <time>2020-06-28T09:35:09.000Z</time>
      </trkpt>
      <trkpt lat="47.27476" lon="-2.4485">
        <ele>6.5999999046326</ele>
        <time>2020-06-28T09:35:10.000Z</time>
      </trkpt>
      <trkpt lat="47.27494" lon="-2.4485">
        <ele>6.5999999046326</ele>
        <time>2020-06-28T09:35:13.000Z</time>
      </trkpt>
      <trkpt lat="47.27506" lon="-2.44846">
        <ele>6.5999999046326</ele>
        <time>2020-06-28T09:35:15.000Z</time>
      </trkpt>
      <trkpt lat="47.27529" lon="-2.44824">
        <ele>6.5999999046326</ele>
        <time>2020-06-28T09:35:19.000Z</time>
      </trkpt>
      <trkpt lat="47.27538" lon="-2.44811">
        <ele>6.5999999046326</ele>
        <time>2020-06-28T09:35:21.000Z</time>
      </trkpt>
      <trkpt lat="47.2754" lon="-2.44792">
        <ele>6.5999999046326</ele>
        <time>2020-06-28T09:35:23.000Z</time>
      </trkpt>
      <trkpt lat="47.27535" lon="-2.44773">
        <ele>6.5999999046326</ele>
        <time>2020-06-28T09:35:25.000Z</time>
      </trkpt>
      <trkpt lat="47.27515" lon="-2.44704">
        <ele>6.5999999046326</ele>
        <time>2020-06-28T09:35:32.000Z</time>
      </trkpt>
      <trkpt lat="47.27511" lon="-2.44695">
        <ele>6.5999999046326</ele>
        <time>2020-06-28T09:35:33.000Z</time>
      </trkpt>
      <trkpt lat="47.27491" lon="-2.44663">
        <ele>6.5999999046326</ele>
        <time>2020-06-28T09:35:37.000Z</time>
      </trkpt>
      <trkpt lat="47.27465" lon="-2.44616">
        <ele>6.5999999046326</ele>
        <time>2020-06-28T09:35:43.000Z</time>
      </trkpt>
      <trkpt lat="47.27456" lon="-2.446">
        <ele>6.5999999046326</ele>
        <time>2020-06-28T09:35:45.000Z</time>
      </trkpt>
      <trkpt lat="47.27451" lon="-2.44581">
        <ele>6.5999999046326</ele>
        <time>2020-06-28T09:35:47.000Z</time>
      </trkpt>
      <trkpt lat="47.2745" lon="-2.44561">
        <ele>6.5999999046326</ele>
        <time>2020-06-28T09:35:49.000Z</time>
      </trkpt>
      <trkpt lat="47.27449" lon="-2.4453">
        <ele>6.5999999046326</ele>
        <time>2020-06-28T09:35:52.000Z</time>
      </trkpt>
      <trkpt lat="47.27447" lon="-2.44519">
        <ele>6.5999999046326</ele>
        <time>2020-06-28T09:35:53.000Z</time>
      </trkpt>
      <trkpt lat="47.27437" lon="-2.4449">
        <ele>6.5999999046326</ele>
        <time>2020-06-28T09:35:56.000Z</time>
      </trkpt>
      <trkpt lat="47.27433" lon="-2.44431">
        <ele>6.5999999046326</ele>
        <time>2020-06-28T09:36:02.000Z</time>
      </trkpt>
      <trkpt lat="47.27434" lon="-2.44423">
        <ele>6.1999998092651</ele>
        <time>2020-06-28T09:36:03.000Z</time>
      </trkpt>
      <trkpt lat="47.27435" lon="-2.44415">
        <ele>5.8000001907349</ele>
        <time>2020-06-28T09:36:04.000Z</time>
      </trkpt>
      <trkpt lat="47.27436" lon="-2.44406">
        <ele>5.4000000953674</ele>
        <time>2020-06-28T09:36:05.000Z</time>
      </trkpt>
      <trkpt lat="47.27437" lon="-2.44397">
        <ele>5</ele>
        <time>2020-06-28T09:36:06.000Z</time>
      </trkpt>
      <trkpt lat="47.27437" lon="-2.44388">
        <ele>4.5999999046326</ele>
        <time>2020-06-28T09:36:07.000Z</time>
      </trkpt>
      <trkpt lat="47.27431" lon="-2.44349">
        <ele>4.5999999046326</ele>
        <time>2020-06-28T09:36:11.000Z</time>
      </trkpt>
      <trkpt lat="47.27423" lon="-2.4427">
        <ele>4.5999999046326</ele>
        <time>2020-06-28T09:36:19.000Z</time>
      </trkpt>
      <trkpt lat="47.27422" lon="-2.44261">
        <ele>4.5999999046326</ele>
        <time>2020-06-28T09:36:20.000Z</time>
      </trkpt>
      <trkpt lat="47.27413" lon="-2.44192">
        <ele>4.5999999046326</ele>
        <time>2020-06-28T09:36:28.000Z</time>
      </trkpt>
      <trkpt lat="47.2741" lon="-2.44161">
        <ele>4.5999999046326</ele>
        <time>2020-06-28T09:36:33.000Z</time>
      </trkpt>
      <trkpt lat="47.27411" lon="-2.44156">
        <ele>5</ele>
        <time>2020-06-28T09:36:34.000Z</time>
      </trkpt>
      <trkpt lat="47.27413" lon="-2.4415">
        <ele>5.8000001907349</ele>
        <time>2020-06-28T09:36:35.000Z</time>
      </trkpt>
      <trkpt lat="47.27416" lon="-2.44146">
        <ele>6.1999998092651</ele>
        <time>2020-06-28T09:36:36.000Z</time>
      </trkpt>
      <trkpt lat="47.2742" lon="-2.44142">
        <ele>6.5999999046326</ele>
        <time>2020-06-28T09:36:37.000Z</time>
      </trkpt>
      <trkpt lat="47.27429" lon="-2.44135">
        <ele>6.5999999046326</ele>
        <time>2020-06-28T09:36:39.000Z</time>
      </trkpt>
      <trkpt lat="47.27442" lon="-2.44128">
        <ele>6.5999999046326</ele>
        <time>2020-06-28T09:36:42.000Z</time>
      </trkpt>
      <trkpt lat="47.2747" lon="-2.4411">
        <ele>6.5999999046326</ele>
        <time>2020-06-28T09:36:49.000Z</time>
      </trkpt>
      <trkpt lat="47.27499" lon="-2.4409">
        <ele>6.5999999046326</ele>
        <time>2020-06-28T09:36:56.000Z</time>
      </trkpt>
      <trkpt lat="47.27506" lon="-2.44084">
        <ele>6.5999999046326</ele>
        <time>2020-06-28T09:36:58.000Z</time>
      </trkpt>
      <trkpt lat="47.27526" lon="-2.44072">
        <ele>6.5999999046326</ele>
        <time>2020-06-28T09:37:03.000Z</time>
      </trkpt>
      <trkpt lat="47.2755" lon="-2.4406">
        <ele>6.5999999046326</ele>
        <time>2020-06-28T09:37:08.000Z</time>
      </trkpt>
      <trkpt lat="47.27585" lon="-2.44056">
        <ele>6.5999999046326</ele>
        <time>2020-06-28T09:37:14.000Z</time>
      </trkpt>
      <trkpt lat="47.27639" lon="-2.44052">
        <ele>6.5999999046326</ele>
        <time>2020-06-28T09:37:23.000Z</time>
      </trkpt>
      <trkpt lat="47.27657" lon="-2.44051">
        <ele>6.5999999046326</ele>
        <time>2020-06-28T09:37:26.000Z</time>
      </trkpt>
      <trkpt lat="47.27669" lon="-2.44053">
        <ele>6.5999999046326</ele>
        <time>2020-06-28T09:37:28.000Z</time>
      </trkpt>
      <trkpt lat="47.27675" lon="-2.44055">
        <ele>6.5999999046326</ele>
        <time>2020-06-28T09:37:29.000Z</time>
      </trkpt>
      <trkpt lat="47.27694" lon="-2.4406">
        <ele>6.5999999046326</ele>
        <time>2020-06-28T09:37:32.000Z</time>
      </trkpt>
      <trkpt lat="47.27701" lon="-2.44058">
        <ele>6.5999999046326</ele>
        <time>2020-06-28T09:37:33.000Z</time>
      </trkpt>
      <trkpt lat="47.27707" lon="-2.44053">
        <ele>6.1999998092651</ele>
        <time>2020-06-28T09:37:34.000Z</time>
      </trkpt>
      <trkpt lat="47.27712" lon="-2.44046">
        <ele>5.8000001907349</ele>
        <time>2020-06-28T09:37:35.000Z</time>
      </trkpt>
      <trkpt lat="47.27717" lon="-2.44037">
        <ele>5.4000000953674</ele>
        <time>2020-06-28T09:37:36.000Z</time>
      </trkpt>
      <trkpt lat="47.27721" lon="-2.44028">
        <ele>5</ele>
        <time>2020-06-28T09:37:37.000Z</time>
      </trkpt>
      <trkpt lat="47.27724" lon="-2.44018">
        <ele>4.5999999046326</ele>
        <time>2020-06-28T09:37:38.000Z</time>
      </trkpt>
      <trkpt lat="47.27728" lon="-2.44009">
        <ele>4.5999999046326</ele>
        <time>2020-06-28T09:37:39.000Z</time>
      </trkpt>
      <trkpt lat="47.27733" lon="-2.43988">
        <ele>4.5999999046326</ele>
        <time>2020-06-28T09:37:41.000Z</time>
      </trkpt>
      <trkpt lat="47.27752" lon="-2.4392">
        <ele>4.5999999046326</ele>
        <time>2020-06-28T09:37:48.000Z</time>
      </trkpt>
      <trkpt lat="47.27764" lon="-2.43867">
        <ele>4.5999999046326</ele>
        <time>2020-06-28T09:37:54.000Z</time>
      </trkpt>
      <trkpt lat="47.27766" lon="-2.43859">
        <ele>4.5999999046326</ele>
        <time>2020-06-28T09:37:55.000Z</time>
      </trkpt>
      <trkpt lat="47.27766" lon="-2.43831">
        <ele>4.5999999046326</ele>
        <time>2020-06-28T09:37:58.000Z</time>
      </trkpt>
      <trkpt lat="47.27772" lon="-2.43806">
        <ele>4.5999999046326</ele>
        <time>2020-06-28T09:38:01.000Z</time>
      </trkpt>
      <trkpt lat="47.27792" lon="-2.43789">
        <ele>4.5999999046326</ele>
        <time>2020-06-28T09:38:05.000Z</time>
      </trkpt>
      <trkpt lat="47.27804" lon="-2.43792">
        <ele>4.5999999046326</ele>
        <time>2020-06-28T09:38:07.000Z</time>
      </trkpt>
      <trkpt lat="47.2781" lon="-2.43794">
        <ele>4.5999999046326</ele>
        <time>2020-06-28T09:38:08.000Z</time>
      </trkpt>
      <trkpt lat="47.27828" lon="-2.43791">
        <ele>4.5999999046326</ele>
        <time>2020-06-28T09:38:11.000Z</time>
      </trkpt>
      <trkpt lat="47.27841" lon="-2.43785">
        <ele>4.5999999046326</ele>
        <time>2020-06-28T09:38:13.000Z</time>
      </trkpt>
      <trkpt lat="47.27859" lon="-2.43771">
        <ele>4.5999999046326</ele>
        <time>2020-06-28T09:38:16.000Z</time>
      </trkpt>
      <trkpt lat="47.27898" lon="-2.43733">
        <ele>4.5999999046326</ele>
        <time>2020-06-28T09:38:22.000Z</time>
      </trkpt>
      <trkpt lat="47.27929" lon="-2.43695">
        <ele>4.5999999046326</ele>
        <time>2020-06-28T09:38:27.000Z</time>
      </trkpt>
      <trkpt lat="47.27968" lon="-2.43637">
        <ele>4.5999999046326</ele>
        <time>2020-06-28T09:38:34.000Z</time>
      </trkpt>
      <trkpt lat="47.28007" lon="-2.4358">
        <ele>4.5999999046326</ele>
        <time>2020-06-28T09:38:41.000Z</time>
      </trkpt>
      <trkpt lat="47.28013" lon="-2.43572">
        <ele>4.5999999046326</ele>
        <time>2020-06-28T09:38:42.000Z</time>
      </trkpt>
      <trkpt lat="47.28052" lon="-2.43515">
        <ele>4.5999999046326</ele>
        <time>2020-06-28T09:38:49.000Z</time>
      </trkpt>
      <trkpt lat="47.28057" lon="-2.43508">
        <ele>4.5999999046326</ele>
        <time>2020-06-28T09:38:50.000Z</time>
      </trkpt>
      <trkpt lat="47.28093" lon="-2.43453">
        <ele>4.5999999046326</ele>
        <time>2020-06-28T09:38:57.000Z</time>
      </trkpt>
      <trkpt lat="47.28133" lon="-2.43394">
        <ele>4.5999999046326</ele>
        <time>2020-06-28T09:39:05.000Z</time>
      </trkpt>
      <trkpt lat="47.28138" lon="-2.43387">
        <ele>4.5999999046326</ele>
        <time>2020-06-28T09:39:06.000Z</time>
      </trkpt>
      <trkpt lat="47.28174" lon="-2.43334">
        <ele>4.5999999046326</ele>
        <time>2020-06-28T09:39:14.000Z</time>
      </trkpt>
      <trkpt lat="47.28175" lon="-2.43311">
        <ele>4.5999999046326</ele>
        <time>2020-06-28T09:39:17.000Z</time>
      </trkpt>
      <trkpt lat="47.28172" lon="-2.43288">
        <ele>4.5999999046326</ele>
        <time>2020-06-28T09:39:20.000Z</time>
      </trkpt>
      <trkpt lat="47.28171" lon="-2.43281">
        <ele>4.5999999046326</ele>
        <time>2020-06-28T09:39:21.000Z</time>
      </trkpt>
      <trkpt lat="47.2817" lon="-2.43267">
        <ele>4.5999999046326</ele>
        <time>2020-06-28T09:39:23.000Z</time>
      </trkpt>
      <trkpt lat="47.28172" lon="-2.43263">
        <ele>4.5999999046326</ele>
        <time>2020-06-28T09:39:24.000Z</time>
      </trkpt>
      <trkpt lat="47.28184" lon="-2.43262">
        <ele>4.5999999046326</ele>
        <time>2020-06-28T09:39:27.000Z</time>
      </trkpt>
      <trkpt lat="47.28205" lon="-2.43267">
        <ele>4.5999999046326</ele>
        <time>2020-06-28T09:39:31.000Z</time>
      </trkpt>
      <trkpt lat="47.2821" lon="-2.43271">
        <ele>4.5999999046326</ele>
        <time>2020-06-28T09:39:32.000Z</time>
      </trkpt>
      <trkpt lat="47.2822" lon="-2.43293">
        <ele>4.5999999046326</ele>
        <time>2020-06-28T09:39:35.000Z</time>
      </trkpt>
      <trkpt lat="47.28221" lon="-2.43322">
        <ele>5</ele>
        <time>2020-06-28T09:39:38.000Z</time>
      </trkpt>
      <trkpt lat="47.28222" lon="-2.43331">
        <ele>5.4000000953674</ele>
        <time>2020-06-28T09:39:39.000Z</time>
      </trkpt>
      <trkpt lat="47.28225" lon="-2.4334">
        <ele>5.8000001907349</ele>
        <time>2020-06-28T09:39:40.000Z</time>
      </trkpt>
      <trkpt lat="47.28229" lon="-2.43347">
        <ele>6.1999998092651</ele>
        <time>2020-06-28T09:39:41.000Z</time>
      </trkpt>
      <trkpt lat="47.28233" lon="-2.43353">
        <ele>6.5999999046326</ele>
        <time>2020-06-28T09:39:42.000Z</time>
      </trkpt>
      <trkpt lat="47.28247" lon="-2.43368">
        <ele>6.5999999046326</ele>
        <time>2020-06-28T09:39:45.000Z</time>
      </trkpt>
      <trkpt lat="47.28256" lon="-2.43377">
        <ele>6.5999999046326</ele>
        <time>2020-06-28T09:39:47.000Z</time>
      </trkpt>
      <trkpt lat="47.28265" lon="-2.43376">
        <ele>6.5999999046326</ele>
        <time>2020-06-28T09:39:49.000Z</time>
      </trkpt>
      <trkpt lat="47.28271" lon="-2.43356">
        <ele>6.5999999046326</ele>
        <time>2020-06-28T09:39:52.000Z</time>
      </trkpt>
      <trkpt lat="47.28272" lon="-2.43348">
        <ele>6.5999999046326</ele>
        <time>2020-06-28T09:39:53.000Z</time>
      </trkpt>
      <trkpt lat="47.28278" lon="-2.43307">
        <ele>6.5999999046326</ele>
        <time>2020-06-28T09:39:58.000Z</time>
      </trkpt>
      <trkpt lat="47.2828" lon="-2.433">
        <ele>6.5999999046326</ele>
        <time>2020-06-28T09:39:59.000Z</time>
      </trkpt>
      <trkpt lat="47.28289" lon="-2.43281">
        <ele>6.1999998092651</ele>
        <time>2020-06-28T09:40:03.000Z</time>
      </trkpt>
      <trkpt lat="47.28292" lon="-2.43278">
        <ele>5.8000001907349</ele>
        <time>2020-06-28T09:40:04.000Z</time>
      </trkpt>
      <trkpt lat="47.28294" lon="-2.43275">
        <ele>5.4000000953674</ele>
        <time>2020-06-28T09:40:05.000Z</time>
      </trkpt>
      <trkpt lat="47.28297" lon="-2.43272">
        <ele>5</ele>
        <time>2020-06-28T09:40:06.000Z</time>
      </trkpt>
      <trkpt lat="47.283" lon="-2.43269">
        <ele>4.5999999046326</ele>
        <time>2020-06-28T09:40:07.000Z</time>
      </trkpt>
      <trkpt lat="47.28303" lon="-2.43265">
        <ele>4.5999999046326</ele>
        <time>2020-06-28T09:40:08.000Z</time>
      </trkpt>
      <trkpt lat="47.28321" lon="-2.43243">
        <ele>4.5999999046326</ele>
        <time>2020-06-28T09:40:13.000Z</time>
      </trkpt>
      <trkpt lat="47.28337" lon="-2.43219">
        <ele>4.5999999046326</ele>
        <time>2020-06-28T09:40:17.000Z</time>
      </trkpt>
      <trkpt lat="47.28346" lon="-2.43208">
        <ele>4.5999999046326</ele>
        <time>2020-06-28T09:40:19.000Z</time>
      </trkpt>
      <trkpt lat="47.28384" lon="-2.43167">
        <ele>4.5999999046326</ele>
        <time>2020-06-28T09:40:27.000Z</time>
      </trkpt>
      <trkpt lat="47.2841" lon="-2.43133">
        <ele>4.5999999046326</ele>
        <time>2020-06-28T09:40:33.000Z</time>
      </trkpt>
      <trkpt lat="47.2843" lon="-2.43103">
        <ele>4.5999999046326</ele>
        <time>2020-06-28T09:40:38.000Z</time>
      </trkpt>
      <trkpt lat="47.28461" lon="-2.43061">
        <ele>4.5999999046326</ele>
        <time>2020-06-28T09:40:46.000Z</time>
      </trkpt>
      <trkpt lat="47.28473" lon="-2.43038">
        <ele>4.5999999046326</ele>
        <time>2020-06-28T09:40:50.000Z</time>
      </trkpt>
      <trkpt lat="47.28481" lon="-2.4303">
        <ele>4.5999999046326</ele>
        <time>2020-06-28T09:40:52.000Z</time>
      </trkpt>
      <trkpt lat="47.28495" lon="-2.43025">
        <ele>4.5999999046326</ele>
        <time>2020-06-28T09:40:55.000Z</time>
      </trkpt>
      <trkpt lat="47.285" lon="-2.43025">
        <ele>4.5999999046326</ele>
        <time>2020-06-28T09:40:56.000Z</time>
      </trkpt>
      <trkpt lat="47.28528" lon="-2.43036">
        <ele>4.5999999046326</ele>
        <time>2020-06-28T09:41:02.000Z</time>
      </trkpt>
      <trkpt lat="47.28532" lon="-2.43039">
        <ele>4.5999999046326</ele>
        <time>2020-06-28T09:41:03.000Z</time>
      </trkpt>
      <trkpt lat="47.28544" lon="-2.43049">
        <ele>4.5999999046326</ele>
        <time>2020-06-28T09:41:06.000Z</time>
      </trkpt>
      <trkpt lat="47.28547" lon="-2.43053">
        <ele>4.5999999046326</ele>
        <time>2020-06-28T09:41:07.000Z</time>
      </trkpt>
      <trkpt lat="47.28569" lon="-2.43089">
        <ele>4.5999999046326</ele>
        <time>2020-06-28T09:41:14.000Z</time>
      </trkpt>
      <trkpt lat="47.28584" lon="-2.43116">
        <ele>4.5999999046326</ele>
        <time>2020-06-28T09:41:19.000Z</time>
      </trkpt>
      <trkpt lat="47.2859" lon="-2.43146">
        <ele>4.5999999046326</ele>
        <time>2020-06-28T09:41:24.000Z</time>
      </trkpt>
      <trkpt lat="47.28592" lon="-2.43153">
        <ele>4.5999999046326</ele>
        <time>2020-06-28T09:41:25.000Z</time>
      </trkpt>
      <trkpt lat="47.28595" lon="-2.43178">
        <ele>4.5999999046326</ele>
        <time>2020-06-28T09:41:29.000Z</time>
      </trkpt>
      <trkpt lat="47.28596" lon="-2.43191">
        <ele>4.5999999046326</ele>
        <time>2020-06-28T09:41:31.000Z</time>
      </trkpt>
      <trkpt lat="47.28597" lon="-2.43227">
        <ele>4.5999999046326</ele>
        <time>2020-06-28T09:41:37.000Z</time>
      </trkpt>
      <trkpt lat="47.28599" lon="-2.43247">
        <ele>4.5999999046326</ele>
        <time>2020-06-28T09:41:40.000Z</time>
      </trkpt>
      <trkpt lat="47.28603" lon="-2.43257">
        <ele>4.5999999046326</ele>
        <time>2020-06-28T09:41:42.000Z</time>
      </trkpt>
      <trkpt lat="47.28616" lon="-2.4326">
        <ele>4.5999999046326</ele>
        <time>2020-06-28T09:41:45.000Z</time>
      </trkpt>
      <trkpt lat="47.2863" lon="-2.43256">
        <ele>4.5999999046326</ele>
        <time>2020-06-28T09:41:48.000Z</time>
      </trkpt>
      <trkpt lat="47.28639" lon="-2.43252">
        <ele>4.5999999046326</ele>
        <time>2020-06-28T09:41:50.000Z</time>
      </trkpt>
      <trkpt lat="47.28649" lon="-2.43247">
        <ele>4.5999999046326</ele>
        <time>2020-06-28T09:41:52.000Z</time>
      </trkpt>
      <trkpt lat="47.28654" lon="-2.43238">
        <ele>4.5999999046326</ele>
        <time>2020-06-28T09:41:54.000Z</time>
      </trkpt>
      <trkpt lat="47.28649" lon="-2.43224">
        <ele>4.5999999046326</ele>
        <time>2020-06-28T09:41:57.000Z</time>
      </trkpt>
      <trkpt lat="47.28642" lon="-2.43214">
        <ele>4.5999999046326</ele>
        <time>2020-06-28T09:41:59.000Z</time>
      </trkpt>
      <trkpt lat="47.2864" lon="-2.43209">
        <ele>4.5999999046326</ele>
        <time>2020-06-28T09:42:00.000Z</time>
      </trkpt>
      <trkpt lat="47.28634" lon="-2.43196">
        <ele>4.5999999046326</ele>
        <time>2020-06-28T09:42:02.000Z</time>
      </trkpt>
      <trkpt lat="47.28628" lon="-2.43164">
        <ele>4.5999999046326</ele>
        <time>2020-06-28T09:42:06.000Z</time>
      </trkpt>
      <trkpt lat="47.28626" lon="-2.43146">
        <ele>4.5999999046326</ele>
        <time>2020-06-28T09:42:08.000Z</time>
      </trkpt>
      <trkpt lat="47.28626" lon="-2.43129">
        <ele>4.5999999046326</ele>
        <time>2020-06-28T09:42:10.000Z</time>
      </trkpt>
      <trkpt lat="47.28629" lon="-2.43113">
        <ele>4.5999999046326</ele>
        <time>2020-06-28T09:42:12.000Z</time>
      </trkpt>
      <trkpt lat="47.28634" lon="-2.4309">
        <ele>4.5999999046326</ele>
        <time>2020-06-28T09:42:15.000Z</time>
      </trkpt>
      <trkpt lat="47.28642" lon="-2.43061">
        <ele>4.5999999046326</ele>
        <time>2020-06-28T09:42:20.000Z</time>
      </trkpt>
      <trkpt lat="47.28644" lon="-2.4305">
        <ele>4.5999999046326</ele>
        <time>2020-06-28T09:42:22.000Z</time>
      </trkpt>
      <trkpt lat="47.28648" lon="-2.4303">
        <ele>4.5999999046326</ele>
        <time>2020-06-28T09:42:25.000Z</time>
      </trkpt>
      <trkpt lat="47.2865" lon="-2.43017">
        <ele>4.5999999046326</ele>
        <time>2020-06-28T09:42:27.000Z</time>
      </trkpt>
      <trkpt lat="47.28655" lon="-2.42992">
        <ele>4.5999999046326</ele>
        <time>2020-06-28T09:42:31.000Z</time>
      </trkpt>
      <trkpt lat="47.28664" lon="-2.42931">
        <ele>4.5999999046326</ele>
        <time>2020-06-28T09:42:40.000Z</time>
      </trkpt>
      <trkpt lat="47.28669" lon="-2.42879">
        <ele>4.5999999046326</ele>
        <time>2020-06-28T09:42:47.000Z</time>
      </trkpt>
      <trkpt lat="47.28674" lon="-2.42853">
        <ele>4.5999999046326</ele>
        <time>2020-06-28T09:42:51.000Z</time>
      </trkpt>
      <trkpt lat="47.28677" lon="-2.42839">
        <ele>5</ele>
        <time>2020-06-28T09:42:53.000Z</time>
      </trkpt>
      <trkpt lat="47.28679" lon="-2.42832">
        <ele>5.4000000953674</ele>
        <time>2020-06-28T09:42:54.000Z</time>
      </trkpt>
      <trkpt lat="47.28681" lon="-2.42825">
        <ele>5.8000001907349</ele>
        <time>2020-06-28T09:42:55.000Z</time>
      </trkpt>
      <trkpt lat="47.28684" lon="-2.42819">
        <ele>6.1999998092651</ele>
        <time>2020-06-28T09:42:56.000Z</time>
      </trkpt>
      <trkpt lat="47.28687" lon="-2.42813">
        <ele>6.5999999046326</ele>
        <time>2020-06-28T09:42:57.000Z</time>
      </trkpt>
      <trkpt lat="47.28691" lon="-2.42806">
        <ele>6.5999999046326</ele>
        <time>2020-06-28T09:42:58.000Z</time>
      </trkpt>
      <trkpt lat="47.28698" lon="-2.42793">
        <ele>6.5999999046326</ele>
        <time>2020-06-28T09:43:00.000Z</time>
      </trkpt>
      <trkpt lat="47.28713" lon="-2.42757">
        <ele>6.5999999046326</ele>
        <time>2020-06-28T09:43:05.000Z</time>
      </trkpt>
      <trkpt lat="47.28715" lon="-2.42748">
        <ele>6.5999999046326</ele>
        <time>2020-06-28T09:43:06.000Z</time>
      </trkpt>
      <trkpt lat="47.28718" lon="-2.42724">
        <ele>6.5999999046326</ele>
        <time>2020-06-28T09:43:09.000Z</time>
      </trkpt>
      <trkpt lat="47.2872" lon="-2.42707">
        <ele>6.5999999046326</ele>
        <time>2020-06-28T09:43:11.000Z</time>
      </trkpt>
      <trkpt lat="47.28719" lon="-2.42675">
        <ele>6.5999999046326</ele>
        <time>2020-06-28T09:43:15.000Z</time>
      </trkpt>
      <trkpt lat="47.28716" lon="-2.42669">
        <ele>6.5999999046326</ele>
        <time>2020-06-28T09:43:16.000Z</time>
      </trkpt>
      <trkpt lat="47.28702" lon="-2.4266">
        <ele>6.5999999046326</ele>
        <time>2020-06-28T09:43:19.000Z</time>
      </trkpt>
      <trkpt lat="47.28691" lon="-2.42657">
        <ele>6.5999999046326</ele>
        <time>2020-06-28T09:43:21.000Z</time>
      </trkpt>
      <trkpt lat="47.28675" lon="-2.42654">
        <ele>6.5999999046326</ele>
        <time>2020-06-28T09:43:24.000Z</time>
      </trkpt>
      <trkpt lat="47.28658" lon="-2.42651">
        <ele>6.5999999046326</ele>
        <time>2020-06-28T09:43:27.000Z</time>
      </trkpt>
      <trkpt lat="47.28643" lon="-2.42647">
        <ele>6.5999999046326</ele>
        <time>2020-06-28T09:43:30.000Z</time>
      </trkpt>
      <trkpt lat="47.28632" lon="-2.42642">
        <ele>6.5999999046326</ele>
        <time>2020-06-28T09:43:32.000Z</time>
      </trkpt>
      <trkpt lat="47.28618" lon="-2.4263">
        <ele>6.5999999046326</ele>
        <time>2020-06-28T09:43:35.000Z</time>
      </trkpt>
      <trkpt lat="47.28593" lon="-2.42608">
        <ele>6.5999999046326</ele>
        <time>2020-06-28T09:43:40.000Z</time>
      </trkpt>
      <trkpt lat="47.28588" lon="-2.42602">
        <ele>6.5999999046326</ele>
        <time>2020-06-28T09:43:41.000Z</time>
      </trkpt>
      <trkpt lat="47.28575" lon="-2.42584">
        <ele>6.5999999046326</ele>
        <time>2020-06-28T09:43:44.000Z</time>
      </trkpt>
      <trkpt lat="47.28569" lon="-2.42569">
        <ele>6.5999999046326</ele>
        <time>2020-06-28T09:43:46.000Z</time>
      </trkpt>
      <trkpt lat="47.28565" lon="-2.42533">
        <ele>6.5999999046326</ele>
        <time>2020-06-28T09:43:50.000Z</time>
      </trkpt>
      <trkpt lat="47.28573" lon="-2.42497">
        <ele>6.5999999046326</ele>
        <time>2020-06-28T09:43:54.000Z</time>
      </trkpt>
      <trkpt lat="47.28591" lon="-2.42469">
        <ele>6.5999999046326</ele>
        <time>2020-06-28T09:43:58.000Z</time>
      </trkpt>
      <trkpt lat="47.28618" lon="-2.42441">
        <ele>6.5999999046326</ele>
        <time>2020-06-28T09:44:03.000Z</time>
      </trkpt>
      <trkpt lat="47.28623" lon="-2.42437">
        <ele>6.5999999046326</ele>
        <time>2020-06-28T09:44:04.000Z</time>
      </trkpt>
      <trkpt lat="47.28648" lon="-2.42411">
        <ele>6.5999999046326</ele>
        <time>2020-06-28T09:44:09.000Z</time>
      </trkpt>
      <trkpt lat="47.28657" lon="-2.424">
        <ele>6.5999999046326</ele>
        <time>2020-06-28T09:44:11.000Z</time>
      </trkpt>
      <trkpt lat="47.28668" lon="-2.42381">
        <ele>6.5999999046326</ele>
        <time>2020-06-28T09:44:14.000Z</time>
      </trkpt>
      <trkpt lat="47.2867" lon="-2.42374">
        <ele>6.5999999046326</ele>
        <time>2020-06-28T09:44:15.000Z</time>
      </trkpt>
      <trkpt lat="47.28672" lon="-2.42339">
        <ele>6.5999999046326</ele>
        <time>2020-06-28T09:44:19.000Z</time>
      </trkpt>
      <trkpt lat="47.28674" lon="-2.42321">
        <ele>6.5999999046326</ele>
        <time>2020-06-28T09:44:21.000Z</time>
      </trkpt>
      <trkpt lat="47.2868" lon="-2.42291">
        <ele>6.5999999046326</ele>
        <time>2020-06-28T09:44:24.000Z</time>
      </trkpt>
      <trkpt lat="47.28683" lon="-2.42272">
        <ele>6.5999999046326</ele>
        <time>2020-06-28T09:44:26.000Z</time>
      </trkpt>
      <trkpt lat="47.28695" lon="-2.42226">
        <ele>6.5999999046326</ele>
        <time>2020-06-28T09:44:31.000Z</time>
      </trkpt>
      <trkpt lat="47.28705" lon="-2.42202">
        <ele>6.5999999046326</ele>
        <time>2020-06-28T09:44:34.000Z</time>
      </trkpt>
      <trkpt lat="47.28713" lon="-2.4219">
        <ele>6.5999999046326</ele>
        <time>2020-06-28T09:44:36.000Z</time>
      </trkpt>
      <trkpt lat="47.28724" lon="-2.42179">
        <ele>6.5999999046326</ele>
        <time>2020-06-28T09:44:38.000Z</time>
      </trkpt>
      <trkpt lat="47.2874" lon="-2.42163">
        <ele>6.5999999046326</ele>
        <time>2020-06-28T09:44:41.000Z</time>
      </trkpt>
      <trkpt lat="47.28779" lon="-2.42137">
        <ele>6.5999999046326</ele>
        <time>2020-06-28T09:44:48.000Z</time>
      </trkpt>
      <trkpt lat="47.28788" lon="-2.42131">
        <ele>6.5999999046326</ele>
        <time>2020-06-28T09:44:51.000Z</time>
      </trkpt>
      <trkpt lat="47.28799" lon="-2.42115">
        <ele>6.5999999046326</ele>
        <time>2020-06-28T09:44:56.000Z</time>
      </trkpt>
      <trkpt lat="47.28803" lon="-2.42102">
        <ele>6.5999999046326</ele>
        <time>2020-06-28T09:44:58.000Z</time>
      </trkpt>
      <trkpt lat="47.28808" lon="-2.42077">
        <ele>6.5999999046326</ele>
        <time>2020-06-28T09:45:01.000Z</time>
      </trkpt>
      <trkpt lat="47.28807" lon="-2.42042">
        <ele>6.5999999046326</ele>
        <time>2020-06-28T09:45:05.000Z</time>
      </trkpt>
      <trkpt lat="47.28805" lon="-2.42034">
        <ele>6.5999999046326</ele>
        <time>2020-06-28T09:45:06.000Z</time>
      </trkpt>
      <trkpt lat="47.28794" lon="-2.41981">
        <ele>6.5999999046326</ele>
        <time>2020-06-28T09:45:12.000Z</time>
      </trkpt>
      <trkpt lat="47.28792" lon="-2.41963">
        <ele>6.5999999046326</ele>
        <time>2020-06-28T09:45:14.000Z</time>
      </trkpt>
      <trkpt lat="47.28792" lon="-2.41934">
        <ele>6.5999999046326</ele>
        <time>2020-06-28T09:45:17.000Z</time>
      </trkpt>
      <trkpt lat="47.28791" lon="-2.41924">
        <ele>6.5999999046326</ele>
        <time>2020-06-28T09:45:18.000Z</time>
      </trkpt>
      <trkpt lat="47.28782" lon="-2.41898">
        <ele>6.5999999046326</ele>
        <time>2020-06-28T09:45:21.000Z</time>
      </trkpt>
      <trkpt lat="47.28765" lon="-2.41882">
        <ele>6.5999999046326</ele>
        <time>2020-06-28T09:45:24.000Z</time>
      </trkpt>
      <trkpt lat="47.28752" lon="-2.41876">
        <ele>6.5999999046326</ele>
        <time>2020-06-28T09:45:26.000Z</time>
      </trkpt>
      <trkpt lat="47.28734" lon="-2.41868">
        <ele>6.5999999046326</ele>
        <time>2020-06-28T09:45:29.000Z</time>
      </trkpt>
      <trkpt lat="47.28703" lon="-2.41845">
        <ele>6.5999999046326</ele>
        <time>2020-06-28T09:45:35.000Z</time>
      </trkpt>
      <trkpt lat="47.28673" lon="-2.41819">
        <ele>6.5999999046326</ele>
        <time>2020-06-28T09:45:41.000Z</time>
      </trkpt>
      <trkpt lat="47.2864" lon="-2.41792">
        <ele>6.5999999046326</ele>
        <time>2020-06-28T09:45:48.000Z</time>
      </trkpt>
      <trkpt lat="47.28606" lon="-2.41758">
        <ele>6.5999999046326</ele>
        <time>2020-06-28T09:45:56.000Z</time>
      </trkpt>
      <trkpt lat="47.28572" lon="-2.41733">
        <ele>6.5999999046326</ele>
        <time>2020-06-28T09:46:03.000Z</time>
      </trkpt>
      <trkpt lat="47.28561" lon="-2.41729">
        <ele>6.5999999046326</ele>
        <time>2020-06-28T09:46:05.000Z</time>
      </trkpt>
      <trkpt lat="47.28546" lon="-2.4173">
        <ele>6.5999999046326</ele>
        <time>2020-06-28T09:46:08.000Z</time>
      </trkpt>
      <trkpt lat="47.28527" lon="-2.41743">
        <ele>6.5999999046326</ele>
        <time>2020-06-28T09:46:12.000Z</time>
      </trkpt>
      <trkpt lat="47.28521" lon="-2.41763">
        <ele>6.5999999046326</ele>
        <time>2020-06-28T09:46:15.000Z</time>
      </trkpt>
      <trkpt lat="47.28512" lon="-2.4182">
        <ele>6.5999999046326</ele>
        <time>2020-06-28T09:46:22.000Z</time>
      </trkpt>
      <trkpt lat="47.2851" lon="-2.41828">
        <ele>6.5999999046326</ele>
        <time>2020-06-28T09:46:23.000Z</time>
      </trkpt>
      <trkpt lat="47.28504" lon="-2.41867">
        <ele>6.5999999046326</ele>
        <time>2020-06-28T09:46:28.000Z</time>
      </trkpt>
      <trkpt lat="47.28496" lon="-2.41915">
        <ele>6.5999999046326</ele>
        <time>2020-06-28T09:46:34.000Z</time>
      </trkpt>
      <trkpt lat="47.28496" lon="-2.41923">
        <ele>6.5999999046326</ele>
        <time>2020-06-28T09:46:35.000Z</time>
      </trkpt>
      <trkpt lat="47.285" lon="-2.41934">
        <ele>6.5999999046326</ele>
        <time>2020-06-28T09:46:38.000Z</time>
      </trkpt>
      <trkpt lat="47.28501" lon="-2.41939">
        <ele>6.5999999046326</ele>
        <time>2020-06-28T09:46:42.000Z</time>
      </trkpt>
      <trkpt lat="47.28492" lon="-2.41945">
        <ele>6.5999999046326</ele>
        <time>2020-06-28T09:46:45.000Z</time>
      </trkpt>
      <trkpt lat="47.2849" lon="-2.4195">
        <ele>6.1999998092651</ele>
        <time>2020-06-28T09:46:46.000Z</time>
      </trkpt>
      <trkpt lat="47.28489" lon="-2.41957">
        <ele>5.8000001907349</ele>
        <time>2020-06-28T09:46:47.000Z</time>
      </trkpt>
      <trkpt lat="47.28488" lon="-2.41965">
        <ele>5.4000000953674</ele>
        <time>2020-06-28T09:46:48.000Z</time>
      </trkpt>
      <trkpt lat="47.28486" lon="-2.41972">
        <ele>5</ele>
        <time>2020-06-28T09:46:49.000Z</time>
      </trkpt>
      <trkpt lat="47.28485" lon="-2.4198">
        <ele>4.4000000953674</ele>
        <time>2020-06-28T09:46:50.000Z</time>
      </trkpt>
      <trkpt lat="47.28479" lon="-2.42017">
        <ele>4.4000000953674</ele>
        <time>2020-06-28T09:46:55.000Z</time>
      </trkpt>
      <trkpt lat="47.28473" lon="-2.42061">
        <ele>4.4000000953674</ele>
        <time>2020-06-28T09:47:02.000Z</time>
      </trkpt>
      <trkpt lat="47.28467" lon="-2.421">
        <ele>4.4000000953674</ele>
        <time>2020-06-28T09:47:09.000Z</time>
      </trkpt>
      <trkpt lat="47.28462" lon="-2.42133">
        <ele>4.4000000953674</ele>
        <time>2020-06-28T09:47:16.000Z</time>
      </trkpt>
      <trkpt lat="47.2846" lon="-2.42165">
        <ele>4.4000000953674</ele>
        <time>2020-06-28T09:47:22.000Z</time>
      </trkpt>
      <trkpt lat="47.28452" lon="-2.42191">
        <ele>4.4000000953674</ele>
        <time>2020-06-28T09:47:27.000Z</time>
      </trkpt>
      <trkpt lat="47.28449" lon="-2.42211">
        <ele>4.4000000953674</ele>
        <time>2020-06-28T09:47:32.000Z</time>
      </trkpt>
      <trkpt lat="47.28451" lon="-2.42231">
        <ele>4.4000000953674</ele>
        <time>2020-06-28T09:47:36.000Z</time>
      </trkpt>
      <trkpt lat="47.28446" lon="-2.42256">
        <ele>4.4000000953674</ele>
        <time>2020-06-28T09:47:41.000Z</time>
      </trkpt>
      <trkpt lat="47.28435" lon="-2.42278">
        <ele>4.4000000953674</ele>
        <time>2020-06-28T09:47:47.000Z</time>
      </trkpt>
      <trkpt lat="47.28424" lon="-2.42282">
        <ele>4.4000000953674</ele>
        <time>2020-06-28T09:47:51.000Z</time>
      </trkpt>
      <trkpt lat="47.28418" lon="-2.4229">
        <ele>4.4000000953674</ele>
        <time>2020-06-28T09:47:55.000Z</time>
      </trkpt>
      <trkpt lat="47.28417" lon="-2.42293">
        <ele>4.4000000953674</ele>
        <time>2020-06-28T09:47:58.000Z</time>
      </trkpt>
      <trkpt lat="47.28417" lon="-2.42298">
        <ele>2.4000000953674</ele>
        <time>2020-06-28T09:49:08.000Z</time>
      </trkpt>
      <trkpt lat="47.28416" lon="-2.42314">
        <ele>2.4000000953674</ele>
        <time>2020-06-28T09:49:13.000Z</time>
      </trkpt>
      <trkpt lat="47.28413" lon="-2.42342">
        <ele>2.4000000953674</ele>
        <time>2020-06-28T09:49:18.000Z</time>
      </trkpt>
      <trkpt lat="47.28404" lon="-2.42396">
        <ele>2.4000000953674</ele>
        <time>2020-06-28T09:49:27.000Z</time>
      </trkpt>
      <trkpt lat="47.28402" lon="-2.42408">
        <ele>2.4000000953674</ele>
        <time>2020-06-28T09:49:29.000Z</time>
      </trkpt>
      <trkpt lat="47.28398" lon="-2.42432">
        <ele>2.4000000953674</ele>
        <time>2020-06-28T09:49:33.000Z</time>
      </trkpt>
      <trkpt lat="47.2839" lon="-2.4248">
        <ele>2.4000000953674</ele>
        <time>2020-06-28T09:49:41.000Z</time>
      </trkpt>
      <trkpt lat="47.28385" lon="-2.42518">
        <ele>2.4000000953674</ele>
        <time>2020-06-28T09:49:48.000Z</time>
      </trkpt>
      <trkpt lat="47.28375" lon="-2.42547">
        <ele>2.4000000953674</ele>
        <time>2020-06-28T09:49:54.000Z</time>
      </trkpt>
      <trkpt lat="47.28357" lon="-2.42557">
        <ele>2.4000000953674</ele>
        <time>2020-06-28T09:49:59.000Z</time>
      </trkpt>
      <trkpt lat="47.28353" lon="-2.42558">
        <ele>2.4000000953674</ele>
        <time>2020-06-28T09:50:00.000Z</time>
      </trkpt>
      <trkpt lat="47.28339" lon="-2.42561">
        <ele>2.4000000953674</ele>
        <time>2020-06-28T09:50:04.000Z</time>
      </trkpt>
      <trkpt lat="47.28334" lon="-2.4257">
        <ele>2.4000000953674</ele>
        <time>2020-06-28T09:50:08.000Z</time>
      </trkpt>
      <trkpt lat="47.28332" lon="-2.42568">
        <ele>2.4000000953674</ele>
        <time>2020-06-28T09:50:10.000Z</time>
      </trkpt>
      <trkpt lat="47.28326" lon="-2.42565">
        <ele>2.4000000953674</ele>
        <time>2020-06-28T09:50:13.000Z</time>
      </trkpt>
      <trkpt lat="47.28313" lon="-2.42568">
        <ele>2.4000000953674</ele>
        <time>2020-06-28T09:50:17.000Z</time>
      </trkpt>
      <trkpt lat="47.28294" lon="-2.42575">
        <ele>2.4000000953674</ele>
        <time>2020-06-28T09:50:21.000Z</time>
      </trkpt>
      <trkpt lat="47.2829" lon="-2.42577">
        <ele>2.4000000953674</ele>
        <time>2020-06-28T09:50:22.000Z</time>
      </trkpt>
      <trkpt lat="47.28277" lon="-2.42588">
        <ele>2.7999999523163</ele>
        <time>2020-06-28T09:50:25.000Z</time>
      </trkpt>
      <trkpt lat="47.28273" lon="-2.42593">
        <ele>3.2000000476837</ele>
        <time>2020-06-28T09:50:26.000Z</time>
      </trkpt>
      <trkpt lat="47.28269" lon="-2.42597">
        <ele>3.7999999523163</ele>
        <time>2020-06-28T09:50:27.000Z</time>
      </trkpt>
      <trkpt lat="47.28264" lon="-2.42601">
        <ele>4.1999998092651</ele>
        <time>2020-06-28T09:50:28.000Z</time>
      </trkpt>
      <trkpt lat="47.2826" lon="-2.42606">
        <ele>4.5999999046326</ele>
        <time>2020-06-28T09:50:29.000Z</time>
      </trkpt>
      <trkpt lat="47.28236" lon="-2.4263">
        <ele>4.5999999046326</ele>
        <time>2020-06-28T09:50:35.000Z</time>
      </trkpt>
      <trkpt lat="47.28207" lon="-2.4266">
        <ele>4.5999999046326</ele>
        <time>2020-06-28T09:50:42.000Z</time>
      </trkpt>
      <trkpt lat="47.28201" lon="-2.42672">
        <ele>4.5999999046326</ele>
        <time>2020-06-28T09:50:44.000Z</time>
      </trkpt>
      <trkpt lat="47.28196" lon="-2.42691">
        <ele>4.5999999046326</ele>
        <time>2020-06-28T09:50:47.000Z</time>
      </trkpt>
      <trkpt lat="47.28194" lon="-2.42697">
        <ele>4.5999999046326</ele>
        <time>2020-06-28T09:50:48.000Z</time>
      </trkpt>
      <trkpt lat="47.28189" lon="-2.42707">
        <ele>4.5999999046326</ele>
        <time>2020-06-28T09:50:51.000Z</time>
      </trkpt>
      <trkpt lat="47.28187" lon="-2.42706">
        <ele>4.5999999046326</ele>
        <time>2020-06-28T09:50:52.000Z</time>
      </trkpt>
      <trkpt lat="47.28181" lon="-2.42699">
        <ele>4.5999999046326</ele>
        <time>2020-06-28T09:50:56.000Z</time>
      </trkpt>
      <trkpt lat="47.28176" lon="-2.42692">
        <ele>4.5999999046326</ele>
        <time>2020-06-28T09:50:58.000Z</time>
      </trkpt>
      <trkpt lat="47.28169" lon="-2.42679">
        <ele>4.5999999046326</ele>
        <time>2020-06-28T09:51:01.000Z</time>
      </trkpt>
      <trkpt lat="47.28164" lon="-2.4267">
        <ele>4.5999999046326</ele>
        <time>2020-06-28T09:51:03.000Z</time>
      </trkpt>
      <trkpt lat="47.28155" lon="-2.42658">
        <ele>4.5999999046326</ele>
        <time>2020-06-28T09:51:06.000Z</time>
      </trkpt>
      <trkpt lat="47.28153" lon="-2.42653">
        <ele>4.5999999046326</ele>
        <time>2020-06-28T09:51:07.000Z</time>
      </trkpt>
      <trkpt lat="47.28132" lon="-2.42617">
        <ele>4.5999999046326</ele>
        <time>2020-06-28T09:51:14.000Z</time>
      </trkpt>
      <trkpt lat="47.28104" lon="-2.42568">
        <ele>4.5999999046326</ele>
        <time>2020-06-28T09:51:23.000Z</time>
      </trkpt>
      <trkpt lat="47.28099" lon="-2.42554">
        <ele>4.5999999046326</ele>
        <time>2020-06-28T09:51:26.000Z</time>
      </trkpt>
      <trkpt lat="47.281" lon="-2.42549">
        <ele>4.5999999046326</ele>
        <time>2020-06-28T09:51:27.000Z</time>
      </trkpt>
      <trkpt lat="47.28111" lon="-2.4254">
        <ele>4.5999999046326</ele>
        <time>2020-06-28T09:51:30.000Z</time>
      </trkpt>
      <trkpt lat="47.28116" lon="-2.42537">
        <ele>4.5999999046326</ele>
        <time>2020-06-28T09:51:31.000Z</time>
      </trkpt>
      <trkpt lat="47.28139" lon="-2.42532">
        <ele>4.5999999046326</ele>
        <time>2020-06-28T09:51:35.000Z</time>
      </trkpt>
      <trkpt lat="47.28181" lon="-2.42522">
        <ele>4.5999999046326</ele>
        <time>2020-06-28T09:51:42.000Z</time>
      </trkpt>
      <trkpt lat="47.28186" lon="-2.42519">
        <ele>4.5999999046326</ele>
        <time>2020-06-28T09:51:43.000Z</time>
      </trkpt>
      <trkpt lat="47.28201" lon="-2.42508">
        <ele>4.5999999046326</ele>
        <time>2020-06-28T09:51:46.000Z</time>
      </trkpt>
      <trkpt lat="47.2821" lon="-2.42499">
        <ele>4.5999999046326</ele>
        <time>2020-06-28T09:51:48.000Z</time>
      </trkpt>
      <trkpt lat="47.28222" lon="-2.4248">
        <ele>4.5999999046326</ele>
        <time>2020-06-28T09:51:51.000Z</time>
      </trkpt>
      <trkpt lat="47.28226" lon="-2.42472">
        <ele>4.5999999046326</ele>
        <time>2020-06-28T09:51:52.000Z</time>
      </trkpt>
      <trkpt lat="47.28243" lon="-2.42432">
        <ele>4.5999999046326</ele>
        <time>2020-06-28T09:51:57.000Z</time>
      </trkpt>
      <trkpt lat="47.28246" lon="-2.42423">
        <ele>4.5999999046326</ele>
        <time>2020-06-28T09:51:58.000Z</time>
      </trkpt>
      <trkpt lat="47.28255" lon="-2.42389">
        <ele>4.5999999046326</ele>
        <time>2020-06-28T09:52:02.000Z</time>
      </trkpt>
      <trkpt lat="47.28266" lon="-2.42333">
        <ele>4.5999999046326</ele>
        <time>2020-06-28T09:52:09.000Z</time>
      </trkpt>
      <trkpt lat="47.2827" lon="-2.42312">
        <ele>4.5999999046326</ele>
        <time>2020-06-28T09:52:12.000Z</time>
      </trkpt>
      <trkpt lat="47.28274" lon="-2.4229">
        <ele>4.5999999046326</ele>
        <time>2020-06-28T09:52:15.000Z</time>
      </trkpt>
      <trkpt lat="47.28282" lon="-2.42229">
        <ele>4.5999999046326</ele>
        <time>2020-06-28T09:52:22.000Z</time>
      </trkpt>
      <trkpt lat="47.28285" lon="-2.4221">
        <ele>4.5999999046326</ele>
        <time>2020-06-28T09:52:24.000Z</time>
      </trkpt>
      <trkpt lat="47.28288" lon="-2.42185">
        <ele>4.5999999046326</ele>
        <time>2020-06-28T09:52:27.000Z</time>
      </trkpt>
      <trkpt lat="47.28289" lon="-2.42177">
        <ele>4.5999999046326</ele>
        <time>2020-06-28T09:52:28.000Z</time>
      </trkpt>
      <trkpt lat="47.28295" lon="-2.42148">
        <ele>4.5999999046326</ele>
        <time>2020-06-28T09:52:32.000Z</time>
      </trkpt>
      <trkpt lat="47.28301" lon="-2.42098">
        <ele>4.5999999046326</ele>
        <time>2020-06-28T09:52:38.000Z</time>
      </trkpt>
      <trkpt lat="47.2831" lon="-2.42043">
        <ele>4.5999999046326</ele>
        <time>2020-06-28T09:52:44.000Z</time>
      </trkpt>
      <trkpt lat="47.28311" lon="-2.42033">
        <ele>4.5999999046326</ele>
        <time>2020-06-28T09:52:45.000Z</time>
      </trkpt>
      <trkpt lat="47.28317" lon="-2.41994">
        <ele>4.5999999046326</ele>
        <time>2020-06-28T09:52:49.000Z</time>
      </trkpt>
      <trkpt lat="47.28334" lon="-2.41929">
        <ele>4.5999999046326</ele>
        <time>2020-06-28T09:52:56.000Z</time>
      </trkpt>
      <trkpt lat="47.28348" lon="-2.4187">
        <ele>4.5999999046326</ele>
        <time>2020-06-28T09:53:02.000Z</time>
      </trkpt>
      <trkpt lat="47.28365" lon="-2.41801">
        <ele>4.5999999046326</ele>
        <time>2020-06-28T09:53:09.000Z</time>
      </trkpt>
      <trkpt lat="47.2838" lon="-2.41742">
        <ele>4.5999999046326</ele>
        <time>2020-06-28T09:53:15.000Z</time>
      </trkpt>
      <trkpt lat="47.28395" lon="-2.41684">
        <ele>4.5999999046326</ele>
        <time>2020-06-28T09:53:21.000Z</time>
      </trkpt>
      <trkpt lat="47.28404" lon="-2.41626">
        <ele>4.5999999046326</ele>
        <time>2020-06-28T09:53:27.000Z</time>
      </trkpt>
      <trkpt lat="47.28408" lon="-2.41571">
        <ele>4.5999999046326</ele>
        <time>2020-06-28T09:53:33.000Z</time>
      </trkpt>
      <trkpt lat="47.28416" lon="-2.41497">
        <ele>4.5999999046326</ele>
        <time>2020-06-28T09:53:41.000Z</time>
      </trkpt>
      <trkpt lat="47.28419" lon="-2.41451">
        <ele>4.5999999046326</ele>
        <time>2020-06-28T09:53:46.000Z</time>
      </trkpt>
      <trkpt lat="47.28421" lon="-2.41442">
        <ele>4.5999999046326</ele>
        <time>2020-06-28T09:53:48.000Z</time>
      </trkpt>
      <trkpt lat="47.28437" lon="-2.41376">
        <ele>4.5999999046326</ele>
        <time>2020-06-28T09:53:55.000Z</time>
      </trkpt>
      <trkpt lat="47.28452" lon="-2.41318">
        <ele>4.5999999046326</ele>
        <time>2020-06-28T09:54:02.000Z</time>
      </trkpt>
      <trkpt lat="47.28458" lon="-2.41279">
        <ele>4.5999999046326</ele>
        <time>2020-06-28T09:54:07.000Z</time>
      </trkpt>
      <trkpt lat="47.28457" lon="-2.41272">
        <ele>4.5999999046326</ele>
        <time>2020-06-28T09:54:08.000Z</time>
      </trkpt>
      <trkpt lat="47.28445" lon="-2.41257">
        <ele>4.5999999046326</ele>
        <time>2020-06-28T09:54:11.000Z</time>
      </trkpt>
      <trkpt lat="47.28427" lon="-2.41252">
        <ele>4.5999999046326</ele>
        <time>2020-06-28T09:54:14.000Z</time>
      </trkpt>
      <trkpt lat="47.28421" lon="-2.4125">
        <ele>4.5999999046326</ele>
        <time>2020-06-28T09:54:15.000Z</time>
      </trkpt>
      <trkpt lat="47.28415" lon="-2.41247">
        <ele>4.5999999046326</ele>
        <time>2020-06-28T09:54:16.000Z</time>
      </trkpt>
      <trkpt lat="47.28403" lon="-2.4124">
        <ele>4.5999999046326</ele>
        <time>2020-06-28T09:54:19.000Z</time>
      </trkpt>
      <trkpt lat="47.28388" lon="-2.41235">
        <ele>4.5999999046326</ele>
        <time>2020-06-28T09:54:24.000Z</time>
      </trkpt>
      <trkpt lat="47.28364" lon="-2.41225">
        <ele>4.5999999046326</ele>
        <time>2020-06-28T09:54:30.000Z</time>
      </trkpt>
      <trkpt lat="47.28359" lon="-2.4122">
        <ele>4.5999999046326</ele>
        <time>2020-06-28T09:54:33.000Z</time>
      </trkpt>
      <trkpt lat="47.2836" lon="-2.41219">
        <ele>4.5999999046326</ele>
        <time>2020-06-28T09:54:34.000Z</time>
      </trkpt>
      <trkpt lat="47.28358" lon="-2.41214">
        <ele>4.5999999046326</ele>
        <time>2020-06-28T09:54:37.000Z</time>
      </trkpt>
      <trkpt lat="47.28357" lon="-2.41211">
        <ele>4.5999999046326</ele>
        <time>2020-06-28T09:54:38.000Z</time>
      </trkpt>
      <trkpt lat="47.28358" lon="-2.412">
        <ele>4.1999998092651</ele>
        <time>2020-06-28T09:54:40.000Z</time>
      </trkpt>
      <trkpt lat="47.2836" lon="-2.41193">
        <ele>3.7999999523163</ele>
        <time>2020-06-28T09:54:41.000Z</time>
      </trkpt>
      <trkpt lat="47.28362" lon="-2.41186">
        <ele>3.4000000953674</ele>
        <time>2020-06-28T09:54:42.000Z</time>
      </trkpt>
      <trkpt lat="47.28364" lon="-2.41178">
        <ele>3</ele>
        <time>2020-06-28T09:54:43.000Z</time>
      </trkpt>
      <trkpt lat="47.28367" lon="-2.4117">
        <ele>2.5999999046326</ele>
        <time>2020-06-28T09:54:44.000Z</time>
      </trkpt>
      <trkpt lat="47.28371" lon="-2.41155">
        <ele>2.5999999046326</ele>
        <time>2020-06-28T09:54:46.000Z</time>
      </trkpt>
      <trkpt lat="47.28384" lon="-2.41101">
        <ele>2.5999999046326</ele>
        <time>2020-06-28T09:54:53.000Z</time>
      </trkpt>
      <trkpt lat="47.284" lon="-2.4104">
        <ele>2.5999999046326</ele>
        <time>2020-06-28T09:55:01.000Z</time>
      </trkpt>
      <trkpt lat="47.28414" lon="-2.40981">
        <ele>2.5999999046326</ele>
        <time>2020-06-28T09:55:09.000Z</time>
      </trkpt>
      <trkpt lat="47.2842" lon="-2.40953">
        <ele>2.5999999046326</ele>
        <time>2020-06-28T09:55:13.000Z</time>
      </trkpt>
      <trkpt lat="47.28422" lon="-2.40939">
        <ele>2.5999999046326</ele>
        <time>2020-06-28T09:55:15.000Z</time>
      </trkpt>
      <trkpt lat="47.2843" lon="-2.40911">
        <ele>2.5999999046326</ele>
        <time>2020-06-28T09:55:19.000Z</time>
      </trkpt>
      <trkpt lat="47.28437" lon="-2.40898">
        <ele>2.5999999046326</ele>
        <time>2020-06-28T09:55:21.000Z</time>
      </trkpt>
      <trkpt lat="47.28448" lon="-2.40879">
        <ele>2.5999999046326</ele>
        <time>2020-06-28T09:55:24.000Z</time>
      </trkpt>
      <trkpt lat="47.28462" lon="-2.40859">
        <ele>2.5999999046326</ele>
        <time>2020-06-28T09:55:27.000Z</time>
      </trkpt>
      <trkpt lat="47.28501" lon="-2.40799">
        <ele>2.5999999046326</ele>
        <time>2020-06-28T09:55:36.000Z</time>
      </trkpt>
      <trkpt lat="47.28537" lon="-2.40747">
        <ele>2.5999999046326</ele>
        <time>2020-06-28T09:55:44.000Z</time>
      </trkpt>
      <trkpt lat="47.2857" lon="-2.40697">
        <ele>2.5999999046326</ele>
        <time>2020-06-28T09:55:52.000Z</time>
      </trkpt>
      <trkpt lat="47.28588" lon="-2.40669">
        <ele>2.5999999046326</ele>
        <time>2020-06-28T09:55:58.000Z</time>
      </trkpt>
      <trkpt lat="47.28602" lon="-2.40647">
        <ele>2.5999999046326</ele>
        <time>2020-06-28T09:56:03.000Z</time>
      </trkpt>
      <trkpt lat="47.28627" lon="-2.40609">
        <ele>2.5999999046326</ele>
        <time>2020-06-28T09:56:10.000Z</time>
      </trkpt>
      <trkpt lat="47.28646" lon="-2.4058">
        <ele>2.5999999046326</ele>
        <time>2020-06-28T09:56:16.000Z</time>
      </trkpt>
      <trkpt lat="47.2865" lon="-2.40564">
        <ele>2.5999999046326</ele>
        <time>2020-06-28T09:56:19.000Z</time>
      </trkpt>
      <trkpt lat="47.28649" lon="-2.40557">
        <ele>2.5999999046326</ele>
        <time>2020-06-28T09:56:20.000Z</time>
      </trkpt>
      <trkpt lat="47.28638" lon="-2.4054">
        <ele>2.5999999046326</ele>
        <time>2020-06-28T09:56:23.000Z</time>
      </trkpt>
      <trkpt lat="47.2863" lon="-2.40529">
        <ele>3</ele>
        <time>2020-06-28T09:56:25.000Z</time>
      </trkpt>
      <trkpt lat="47.28626" lon="-2.40524">
        <ele>3.4000000953674</ele>
        <time>2020-06-28T09:56:26.000Z</time>
      </trkpt>
      <trkpt lat="47.28622" lon="-2.40518">
        <ele>3.7999999523163</ele>
        <time>2020-06-28T09:56:27.000Z</time>
      </trkpt>
      <trkpt lat="47.28618" lon="-2.40513">
        <ele>4.1999998092651</ele>
        <time>2020-06-28T09:56:28.000Z</time>
      </trkpt>
      <trkpt lat="47.28614" lon="-2.40507">
        <ele>4.5999999046326</ele>
        <time>2020-06-28T09:56:29.000Z</time>
      </trkpt>
      <trkpt lat="47.28607" lon="-2.40497">
        <ele>4.5999999046326</ele>
        <time>2020-06-28T09:56:31.000Z</time>
      </trkpt>
      <trkpt lat="47.28585" lon="-2.40467">
        <ele>4.5999999046326</ele>
        <time>2020-06-28T09:56:37.000Z</time>
      </trkpt>
      <trkpt lat="47.28585" lon="-2.40461">
        <ele>4.5999999046326</ele>
        <time>2020-06-28T09:56:38.000Z</time>
      </trkpt>
      <trkpt lat="47.28591" lon="-2.40443">
        <ele>4.5999999046326</ele>
        <time>2020-06-28T09:56:41.000Z</time>
      </trkpt>
      <trkpt lat="47.28594" lon="-2.40436">
        <ele>4.5999999046326</ele>
        <time>2020-06-28T09:56:42.000Z</time>
      </trkpt>
      <trkpt lat="47.28609" lon="-2.40408">
        <ele>4.5999999046326</ele>
        <time>2020-06-28T09:56:46.000Z</time>
      </trkpt>
      <trkpt lat="47.28631" lon="-2.40365">
        <ele>4.5999999046326</ele>
        <time>2020-06-28T09:56:52.000Z</time>
      </trkpt>
      <trkpt lat="47.28653" lon="-2.40321">
        <ele>4.5999999046326</ele>
        <time>2020-06-28T09:56:58.000Z</time>
      </trkpt>
      <trkpt lat="47.28675" lon="-2.40273">
        <ele>4.5999999046326</ele>
        <time>2020-06-28T09:57:04.000Z</time>
      </trkpt>
      <trkpt lat="47.28702" lon="-2.40217">
        <ele>4.5999999046326</ele>
        <time>2020-06-28T09:57:11.000Z</time>
      </trkpt>
      <trkpt lat="47.28705" lon="-2.40208">
        <ele>4.5999999046326</ele>
        <time>2020-06-28T09:57:12.000Z</time>
      </trkpt>
      <trkpt lat="47.28712" lon="-2.4018">
        <ele>4.5999999046326</ele>
        <time>2020-06-28T09:57:15.000Z</time>
      </trkpt>
      <trkpt lat="47.28715" lon="-2.40162">
        <ele>4.5999999046326</ele>
        <time>2020-06-28T09:57:17.000Z</time>
      </trkpt>
      <trkpt lat="47.28726" lon="-2.4009">
        <ele>4.5999999046326</ele>
        <time>2020-06-28T09:57:25.000Z</time>
      </trkpt>
      <trkpt lat="47.28731" lon="-2.40062">
        <ele>4.5999999046326</ele>
        <time>2020-06-28T09:57:28.000Z</time>
      </trkpt>
      <trkpt lat="47.28734" lon="-2.40043">
        <ele>4.5999999046326</ele>
        <time>2020-06-28T09:57:30.000Z</time>
      </trkpt>
      <trkpt lat="47.2874" lon="-2.40018">
        <ele>4.5999999046326</ele>
        <time>2020-06-28T09:57:33.000Z</time>
      </trkpt>
      <trkpt lat="47.28744" lon="-2.40001">
        <ele>4.5999999046326</ele>
        <time>2020-06-28T09:57:35.000Z</time>
      </trkpt>
      <trkpt lat="47.28746" lon="-2.39992">
        <ele>4.5999999046326</ele>
        <time>2020-06-28T09:57:36.000Z</time>
      </trkpt>
      <trkpt lat="47.28757" lon="-2.39959">
        <ele>4.5999999046326</ele>
        <time>2020-06-28T09:57:40.000Z</time>
      </trkpt>
      <trkpt lat="47.2876" lon="-2.39953">
        <ele>4.5999999046326</ele>
        <time>2020-06-28T09:57:41.000Z</time>
      </trkpt>
      <trkpt lat="47.28768" lon="-2.39933">
        <ele>4.5999999046326</ele>
        <time>2020-06-28T09:57:44.000Z</time>
      </trkpt>
      <trkpt lat="47.2877" lon="-2.39928">
        <ele>4.5999999046326</ele>
        <time>2020-06-28T09:57:45.000Z</time>
      </trkpt>
      <trkpt lat="47.28774" lon="-2.39915">
        <ele>4.5999999046326</ele>
        <time>2020-06-28T09:57:49.000Z</time>
      </trkpt>
      <trkpt lat="47.28778" lon="-2.39901">
        <ele>4.5999999046326</ele>
        <time>2020-06-28T09:57:55.000Z</time>
      </trkpt>
      <trkpt lat="47.28781" lon="-2.39895">
        <ele>4.5999999046326</ele>
        <time>2020-06-28T09:57:58.000Z</time>
      </trkpt>
      <trkpt lat="47.28786" lon="-2.39898">
        <ele>4.5999999046326</ele>
        <time>2020-06-28T09:58:00.000Z</time>
      </trkpt>
      <trkpt lat="47.28796" lon="-2.39906">
        <ele>4.5999999046326</ele>
        <time>2020-06-28T09:58:04.000Z</time>
      </trkpt>
      <trkpt lat="47.288" lon="-2.39907">
        <ele>4.5999999046326</ele>
        <time>2020-06-28T09:58:06.000Z</time>
      </trkpt>
      <trkpt lat="47.28803" lon="-2.39895">
        <ele>4.5999999046326</ele>
        <time>2020-06-28T09:58:09.000Z</time>
      </trkpt>
      <trkpt lat="47.28804" lon="-2.3989">
        <ele>4.5999999046326</ele>
        <time>2020-06-28T09:58:10.000Z</time>
      </trkpt>
      <trkpt lat="47.28807" lon="-2.39863">
        <ele>4.5999999046326</ele>
        <time>2020-06-28T09:58:16.000Z</time>
      </trkpt>
      <trkpt lat="47.28804" lon="-2.39851">
        <ele>4.5999999046326</ele>
        <time>2020-06-28T09:58:21.000Z</time>
      </trkpt>
      <trkpt lat="47.28794" lon="-2.39843">
        <ele>4.5999999046326</ele>
        <time>2020-06-28T09:58:26.000Z</time>
      </trkpt>
      <trkpt lat="47.28776" lon="-2.39833">
        <ele>4.5999999046326</ele>
        <time>2020-06-28T09:58:31.000Z</time>
      </trkpt>
      <trkpt lat="47.28746" lon="-2.39821">
        <ele>4.5999999046326</ele>
        <time>2020-06-28T09:58:38.000Z</time>
      </trkpt>
      <trkpt lat="47.28742" lon="-2.39812">
        <ele>4.5999999046326</ele>
        <time>2020-06-28T09:58:40.000Z</time>
      </trkpt>
      <trkpt lat="47.28742" lon="-2.39807">
        <ele>4.5999999046326</ele>
        <time>2020-06-28T09:58:41.000Z</time>
      </trkpt>
      <trkpt lat="47.28746" lon="-2.39789">
        <ele>4.5999999046326</ele>
        <time>2020-06-28T09:58:44.000Z</time>
      </trkpt>
      <trkpt lat="47.28748" lon="-2.39783">
        <ele>4.5999999046326</ele>
        <time>2020-06-28T09:58:45.000Z</time>
      </trkpt>
      <trkpt lat="47.28758" lon="-2.39744">
        <ele>4.5999999046326</ele>
        <time>2020-06-28T09:58:52.000Z</time>
      </trkpt>
      <trkpt lat="47.28769" lon="-2.39701">
        <ele>4.5999999046326</ele>
        <time>2020-06-28T09:58:59.000Z</time>
      </trkpt>
      <trkpt lat="47.28777" lon="-2.39666">
        <ele>4.5999999046326</ele>
        <time>2020-06-28T09:59:05.000Z</time>
      </trkpt>
      <trkpt lat="47.28781" lon="-2.39647">
        <ele>4.5999999046326</ele>
        <time>2020-06-28T09:59:08.000Z</time>
      </trkpt>
      <trkpt lat="47.28776" lon="-2.39637">
        <ele>4.5999999046326</ele>
        <time>2020-06-28T09:59:10.000Z</time>
      </trkpt>
      <trkpt lat="47.28762" lon="-2.3963">
        <ele>4.5999999046326</ele>
        <time>2020-06-28T09:59:13.000Z</time>
      </trkpt>
      <trkpt lat="47.28757" lon="-2.39629">
        <ele>4.5999999046326</ele>
        <time>2020-06-28T09:59:14.000Z</time>
      </trkpt>
      <trkpt lat="47.28752" lon="-2.39626">
        <ele>4.5999999046326</ele>
        <time>2020-06-28T09:59:15.000Z</time>
      </trkpt>
      <trkpt lat="47.28742" lon="-2.39622">
        <ele>4.5999999046326</ele>
        <time>2020-06-28T09:59:17.000Z</time>
      </trkpt>
      <trkpt lat="47.28737" lon="-2.3962">
        <ele>4.5999999046326</ele>
        <time>2020-06-28T09:59:18.000Z</time>
      </trkpt>
      <trkpt lat="47.28726" lon="-2.39615">
        <ele>4.5999999046326</ele>
        <time>2020-06-28T09:59:20.000Z</time>
      </trkpt>
      <trkpt lat="47.28711" lon="-2.39608">
        <ele>4.5999999046326</ele>
        <time>2020-06-28T09:59:23.000Z</time>
      </trkpt>
      <trkpt lat="47.28702" lon="-2.39604">
        <ele>4.5999999046326</ele>
        <time>2020-06-28T09:59:25.000Z</time>
      </trkpt>
      <trkpt lat="47.28697" lon="-2.39601">
        <ele>4.5999999046326</ele>
        <time>2020-06-28T09:59:27.000Z</time>
      </trkpt>
      <trkpt lat="47.28693" lon="-2.39599">
        <ele>4.5999999046326</ele>
        <time>2020-06-28T09:59:29.000Z</time>
      </trkpt>
      <trkpt lat="47.28692" lon="-2.39591">
        <ele>4.5999999046326</ele>
        <time>2020-06-28T09:59:32.000Z</time>
      </trkpt>
      <trkpt lat="47.28692" lon="-2.39587">
        <ele>4.5999999046326</ele>
        <time>2020-06-28T09:59:33.000Z</time>
      </trkpt>
      <trkpt lat="47.28694" lon="-2.39572">
        <ele>4.5999999046326</ele>
        <time>2020-06-28T09:59:36.000Z</time>
      </trkpt>
      <trkpt lat="47.28704" lon="-2.3953">
        <ele>4.5999999046326</ele>
        <time>2020-06-28T09:59:43.000Z</time>
      </trkpt>
      <trkpt lat="47.28715" lon="-2.39487">
        <ele>4.5999999046326</ele>
        <time>2020-06-28T09:59:50.000Z</time>
      </trkpt>
      <trkpt lat="47.28718" lon="-2.39468">
        <ele>4.5999999046326</ele>
        <time>2020-06-28T09:59:53.000Z</time>
      </trkpt>
      <trkpt lat="47.28712" lon="-2.3946">
        <ele>4.5999999046326</ele>
        <time>2020-06-28T09:59:55.000Z</time>
      </trkpt>
      <trkpt lat="47.28702" lon="-2.39454">
        <ele>4.5999999046326</ele>
        <time>2020-06-28T09:59:57.000Z</time>
      </trkpt>
      <trkpt lat="47.28682" lon="-2.39444">
        <ele>4.5999999046326</ele>
        <time>2020-06-28T10:00:01.000Z</time>
      </trkpt>
      <trkpt lat="47.2865" lon="-2.39427">
        <ele>4.5999999046326</ele>
        <time>2020-06-28T10:00:08.000Z</time>
      </trkpt>
      <trkpt lat="47.28636" lon="-2.39416">
        <ele>4.5999999046326</ele>
        <time>2020-06-28T10:00:13.000Z</time>
      </trkpt>
      <trkpt lat="47.28634" lon="-2.39405">
        <ele>4.5999999046326</ele>
        <time>2020-06-28T10:00:17.000Z</time>
      </trkpt>
      <trkpt lat="47.28636" lon="-2.39399">
        <ele>4.5999999046326</ele>
        <time>2020-06-28T10:00:19.000Z</time>
      </trkpt>
      <trkpt lat="47.28639" lon="-2.39386">
        <ele>4.5999999046326</ele>
        <time>2020-06-28T10:00:23.000Z</time>
      </trkpt>
      <trkpt lat="47.28643" lon="-2.39367">
        <ele>4.5999999046326</ele>
        <time>2020-06-28T10:00:29.000Z</time>
      </trkpt>
      <trkpt lat="47.28643" lon="-2.39368">
        <ele>4.5999999046326</ele>
        <time>2020-06-28T10:00:30.000Z</time>
      </trkpt>
      <trkpt lat="47.28644" lon="-2.39364">
        <ele>4.5999999046326</ele>
        <time>2020-06-28T10:00:37.000Z</time>
      </trkpt>
      <trkpt lat="47.28645" lon="-2.39357">
        <ele>4.5999999046326</ele>
        <time>2020-06-28T10:00:39.000Z</time>
      </trkpt>
      <trkpt lat="47.28646" lon="-2.3934">
        <ele>4.5999999046326</ele>
        <time>2020-06-28T10:00:42.000Z</time>
      </trkpt>
      <trkpt lat="47.28647" lon="-2.39335">
        <ele>4.5999999046326</ele>
        <time>2020-06-28T10:00:43.000Z</time>
      </trkpt>
      <trkpt lat="47.2865" lon="-2.3932">
        <ele>4.5999999046326</ele>
        <time>2020-06-28T10:00:46.000Z</time>
      </trkpt>
      <trkpt lat="47.28653" lon="-2.39308">
        <ele>4.5999999046326</ele>
        <time>2020-06-28T10:00:48.000Z</time>
      </trkpt>
      <trkpt lat="47.28659" lon="-2.3928">
        <ele>4.5999999046326</ele>
        <time>2020-06-28T10:00:52.000Z</time>
      </trkpt>
      <trkpt lat="47.28663" lon="-2.39266">
        <ele>4.5999999046326</ele>
        <time>2020-06-28T10:00:54.000Z</time>
      </trkpt>
      <trkpt lat="47.28668" lon="-2.39249">
        <ele>4.5999999046326</ele>
        <time>2020-06-28T10:00:58.000Z</time>
      </trkpt>
      <trkpt lat="47.28679" lon="-2.3922">
        <ele>4.5999999046326</ele>
        <time>2020-06-28T10:01:05.000Z</time>
      </trkpt>
      <trkpt lat="47.28685" lon="-2.39192">
        <ele>5</ele>
        <time>2020-06-28T10:01:09.000Z</time>
      </trkpt>
      <trkpt lat="47.28686" lon="-2.39187">
        <ele>5.4000000953674</ele>
        <time>2020-06-28T10:01:10.000Z</time>
      </trkpt>
      <trkpt lat="47.28686" lon="-2.39183">
        <ele>5.8000001907349</ele>
        <time>2020-06-28T10:01:11.000Z</time>
      </trkpt>
      <trkpt lat="47.28687" lon="-2.3918">
        <ele>6.1999998092651</ele>
        <time>2020-06-28T10:01:12.000Z</time>
      </trkpt>
      <trkpt lat="47.28687" lon="-2.39177">
        <ele>6.5999999046326</ele>
        <time>2020-06-28T10:01:13.000Z</time>
      </trkpt>
      <trkpt lat="47.28687" lon="-2.39175">
        <ele>6.5999999046326</ele>
        <time>2020-06-28T10:01:14.000Z</time>
      </trkpt>
      <trkpt lat="47.28687" lon="-2.39165">
        <ele>6.5999999046326</ele>
        <time>2020-06-28T10:01:19.000Z</time>
      </trkpt>
      <trkpt lat="47.28687" lon="-2.39165">
        <ele>6.5999999046326</ele>
        <time>2020-06-28T10:01:20.000Z</time>
      </trkpt>
      <trkpt lat="47.28686" lon="-2.39161">
        <ele>6.5999999046326</ele>
        <time>2020-06-28T10:01:24.000Z</time>
      </trkpt>
      <trkpt lat="47.28682" lon="-2.39157">
        <ele>6.5999999046326</ele>
        <time>2020-06-28T10:01:26.000Z</time>
      </trkpt>
      <trkpt lat="47.28676" lon="-2.39143">
        <ele>6.5999999046326</ele>
        <time>2020-06-28T10:01:29.000Z</time>
      </trkpt>
      <trkpt lat="47.28675" lon="-2.39136">
        <ele>6.5999999046326</ele>
        <time>2020-06-28T10:01:30.000Z</time>
      </trkpt>
      <trkpt lat="47.28665" lon="-2.39117">
        <ele>6.5999999046326</ele>
        <time>2020-06-28T10:01:33.000Z</time>
      </trkpt>
      <trkpt lat="47.28655" lon="-2.39105">
        <ele>6.5999999046326</ele>
        <time>2020-06-28T10:01:35.000Z</time>
      </trkpt>
      <trkpt lat="47.28638" lon="-2.39084">
        <ele>6.5999999046326</ele>
        <time>2020-06-28T10:01:39.000Z</time>
      </trkpt>
      <trkpt lat="47.28625" lon="-2.39069">
        <ele>7</ele>
        <time>2020-06-28T10:01:42.000Z</time>
      </trkpt>
      <trkpt lat="47.28622" lon="-2.39064">
        <ele>7.4000000953674</ele>
        <time>2020-06-28T10:01:43.000Z</time>
      </trkpt>
      <trkpt lat="47.28618" lon="-2.3906">
        <ele>7.8000001907349</ele>
        <time>2020-06-28T10:01:44.000Z</time>
      </trkpt>
      <trkpt lat="47.28615" lon="-2.39056">
        <ele>8.6000003814697</ele>
        <time>2020-06-28T10:01:45.000Z</time>
      </trkpt>
      <trkpt lat="47.28611" lon="-2.39052">
        <ele>8.6000003814697</ele>
        <time>2020-06-28T10:01:46.000Z</time>
      </trkpt>
      <trkpt lat="47.28608" lon="-2.39048">
        <ele>8.6000003814697</ele>
        <time>2020-06-28T10:01:47.000Z</time>
      </trkpt>
      <trkpt lat="47.28598" lon="-2.39034">
        <ele>8.6000003814697</ele>
        <time>2020-06-28T10:01:51.000Z</time>
      </trkpt>
      <trkpt lat="47.28586" lon="-2.39014">
        <ele>8.6000003814697</ele>
        <time>2020-06-28T10:01:56.000Z</time>
      </trkpt>
      <trkpt lat="47.28584" lon="-2.39009">
        <ele>8.6000003814697</ele>
        <time>2020-06-28T10:01:57.000Z</time>
      </trkpt>
      <trkpt lat="47.28579" lon="-2.38998">
        <ele>8.6000003814697</ele>
        <time>2020-06-28T10:02:00.000Z</time>
      </trkpt>
      <trkpt lat="47.28574" lon="-2.38992">
        <ele>8.6000003814697</ele>
        <time>2020-06-28T10:02:02.000Z</time>
      </trkpt>
      <trkpt lat="47.28561" lon="-2.38972">
        <ele>8.6000003814697</ele>
        <time>2020-06-28T10:02:09.000Z</time>
      </trkpt>
      <trkpt lat="47.28548" lon="-2.3895">
        <ele>8.6000003814697</ele>
        <time>2020-06-28T10:02:16.000Z</time>
      </trkpt>
      <trkpt lat="47.28536" lon="-2.38929">
        <ele>8.6000003814697</ele>
        <time>2020-06-28T10:02:23.000Z</time>
      </trkpt>
      <trkpt lat="47.28523" lon="-2.38912">
        <ele>8.6000003814697</ele>
        <time>2020-06-28T10:02:29.000Z</time>
      </trkpt>
      <trkpt lat="47.28508" lon="-2.38889">
        <ele>8.6000003814697</ele>
        <time>2020-06-28T10:02:36.000Z</time>
      </trkpt>
      <trkpt lat="47.28491" lon="-2.38863">
        <ele>8.6000003814697</ele>
        <time>2020-06-28T10:02:43.000Z</time>
      </trkpt>
      <trkpt lat="47.28481" lon="-2.38847">
        <ele>8.1999998092651</ele>
        <time>2020-06-28T10:02:47.000Z</time>
      </trkpt>
      <trkpt lat="47.28478" lon="-2.38842">
        <ele>7.8000001907349</ele>
        <time>2020-06-28T10:02:48.000Z</time>
      </trkpt>
      <trkpt lat="47.28475" lon="-2.38838">
        <ele>7.4000000953674</ele>
        <time>2020-06-28T10:02:49.000Z</time>
      </trkpt>
      <trkpt lat="47.28472" lon="-2.38834">
        <ele>7</ele>
        <time>2020-06-28T10:02:50.000Z</time>
      </trkpt>
      <trkpt lat="47.28469" lon="-2.3883">
        <ele>6.5999999046326</ele>
        <time>2020-06-28T10:02:51.000Z</time>
      </trkpt>
      <trkpt lat="47.28454" lon="-2.38809">
        <ele>6.5999999046326</ele>
        <time>2020-06-28T10:02:55.000Z</time>
      </trkpt>
      <trkpt lat="47.28427" lon="-2.38762">
        <ele>6.5999999046326</ele>
        <time>2020-06-28T10:03:02.000Z</time>
      </trkpt>
      <trkpt lat="47.2841" lon="-2.38742">
        <ele>6.5999999046326</ele>
        <time>2020-06-28T10:03:06.000Z</time>
      </trkpt>
      <trkpt lat="47.28406" lon="-2.38739">
        <ele>6.5999999046326</ele>
        <time>2020-06-28T10:03:07.000Z</time>
      </trkpt>
      <trkpt lat="47.28387" lon="-2.38736">
        <ele>6.5999999046326</ele>
        <time>2020-06-28T10:03:11.000Z</time>
      </trkpt>
      <trkpt lat="47.28368" lon="-2.3874">
        <ele>6.5999999046326</ele>
        <time>2020-06-28T10:03:15.000Z</time>
      </trkpt>
      <trkpt lat="47.28362" lon="-2.38741">
        <ele>6.5999999046326</ele>
        <time>2020-06-28T10:03:16.000Z</time>
      </trkpt>
      <trkpt lat="47.28328" lon="-2.38747">
        <ele>6.5999999046326</ele>
        <time>2020-06-28T10:03:23.000Z</time>
      </trkpt>
      <trkpt lat="47.28307" lon="-2.38747">
        <ele>6.5999999046326</ele>
        <time>2020-06-28T10:03:29.000Z</time>
      </trkpt>
      <trkpt lat="47.283" lon="-2.38735">
        <ele>6.5999999046326</ele>
        <time>2020-06-28T10:03:32.000Z</time>
      </trkpt>
      <trkpt lat="47.28285" lon="-2.38703">
        <ele>6.5999999046326</ele>
        <time>2020-06-28T10:03:38.000Z</time>
      </trkpt>
      <trkpt lat="47.28278" lon="-2.38695">
        <ele>7</ele>
        <time>2020-06-28T10:03:40.000Z</time>
      </trkpt>
      <trkpt lat="47.28275" lon="-2.38689">
        <ele>7.4000000953674</ele>
        <time>2020-06-28T10:03:41.000Z</time>
      </trkpt>
      <trkpt lat="47.28272" lon="-2.38682">
        <ele>7.8000001907349</ele>
        <time>2020-06-28T10:03:42.000Z</time>
      </trkpt>
      <trkpt lat="47.28271" lon="-2.38675">
        <ele>8.1999998092651</ele>
        <time>2020-06-28T10:03:43.000Z</time>
      </trkpt>
      <trkpt lat="47.28271" lon="-2.38667">
        <ele>8.6000003814697</ele>
        <time>2020-06-28T10:03:44.000Z</time>
      </trkpt>
      <trkpt lat="47.28271" lon="-2.38658">
        <ele>8.6000003814697</ele>
        <time>2020-06-28T10:03:45.000Z</time>
      </trkpt>
      <trkpt lat="47.28271" lon="-2.38649">
        <ele>8.6000003814697</ele>
        <time>2020-06-28T10:03:46.000Z</time>
      </trkpt>
      <trkpt lat="47.28272" lon="-2.38604">
        <ele>8.6000003814697</ele>
        <time>2020-06-28T10:03:51.000Z</time>
      </trkpt>
      <trkpt lat="47.28273" lon="-2.38594">
        <ele>8.6000003814697</ele>
        <time>2020-06-28T10:03:52.000Z</time>
      </trkpt>
      <trkpt lat="47.28271" lon="-2.38526">
        <ele>8.6000003814697</ele>
        <time>2020-06-28T10:03:59.000Z</time>
      </trkpt>
      <trkpt lat="47.28267" lon="-2.38496">
        <ele>8.6000003814697</ele>
        <time>2020-06-28T10:04:02.000Z</time>
      </trkpt>
      <trkpt lat="47.28262" lon="-2.38478">
        <ele>8.6000003814697</ele>
        <time>2020-06-28T10:04:04.000Z</time>
      </trkpt>
      <trkpt lat="47.28252" lon="-2.38456">
        <ele>8.6000003814697</ele>
        <time>2020-06-28T10:04:07.000Z</time>
      </trkpt>
      <trkpt lat="47.2825" lon="-2.38449">
        <ele>8.6000003814697</ele>
        <time>2020-06-28T10:04:08.000Z</time>
      </trkpt>
      <trkpt lat="47.28232" lon="-2.38397">
        <ele>8.6000003814697</ele>
        <time>2020-06-28T10:04:15.000Z</time>
      </trkpt>
      <trkpt lat="47.28217" lon="-2.38353">
        <ele>8.6000003814697</ele>
        <time>2020-06-28T10:04:20.000Z</time>
      </trkpt>
      <trkpt lat="47.28195" lon="-2.38291">
        <ele>8.6000003814697</ele>
        <time>2020-06-28T10:04:27.000Z</time>
      </trkpt>
      <trkpt lat="47.28186" lon="-2.38263">
        <ele>8.6000003814697</ele>
        <time>2020-06-28T10:04:31.000Z</time>
      </trkpt>
      <trkpt lat="47.28184" lon="-2.38256">
        <ele>8.6000003814697</ele>
        <time>2020-06-28T10:04:32.000Z</time>
      </trkpt>
      <trkpt lat="47.28179" lon="-2.38231">
        <ele>8.6000003814697</ele>
        <time>2020-06-28T10:04:36.000Z</time>
      </trkpt>
      <trkpt lat="47.28178" lon="-2.38225">
        <ele>8.6000003814697</ele>
        <time>2020-06-28T10:04:37.000Z</time>
      </trkpt>
      <trkpt lat="47.28178" lon="-2.38218">
        <ele>8.6000003814697</ele>
        <time>2020-06-28T10:04:38.000Z</time>
      </trkpt>
      <trkpt lat="47.28181" lon="-2.38196">
        <ele>8.6000003814697</ele>
        <time>2020-06-28T10:04:41.000Z</time>
      </trkpt>
      <trkpt lat="47.28184" lon="-2.38178">
        <ele>8.1999998092651</ele>
        <time>2020-06-28T10:04:43.000Z</time>
      </trkpt>
      <trkpt lat="47.28186" lon="-2.38168">
        <ele>7.8000001907349</ele>
        <time>2020-06-28T10:04:44.000Z</time>
      </trkpt>
      <trkpt lat="47.28187" lon="-2.38158">
        <ele>7.4000000953674</ele>
        <time>2020-06-28T10:04:45.000Z</time>
      </trkpt>
      <trkpt lat="47.28188" lon="-2.38149">
        <ele>7</ele>
        <time>2020-06-28T10:04:46.000Z</time>
      </trkpt>
      <trkpt lat="47.28188" lon="-2.38139">
        <ele>6.5999999046326</ele>
        <time>2020-06-28T10:04:47.000Z</time>
      </trkpt>
      <trkpt lat="47.28187" lon="-2.38121">
        <ele>6.5999999046326</ele>
        <time>2020-06-28T10:04:49.000Z</time>
      </trkpt>
      <trkpt lat="47.28185" lon="-2.38112">
        <ele>6.5999999046326</ele>
        <time>2020-06-28T10:04:50.000Z</time>
      </trkpt>
      <trkpt lat="47.2818" lon="-2.38096">
        <ele>6.5999999046326</ele>
        <time>2020-06-28T10:04:52.000Z</time>
      </trkpt>
      <trkpt lat="47.28173" lon="-2.38075">
        <ele>6.5999999046326</ele>
        <time>2020-06-28T10:04:55.000Z</time>
      </trkpt>
      <trkpt lat="47.28168" lon="-2.38058">
        <ele>6.5999999046326</ele>
        <time>2020-06-28T10:04:59.000Z</time>
      </trkpt>
      <trkpt lat="47.28163" lon="-2.3804">
        <ele>6.5999999046326</ele>
        <time>2020-06-28T10:05:05.000Z</time>
      </trkpt>
      <trkpt lat="47.2816" lon="-2.38011">
        <ele>6.5999999046326</ele>
        <time>2020-06-28T10:05:10.000Z</time>
      </trkpt>
      <trkpt lat="47.28152" lon="-2.3797">
        <ele>6.5999999046326</ele>
        <time>2020-06-28T10:05:15.000Z</time>
      </trkpt>
      <trkpt lat="47.28139" lon="-2.37954">
        <ele>7</ele>
        <time>2020-06-28T10:05:18.000Z</time>
      </trkpt>
      <trkpt lat="47.28134" lon="-2.37948">
        <ele>7.5999999046326</ele>
        <time>2020-06-28T10:05:19.000Z</time>
      </trkpt>
      <trkpt lat="47.28129" lon="-2.37942">
        <ele>8</ele>
        <time>2020-06-28T10:05:20.000Z</time>
      </trkpt>
      <trkpt lat="47.28124" lon="-2.37935">
        <ele>8.3999996185303</ele>
        <time>2020-06-28T10:05:21.000Z</time>
      </trkpt>
      <trkpt lat="47.2812" lon="-2.37929">
        <ele>8.8000001907349</ele>
        <time>2020-06-28T10:05:22.000Z</time>
      </trkpt>
      <trkpt lat="47.28116" lon="-2.37922">
        <ele>8.8000001907349</ele>
        <time>2020-06-28T10:05:23.000Z</time>
      </trkpt>
      <trkpt lat="47.28087" lon="-2.37878">
        <ele>8.8000001907349</ele>
        <time>2020-06-28T10:05:30.000Z</time>
      </trkpt>
      <trkpt lat="47.28059" lon="-2.37834">
        <ele>8.8000001907349</ele>
        <time>2020-06-28T10:05:37.000Z</time>
      </trkpt>
      <trkpt lat="47.2803" lon="-2.37788">
        <ele>8.8000001907349</ele>
        <time>2020-06-28T10:05:45.000Z</time>
      </trkpt>
      <trkpt lat="47.28016" lon="-2.37769">
        <ele>8.8000001907349</ele>
        <time>2020-06-28T10:05:50.000Z</time>
      </trkpt>
      <trkpt lat="47.28007" lon="-2.37751">
        <ele>8.8000001907349</ele>
        <time>2020-06-28T10:05:54.000Z</time>
      </trkpt>
      <trkpt lat="47.28004" lon="-2.37747">
        <ele>8.8000001907349</ele>
        <time>2020-06-28T10:05:55.000Z</time>
      </trkpt>
      <trkpt lat="47.27985" lon="-2.37717">
        <ele>8.8000001907349</ele>
        <time>2020-06-28T10:06:01.000Z</time>
      </trkpt>
      <trkpt lat="47.27972" lon="-2.37695">
        <ele>8.8000001907349</ele>
        <time>2020-06-28T10:06:07.000Z</time>
      </trkpt>
      <trkpt lat="47.2796" lon="-2.37692">
        <ele>8.8000001907349</ele>
        <time>2020-06-28T10:06:11.000Z</time>
      </trkpt>
      <trkpt lat="47.27959" lon="-2.3769">
        <ele>8.8000001907349</ele>
        <time>2020-06-28T10:06:13.000Z</time>
      </trkpt>
      <trkpt lat="47.27959" lon="-2.37689">
        <ele>8.8000001907349</ele>
        <time>2020-06-28T10:06:15.000Z</time>
      </trkpt>
      <trkpt lat="47.27957" lon="-2.37682">
        <ele>8.8000001907349</ele>
        <time>2020-06-28T10:06:20.000Z</time>
      </trkpt>
      <trkpt lat="47.27953" lon="-2.37673">
        <ele>8.8000001907349</ele>
        <time>2020-06-28T10:06:23.000Z</time>
      </trkpt>
      <trkpt lat="47.2795" lon="-2.37658">
        <ele>8.8000001907349</ele>
        <time>2020-06-28T10:06:29.000Z</time>
      </trkpt>
      <trkpt lat="47.27947" lon="-2.37657">
        <ele>8.8000001907349</ele>
        <time>2020-06-28T10:06:30.000Z</time>
      </trkpt>
      <trkpt lat="47.27942" lon="-2.3766">
        <ele>8.8000001907349</ele>
        <time>2020-06-28T10:06:32.000Z</time>
      </trkpt>
      <trkpt lat="47.27932" lon="-2.3766">
        <ele>8.8000001907349</ele>
        <time>2020-06-28T10:06:36.000Z</time>
      </trkpt>
      <trkpt lat="47.2793" lon="-2.37656">
        <ele>8.8000001907349</ele>
        <time>2020-06-28T10:06:37.000Z</time>
      </trkpt>
      <trkpt lat="47.27925" lon="-2.37633">
        <ele>8.8000001907349</ele>
        <time>2020-06-28T10:06:40.000Z</time>
      </trkpt>
      <trkpt lat="47.27924" lon="-2.37625">
        <ele>8.8000001907349</ele>
        <time>2020-06-28T10:06:41.000Z</time>
      </trkpt>
      <trkpt lat="47.27916" lon="-2.37588">
        <ele>8.8000001907349</ele>
        <time>2020-06-28T10:06:45.000Z</time>
      </trkpt>
      <trkpt lat="47.27902" lon="-2.37525">
        <ele>8.8000001907349</ele>
        <time>2020-06-28T10:06:51.000Z</time>
      </trkpt>
      <trkpt lat="47.27884" lon="-2.37448">
        <ele>8.8000001907349</ele>
        <time>2020-06-28T10:06:58.000Z</time>
      </trkpt>
      <trkpt lat="47.27866" lon="-2.3738">
        <ele>8.8000001907349</ele>
        <time>2020-06-28T10:07:04.000Z</time>
      </trkpt>
      <trkpt lat="47.27846" lon="-2.373">
        <ele>8.8000001907349</ele>
        <time>2020-06-28T10:07:11.000Z</time>
      </trkpt>
      <trkpt lat="47.27826" lon="-2.37228">
        <ele>8.8000001907349</ele>
        <time>2020-06-28T10:07:18.000Z</time>
      </trkpt>
      <trkpt lat="47.27825" lon="-2.3722">
        <ele>8.8000001907349</ele>
        <time>2020-06-28T10:07:19.000Z</time>
      </trkpt>
      <trkpt lat="47.27821" lon="-2.37205">
        <ele>8.8000001907349</ele>
        <time>2020-06-28T10:07:21.000Z</time>
      </trkpt>
      <trkpt lat="47.27817" lon="-2.37199">
        <ele>8.8000001907349</ele>
        <time>2020-06-28T10:07:22.000Z</time>
      </trkpt>
      <trkpt lat="47.27811" lon="-2.37167">
        <ele>8.8000001907349</ele>
        <time>2020-06-28T10:07:26.000Z</time>
      </trkpt>
      <trkpt lat="47.27804" lon="-2.3715">
        <ele>8.8000001907349</ele>
        <time>2020-06-28T10:07:28.000Z</time>
      </trkpt>
      <trkpt lat="47.27799" lon="-2.37131">
        <ele>8.8000001907349</ele>
        <time>2020-06-28T10:07:30.000Z</time>
      </trkpt>
      <trkpt lat="47.27785" lon="-2.3707">
        <ele>8.8000001907349</ele>
        <time>2020-06-28T10:07:36.000Z</time>
      </trkpt>
      <trkpt lat="47.27767" lon="-2.37001">
        <ele>8.8000001907349</ele>
        <time>2020-06-28T10:07:43.000Z</time>
      </trkpt>
      <trkpt lat="47.27744" lon="-2.36922">
        <ele>8.8000001907349</ele>
        <time>2020-06-28T10:07:51.000Z</time>
      </trkpt>
      <trkpt lat="47.27741" lon="-2.36912">
        <ele>8.8000001907349</ele>
        <time>2020-06-28T10:07:52.000Z</time>
      </trkpt>
      <trkpt lat="47.2772" lon="-2.36839">
        <ele>8.8000001907349</ele>
        <time>2020-06-28T10:07:59.000Z</time>
      </trkpt>
      <trkpt lat="47.27701" lon="-2.36772">
        <ele>8.8000001907349</ele>
        <time>2020-06-28T10:08:06.000Z</time>
      </trkpt>
      <trkpt lat="47.27683" lon="-2.36722">
        <ele>8.8000001907349</ele>
        <time>2020-06-28T10:08:12.000Z</time>
      </trkpt>
      <trkpt lat="47.27666" lon="-2.36674">
        <ele>8.8000001907349</ele>
        <time>2020-06-28T10:08:19.000Z</time>
      </trkpt>
      <trkpt lat="47.2766" lon="-2.36659">
        <ele>8.8000001907349</ele>
        <time>2020-06-28T10:08:24.000Z</time>
      </trkpt>
      <trkpt lat="47.27656" lon="-2.36648">
        <ele>8.8000001907349</ele>
        <time>2020-06-28T10:08:31.000Z</time>
      </trkpt>
      <trkpt lat="47.27651" lon="-2.36635">
        <ele>8.8000001907349</ele>
        <time>2020-06-28T10:08:36.000Z</time>
      </trkpt>
      <trkpt lat="47.27642" lon="-2.36605">
        <ele>8.8000001907349</ele>
        <time>2020-06-28T10:08:41.000Z</time>
      </trkpt>
      <trkpt lat="47.27625" lon="-2.36556">
        <ele>8.8000001907349</ele>
        <time>2020-06-28T10:08:47.000Z</time>
      </trkpt>
      <trkpt lat="47.27608" lon="-2.36508">
        <ele>8.8000001907349</ele>
        <time>2020-06-28T10:08:52.000Z</time>
      </trkpt>
      <trkpt lat="47.27581" lon="-2.36438">
        <ele>8.8000001907349</ele>
        <time>2020-06-28T10:09:00.000Z</time>
      </trkpt>
      <trkpt lat="47.27563" lon="-2.36387">
        <ele>8.8000001907349</ele>
        <time>2020-06-28T10:09:05.000Z</time>
      </trkpt>
      <trkpt lat="47.27541" lon="-2.36334">
        <ele>8.8000001907349</ele>
        <time>2020-06-28T10:09:10.000Z</time>
      </trkpt>
      <trkpt lat="47.27515" lon="-2.36264">
        <ele>8.8000001907349</ele>
        <time>2020-06-28T10:09:16.000Z</time>
      </trkpt>
      <trkpt lat="47.27486" lon="-2.36183">
        <ele>8.8000001907349</ele>
        <time>2020-06-28T10:09:23.000Z</time>
      </trkpt>
      <trkpt lat="47.27467" lon="-2.3614">
        <ele>8.8000001907349</ele>
        <time>2020-06-28T10:09:27.000Z</time>
      </trkpt>
      <trkpt lat="47.27465" lon="-2.36128">
        <ele>8.8000001907349</ele>
        <time>2020-06-28T10:09:28.000Z</time>
      </trkpt>
      <trkpt lat="47.27448" lon="-2.36086">
        <ele>8.8000001907349</ele>
        <time>2020-06-28T10:09:32.000Z</time>
      </trkpt>
      <trkpt lat="47.27425" lon="-2.36028">
        <ele>8.8000001907349</ele>
        <time>2020-06-28T10:09:37.000Z</time>
      </trkpt>
      <trkpt lat="47.27396" lon="-2.35959">
        <ele>8.8000001907349</ele>
        <time>2020-06-28T10:09:43.000Z</time>
      </trkpt>
      <trkpt lat="47.27391" lon="-2.35947">
        <ele>8.8000001907349</ele>
        <time>2020-06-28T10:09:44.000Z</time>
      </trkpt>
      <trkpt lat="47.27363" lon="-2.35874">
        <ele>8.8000001907349</ele>
        <time>2020-06-28T10:09:50.000Z</time>
      </trkpt>
      <trkpt lat="47.27354" lon="-2.35852">
        <ele>8.8000001907349</ele>
        <time>2020-06-28T10:09:52.000Z</time>
      </trkpt>
      <trkpt lat="47.27325" lon="-2.35775">
        <ele>8.8000001907349</ele>
        <time>2020-06-28T10:09:59.000Z</time>
      </trkpt>
      <trkpt lat="47.27318" lon="-2.35754">
        <ele>8.8000001907349</ele>
        <time>2020-06-28T10:10:01.000Z</time>
      </trkpt>
      <trkpt lat="47.27307" lon="-2.35737">
        <ele>8.8000001907349</ele>
        <time>2020-06-28T10:10:03.000Z</time>
      </trkpt>
      <trkpt lat="47.27292" lon="-2.35697">
        <ele>8.8000001907349</ele>
        <time>2020-06-28T10:10:07.000Z</time>
      </trkpt>
      <trkpt lat="47.27283" lon="-2.35679">
        <ele>8.8000001907349</ele>
        <time>2020-06-28T10:10:09.000Z</time>
      </trkpt>
      <trkpt lat="47.27272" lon="-2.35653">
        <ele>8.8000001907349</ele>
        <time>2020-06-28T10:10:12.000Z</time>
      </trkpt>
      <trkpt lat="47.27242" lon="-2.35585">
        <ele>8.8000001907349</ele>
        <time>2020-06-28T10:10:20.000Z</time>
      </trkpt>
      <trkpt lat="47.27231" lon="-2.35561">
        <ele>8.8000001907349</ele>
        <time>2020-06-28T10:10:23.000Z</time>
      </trkpt>
      <trkpt lat="47.27201" lon="-2.35498">
        <ele>8.8000001907349</ele>
        <time>2020-06-28T10:10:31.000Z</time>
      </trkpt>
      <trkpt lat="47.27175" lon="-2.35447">
        <ele>8.8000001907349</ele>
        <time>2020-06-28T10:10:37.000Z</time>
      </trkpt>
      <trkpt lat="47.27147" lon="-2.35395">
        <ele>8.8000001907349</ele>
        <time>2020-06-28T10:10:43.000Z</time>
      </trkpt>
      <trkpt lat="47.27114" lon="-2.35336">
        <ele>8.8000001907349</ele>
        <time>2020-06-28T10:10:50.000Z</time>
      </trkpt>
      <trkpt lat="47.27074" lon="-2.35275">
        <ele>8.8000001907349</ele>
        <time>2020-06-28T10:10:58.000Z</time>
      </trkpt>
      <trkpt lat="47.27036" lon="-2.35217">
        <ele>8.8000001907349</ele>
        <time>2020-06-28T10:11:06.000Z</time>
      </trkpt>
      <trkpt lat="47.27032" lon="-2.35209">
        <ele>8.8000001907349</ele>
        <time>2020-06-28T10:11:07.000Z</time>
      </trkpt>
      <trkpt lat="47.27004" lon="-2.35166">
        <ele>8.8000001907349</ele>
        <time>2020-06-28T10:11:13.000Z</time>
      </trkpt>
      <trkpt lat="47.26973" lon="-2.35117">
        <ele>8.8000001907349</ele>
        <time>2020-06-28T10:11:20.000Z</time>
      </trkpt>
      <trkpt lat="47.26941" lon="-2.35069">
        <ele>8.8000001907349</ele>
        <time>2020-06-28T10:11:27.000Z</time>
      </trkpt>
      <trkpt lat="47.2691" lon="-2.35022">
        <ele>8.8000001907349</ele>
        <time>2020-06-28T10:11:34.000Z</time>
      </trkpt>
      <trkpt lat="47.26878" lon="-2.34976">
        <ele>8.8000001907349</ele>
        <time>2020-06-28T10:11:41.000Z</time>
      </trkpt>
      <trkpt lat="47.26844" lon="-2.34925">
        <ele>8.8000001907349</ele>
        <time>2020-06-28T10:11:48.000Z</time>
      </trkpt>
      <trkpt lat="47.26805" lon="-2.34868">
        <ele>8.8000001907349</ele>
        <time>2020-06-28T10:11:56.000Z</time>
      </trkpt>
      <trkpt lat="47.26778" lon="-2.34829">
        <ele>8.3999996185303</ele>
        <time>2020-06-28T10:12:02.000Z</time>
      </trkpt>
      <trkpt lat="47.26774" lon="-2.34823">
        <ele>8</ele>
        <time>2020-06-28T10:12:03.000Z</time>
      </trkpt>
      <trkpt lat="47.26769" lon="-2.34816">
        <ele>7.5999999046326</ele>
        <time>2020-06-28T10:12:04.000Z</time>
      </trkpt>
      <trkpt lat="47.26764" lon="-2.34811">
        <ele>7.1999998092651</ele>
        <time>2020-06-28T10:12:05.000Z</time>
      </trkpt>
      <trkpt lat="47.26759" lon="-2.34805">
        <ele>6.8000001907349</ele>
        <time>2020-06-28T10:12:06.000Z</time>
      </trkpt>
      <trkpt lat="47.26755" lon="-2.34798">
        <ele>6.8000001907349</ele>
        <time>2020-06-28T10:12:07.000Z</time>
      </trkpt>
      <trkpt lat="47.2674" lon="-2.34779">
        <ele>6.8000001907349</ele>
        <time>2020-06-28T10:12:10.000Z</time>
      </trkpt>
      <trkpt lat="47.26698" lon="-2.34728">
        <ele>6.8000001907349</ele>
        <time>2020-06-28T10:12:18.000Z</time>
      </trkpt>
      <trkpt lat="47.26653" lon="-2.34674">
        <ele>6.8000001907349</ele>
        <time>2020-06-28T10:12:26.000Z</time>
      </trkpt>
      <trkpt lat="47.26616" lon="-2.34625">
        <ele>6.8000001907349</ele>
        <time>2020-06-28T10:12:33.000Z</time>
      </trkpt>
      <trkpt lat="47.26586" lon="-2.3459">
        <ele>6.8000001907349</ele>
        <time>2020-06-28T10:12:39.000Z</time>
      </trkpt>
      <trkpt lat="47.26542" lon="-2.34545">
        <ele>6.8000001907349</ele>
        <time>2020-06-28T10:12:47.000Z</time>
      </trkpt>
      <trkpt lat="47.26501" lon="-2.34511">
        <ele>6.8000001907349</ele>
        <time>2020-06-28T10:12:54.000Z</time>
      </trkpt>
      <trkpt lat="47.26449" lon="-2.34473">
        <ele>6.8000001907349</ele>
        <time>2020-06-28T10:13:02.000Z</time>
      </trkpt>
      <trkpt lat="47.2641" lon="-2.34444">
        <ele>6.8000001907349</ele>
        <time>2020-06-28T10:13:08.000Z</time>
      </trkpt>
      <trkpt lat="47.26365" lon="-2.34407">
        <ele>6.8000001907349</ele>
        <time>2020-06-28T10:13:15.000Z</time>
      </trkpt>
      <trkpt lat="47.26328" lon="-2.34381">
        <ele>6.8000001907349</ele>
        <time>2020-06-28T10:13:21.000Z</time>
      </trkpt>
      <trkpt lat="47.26322" lon="-2.34378">
        <ele>6.8000001907349</ele>
        <time>2020-06-28T10:13:22.000Z</time>
      </trkpt>
      <trkpt lat="47.26311" lon="-2.34358">
        <ele>6.8000001907349</ele>
        <time>2020-06-28T10:13:25.000Z</time>
      </trkpt>
      <trkpt lat="47.26305" lon="-2.34352">
        <ele>6.8000001907349</ele>
        <time>2020-06-28T10:13:26.000Z</time>
      </trkpt>
      <trkpt lat="47.26293" lon="-2.3434">
        <ele>6.8000001907349</ele>
        <time>2020-06-28T10:13:28.000Z</time>
      </trkpt>
      <trkpt lat="47.26252" lon="-2.34296">
        <ele>6.8000001907349</ele>
        <time>2020-06-28T10:13:35.000Z</time>
      </trkpt>
      <trkpt lat="47.2621" lon="-2.34252">
        <ele>6.8000001907349</ele>
        <time>2020-06-28T10:13:43.000Z</time>
      </trkpt>
      <trkpt lat="47.26167" lon="-2.34209">
        <ele>6.8000001907349</ele>
        <time>2020-06-28T10:13:51.000Z</time>
      </trkpt>
      <trkpt lat="47.26147" lon="-2.3419">
        <ele>6.8000001907349</ele>
        <time>2020-06-28T10:13:55.000Z</time>
      </trkpt>
      <trkpt lat="47.26135" lon="-2.34183">
        <ele>6.8000001907349</ele>
        <time>2020-06-28T10:13:57.000Z</time>
      </trkpt>
      <trkpt lat="47.2612" lon="-2.3417">
        <ele>6.8000001907349</ele>
        <time>2020-06-28T10:14:00.000Z</time>
      </trkpt>
      <trkpt lat="47.26114" lon="-2.34166">
        <ele>6.8000001907349</ele>
        <time>2020-06-28T10:14:01.000Z</time>
      </trkpt>
      <trkpt lat="47.26083" lon="-2.34149">
        <ele>6.8000001907349</ele>
        <time>2020-06-28T10:14:06.000Z</time>
      </trkpt>
      <trkpt lat="47.26043" lon="-2.34128">
        <ele>6.8000001907349</ele>
        <time>2020-06-28T10:14:13.000Z</time>
      </trkpt>
      <trkpt lat="47.26007" lon="-2.3411">
        <ele>6.8000001907349</ele>
        <time>2020-06-28T10:14:20.000Z</time>
      </trkpt>
      <trkpt lat="47.25971" lon="-2.34092">
        <ele>6.8000001907349</ele>
        <time>2020-06-28T10:14:27.000Z</time>
      </trkpt>
      <trkpt lat="47.25931" lon="-2.34076">
        <ele>6.8000001907349</ele>
        <time>2020-06-28T10:14:35.000Z</time>
      </trkpt>
      <trkpt lat="47.25925" lon="-2.34075">
        <ele>6.8000001907349</ele>
        <time>2020-06-28T10:14:36.000Z</time>
      </trkpt>
      <trkpt lat="47.25909" lon="-2.34081">
        <ele>6.8000001907349</ele>
        <time>2020-06-28T10:14:39.000Z</time>
      </trkpt>
      <trkpt lat="47.25897" lon="-2.34101">
        <ele>6.8000001907349</ele>
        <time>2020-06-28T10:14:42.000Z</time>
      </trkpt>
      <trkpt lat="47.25893" lon="-2.34108">
        <ele>6.8000001907349</ele>
        <time>2020-06-28T10:14:43.000Z</time>
      </trkpt>
      <trkpt lat="47.25881" lon="-2.34139">
        <ele>6.8000001907349</ele>
        <time>2020-06-28T10:14:47.000Z</time>
      </trkpt>
      <trkpt lat="47.25879" lon="-2.34147">
        <ele>6.8000001907349</ele>
        <time>2020-06-28T10:14:48.000Z</time>
      </trkpt>
      <trkpt lat="47.25872" lon="-2.34166">
        <ele>6.8000001907349</ele>
        <time>2020-06-28T10:14:52.000Z</time>
      </trkpt>
      <trkpt lat="47.25863" lon="-2.34163">
        <ele>6.8000001907349</ele>
        <time>2020-06-28T10:14:55.000Z</time>
      </trkpt>
      <trkpt lat="47.25845" lon="-2.34156">
        <ele>6.8000001907349</ele>
        <time>2020-06-28T10:15:00.000Z</time>
      </trkpt>
      <trkpt lat="47.25836" lon="-2.34155">
        <ele>6.8000001907349</ele>
        <time>2020-06-28T10:15:04.000Z</time>
      </trkpt>
      <trkpt lat="47.25833" lon="-2.34169">
        <ele>6.8000001907349</ele>
        <time>2020-06-28T10:15:08.000Z</time>
      </trkpt>
      <trkpt lat="47.25827" lon="-2.34175">
        <ele>6.8000001907349</ele>
        <time>2020-06-28T10:15:10.000Z</time>
      </trkpt>
      <trkpt lat="47.25823" lon="-2.34175">
        <ele>6.8000001907349</ele>
        <time>2020-06-28T10:15:11.000Z</time>
      </trkpt>
      <trkpt lat="47.25797" lon="-2.34171">
        <ele>6.8000001907349</ele>
        <time>2020-06-28T10:15:17.000Z</time>
      </trkpt>
      <trkpt lat="47.25792" lon="-2.34171">
        <ele>6.8000001907349</ele>
        <time>2020-06-28T10:15:18.000Z</time>
      </trkpt>
      <trkpt lat="47.25776" lon="-2.34175">
        <ele>6.8000001907349</ele>
        <time>2020-06-28T10:15:21.000Z</time>
      </trkpt>
      <trkpt lat="47.25739" lon="-2.34182">
        <ele>6.8000001907349</ele>
        <time>2020-06-28T10:15:27.000Z</time>
      </trkpt>
      <trkpt lat="47.257" lon="-2.3419">
        <ele>6.8000001907349</ele>
        <time>2020-06-28T10:15:33.000Z</time>
      </trkpt>
      <trkpt lat="47.25682" lon="-2.34191">
        <ele>6.8000001907349</ele>
        <time>2020-06-28T10:15:36.000Z</time>
      </trkpt>
      <trkpt lat="47.25671" lon="-2.34185">
        <ele>6.8000001907349</ele>
        <time>2020-06-28T10:15:38.000Z</time>
      </trkpt>
      <trkpt lat="47.25659" lon="-2.34165">
        <ele>6.8000001907349</ele>
        <time>2020-06-28T10:15:41.000Z</time>
      </trkpt>
      <trkpt lat="47.25656" lon="-2.34158">
        <ele>6.8000001907349</ele>
        <time>2020-06-28T10:15:42.000Z</time>
      </trkpt>
      <trkpt lat="47.25645" lon="-2.34136">
        <ele>6.8000001907349</ele>
        <time>2020-06-28T10:15:45.000Z</time>
      </trkpt>
      <trkpt lat="47.25641" lon="-2.34121">
        <ele>6.8000001907349</ele>
        <time>2020-06-28T10:15:47.000Z</time>
      </trkpt>
      <trkpt lat="47.25639" lon="-2.34104">
        <ele>6.8000001907349</ele>
        <time>2020-06-28T10:15:49.000Z</time>
      </trkpt>
      <trkpt lat="47.25639" lon="-2.34077">
        <ele>6.8000001907349</ele>
        <time>2020-06-28T10:15:52.000Z</time>
      </trkpt>
      <trkpt lat="47.25648" lon="-2.34022">
        <ele>6.8000001907349</ele>
        <time>2020-06-28T10:15:58.000Z</time>
      </trkpt>
      <trkpt lat="47.25654" lon="-2.33995">
        <ele>7.1999998092651</ele>
        <time>2020-06-28T10:16:01.000Z</time>
      </trkpt>
      <trkpt lat="47.25655" lon="-2.33986">
        <ele>7.5999999046326</ele>
        <time>2020-06-28T10:16:02.000Z</time>
      </trkpt>
      <trkpt lat="47.25657" lon="-2.33977">
        <ele>8</ele>
        <time>2020-06-28T10:16:03.000Z</time>
      </trkpt>
      <trkpt lat="47.25659" lon="-2.33968">
        <ele>8.3999996185303</ele>
        <time>2020-06-28T10:16:04.000Z</time>
      </trkpt>
      <trkpt lat="47.2566" lon="-2.33958">
        <ele>8.8000001907349</ele>
        <time>2020-06-28T10:16:05.000Z</time>
      </trkpt>
      <trkpt lat="47.2566" lon="-2.33949">
        <ele>8.8000001907349</ele>
        <time>2020-06-28T10:16:06.000Z</time>
      </trkpt>
      <trkpt lat="47.25658" lon="-2.3393">
        <ele>8.8000001907349</ele>
        <time>2020-06-28T10:16:08.000Z</time>
      </trkpt>
      <trkpt lat="47.25654" lon="-2.33912">
        <ele>8.8000001907349</ele>
        <time>2020-06-28T10:16:10.000Z</time>
      </trkpt>
      <trkpt lat="47.25651" lon="-2.33885">
        <ele>8.8000001907349</ele>
        <time>2020-06-28T10:16:13.000Z</time>
      </trkpt>
      <trkpt lat="47.25642" lon="-2.33851">
        <ele>8.8000001907349</ele>
        <time>2020-06-28T10:16:17.000Z</time>
      </trkpt>
      <trkpt lat="47.25634" lon="-2.33797">
        <ele>8.8000001907349</ele>
        <time>2020-06-28T10:16:23.000Z</time>
      </trkpt>
      <trkpt lat="47.25627" lon="-2.33776">
        <ele>8.8000001907349</ele>
        <time>2020-06-28T10:16:26.000Z</time>
      </trkpt>
      <trkpt lat="47.25621" lon="-2.33765">
        <ele>8.8000001907349</ele>
        <time>2020-06-28T10:16:28.000Z</time>
      </trkpt>
      <trkpt lat="47.25598" lon="-2.33754">
        <ele>8.8000001907349</ele>
        <time>2020-06-28T10:16:33.000Z</time>
      </trkpt>
      <trkpt lat="47.25588" lon="-2.33754">
        <ele>8.8000001907349</ele>
        <time>2020-06-28T10:16:35.000Z</time>
      </trkpt>
      <trkpt lat="47.25583" lon="-2.33755">
        <ele>8.8000001907349</ele>
        <time>2020-06-28T10:16:36.000Z</time>
      </trkpt>
      <trkpt lat="47.25567" lon="-2.33757">
        <ele>8.8000001907349</ele>
        <time>2020-06-28T10:16:39.000Z</time>
      </trkpt>
      <trkpt lat="47.25534" lon="-2.33758">
        <ele>8.8000001907349</ele>
        <time>2020-06-28T10:16:45.000Z</time>
      </trkpt>
      <trkpt lat="47.255" lon="-2.33758">
        <ele>8.8000001907349</ele>
        <time>2020-06-28T10:16:51.000Z</time>
      </trkpt>
      <trkpt lat="47.2548" lon="-2.33755">
        <ele>8.8000001907349</ele>
        <time>2020-06-28T10:16:54.000Z</time>
      </trkpt>
      <trkpt lat="47.25467" lon="-2.33749">
        <ele>8.8000001907349</ele>
        <time>2020-06-28T10:16:56.000Z</time>
      </trkpt>
      <trkpt lat="47.25455" lon="-2.33733">
        <ele>8.8000001907349</ele>
        <time>2020-06-28T10:16:59.000Z</time>
      </trkpt>
      <trkpt lat="47.25452" lon="-2.33716">
        <ele>8.8000001907349</ele>
        <time>2020-06-28T10:17:01.000Z</time>
      </trkpt>
      <trkpt lat="47.2545" lon="-2.33702">
        <ele>8.8000001907349</ele>
        <time>2020-06-28T10:17:03.000Z</time>
      </trkpt>
      <trkpt lat="47.25446" lon="-2.33667">
        <ele>8.8000001907349</ele>
        <time>2020-06-28T10:17:09.000Z</time>
      </trkpt>
      <trkpt lat="47.25445" lon="-2.33655">
        <ele>8.8000001907349</ele>
        <time>2020-06-28T10:17:11.000Z</time>
      </trkpt>
      <trkpt lat="47.25442" lon="-2.33636">
        <ele>8.3999996185303</ele>
        <time>2020-06-28T10:17:14.000Z</time>
      </trkpt>
      <trkpt lat="47.25441" lon="-2.33629">
        <ele>8</ele>
        <time>2020-06-28T10:17:15.000Z</time>
      </trkpt>
      <trkpt lat="47.25441" lon="-2.33622">
        <ele>7.5999999046326</ele>
        <time>2020-06-28T10:17:16.000Z</time>
      </trkpt>
      <trkpt lat="47.2544" lon="-2.33615">
        <ele>7.1999998092651</ele>
        <time>2020-06-28T10:17:17.000Z</time>
      </trkpt>
      <trkpt lat="47.2544" lon="-2.33609">
        <ele>6.8000001907349</ele>
        <time>2020-06-28T10:17:18.000Z</time>
      </trkpt>
      <trkpt lat="47.25441" lon="-2.33587">
        <ele>6.8000001907349</ele>
        <time>2020-06-28T10:17:22.000Z</time>
      </trkpt>
      <trkpt lat="47.25451" lon="-2.3358">
        <ele>6.8000001907349</ele>
        <time>2020-06-28T10:17:25.000Z</time>
      </trkpt>
      <trkpt lat="47.25457" lon="-2.33575">
        <ele>6.8000001907349</ele>
        <time>2020-06-28T10:17:27.000Z</time>
      </trkpt>
      <trkpt lat="47.25457" lon="-2.3357">
        <ele>6.8000001907349</ele>
        <time>2020-06-28T10:17:28.000Z</time>
      </trkpt>
      <trkpt lat="47.2545" lon="-2.33536">
        <ele>6.8000001907349</ele>
        <time>2020-06-28T10:17:34.000Z</time>
      </trkpt>
      <trkpt lat="47.25441" lon="-2.33498">
        <ele>6.8000001907349</ele>
        <time>2020-06-28T10:17:40.000Z</time>
      </trkpt>
      <trkpt lat="47.25434" lon="-2.3347">
        <ele>6.8000001907349</ele>
        <time>2020-06-28T10:17:45.000Z</time>
      </trkpt>
      <trkpt lat="47.25434" lon="-2.33469">
        <ele>6.8000001907349</ele>
        <time>2020-06-28T10:17:46.000Z</time>
      </trkpt>
      <trkpt lat="47.25433" lon="-2.33466">
        <ele>6.8000001907349</ele>
        <time>2020-06-28T10:17:48.000Z</time>
      </trkpt>
      <trkpt lat="47.25433" lon="-2.33458">
        <ele>6.8000001907349</ele>
        <time>2020-06-28T10:17:50.000Z</time>
      </trkpt>
      <trkpt lat="47.25433" lon="-2.33452">
        <ele>6.8000001907349</ele>
        <time>2020-06-28T10:17:51.000Z</time>
      </trkpt>
      <trkpt lat="47.25433" lon="-2.3343">
        <ele>6.8000001907349</ele>
        <time>2020-06-28T10:17:54.000Z</time>
      </trkpt>
      <trkpt lat="47.25432" lon="-2.33422">
        <ele>6.8000001907349</ele>
        <time>2020-06-28T10:17:55.000Z</time>
      </trkpt>
      <trkpt lat="47.2543" lon="-2.33379">
        <ele>6.8000001907349</ele>
        <time>2020-06-28T10:18:00.000Z</time>
      </trkpt>
      <trkpt lat="47.25431" lon="-2.33351">
        <ele>6.8000001907349</ele>
        <time>2020-06-28T10:18:03.000Z</time>
      </trkpt>
      <trkpt lat="47.25436" lon="-2.33335">
        <ele>6.8000001907349</ele>
        <time>2020-06-28T10:18:05.000Z</time>
      </trkpt>
      <trkpt lat="47.25448" lon="-2.33296">
        <ele>6.8000001907349</ele>
        <time>2020-06-28T10:18:10.000Z</time>
      </trkpt>
      <trkpt lat="47.25448" lon="-2.33287">
        <ele>6.8000001907349</ele>
        <time>2020-06-28T10:18:11.000Z</time>
      </trkpt>
      <trkpt lat="47.25443" lon="-2.33264">
        <ele>6.8000001907349</ele>
        <time>2020-06-28T10:18:14.000Z</time>
      </trkpt>
      <trkpt lat="47.2544" lon="-2.33258">
        <ele>6.8000001907349</ele>
        <time>2020-06-28T10:18:15.000Z</time>
      </trkpt>
      <trkpt lat="47.25424" lon="-2.33222">
        <ele>6.8000001907349</ele>
        <time>2020-06-28T10:18:21.000Z</time>
      </trkpt>
      <trkpt lat="47.25421" lon="-2.33216">
        <ele>6.8000001907349</ele>
        <time>2020-06-28T10:18:22.000Z</time>
      </trkpt>
      <trkpt lat="47.25403" lon="-2.33173">
        <ele>6.8000001907349</ele>
        <time>2020-06-28T10:18:29.000Z</time>
      </trkpt>
      <trkpt lat="47.25389" lon="-2.33146">
        <ele>6.8000001907349</ele>
        <time>2020-06-28T10:18:35.000Z</time>
      </trkpt>
      <trkpt lat="47.25379" lon="-2.3312">
        <ele>6.8000001907349</ele>
        <time>2020-06-28T10:18:42.000Z</time>
      </trkpt>
      <trkpt lat="47.25369" lon="-2.33101">
        <ele>6.8000001907349</ele>
        <time>2020-06-28T10:18:47.000Z</time>
      </trkpt>
      <trkpt lat="47.25361" lon="-2.33087">
        <ele>6.8000001907349</ele>
        <time>2020-06-28T10:18:52.000Z</time>
      </trkpt>
      <trkpt lat="47.2536" lon="-2.33085">
        <ele>6.8000001907349</ele>
        <time>2020-06-28T10:18:54.000Z</time>
      </trkpt>
      <trkpt lat="47.25371" lon="-2.33113">
        <ele>6.8000001907349</ele>
        <time>2020-06-28T10:20:44.000Z</time>
      </trkpt>
      <trkpt lat="47.25375" lon="-2.33126">
        <ele>6.8000001907349</ele>
        <time>2020-06-28T10:20:51.000Z</time>
      </trkpt>
      <trkpt lat="47.25374" lon="-2.33128">
        <ele>6.8000001907349</ele>
        <time>2020-06-28T10:20:52.000Z</time>
      </trkpt>
      <trkpt lat="47.25372" lon="-2.33131">
        <ele>6.8000001907349</ele>
        <time>2020-06-28T10:20:55.000Z</time>
      </trkpt>
      <trkpt lat="47.2537" lon="-2.33133">
        <ele>6.8000001907349</ele>
        <time>2020-06-28T10:20:58.000Z</time>
      </trkpt>
      <trkpt lat="47.25366" lon="-2.33136">
        <ele>6.8000001907349</ele>
        <time>2020-06-28T10:21:04.000Z</time>
      </trkpt>
      <trkpt lat="47.25365" lon="-2.33136">
        <ele>6.8000001907349</ele>
        <time>2020-06-28T10:21:05.000Z</time>
      </trkpt>
      <trkpt lat="47.25373" lon="-2.33131">
        <ele>9</ele>
        <time>2020-06-28T11:00:19.000Z</time>
      </trkpt>
      <trkpt lat="47.25374" lon="-2.33124">
        <ele>9</ele>
        <time>2020-06-28T11:00:21.000Z</time>
      </trkpt>
      <trkpt lat="47.25366" lon="-2.33101">
        <ele>9</ele>
        <time>2020-06-28T11:00:26.000Z</time>
      </trkpt>
      <trkpt lat="47.25361" lon="-2.33087">
        <ele>9.3999996185303</ele>
        <time>2020-06-28T11:00:28.000Z</time>
      </trkpt>
      <trkpt lat="47.25359" lon="-2.3308">
        <ele>9.8000001907349</ele>
        <time>2020-06-28T11:00:29.000Z</time>
      </trkpt>
      <trkpt lat="47.25357" lon="-2.33073">
        <ele>10.199999809265</ele>
        <time>2020-06-28T11:00:30.000Z</time>
      </trkpt>
      <trkpt lat="47.25354" lon="-2.33067">
        <ele>10.60000038147</ele>
        <time>2020-06-28T11:00:31.000Z</time>
      </trkpt>
      <trkpt lat="47.25351" lon="-2.3306">
        <ele>11</ele>
        <time>2020-06-28T11:00:32.000Z</time>
      </trkpt>
      <trkpt lat="47.25331" lon="-2.33006">
        <ele>11</ele>
        <time>2020-06-28T11:00:40.000Z</time>
      </trkpt>
      <trkpt lat="47.25318" lon="-2.32973">
        <ele>11</ele>
        <time>2020-06-28T11:00:45.000Z</time>
      </trkpt>
      <trkpt lat="47.25313" lon="-2.32959">
        <ele>11</ele>
        <time>2020-06-28T11:00:47.000Z</time>
      </trkpt>
      <trkpt lat="47.25307" lon="-2.32938">
        <ele>11</ele>
        <time>2020-06-28T11:00:50.000Z</time>
      </trkpt>
      <trkpt lat="47.25309" lon="-2.32924">
        <ele>11</ele>
        <time>2020-06-28T11:00:52.000Z</time>
      </trkpt>
      <trkpt lat="47.2532" lon="-2.3291">
        <ele>11</ele>
        <time>2020-06-28T11:00:55.000Z</time>
      </trkpt>
      <trkpt lat="47.25354" lon="-2.32877">
        <ele>11</ele>
        <time>2020-06-28T11:01:03.000Z</time>
      </trkpt>
      <trkpt lat="47.25393" lon="-2.32835">
        <ele>11</ele>
        <time>2020-06-28T11:01:12.000Z</time>
      </trkpt>
      <trkpt lat="47.25405" lon="-2.3282">
        <ele>11</ele>
        <time>2020-06-28T11:01:15.000Z</time>
      </trkpt>
      <trkpt lat="47.25412" lon="-2.32809">
        <ele>11</ele>
        <time>2020-06-28T11:01:17.000Z</time>
      </trkpt>
      <trkpt lat="47.25425" lon="-2.32788">
        <ele>11</ele>
        <time>2020-06-28T11:01:21.000Z</time>
      </trkpt>
      <trkpt lat="47.25428" lon="-2.32776">
        <ele>11</ele>
        <time>2020-06-28T11:01:23.000Z</time>
      </trkpt>
      <trkpt lat="47.25431" lon="-2.32771">
        <ele>11.39999961853</ele>
        <time>2020-06-28T11:01:24.000Z</time>
      </trkpt>
      <trkpt lat="47.25434" lon="-2.32768">
        <ele>11.800000190735</ele>
        <time>2020-06-28T11:01:25.000Z</time>
      </trkpt>
      <trkpt lat="47.25437" lon="-2.32763">
        <ele>12.60000038147</ele>
        <time>2020-06-28T11:01:26.000Z</time>
      </trkpt>
      <trkpt lat="47.2544" lon="-2.32759">
        <ele>13</ele>
        <time>2020-06-28T11:01:27.000Z</time>
      </trkpt>
      <trkpt lat="47.25454" lon="-2.32741">
        <ele>13</ele>
        <time>2020-06-28T11:01:31.000Z</time>
      </trkpt>
      <trkpt lat="47.25473" lon="-2.32716">
        <ele>13</ele>
        <time>2020-06-28T11:01:37.000Z</time>
      </trkpt>
      <trkpt lat="47.25479" lon="-2.32707">
        <ele>13</ele>
        <time>2020-06-28T11:01:39.000Z</time>
      </trkpt>
      <trkpt lat="47.25487" lon="-2.32691">
        <ele>13</ele>
        <time>2020-06-28T11:01:42.000Z</time>
      </trkpt>
      <trkpt lat="47.2549" lon="-2.32663">
        <ele>13</ele>
        <time>2020-06-28T11:01:46.000Z</time>
      </trkpt>
      <trkpt lat="47.25487" lon="-2.32641">
        <ele>13</ele>
        <time>2020-06-28T11:01:49.000Z</time>
      </trkpt>
      <trkpt lat="47.25485" lon="-2.32627">
        <ele>13</ele>
        <time>2020-06-28T11:01:51.000Z</time>
      </trkpt>
      <trkpt lat="47.25478" lon="-2.32592">
        <ele>13</ele>
        <time>2020-06-28T11:01:56.000Z</time>
      </trkpt>
      <trkpt lat="47.25479" lon="-2.32578">
        <ele>13</ele>
        <time>2020-06-28T11:01:58.000Z</time>
      </trkpt>
      <trkpt lat="47.2548" lon="-2.32571">
        <ele>13.39999961853</ele>
        <time>2020-06-28T11:01:59.000Z</time>
      </trkpt>
      <trkpt lat="47.25482" lon="-2.32565">
        <ele>13.800000190735</ele>
        <time>2020-06-28T11:02:00.000Z</time>
      </trkpt>
      <trkpt lat="47.25485" lon="-2.3256">
        <ele>14.39999961853</ele>
        <time>2020-06-28T11:02:01.000Z</time>
      </trkpt>
      <trkpt lat="47.25488" lon="-2.32555">
        <ele>14.800000190735</ele>
        <time>2020-06-28T11:02:02.000Z</time>
      </trkpt>
      <trkpt lat="47.25492" lon="-2.32551">
        <ele>15.199999809265</ele>
        <time>2020-06-28T11:02:03.000Z</time>
      </trkpt>
      <trkpt lat="47.255" lon="-2.32543">
        <ele>15.199999809265</ele>
        <time>2020-06-28T11:02:05.000Z</time>
      </trkpt>
      <trkpt lat="47.2551" lon="-2.32535">
        <ele>15.199999809265</ele>
        <time>2020-06-28T11:02:07.000Z</time>
      </trkpt>
      <trkpt lat="47.25534" lon="-2.3251">
        <ele>15.199999809265</ele>
        <time>2020-06-28T11:02:12.000Z</time>
      </trkpt>
      <trkpt lat="47.25551" lon="-2.32494">
        <ele>14.800000190735</ele>
        <time>2020-06-28T11:02:15.000Z</time>
      </trkpt>
      <trkpt lat="47.25557" lon="-2.32489">
        <ele>14.39999961853</ele>
        <time>2020-06-28T11:02:16.000Z</time>
      </trkpt>
      <trkpt lat="47.25563" lon="-2.32483">
        <ele>14</ele>
        <time>2020-06-28T11:02:17.000Z</time>
      </trkpt>
      <trkpt lat="47.25569" lon="-2.32477">
        <ele>13.60000038147</ele>
        <time>2020-06-28T11:02:18.000Z</time>
      </trkpt>
      <trkpt lat="47.25576" lon="-2.3247">
        <ele>13.199999809265</ele>
        <time>2020-06-28T11:02:20.000Z</time>
      </trkpt>
      <trkpt lat="47.25622" lon="-2.32421">
        <ele>12.60000038147</ele>
        <time>2020-06-28T11:02:27.000Z</time>
      </trkpt>
      <trkpt lat="47.25629" lon="-2.32414">
        <ele>12.199999809265</ele>
        <time>2020-06-28T11:02:28.000Z</time>
      </trkpt>
      <trkpt lat="47.25636" lon="-2.32408">
        <ele>11.60000038147</ele>
        <time>2020-06-28T11:02:29.000Z</time>
      </trkpt>
      <trkpt lat="47.25643" lon="-2.32404">
        <ele>11.199999809265</ele>
        <time>2020-06-28T11:02:30.000Z</time>
      </trkpt>
      <trkpt lat="47.2565" lon="-2.324">
        <ele>10.800000190735</ele>
        <time>2020-06-28T11:02:31.000Z</time>
      </trkpt>
      <trkpt lat="47.25656" lon="-2.32399">
        <ele>10.199999809265</ele>
        <time>2020-06-28T11:02:32.000Z</time>
      </trkpt>
      <trkpt lat="47.25662" lon="-2.32399">
        <ele>9.6000003814697</ele>
        <time>2020-06-28T11:02:33.000Z</time>
      </trkpt>
      <trkpt lat="47.25666" lon="-2.32401">
        <ele>9.1999998092651</ele>
        <time>2020-06-28T11:02:34.000Z</time>
      </trkpt>
      <trkpt lat="47.2567" lon="-2.32406">
        <ele>8.6000003814697</ele>
        <time>2020-06-28T11:02:35.000Z</time>
      </trkpt>
      <trkpt lat="47.25674" lon="-2.32411">
        <ele>8.6000003814697</ele>
        <time>2020-06-28T11:02:36.000Z</time>
      </trkpt>
      <trkpt lat="47.25678" lon="-2.32415">
        <ele>8.6000003814697</ele>
        <time>2020-06-28T11:02:37.000Z</time>
      </trkpt>
      <trkpt lat="47.25682" lon="-2.32418">
        <ele>8.6000003814697</ele>
        <time>2020-06-28T11:02:38.000Z</time>
      </trkpt>
      <trkpt lat="47.25688" lon="-2.32419">
        <ele>8.6000003814697</ele>
        <time>2020-06-28T11:02:39.000Z</time>
      </trkpt>
      <trkpt lat="47.25698" lon="-2.3242">
        <ele>7.8000001907349</ele>
        <time>2020-06-28T11:02:41.000Z</time>
      </trkpt>
      <trkpt lat="47.25704" lon="-2.3242">
        <ele>7.1999998092651</ele>
        <time>2020-06-28T11:02:42.000Z</time>
      </trkpt>
    </trkseg>
  </trk>
</gpx>